<?xml version="1.0" encoding="UTF-8" standalone="no" ?>
<gpx xmlns="http://www.topografix.com/GPX/1/1" xmlns:xsi="http://www.w3.org/2001/XMLSchema-instance" xsi:schemaLocation="http://www.topografix.com/GPX/1/1 http://www.topografix.com/GPX/1/1/gpx.xsd" version="1.1" creator="VisuGPX - https://www.visugpx.com">
  <metadata>
    <name>RoadTrip Moto Ecosse Juin 2021</name>
  </metadata>
  <trk>
    <name><![CDATA[J03 - Oban Youth Hostel, Oban - Bishops Walk, Baile Mòr]]></name>
    <trkseg>
      <trkpt lat="56.41982" lon="-5.48039">
        <ele>7.3</ele>
        <time>2021-03-20T14:20:18Z</time>
      </trkpt>
      <trkpt lat="56.41931" lon="-5.4794">
        <ele>5.62</ele>
        <time>2021-03-20T14:20:22Z</time>
      </trkpt>
      <trkpt lat="56.41918" lon="-5.47911">
        <ele>5.26</ele>
        <time>2021-03-20T14:20:26Z</time>
      </trkpt>
      <trkpt lat="56.41896" lon="-5.47854">
        <ele>4.75</ele>
        <time>2021-03-20T14:20:29Z</time>
      </trkpt>
      <trkpt lat="56.41874" lon="-5.47782">
        <ele>6.04</ele>
        <time>2021-03-20T14:20:33Z</time>
      </trkpt>
      <trkpt lat="56.41866" lon="-5.47706">
        <ele>6.36</ele>
        <time>2021-03-20T14:20:37Z</time>
      </trkpt>
      <trkpt lat="56.41862" lon="-5.47683">
        <ele>6.07</ele>
        <time>2021-03-20T14:20:40Z</time>
      </trkpt>
      <trkpt lat="56.4184" lon="-5.47611">
        <ele>4.68</ele>
        <time>2021-03-20T14:20:44Z</time>
      </trkpt>
      <trkpt lat="56.41835" lon="-5.47587">
        <ele>5.01</ele>
        <time>2021-03-20T14:20:48Z</time>
      </trkpt>
      <trkpt lat="56.41841" lon="-5.47583">
        <ele>5.51</ele>
        <time>2021-03-20T14:20:50Z</time>
      </trkpt>
      <trkpt lat="56.41843" lon="-5.47576">
        <ele>5.99</ele>
        <time>2021-03-20T14:20:53Z</time>
      </trkpt>
      <trkpt lat="56.41844" lon="-5.47569">
        <ele>6.26</ele>
        <time>2021-03-20T14:20:55Z</time>
      </trkpt>
      <trkpt lat="56.41868" lon="-5.47532">
        <ele>8.94</ele>
        <time>2021-03-20T14:20:58Z</time>
      </trkpt>
      <trkpt lat="56.419" lon="-5.47463">
        <ele>14.4</ele>
        <time>2021-03-20T14:21:00Z</time>
      </trkpt>
      <trkpt lat="56.41904" lon="-5.47461">
        <ele>15.29</ele>
        <time>2021-03-20T14:21:06Z</time>
      </trkpt>
      <trkpt lat="56.41904" lon="-5.47455">
        <ele>15.3</ele>
        <time>2021-03-20T14:21:13Z</time>
      </trkpt>
      <trkpt lat="56.41902" lon="-5.47451">
        <ele>14.59</ele>
        <time>2021-03-20T14:21:19Z</time>
      </trkpt>
      <trkpt lat="56.41899" lon="-5.47451">
        <ele>13.73</ele>
        <time>2021-03-20T14:21:25Z</time>
      </trkpt>
      <trkpt lat="56.41732" lon="-5.47316">
        <ele>9.76</ele>
        <time>2021-03-20T14:21:31Z</time>
      </trkpt>
      <trkpt lat="56.41693" lon="-5.47324">
        <ele>8.74</ele>
        <time>2021-03-20T14:21:37Z</time>
      </trkpt>
      <trkpt lat="56.41651" lon="-5.47314">
        <ele>9.4</ele>
        <time>2021-03-20T14:21:44Z</time>
      </trkpt>
      <trkpt lat="56.41555" lon="-5.47282">
        <ele>10.69</ele>
        <time>2021-03-20T14:21:50Z</time>
      </trkpt>
      <trkpt lat="56.41491" lon="-5.47263">
        <ele>7.85</ele>
        <time>2021-03-20T14:21:56Z</time>
      </trkpt>
      <trkpt lat="56.41458" lon="-5.47256">
        <ele>6.78</ele>
        <time>2021-03-20T14:22:02Z</time>
      </trkpt>
      <trkpt lat="56.41416" lon="-5.47239">
        <ele>7.39</ele>
        <time>2021-03-20T14:22:08Z</time>
      </trkpt>
      <trkpt lat="56.41429" lon="-5.47106">
        <ele>11.19</ele>
        <time>2021-03-20T14:22:20Z</time>
      </trkpt>
      <trkpt lat="56.4134" lon="-5.47075">
        <ele>7.25</ele>
        <time>2021-03-20T14:22:37Z</time>
      </trkpt>
      <trkpt lat="56.41332" lon="-5.4709">
        <ele>6.95</ele>
        <time>2021-03-20T14:22:39Z</time>
      </trkpt>
      <trkpt lat="56.41321" lon="-5.47102">
        <ele>6.56</ele>
        <time>2021-03-20T14:22:42Z</time>
      </trkpt>
      <trkpt lat="56.41305" lon="-5.4711">
        <ele>5.97</ele>
        <time>2021-03-20T14:22:44Z</time>
      </trkpt>
      <trkpt lat="56.41297" lon="-5.47093">
        <ele>5.68</ele>
        <time>2021-03-20T14:22:49Z</time>
      </trkpt>
      <trkpt lat="56.41274" lon="-5.47072">
        <ele>5.69</ele>
        <time>2021-03-20T14:22:53Z</time>
      </trkpt>
      <trkpt lat="56.41261" lon="-5.47066">
        <ele>6.82</ele>
        <time>2021-03-20T14:22:58Z</time>
      </trkpt>
      <trkpt lat="56.41244" lon="-5.47063">
        <ele>8.18</ele>
        <time>2021-03-20T14:23:02Z</time>
      </trkpt>
      <trkpt lat="56.41225" lon="-5.47066">
        <ele>9.43</ele>
        <time>2021-03-20T14:23:07Z</time>
      </trkpt>
      <trkpt lat="56.41166" lon="-5.47089">
        <ele>6.99</ele>
        <time>2021-03-20T14:23:12Z</time>
      </trkpt>
      <trkpt lat="56.41152" lon="-5.47065">
        <ele>6.14</ele>
        <time>2021-03-20T14:23:18Z</time>
      </trkpt>
      <trkpt lat="56.41072" lon="-5.46982">
        <ele>7.24</ele>
        <time>2021-03-20T14:23:24Z</time>
      </trkpt>
      <trkpt lat="56.41043" lon="-5.46975">
        <ele>5.97</ele>
        <time>2021-03-20T14:23:30Z</time>
      </trkpt>
      <trkpt lat="56.41043" lon="-5.46956">
        <ele>6.95</ele>
        <time>2021-03-20T14:23:34Z</time>
      </trkpt>
      <trkpt lat="56.4103" lon="-5.46933">
        <ele>7.08</ele>
        <time>2021-03-20T14:23:37Z</time>
      </trkpt>
      <trkpt lat="56.40981" lon="-5.46859">
        <ele>9.42</ele>
        <time>2021-03-20T14:23:41Z</time>
      </trkpt>
      <trkpt lat="56.4097" lon="-5.46838">
        <ele>9.57</ele>
        <time>2021-03-20T14:23:45Z</time>
      </trkpt>
      <trkpt lat="56.40961" lon="-5.46815">
        <ele>10.49</ele>
        <time>2021-03-20T14:23:48Z</time>
      </trkpt>
      <trkpt lat="56.40955" lon="-5.46789">
        <ele>12.21</ele>
        <time>2021-03-20T14:23:52Z</time>
      </trkpt>
      <trkpt lat="56.4095" lon="-5.46754">
        <ele>14.65</ele>
        <time>2021-03-20T14:23:55Z</time>
      </trkpt>
      <trkpt lat="56.40949" lon="-5.46714">
        <ele>18.4</ele>
        <time>2021-03-20T14:23:59Z</time>
      </trkpt>
      <trkpt lat="56.40954" lon="-5.46656">
        <ele>22.63</ele>
        <time>2021-03-20T14:24:03Z</time>
      </trkpt>
      <trkpt lat="56.40966" lon="-5.46585">
        <ele>27.25</ele>
        <time>2021-03-20T14:24:06Z</time>
      </trkpt>
      <trkpt lat="56.40995" lon="-5.46499">
        <ele>29.33</ele>
        <time>2021-03-20T14:24:10Z</time>
      </trkpt>
      <trkpt lat="56.41056" lon="-5.46385">
        <ele>29.84</ele>
        <time>2021-03-20T14:24:14Z</time>
      </trkpt>
      <trkpt lat="56.41115" lon="-5.46239">
        <ele>25.88</ele>
        <time>2021-03-20T14:24:17Z</time>
      </trkpt>
      <trkpt lat="56.41153" lon="-5.46127">
        <ele>24.67</ele>
        <time>2021-03-20T14:24:21Z</time>
      </trkpt>
      <trkpt lat="56.41179" lon="-5.45984">
        <ele>26.03</ele>
        <time>2021-03-20T14:24:24Z</time>
      </trkpt>
      <trkpt lat="56.41194" lon="-5.45912">
        <ele>25.64</ele>
        <time>2021-03-20T14:24:28Z</time>
      </trkpt>
      <trkpt lat="56.4122" lon="-5.45844">
        <ele>24.32</ele>
        <time>2021-03-20T14:24:32Z</time>
      </trkpt>
      <trkpt lat="56.41372" lon="-5.45537">
        <ele>33.6</ele>
        <time>2021-03-20T14:24:35Z</time>
      </trkpt>
      <trkpt lat="56.41404" lon="-5.4548">
        <ele>34.24</ele>
        <time>2021-03-20T14:24:39Z</time>
      </trkpt>
      <trkpt lat="56.41409" lon="-5.4541">
        <ele>33.96</ele>
        <time>2021-03-20T14:24:43Z</time>
      </trkpt>
      <trkpt lat="56.41413" lon="-5.45379">
        <ele>35.24</ele>
        <time>2021-03-20T14:24:46Z</time>
      </trkpt>
      <trkpt lat="56.41471" lon="-5.45282">
        <ele>39.15</ele>
        <time>2021-03-20T14:24:50Z</time>
      </trkpt>
      <trkpt lat="56.41556" lon="-5.45207">
        <ele>42.49</ele>
        <time>2021-03-20T14:24:53Z</time>
      </trkpt>
      <trkpt lat="56.41561" lon="-5.45193">
        <ele>42.56</ele>
        <time>2021-03-20T14:24:57Z</time>
      </trkpt>
      <trkpt lat="56.41565" lon="-5.45168">
        <ele>42.07</ele>
        <time>2021-03-20T14:25:01Z</time>
      </trkpt>
      <trkpt lat="56.41567" lon="-5.45134">
        <ele>41.63</ele>
        <time>2021-03-20T14:25:04Z</time>
      </trkpt>
      <trkpt lat="56.41563" lon="-5.45117">
        <ele>40.73</ele>
        <time>2021-03-20T14:25:08Z</time>
      </trkpt>
      <trkpt lat="56.41552" lon="-5.4509">
        <ele>39.74</ele>
        <time>2021-03-20T14:25:12Z</time>
      </trkpt>
      <trkpt lat="56.41509" lon="-5.45018">
        <ele>39.2</ele>
        <time>2021-03-20T14:25:15Z</time>
      </trkpt>
      <trkpt lat="56.41469" lon="-5.44901">
        <ele>38.48</ele>
        <time>2021-03-20T14:25:19Z</time>
      </trkpt>
      <trkpt lat="56.4145" lon="-5.4486">
        <ele>36.74</ele>
        <time>2021-03-20T14:25:22Z</time>
      </trkpt>
      <trkpt lat="56.41443" lon="-5.44831">
        <ele>35.15</ele>
        <time>2021-03-20T14:25:26Z</time>
      </trkpt>
      <trkpt lat="56.4144" lon="-5.4481">
        <ele>36.01</ele>
        <time>2021-03-20T14:25:30Z</time>
      </trkpt>
      <trkpt lat="56.41428" lon="-5.44774">
        <ele>38.79</ele>
        <time>2021-03-20T14:25:33Z</time>
      </trkpt>
      <trkpt lat="56.41417" lon="-5.44747">
        <ele>43.4</ele>
        <time>2021-03-20T14:25:37Z</time>
      </trkpt>
      <trkpt lat="56.41389" lon="-5.44701">
        <ele>50.12</ele>
        <time>2021-03-20T14:25:41Z</time>
      </trkpt>
      <trkpt lat="56.41328" lon="-5.4466">
        <ele>53.88</ele>
        <time>2021-03-20T14:25:44Z</time>
      </trkpt>
      <trkpt lat="56.41302" lon="-5.44618">
        <ele>58.44</ele>
        <time>2021-03-20T14:25:48Z</time>
      </trkpt>
      <trkpt lat="56.41296" lon="-5.44606">
        <ele>59.92</ele>
        <time>2021-03-20T14:25:51Z</time>
      </trkpt>
      <trkpt lat="56.41295" lon="-5.44593">
        <ele>61.55</ele>
        <time>2021-03-20T14:25:55Z</time>
      </trkpt>
      <trkpt lat="56.413" lon="-5.44585">
        <ele>62.23</ele>
        <time>2021-03-20T14:25:59Z</time>
      </trkpt>
      <trkpt lat="56.41338" lon="-5.44589">
        <ele>60.44</ele>
        <time>2021-03-20T14:26:02Z</time>
      </trkpt>
      <trkpt lat="56.41353" lon="-5.44589">
        <ele>60.02</ele>
        <time>2021-03-20T14:26:06Z</time>
      </trkpt>
      <trkpt lat="56.41361" lon="-5.44585">
        <ele>59.95</ele>
        <time>2021-03-20T14:26:10Z</time>
      </trkpt>
      <trkpt lat="56.41367" lon="-5.44572">
        <ele>61.27</ele>
        <time>2021-03-20T14:26:13Z</time>
      </trkpt>
      <trkpt lat="56.4137" lon="-5.44551">
        <ele>63.1</ele>
        <time>2021-03-20T14:26:17Z</time>
      </trkpt>
      <trkpt lat="56.41371" lon="-5.44533">
        <ele>64.91</ele>
        <time>2021-03-20T14:26:20Z</time>
      </trkpt>
      <trkpt lat="56.41371" lon="-5.44516">
        <ele>66.45</ele>
        <time>2021-03-20T14:26:24Z</time>
      </trkpt>
      <trkpt lat="56.41366" lon="-5.445">
        <ele>67.96</ele>
        <time>2021-03-20T14:26:28Z</time>
      </trkpt>
      <trkpt lat="56.4135" lon="-5.44475">
        <ele>71.49</ele>
        <time>2021-03-20T14:26:31Z</time>
      </trkpt>
      <trkpt lat="56.41344" lon="-5.44454">
        <ele>74.57</ele>
        <time>2021-03-20T14:26:35Z</time>
      </trkpt>
      <trkpt lat="56.41344" lon="-5.44438">
        <ele>76.08</ele>
        <time>2021-03-20T14:26:39Z</time>
      </trkpt>
      <trkpt lat="56.41347" lon="-5.44428">
        <ele>76.1</ele>
        <time>2021-03-20T14:26:42Z</time>
      </trkpt>
      <trkpt lat="56.41352" lon="-5.44394">
        <ele>76.81</ele>
        <time>2021-03-20T14:26:46Z</time>
      </trkpt>
      <trkpt lat="56.41353" lon="-5.44347">
        <ele>78.97</ele>
        <time>2021-03-20T14:26:49Z</time>
      </trkpt>
      <trkpt lat="56.41329" lon="-5.44271">
        <ele>88.97</ele>
        <time>2021-03-20T14:26:53Z</time>
      </trkpt>
      <trkpt lat="56.4134" lon="-5.44206">
        <ele>89.13</ele>
        <time>2021-03-20T14:26:57Z</time>
      </trkpt>
      <trkpt lat="56.41355" lon="-5.44149">
        <ele>85.65</ele>
        <time>2021-03-20T14:27:00Z</time>
      </trkpt>
      <trkpt lat="56.41351" lon="-5.44094">
        <ele>86.01</ele>
        <time>2021-03-20T14:27:04Z</time>
      </trkpt>
      <trkpt lat="56.41327" lon="-5.44032">
        <ele>88.75</ele>
        <time>2021-03-20T14:27:08Z</time>
      </trkpt>
      <trkpt lat="56.41302" lon="-5.43885">
        <ele>93.7</ele>
        <time>2021-03-20T14:27:11Z</time>
      </trkpt>
      <trkpt lat="56.41294" lon="-5.43814">
        <ele>99.29</ele>
        <time>2021-03-20T14:27:15Z</time>
      </trkpt>
      <trkpt lat="56.41258" lon="-5.43687">
        <ele>108.81</ele>
        <time>2021-03-20T14:27:18Z</time>
      </trkpt>
      <trkpt lat="56.41205" lon="-5.43628">
        <ele>115.43</ele>
        <time>2021-03-20T14:27:22Z</time>
      </trkpt>
      <trkpt lat="56.41137" lon="-5.43613">
        <ele>112.66</ele>
        <time>2021-03-20T14:27:26Z</time>
      </trkpt>
      <trkpt lat="56.41116" lon="-5.436">
        <ele>108.83</ele>
        <time>2021-03-20T14:27:29Z</time>
      </trkpt>
      <trkpt lat="56.41096" lon="-5.43524">
        <ele>104.05</ele>
        <time>2021-03-20T14:27:33Z</time>
      </trkpt>
      <trkpt lat="56.41077" lon="-5.43497">
        <ele>100.02</ele>
        <time>2021-03-20T14:27:37Z</time>
      </trkpt>
      <trkpt lat="56.41047" lon="-5.43472">
        <ele>96.38</ele>
        <time>2021-03-20T14:27:40Z</time>
      </trkpt>
      <trkpt lat="56.41033" lon="-5.43348">
        <ele>98.78</ele>
        <time>2021-03-20T14:27:44Z</time>
      </trkpt>
      <trkpt lat="56.41025" lon="-5.43209">
        <ele>92.33</ele>
        <time>2021-03-20T14:27:47Z</time>
      </trkpt>
      <trkpt lat="56.41026" lon="-5.43181">
        <ele>92.23</ele>
        <time>2021-03-20T14:27:51Z</time>
      </trkpt>
      <trkpt lat="56.41061" lon="-5.4307">
        <ele>88.09</ele>
        <time>2021-03-20T14:27:55Z</time>
      </trkpt>
      <trkpt lat="56.4111" lon="-5.42923">
        <ele>85.55</ele>
        <time>2021-03-20T14:27:58Z</time>
      </trkpt>
      <trkpt lat="56.41147" lon="-5.4288">
        <ele>86.13</ele>
        <time>2021-03-20T14:28:02Z</time>
      </trkpt>
      <trkpt lat="56.41196" lon="-5.42783">
        <ele>81.07</ele>
        <time>2021-03-20T14:28:06Z</time>
      </trkpt>
      <trkpt lat="56.41214" lon="-5.42714">
        <ele>77.63</ele>
        <time>2021-03-20T14:28:09Z</time>
      </trkpt>
      <trkpt lat="56.41217" lon="-5.42662">
        <ele>76.46</ele>
        <time>2021-03-20T14:28:13Z</time>
      </trkpt>
      <trkpt lat="56.41227" lon="-5.42616">
        <ele>76.36</ele>
        <time>2021-03-20T14:28:16Z</time>
      </trkpt>
      <trkpt lat="56.41223" lon="-5.42533">
        <ele>75.23</ele>
        <time>2021-03-20T14:28:20Z</time>
      </trkpt>
      <trkpt lat="56.4124" lon="-5.42473">
        <ele>74.28</ele>
        <time>2021-03-20T14:28:24Z</time>
      </trkpt>
      <trkpt lat="56.41294" lon="-5.42388">
        <ele>68.73</ele>
        <time>2021-03-20T14:28:27Z</time>
      </trkpt>
      <trkpt lat="56.41272" lon="-5.42212">
        <ele>59</ele>
        <time>2021-03-20T14:28:31Z</time>
      </trkpt>
      <trkpt lat="56.41301" lon="-5.42205">
        <ele>59.84</ele>
        <time>2021-03-20T14:28:34Z</time>
      </trkpt>
      <trkpt lat="56.41326" lon="-5.42203">
        <ele>59.27</ele>
        <time>2021-03-20T14:28:37Z</time>
      </trkpt>
      <trkpt lat="56.41405" lon="-5.42204">
        <ele>49.74</ele>
        <time>2021-03-20T14:28:41Z</time>
      </trkpt>
      <trkpt lat="56.41467" lon="-5.422">
        <ele>48.21</ele>
        <time>2021-03-20T14:28:44Z</time>
      </trkpt>
      <trkpt lat="56.41527" lon="-5.4218">
        <ele>47.36</ele>
        <time>2021-03-20T14:28:47Z</time>
      </trkpt>
      <trkpt lat="56.4157" lon="-5.42156">
        <ele>48.08</ele>
        <time>2021-03-20T14:28:50Z</time>
      </trkpt>
      <trkpt lat="56.41596" lon="-5.42138">
        <ele>47.8</ele>
        <time>2021-03-20T14:28:53Z</time>
      </trkpt>
      <trkpt lat="56.41669" lon="-5.42039">
        <ele>39.96</ele>
        <time>2021-03-20T14:28:57Z</time>
      </trkpt>
      <trkpt lat="56.41696" lon="-5.41998">
        <ele>39.03</ele>
        <time>2021-03-20T14:29:00Z</time>
      </trkpt>
      <trkpt lat="56.41726" lon="-5.41942">
        <ele>40.24</ele>
        <time>2021-03-20T14:29:03Z</time>
      </trkpt>
      <trkpt lat="56.41786" lon="-5.41786">
        <ele>44.2</ele>
        <time>2021-03-20T14:29:06Z</time>
      </trkpt>
      <trkpt lat="56.41818" lon="-5.41698">
        <ele>47.81</ele>
        <time>2021-03-20T14:29:10Z</time>
      </trkpt>
      <trkpt lat="56.41916" lon="-5.41508">
        <ele>50.48</ele>
        <time>2021-03-20T14:29:13Z</time>
      </trkpt>
      <trkpt lat="56.41932" lon="-5.4147">
        <ele>49.49</ele>
        <time>2021-03-20T14:29:16Z</time>
      </trkpt>
      <trkpt lat="56.41979" lon="-5.41327">
        <ele>46.76</ele>
        <time>2021-03-20T14:29:19Z</time>
      </trkpt>
      <trkpt lat="56.42031" lon="-5.41095">
        <ele>47.75</ele>
        <time>2021-03-20T14:29:22Z</time>
      </trkpt>
      <trkpt lat="56.42042" lon="-5.41073">
        <ele>48.87</ele>
        <time>2021-03-20T14:29:26Z</time>
      </trkpt>
      <trkpt lat="56.42067" lon="-5.41043">
        <ele>52.37</ele>
        <time>2021-03-20T14:29:29Z</time>
      </trkpt>
      <trkpt lat="56.42089" lon="-5.41027">
        <ele>55.83</ele>
        <time>2021-03-20T14:29:32Z</time>
      </trkpt>
      <trkpt lat="56.42119" lon="-5.41035">
        <ele>60.03</ele>
        <time>2021-03-20T14:29:35Z</time>
      </trkpt>
      <trkpt lat="56.42205" lon="-5.4108">
        <ele>58.77</ele>
        <time>2021-03-20T14:29:39Z</time>
      </trkpt>
      <trkpt lat="56.42234" lon="-5.4106">
        <ele>54.22</ele>
        <time>2021-03-20T14:29:42Z</time>
      </trkpt>
      <trkpt lat="56.42317" lon="-5.40935">
        <ele>46.96</ele>
        <time>2021-03-20T14:29:45Z</time>
      </trkpt>
      <trkpt lat="56.42402" lon="-5.40819">
        <ele>46.1</ele>
        <time>2021-03-20T14:29:48Z</time>
      </trkpt>
      <trkpt lat="56.4244" lon="-5.40784">
        <ele>44.41</ele>
        <time>2021-03-20T14:29:51Z</time>
      </trkpt>
      <trkpt lat="56.42497" lon="-5.4075">
        <ele>45.86</ele>
        <time>2021-03-20T14:29:55Z</time>
      </trkpt>
      <trkpt lat="56.42531" lon="-5.40751">
        <ele>46.18</ele>
        <time>2021-03-20T14:29:58Z</time>
      </trkpt>
      <trkpt lat="56.4255" lon="-5.40742">
        <ele>46.19</ele>
        <time>2021-03-20T14:30:01Z</time>
      </trkpt>
      <trkpt lat="56.42598" lon="-5.40709">
        <ele>49.62</ele>
        <time>2021-03-20T14:30:04Z</time>
      </trkpt>
      <trkpt lat="56.4266" lon="-5.4066">
        <ele>53.23</ele>
        <time>2021-03-20T14:30:08Z</time>
      </trkpt>
      <trkpt lat="56.42958" lon="-5.40487">
        <ele>45.96</ele>
        <time>2021-03-20T14:30:12Z</time>
      </trkpt>
      <trkpt lat="56.43022" lon="-5.4039">
        <ele>49.87</ele>
        <time>2021-03-20T14:30:17Z</time>
      </trkpt>
      <trkpt lat="56.43058" lon="-5.40331">
        <ele>47.87</ele>
        <time>2021-03-20T14:30:21Z</time>
      </trkpt>
      <trkpt lat="56.43298" lon="-5.40091">
        <ele>38.31</ele>
        <time>2021-03-20T14:30:26Z</time>
      </trkpt>
      <trkpt lat="56.43494" lon="-5.39953">
        <ele>43.29</ele>
        <time>2021-03-20T14:30:31Z</time>
      </trkpt>
      <trkpt lat="56.43583" lon="-5.39929">
        <ele>41.15</ele>
        <time>2021-03-20T14:30:35Z</time>
      </trkpt>
      <trkpt lat="56.43697" lon="-5.39921">
        <ele>38.82</ele>
        <time>2021-03-20T14:30:40Z</time>
      </trkpt>
      <trkpt lat="56.43753" lon="-5.39862">
        <ele>37.23</ele>
        <time>2021-03-20T14:30:45Z</time>
      </trkpt>
      <trkpt lat="56.43807" lon="-5.39818">
        <ele>35.42</ele>
        <time>2021-03-20T14:30:49Z</time>
      </trkpt>
      <trkpt lat="56.4392" lon="-5.39754">
        <ele>36.01</ele>
        <time>2021-03-20T14:30:54Z</time>
      </trkpt>
      <trkpt lat="56.43982" lon="-5.39706">
        <ele>32.08</ele>
        <time>2021-03-20T14:30:59Z</time>
      </trkpt>
      <trkpt lat="56.44025" lon="-5.39667">
        <ele>25.34</ele>
        <time>2021-03-20T14:31:03Z</time>
      </trkpt>
      <trkpt lat="56.44052" lon="-5.3963">
        <ele>24.31</ele>
        <time>2021-03-20T14:31:08Z</time>
      </trkpt>
      <trkpt lat="56.44115" lon="-5.39517">
        <ele>22.33</ele>
        <time>2021-03-20T14:31:13Z</time>
      </trkpt>
      <trkpt lat="56.44173" lon="-5.39515">
        <ele>23.47</ele>
        <time>2021-03-20T14:31:17Z</time>
      </trkpt>
      <trkpt lat="56.44183" lon="-5.39505">
        <ele>22.46</ele>
        <time>2021-03-20T14:31:22Z</time>
      </trkpt>
      <trkpt lat="56.44208" lon="-5.39499">
        <ele>21.94</ele>
        <time>2021-03-20T14:31:27Z</time>
      </trkpt>
      <trkpt lat="56.4423" lon="-5.39502">
        <ele>21.56</ele>
        <time>2021-03-20T14:31:31Z</time>
      </trkpt>
      <trkpt lat="56.44253" lon="-5.39509">
        <ele>20.7</ele>
        <time>2021-03-20T14:31:36Z</time>
      </trkpt>
      <trkpt lat="56.44341" lon="-5.39505">
        <ele>16.85</ele>
        <time>2021-03-20T14:31:40Z</time>
      </trkpt>
      <trkpt lat="56.44366" lon="-5.39495">
        <ele>14.65</ele>
        <time>2021-03-20T14:31:45Z</time>
      </trkpt>
      <trkpt lat="56.44376" lon="-5.39488">
        <ele>13.93</ele>
        <time>2021-03-20T14:31:50Z</time>
      </trkpt>
      <trkpt lat="56.44554" lon="-5.39351">
        <ele>10.6</ele>
        <time>2021-03-20T14:31:54Z</time>
      </trkpt>
      <trkpt lat="56.44856" lon="-5.38975">
        <ele>14.73</ele>
        <time>2021-03-20T14:31:59Z</time>
      </trkpt>
      <trkpt lat="56.44879" lon="-5.38949">
        <ele>15.27</ele>
        <time>2021-03-20T14:32:04Z</time>
      </trkpt>
      <trkpt lat="56.45015" lon="-5.38897">
        <ele>12.13</ele>
        <time>2021-03-20T14:32:08Z</time>
      </trkpt>
      <trkpt lat="56.45049" lon="-5.38892">
        <ele>15.54</ele>
        <time>2021-03-20T14:32:13Z</time>
      </trkpt>
      <trkpt lat="56.45077" lon="-5.38902">
        <ele>19.28</ele>
        <time>2021-03-20T14:32:18Z</time>
      </trkpt>
      <trkpt lat="56.45109" lon="-5.38933">
        <ele>21.97</ele>
        <time>2021-03-20T14:32:22Z</time>
      </trkpt>
      <trkpt lat="56.45141" lon="-5.38967">
        <ele>21.18</ele>
        <time>2021-03-20T14:32:27Z</time>
      </trkpt>
      <trkpt lat="56.45243" lon="-5.39109">
        <ele>18.25</ele>
        <time>2021-03-20T14:32:32Z</time>
      </trkpt>
      <trkpt lat="56.45251" lon="-5.39122">
        <ele>18.01</ele>
        <time>2021-03-20T14:32:36Z</time>
      </trkpt>
      <trkpt lat="56.45263" lon="-5.39159">
        <ele>17.66</ele>
        <time>2021-03-20T14:32:41Z</time>
      </trkpt>
      <trkpt lat="56.45281" lon="-5.39185">
        <ele>16.36</ele>
        <time>2021-03-20T14:32:45Z</time>
      </trkpt>
      <trkpt lat="56.45293" lon="-5.39198">
        <ele>15.86</ele>
        <time>2021-03-20T14:32:50Z</time>
      </trkpt>
      <trkpt lat="56.45322" lon="-5.3923">
        <ele>14.7</ele>
        <time>2021-03-20T14:32:55Z</time>
      </trkpt>
      <trkpt lat="56.4536" lon="-5.39258">
        <ele>12.74</ele>
        <time>2021-03-20T14:32:59Z</time>
      </trkpt>
      <trkpt lat="56.45364" lon="-5.3922">
        <ele>14.94</ele>
        <time>2021-03-20T14:33:07Z</time>
      </trkpt>
      <trkpt lat="56.45371" lon="-5.39185">
        <ele>16.59</ele>
        <time>2021-03-20T14:33:14Z</time>
      </trkpt>
      <trkpt lat="56.45379" lon="-5.39155">
        <ele>17.48</ele>
        <time>2021-03-20T14:33:21Z</time>
      </trkpt>
      <trkpt lat="56.45394" lon="-5.39121">
        <ele>17.75</ele>
        <time>2021-03-20T14:33:28Z</time>
      </trkpt>
      <trkpt lat="56.4541" lon="-5.39098">
        <ele>17.11</ele>
        <time>2021-03-20T14:33:35Z</time>
      </trkpt>
      <trkpt lat="56.45423" lon="-5.39085">
        <ele>16.48</ele>
        <time>2021-03-20T14:33:42Z</time>
      </trkpt>
      <trkpt lat="56.45437" lon="-5.39079">
        <ele>15.8</ele>
        <time>2021-03-20T14:33:49Z</time>
      </trkpt>
      <trkpt lat="56.45454" lon="-5.3908">
        <ele>14.54</ele>
        <time>2021-03-20T14:33:56Z</time>
      </trkpt>
      <trkpt lat="56.45475" lon="-5.39085">
        <ele>12.81</ele>
        <time>2021-03-20T14:34:04Z</time>
      </trkpt>
      <trkpt lat="56.45769" lon="-5.3921">
        <ele>6.37</ele>
        <time>2021-03-20T14:34:11Z</time>
      </trkpt>
      <trkpt lat="56.45889" lon="-5.39227">
        <ele>11.82</ele>
        <time>2021-03-20T14:34:18Z</time>
      </trkpt>
      <trkpt lat="56.45891" lon="-5.39168">
        <ele>11.04</ele>
        <time>2021-03-20T14:34:23Z</time>
      </trkpt>
      <trkpt lat="56.459" lon="-5.39135">
        <ele>10.91</ele>
        <time>2021-03-20T14:34:27Z</time>
      </trkpt>
      <trkpt lat="56.45942" lon="-5.39055">
        <ele>11.82</ele>
        <time>2021-03-20T14:34:32Z</time>
      </trkpt>
      <trkpt lat="56.45946" lon="-5.39032">
        <ele>12.14</ele>
        <time>2021-03-20T14:34:37Z</time>
      </trkpt>
      <trkpt lat="56.4596" lon="-5.38927">
        <ele>10.38</ele>
        <time>2021-03-20T14:34:42Z</time>
      </trkpt>
      <trkpt lat="56.45968" lon="-5.38896">
        <ele>10.69</ele>
        <time>2021-03-20T14:34:46Z</time>
      </trkpt>
      <trkpt lat="56.46015" lon="-5.38763">
        <ele>10.06</ele>
        <time>2021-03-20T14:34:51Z</time>
      </trkpt>
      <trkpt lat="56.46026" lon="-5.38693">
        <ele>10.7</ele>
        <time>2021-03-20T14:34:56Z</time>
      </trkpt>
      <trkpt lat="56.46028" lon="-5.38645">
        <ele>9.98</ele>
        <time>2021-03-20T14:35:01Z</time>
      </trkpt>
      <trkpt lat="56.46026" lon="-5.38554">
        <ele>11.87</ele>
        <time>2021-03-20T14:35:05Z</time>
      </trkpt>
      <trkpt lat="56.46023" lon="-5.38528">
        <ele>12.52</ele>
        <time>2021-03-20T14:35:10Z</time>
      </trkpt>
      <trkpt lat="56.45913" lon="-5.37954">
        <ele>17.27</ele>
        <time>2021-03-20T14:35:15Z</time>
      </trkpt>
      <trkpt lat="56.45908" lon="-5.37918">
        <ele>17.09</ele>
        <time>2021-03-20T14:35:20Z</time>
      </trkpt>
      <trkpt lat="56.459" lon="-5.37784">
        <ele>14.62</ele>
        <time>2021-03-20T14:35:24Z</time>
      </trkpt>
      <trkpt lat="56.45888" lon="-5.37668">
        <ele>15.92</ele>
        <time>2021-03-20T14:35:29Z</time>
      </trkpt>
      <trkpt lat="56.45886" lon="-5.37627">
        <ele>15.66</ele>
        <time>2021-03-20T14:35:34Z</time>
      </trkpt>
      <trkpt lat="56.45889" lon="-5.37581">
        <ele>15.97</ele>
        <time>2021-03-20T14:35:39Z</time>
      </trkpt>
      <trkpt lat="56.45901" lon="-5.37466">
        <ele>16.93</ele>
        <time>2021-03-20T14:35:44Z</time>
      </trkpt>
      <trkpt lat="56.45901" lon="-5.37429">
        <ele>16.73</ele>
        <time>2021-03-20T14:35:48Z</time>
      </trkpt>
      <trkpt lat="56.45895" lon="-5.37391">
        <ele>14.69</ele>
        <time>2021-03-20T14:35:53Z</time>
      </trkpt>
      <trkpt lat="56.4589" lon="-5.37317">
        <ele>12.22</ele>
        <time>2021-03-20T14:35:58Z</time>
      </trkpt>
      <trkpt lat="56.45908" lon="-5.37083">
        <ele>15.69</ele>
        <time>2021-03-20T14:36:03Z</time>
      </trkpt>
      <trkpt lat="56.45914" lon="-5.37016">
        <ele>15.15</ele>
        <time>2021-03-20T14:36:07Z</time>
      </trkpt>
      <trkpt lat="56.45931" lon="-5.369">
        <ele>14.77</ele>
        <time>2021-03-20T14:36:12Z</time>
      </trkpt>
      <trkpt lat="56.45943" lon="-5.36868">
        <ele>16.95</ele>
        <time>2021-03-20T14:36:17Z</time>
      </trkpt>
      <trkpt lat="56.4596" lon="-5.36837">
        <ele>18.41</ele>
        <time>2021-03-20T14:36:22Z</time>
      </trkpt>
      <trkpt lat="56.45989" lon="-5.36793">
        <ele>19.82</ele>
        <time>2021-03-20T14:36:26Z</time>
      </trkpt>
      <trkpt lat="56.46007" lon="-5.36776">
        <ele>20</ele>
        <time>2021-03-20T14:36:31Z</time>
      </trkpt>
      <trkpt lat="56.46031" lon="-5.3676">
        <ele>20.11</ele>
        <time>2021-03-20T14:36:36Z</time>
      </trkpt>
      <trkpt lat="56.46123" lon="-5.36727">
        <ele>23.17</ele>
        <time>2021-03-20T14:36:41Z</time>
      </trkpt>
      <trkpt lat="56.46342" lon="-5.36663">
        <ele>21.76</ele>
        <time>2021-03-20T14:36:46Z</time>
      </trkpt>
      <trkpt lat="56.46404" lon="-5.3667">
        <ele>23.13</ele>
        <time>2021-03-20T14:36:50Z</time>
      </trkpt>
      <trkpt lat="56.46423" lon="-5.36662">
        <ele>22.73</ele>
        <time>2021-03-20T14:36:55Z</time>
      </trkpt>
      <trkpt lat="56.46438" lon="-5.36644">
        <ele>21.99</ele>
        <time>2021-03-20T14:37:00Z</time>
      </trkpt>
      <trkpt lat="56.46455" lon="-5.36611">
        <ele>21.53</ele>
        <time>2021-03-20T14:37:05Z</time>
      </trkpt>
      <trkpt lat="56.46486" lon="-5.36508">
        <ele>21.38</ele>
        <time>2021-03-20T14:37:09Z</time>
      </trkpt>
      <trkpt lat="56.46507" lon="-5.36411">
        <ele>20.38</ele>
        <time>2021-03-20T14:37:14Z</time>
      </trkpt>
      <trkpt lat="56.46523" lon="-5.36395">
        <ele>23.09</ele>
        <time>2021-03-20T14:37:19Z</time>
      </trkpt>
      <trkpt lat="56.4654" lon="-5.36392">
        <ele>24.52</ele>
        <time>2021-03-20T14:37:24Z</time>
      </trkpt>
      <trkpt lat="56.46596" lon="-5.36404">
        <ele>22.66</ele>
        <time>2021-03-20T14:37:28Z</time>
      </trkpt>
      <trkpt lat="56.46649" lon="-5.36428">
        <ele>21.18</ele>
        <time>2021-03-20T14:37:33Z</time>
      </trkpt>
      <trkpt lat="56.46712" lon="-5.3649">
        <ele>22.27</ele>
        <time>2021-03-20T14:37:38Z</time>
      </trkpt>
      <trkpt lat="56.46747" lon="-5.36512">
        <ele>22.56</ele>
        <time>2021-03-20T14:37:43Z</time>
      </trkpt>
      <trkpt lat="56.46821" lon="-5.36524">
        <ele>21.73</ele>
        <time>2021-03-20T14:37:47Z</time>
      </trkpt>
      <trkpt lat="56.47014" lon="-5.36517">
        <ele>21.41</ele>
        <time>2021-03-20T14:37:52Z</time>
      </trkpt>
      <trkpt lat="56.47121" lon="-5.36491">
        <ele>22.8</ele>
        <time>2021-03-20T14:37:57Z</time>
      </trkpt>
      <trkpt lat="56.47143" lon="-5.36474">
        <ele>23.16</ele>
        <time>2021-03-20T14:38:02Z</time>
      </trkpt>
      <trkpt lat="56.47187" lon="-5.36412">
        <ele>24.48</ele>
        <time>2021-03-20T14:38:07Z</time>
      </trkpt>
      <trkpt lat="56.47194" lon="-5.36396">
        <ele>24.98</ele>
        <time>2021-03-20T14:38:11Z</time>
      </trkpt>
      <trkpt lat="56.47196" lon="-5.3638">
        <ele>25</ele>
        <time>2021-03-20T14:38:16Z</time>
      </trkpt>
      <trkpt lat="56.47193" lon="-5.3637">
        <ele>24.87</ele>
        <time>2021-03-20T14:38:19Z</time>
      </trkpt>
      <trkpt lat="56.47178" lon="-5.3635">
        <ele>23.42</ele>
        <time>2021-03-20T14:38:22Z</time>
      </trkpt>
      <trkpt lat="56.47124" lon="-5.36295">
        <ele>17.71</ele>
        <time>2021-03-20T14:38:25Z</time>
      </trkpt>
      <trkpt lat="56.47116" lon="-5.36265">
        <ele>16.1</ele>
        <time>2021-03-20T14:38:28Z</time>
      </trkpt>
      <trkpt lat="56.47136" lon="-5.36172">
        <ele>15.04</ele>
        <time>2021-03-20T14:38:31Z</time>
      </trkpt>
      <trkpt lat="56.4714" lon="-5.36127">
        <ele>13.74</ele>
        <time>2021-03-20T14:38:34Z</time>
      </trkpt>
      <trkpt lat="56.4714" lon="-5.3608">
        <ele>12.03</ele>
        <time>2021-03-20T14:38:36Z</time>
      </trkpt>
      <trkpt lat="56.47126" lon="-5.36012">
        <ele>8.02</ele>
        <time>2021-03-20T14:38:39Z</time>
      </trkpt>
      <trkpt lat="56.47107" lon="-5.35903">
        <ele>8.06</ele>
        <time>2021-03-20T14:38:42Z</time>
      </trkpt>
      <trkpt lat="56.47103" lon="-5.3586">
        <ele>7.88</ele>
        <time>2021-03-20T14:38:45Z</time>
      </trkpt>
      <trkpt lat="56.47104" lon="-5.35806">
        <ele>7.78</ele>
        <time>2021-03-20T14:38:48Z</time>
      </trkpt>
      <trkpt lat="56.47116" lon="-5.35674">
        <ele>6.87</ele>
        <time>2021-03-20T14:38:51Z</time>
      </trkpt>
      <trkpt lat="56.47117" lon="-5.35633">
        <ele>6.97</ele>
        <time>2021-03-20T14:38:54Z</time>
      </trkpt>
      <trkpt lat="56.47106" lon="-5.35554">
        <ele>6</ele>
        <time>2021-03-20T14:38:57Z</time>
      </trkpt>
      <trkpt lat="56.47103" lon="-5.35496">
        <ele>6.69</ele>
        <time>2021-03-20T14:39:00Z</time>
      </trkpt>
      <trkpt lat="56.47098" lon="-5.35462">
        <ele>6.74</ele>
        <time>2021-03-20T14:39:03Z</time>
      </trkpt>
      <trkpt lat="56.47049" lon="-5.35356">
        <ele>3.43</ele>
        <time>2021-03-20T14:39:06Z</time>
      </trkpt>
      <trkpt lat="56.47042" lon="-5.35323">
        <ele>3.29</ele>
        <time>2021-03-20T14:39:09Z</time>
      </trkpt>
      <trkpt lat="56.47058" lon="-5.35234">
        <ele>5.1</ele>
        <time>2021-03-20T14:39:11Z</time>
      </trkpt>
      <trkpt lat="56.47067" lon="-5.35073">
        <ele>7.66</ele>
        <time>2021-03-20T14:39:14Z</time>
      </trkpt>
      <trkpt lat="56.47073" lon="-5.3505">
        <ele>8.16</ele>
        <time>2021-03-20T14:39:17Z</time>
      </trkpt>
      <trkpt lat="56.47129" lon="-5.34945">
        <ele>7.66</ele>
        <time>2021-03-20T14:39:20Z</time>
      </trkpt>
      <trkpt lat="56.47148" lon="-5.34897">
        <ele>7.9</ele>
        <time>2021-03-20T14:39:23Z</time>
      </trkpt>
      <trkpt lat="56.47167" lon="-5.34821">
        <ele>8.08</ele>
        <time>2021-03-20T14:39:26Z</time>
      </trkpt>
      <trkpt lat="56.47179" lon="-5.34746">
        <ele>9.73</ele>
        <time>2021-03-20T14:39:29Z</time>
      </trkpt>
      <trkpt lat="56.47181" lon="-5.34671">
        <ele>7.46</ele>
        <time>2021-03-20T14:39:32Z</time>
      </trkpt>
      <trkpt lat="56.47178" lon="-5.34574">
        <ele>4.93</ele>
        <time>2021-03-20T14:39:35Z</time>
      </trkpt>
      <trkpt lat="56.47173" lon="-5.3452">
        <ele>7.16</ele>
        <time>2021-03-20T14:39:38Z</time>
      </trkpt>
      <trkpt lat="56.47143" lon="-5.34455">
        <ele>6.68</ele>
        <time>2021-03-20T14:39:41Z</time>
      </trkpt>
      <trkpt lat="56.47133" lon="-5.34416">
        <ele>7.4</ele>
        <time>2021-03-20T14:39:44Z</time>
      </trkpt>
      <trkpt lat="56.47131" lon="-5.34375">
        <ele>7.55</ele>
        <time>2021-03-20T14:39:46Z</time>
      </trkpt>
      <trkpt lat="56.47143" lon="-5.34273">
        <ele>4.45</ele>
        <time>2021-03-20T14:39:49Z</time>
      </trkpt>
      <trkpt lat="56.47143" lon="-5.34223">
        <ele>4.54</ele>
        <time>2021-03-20T14:39:52Z</time>
      </trkpt>
      <trkpt lat="56.47123" lon="-5.34008">
        <ele>9.99</ele>
        <time>2021-03-20T14:39:55Z</time>
      </trkpt>
      <trkpt lat="56.47112" lon="-5.33939">
        <ele>5.28</ele>
        <time>2021-03-20T14:39:58Z</time>
      </trkpt>
      <trkpt lat="56.47091" lon="-5.33886">
        <ele>4.9</ele>
        <time>2021-03-20T14:40:01Z</time>
      </trkpt>
      <trkpt lat="56.47065" lon="-5.33836">
        <ele>4.59</ele>
        <time>2021-03-20T14:40:04Z</time>
      </trkpt>
      <trkpt lat="56.4704" lon="-5.33768">
        <ele>5.16</ele>
        <time>2021-03-20T14:40:07Z</time>
      </trkpt>
      <trkpt lat="56.4702" lon="-5.33751">
        <ele>5.35</ele>
        <time>2021-03-20T14:40:10Z</time>
      </trkpt>
      <trkpt lat="56.46983" lon="-5.33736">
        <ele>5.89</ele>
        <time>2021-03-20T14:40:13Z</time>
      </trkpt>
      <trkpt lat="56.46934" lon="-5.33688">
        <ele>5.87</ele>
        <time>2021-03-20T14:40:16Z</time>
      </trkpt>
      <trkpt lat="56.46907" lon="-5.33655">
        <ele>4.53</ele>
        <time>2021-03-20T14:40:19Z</time>
      </trkpt>
      <trkpt lat="56.46885" lon="-5.33615">
        <ele>4.3</ele>
        <time>2021-03-20T14:40:21Z</time>
      </trkpt>
      <trkpt lat="56.46859" lon="-5.33541">
        <ele>4.38</ele>
        <time>2021-03-20T14:40:24Z</time>
      </trkpt>
      <trkpt lat="56.46821" lon="-5.33467">
        <ele>5.46</ele>
        <time>2021-03-20T14:40:27Z</time>
      </trkpt>
      <trkpt lat="56.46685" lon="-5.33321">
        <ele>6.09</ele>
        <time>2021-03-20T14:40:30Z</time>
      </trkpt>
      <trkpt lat="56.4663" lon="-5.33235">
        <ele>5.35</ele>
        <time>2021-03-20T14:40:33Z</time>
      </trkpt>
      <trkpt lat="56.4663" lon="-5.33201">
        <ele>5.35</ele>
        <time>2021-03-20T14:40:36Z</time>
      </trkpt>
      <trkpt lat="56.46634" lon="-5.33132">
        <ele>5.61</ele>
        <time>2021-03-20T14:40:39Z</time>
      </trkpt>
      <trkpt lat="56.46629" lon="-5.33092">
        <ele>5.26</ele>
        <time>2021-03-20T14:40:42Z</time>
      </trkpt>
      <trkpt lat="56.46597" lon="-5.32977">
        <ele>5.42</ele>
        <time>2021-03-20T14:40:45Z</time>
      </trkpt>
      <trkpt lat="56.46588" lon="-5.32934">
        <ele>5.33</ele>
        <time>2021-03-20T14:40:48Z</time>
      </trkpt>
      <trkpt lat="56.46589" lon="-5.32888">
        <ele>5.57</ele>
        <time>2021-03-20T14:40:51Z</time>
      </trkpt>
      <trkpt lat="56.46614" lon="-5.3284">
        <ele>5.68</ele>
        <time>2021-03-20T14:40:54Z</time>
      </trkpt>
      <trkpt lat="56.46634" lon="-5.32791">
        <ele>3.76</ele>
        <time>2021-03-20T14:40:56Z</time>
      </trkpt>
      <trkpt lat="56.46659" lon="-5.32692">
        <ele>4.08</ele>
        <time>2021-03-20T14:40:59Z</time>
      </trkpt>
      <trkpt lat="56.46674" lon="-5.32591">
        <ele>2.93</ele>
        <time>2021-03-20T14:41:02Z</time>
      </trkpt>
      <trkpt lat="56.46676" lon="-5.32514">
        <ele>3.84</ele>
        <time>2021-03-20T14:41:05Z</time>
      </trkpt>
      <trkpt lat="56.46668" lon="-5.32452">
        <ele>3.02</ele>
        <time>2021-03-20T14:41:08Z</time>
      </trkpt>
      <trkpt lat="56.46643" lon="-5.32394">
        <ele>2.8</ele>
        <time>2021-03-20T14:41:11Z</time>
      </trkpt>
      <trkpt lat="56.46574" lon="-5.32285">
        <ele>3.48</ele>
        <time>2021-03-20T14:41:14Z</time>
      </trkpt>
      <trkpt lat="56.46527" lon="-5.32232">
        <ele>3.62</ele>
        <time>2021-03-20T14:41:17Z</time>
      </trkpt>
      <trkpt lat="56.46506" lon="-5.32202">
        <ele>3.97</ele>
        <time>2021-03-20T14:41:20Z</time>
      </trkpt>
      <trkpt lat="56.46486" lon="-5.3216">
        <ele>6.26</ele>
        <time>2021-03-20T14:41:23Z</time>
      </trkpt>
      <trkpt lat="56.46378" lon="-5.31883">
        <ele>1.72</ele>
        <time>2021-03-20T14:41:26Z</time>
      </trkpt>
      <trkpt lat="56.46376" lon="-5.31846">
        <ele>2.7</ele>
        <time>2021-03-20T14:41:29Z</time>
      </trkpt>
      <trkpt lat="56.46416" lon="-5.31719">
        <ele>5.91</ele>
        <time>2021-03-20T14:41:31Z</time>
      </trkpt>
      <trkpt lat="56.46419" lon="-5.31671">
        <ele>6.32</ele>
        <time>2021-03-20T14:41:34Z</time>
      </trkpt>
      <trkpt lat="56.46417" lon="-5.31625">
        <ele>4.81</ele>
        <time>2021-03-20T14:41:37Z</time>
      </trkpt>
      <trkpt lat="56.46392" lon="-5.31515">
        <ele>3.54</ele>
        <time>2021-03-20T14:41:40Z</time>
      </trkpt>
      <trkpt lat="56.46369" lon="-5.31359">
        <ele>1</ele>
        <time>2021-03-20T14:41:43Z</time>
      </trkpt>
      <trkpt lat="56.46345" lon="-5.31292">
        <ele>1.58</ele>
        <time>2021-03-20T14:41:46Z</time>
      </trkpt>
      <trkpt lat="56.46315" lon="-5.31131">
        <ele>1.63</ele>
        <time>2021-03-20T14:41:49Z</time>
      </trkpt>
      <trkpt lat="56.46311" lon="-5.31084">
        <ele>2.2</ele>
        <time>2021-03-20T14:41:52Z</time>
      </trkpt>
      <trkpt lat="56.46317" lon="-5.31038">
        <ele>2.84</ele>
        <time>2021-03-20T14:41:55Z</time>
      </trkpt>
      <trkpt lat="56.46328" lon="-5.30996">
        <ele>2.64</ele>
        <time>2021-03-20T14:41:58Z</time>
      </trkpt>
      <trkpt lat="56.46367" lon="-5.30904">
        <ele>4.51</ele>
        <time>2021-03-20T14:42:01Z</time>
      </trkpt>
      <trkpt lat="56.46372" lon="-5.30854">
        <ele>4.7</ele>
        <time>2021-03-20T14:42:04Z</time>
      </trkpt>
      <trkpt lat="56.46339" lon="-5.30655">
        <ele>5.22</ele>
        <time>2021-03-20T14:42:06Z</time>
      </trkpt>
      <trkpt lat="56.46295" lon="-5.30563">
        <ele>3.18</ele>
        <time>2021-03-20T14:42:09Z</time>
      </trkpt>
      <trkpt lat="56.46294" lon="-5.3054">
        <ele>2.98</ele>
        <time>2021-03-20T14:42:12Z</time>
      </trkpt>
      <trkpt lat="56.46315" lon="-5.30448">
        <ele>4.52</ele>
        <time>2021-03-20T14:42:15Z</time>
      </trkpt>
      <trkpt lat="56.46337" lon="-5.30314">
        <ele>7.16</ele>
        <time>2021-03-20T14:42:18Z</time>
      </trkpt>
      <trkpt lat="56.46347" lon="-5.3024">
        <ele>6.01</ele>
        <time>2021-03-20T14:42:21Z</time>
      </trkpt>
      <trkpt lat="56.46348" lon="-5.30076">
        <ele>4</ele>
        <time>2021-03-20T14:42:24Z</time>
      </trkpt>
      <trkpt lat="56.46344" lon="-5.29846">
        <ele>3.54</ele>
        <time>2021-03-20T14:42:27Z</time>
      </trkpt>
      <trkpt lat="56.46339" lon="-5.29787">
        <ele>4.66</ele>
        <time>2021-03-20T14:42:30Z</time>
      </trkpt>
      <trkpt lat="56.46329" lon="-5.29762">
        <ele>4.71</ele>
        <time>2021-03-20T14:42:33Z</time>
      </trkpt>
      <trkpt lat="56.46317" lon="-5.29743">
        <ele>3.79</ele>
        <time>2021-03-20T14:42:36Z</time>
      </trkpt>
      <trkpt lat="56.46303" lon="-5.2973">
        <ele>2.89</ele>
        <time>2021-03-20T14:42:39Z</time>
      </trkpt>
      <trkpt lat="56.46283" lon="-5.29714">
        <ele>2.49</ele>
        <time>2021-03-20T14:42:41Z</time>
      </trkpt>
      <trkpt lat="56.46266" lon="-5.29695">
        <ele>2.55</ele>
        <time>2021-03-20T14:42:44Z</time>
      </trkpt>
      <trkpt lat="56.46159" lon="-5.29417">
        <ele>4.42</ele>
        <time>2021-03-20T14:42:47Z</time>
      </trkpt>
      <trkpt lat="56.46159" lon="-5.29396">
        <ele>3.91</ele>
        <time>2021-03-20T14:42:50Z</time>
      </trkpt>
      <trkpt lat="56.46217" lon="-5.29204">
        <ele>5.93</ele>
        <time>2021-03-20T14:42:53Z</time>
      </trkpt>
      <trkpt lat="56.46222" lon="-5.29132">
        <ele>7.03</ele>
        <time>2021-03-20T14:42:56Z</time>
      </trkpt>
      <trkpt lat="56.46223" lon="-5.29072">
        <ele>7.43</ele>
        <time>2021-03-20T14:42:59Z</time>
      </trkpt>
      <trkpt lat="56.46213" lon="-5.29024">
        <ele>8.73</ele>
        <time>2021-03-20T14:43:02Z</time>
      </trkpt>
      <trkpt lat="56.4619" lon="-5.28964">
        <ele>6.77</ele>
        <time>2021-03-20T14:43:05Z</time>
      </trkpt>
      <trkpt lat="56.46188" lon="-5.28946">
        <ele>7.27</ele>
        <time>2021-03-20T14:43:08Z</time>
      </trkpt>
      <trkpt lat="56.46193" lon="-5.28919">
        <ele>10.63</ele>
        <time>2021-03-20T14:43:11Z</time>
      </trkpt>
      <trkpt lat="56.46287" lon="-5.28801">
        <ele>22.97</ele>
        <time>2021-03-20T14:43:14Z</time>
      </trkpt>
      <trkpt lat="56.46293" lon="-5.28774">
        <ele>26.22</ele>
        <time>2021-03-20T14:43:16Z</time>
      </trkpt>
      <trkpt lat="56.46279" lon="-5.28729">
        <ele>30.47</ele>
        <time>2021-03-20T14:43:19Z</time>
      </trkpt>
      <trkpt lat="56.4626" lon="-5.28702">
        <ele>28.32</ele>
        <time>2021-03-20T14:43:22Z</time>
      </trkpt>
      <trkpt lat="56.46254" lon="-5.28684">
        <ele>26.75</ele>
        <time>2021-03-20T14:43:25Z</time>
      </trkpt>
      <trkpt lat="56.46253" lon="-5.28613">
        <ele>25.43</ele>
        <time>2021-03-20T14:43:28Z</time>
      </trkpt>
      <trkpt lat="56.46228" lon="-5.28468">
        <ele>24.64</ele>
        <time>2021-03-20T14:43:31Z</time>
      </trkpt>
      <trkpt lat="56.46227" lon="-5.28413">
        <ele>22.58</ele>
        <time>2021-03-20T14:43:34Z</time>
      </trkpt>
      <trkpt lat="56.46249" lon="-5.28359">
        <ele>19.84</ele>
        <time>2021-03-20T14:43:37Z</time>
      </trkpt>
      <trkpt lat="56.46268" lon="-5.28289">
        <ele>17.15</ele>
        <time>2021-03-20T14:43:40Z</time>
      </trkpt>
      <trkpt lat="56.4634" lon="-5.27996">
        <ele>8.24</ele>
        <time>2021-03-20T14:43:43Z</time>
      </trkpt>
      <trkpt lat="56.46377" lon="-5.27935">
        <ele>7.46</ele>
        <time>2021-03-20T14:43:46Z</time>
      </trkpt>
      <trkpt lat="56.46477" lon="-5.27761">
        <ele>12.01</ele>
        <time>2021-03-20T14:43:48Z</time>
      </trkpt>
      <trkpt lat="56.46631" lon="-5.2733">
        <ele>18.61</ele>
        <time>2021-03-20T14:43:51Z</time>
      </trkpt>
      <trkpt lat="56.46631" lon="-5.27271">
        <ele>19.51</ele>
        <time>2021-03-20T14:43:54Z</time>
      </trkpt>
      <trkpt lat="56.46648" lon="-5.27186">
        <ele>20.37</ele>
        <time>2021-03-20T14:43:57Z</time>
      </trkpt>
      <trkpt lat="56.4669" lon="-5.27095">
        <ele>24.13</ele>
        <time>2021-03-20T14:44:00Z</time>
      </trkpt>
      <trkpt lat="56.46717" lon="-5.27061">
        <ele>25.68</ele>
        <time>2021-03-20T14:44:03Z</time>
      </trkpt>
      <trkpt lat="56.4678" lon="-5.27015">
        <ele>30.35</ele>
        <time>2021-03-20T14:44:06Z</time>
      </trkpt>
      <trkpt lat="56.46851" lon="-5.27021">
        <ele>37.34</ele>
        <time>2021-03-20T14:44:09Z</time>
      </trkpt>
      <trkpt lat="56.46883" lon="-5.26992">
        <ele>36.74</ele>
        <time>2021-03-20T14:44:12Z</time>
      </trkpt>
      <trkpt lat="56.46898" lon="-5.2699">
        <ele>38.24</ele>
        <time>2021-03-20T14:44:15Z</time>
      </trkpt>
      <trkpt lat="56.46927" lon="-5.27002">
        <ele>42.01</ele>
        <time>2021-03-20T14:44:17Z</time>
      </trkpt>
      <trkpt lat="56.46969" lon="-5.27054">
        <ele>49.75</ele>
        <time>2021-03-20T14:44:21Z</time>
      </trkpt>
      <trkpt lat="56.47001" lon="-5.27087">
        <ele>55.4</ele>
        <time>2021-03-20T14:44:24Z</time>
      </trkpt>
      <trkpt lat="56.47135" lon="-5.27176">
        <ele>64.75</ele>
        <time>2021-03-20T14:44:28Z</time>
      </trkpt>
      <trkpt lat="56.4725" lon="-5.27227">
        <ele>78.86</ele>
        <time>2021-03-20T14:44:31Z</time>
      </trkpt>
      <trkpt lat="56.4729" lon="-5.27261">
        <ele>83.13</ele>
        <time>2021-03-20T14:44:35Z</time>
      </trkpt>
      <trkpt lat="56.47359" lon="-5.27341">
        <ele>92.06</ele>
        <time>2021-03-20T14:44:39Z</time>
      </trkpt>
      <trkpt lat="56.47461" lon="-5.27476">
        <ele>106.46</ele>
        <time>2021-03-20T14:44:42Z</time>
      </trkpt>
      <trkpt lat="56.47485" lon="-5.27497">
        <ele>109.08</ele>
        <time>2021-03-20T14:44:46Z</time>
      </trkpt>
      <trkpt lat="56.47503" lon="-5.27498">
        <ele>109.97</ele>
        <time>2021-03-20T14:44:49Z</time>
      </trkpt>
      <trkpt lat="56.47525" lon="-5.27496">
        <ele>111.35</ele>
        <time>2021-03-20T14:44:53Z</time>
      </trkpt>
      <trkpt lat="56.47596" lon="-5.27464">
        <ele>115.23</ele>
        <time>2021-03-20T14:44:56Z</time>
      </trkpt>
      <trkpt lat="56.47812" lon="-5.2747">
        <ele>141.54</ele>
        <time>2021-03-20T14:45:00Z</time>
      </trkpt>
      <trkpt lat="56.47836" lon="-5.27461">
        <ele>143.25</ele>
        <time>2021-03-20T14:45:04Z</time>
      </trkpt>
      <trkpt lat="56.4786" lon="-5.27443">
        <ele>145.43</ele>
        <time>2021-03-20T14:45:07Z</time>
      </trkpt>
      <trkpt lat="56.47892" lon="-5.27399">
        <ele>149.69</ele>
        <time>2021-03-20T14:45:11Z</time>
      </trkpt>
      <trkpt lat="56.47936" lon="-5.27349">
        <ele>153.91</ele>
        <time>2021-03-20T14:45:14Z</time>
      </trkpt>
      <trkpt lat="56.4795" lon="-5.27344">
        <ele>155.35</ele>
        <time>2021-03-20T14:45:18Z</time>
      </trkpt>
      <trkpt lat="56.48051" lon="-5.27381">
        <ele>166.46</ele>
        <time>2021-03-20T14:45:21Z</time>
      </trkpt>
      <trkpt lat="56.48111" lon="-5.27411">
        <ele>167.41</ele>
        <time>2021-03-20T14:45:25Z</time>
      </trkpt>
      <trkpt lat="56.48183" lon="-5.27457">
        <ele>167.6</ele>
        <time>2021-03-20T14:45:29Z</time>
      </trkpt>
      <trkpt lat="56.48489" lon="-5.27671">
        <ele>166.01</ele>
        <time>2021-03-20T14:45:32Z</time>
      </trkpt>
      <trkpt lat="56.4865" lon="-5.27741">
        <ele>161.49</ele>
        <time>2021-03-20T14:45:36Z</time>
      </trkpt>
      <trkpt lat="56.48698" lon="-5.27768">
        <ele>158.33</ele>
        <time>2021-03-20T14:45:39Z</time>
      </trkpt>
      <trkpt lat="56.48732" lon="-5.27795">
        <ele>158.19</ele>
        <time>2021-03-20T14:45:43Z</time>
      </trkpt>
      <trkpt lat="56.48797" lon="-5.27891">
        <ele>157.4</ele>
        <time>2021-03-20T14:45:46Z</time>
      </trkpt>
      <trkpt lat="56.48879" lon="-5.27962">
        <ele>155.68</ele>
        <time>2021-03-20T14:45:50Z</time>
      </trkpt>
      <trkpt lat="56.49125" lon="-5.28151">
        <ele>150.95</ele>
        <time>2021-03-20T14:45:54Z</time>
      </trkpt>
      <trkpt lat="56.49241" lon="-5.28252">
        <ele>152.01</ele>
        <time>2021-03-20T14:45:57Z</time>
      </trkpt>
      <trkpt lat="56.4928" lon="-5.28294">
        <ele>150.16</ele>
        <time>2021-03-20T14:46:01Z</time>
      </trkpt>
      <trkpt lat="56.49313" lon="-5.28338">
        <ele>150.14</ele>
        <time>2021-03-20T14:46:04Z</time>
      </trkpt>
      <trkpt lat="56.49341" lon="-5.28368">
        <ele>149.82</ele>
        <time>2021-03-20T14:46:08Z</time>
      </trkpt>
      <trkpt lat="56.4937" lon="-5.28409">
        <ele>150.02</ele>
        <time>2021-03-20T14:46:11Z</time>
      </trkpt>
      <trkpt lat="56.4941" lon="-5.28458">
        <ele>149.18</ele>
        <time>2021-03-20T14:46:15Z</time>
      </trkpt>
      <trkpt lat="56.49519" lon="-5.28577">
        <ele>149.76</ele>
        <time>2021-03-20T14:46:19Z</time>
      </trkpt>
      <trkpt lat="56.49684" lon="-5.28812">
        <ele>145.64</ele>
        <time>2021-03-20T14:46:22Z</time>
      </trkpt>
      <trkpt lat="56.49747" lon="-5.28857">
        <ele>141.18</ele>
        <time>2021-03-20T14:46:26Z</time>
      </trkpt>
      <trkpt lat="56.49774" lon="-5.28894">
        <ele>140.67</ele>
        <time>2021-03-20T14:46:29Z</time>
      </trkpt>
      <trkpt lat="56.49801" lon="-5.28952">
        <ele>140.67</ele>
        <time>2021-03-20T14:46:33Z</time>
      </trkpt>
      <trkpt lat="56.49846" lon="-5.29066">
        <ele>142.96</ele>
        <time>2021-03-20T14:46:36Z</time>
      </trkpt>
      <trkpt lat="56.49902" lon="-5.29167">
        <ele>141.92</ele>
        <time>2021-03-20T14:46:40Z</time>
      </trkpt>
      <trkpt lat="56.49936" lon="-5.29264">
        <ele>136.75</ele>
        <time>2021-03-20T14:46:44Z</time>
      </trkpt>
      <trkpt lat="56.49992" lon="-5.29437">
        <ele>133.7</ele>
        <time>2021-03-20T14:46:47Z</time>
      </trkpt>
      <trkpt lat="56.50041" lon="-5.29547">
        <ele>133.74</ele>
        <time>2021-03-20T14:46:51Z</time>
      </trkpt>
      <trkpt lat="56.50058" lon="-5.29577">
        <ele>135.19</ele>
        <time>2021-03-20T14:46:54Z</time>
      </trkpt>
      <trkpt lat="56.5008" lon="-5.29605">
        <ele>136.08</ele>
        <time>2021-03-20T14:46:58Z</time>
      </trkpt>
      <trkpt lat="56.50195" lon="-5.29707">
        <ele>137</ele>
        <time>2021-03-20T14:47:02Z</time>
      </trkpt>
      <trkpt lat="56.50224" lon="-5.2975">
        <ele>137</ele>
        <time>2021-03-20T14:47:05Z</time>
      </trkpt>
      <trkpt lat="56.50323" lon="-5.29902">
        <ele>133.53</ele>
        <time>2021-03-20T14:47:09Z</time>
      </trkpt>
      <trkpt lat="56.50336" lon="-5.29943">
        <ele>133.01</ele>
        <time>2021-03-20T14:47:12Z</time>
      </trkpt>
      <trkpt lat="56.50339" lon="-5.29976">
        <ele>134.72</ele>
        <time>2021-03-20T14:47:16Z</time>
      </trkpt>
      <trkpt lat="56.50364" lon="-5.30027">
        <ele>133.78</ele>
        <time>2021-03-20T14:47:19Z</time>
      </trkpt>
      <trkpt lat="56.50388" lon="-5.30056">
        <ele>132.22</ele>
        <time>2021-03-20T14:47:23Z</time>
      </trkpt>
      <trkpt lat="56.50425" lon="-5.3009">
        <ele>136.04</ele>
        <time>2021-03-20T14:47:27Z</time>
      </trkpt>
      <trkpt lat="56.5044" lon="-5.30099">
        <ele>137.77</ele>
        <time>2021-03-20T14:47:30Z</time>
      </trkpt>
      <trkpt lat="56.50472" lon="-5.30106">
        <ele>138.99</ele>
        <time>2021-03-20T14:47:34Z</time>
      </trkpt>
      <trkpt lat="56.50514" lon="-5.3012">
        <ele>141.27</ele>
        <time>2021-03-20T14:47:37Z</time>
      </trkpt>
      <trkpt lat="56.50568" lon="-5.30156">
        <ele>147.25</ele>
        <time>2021-03-20T14:47:41Z</time>
      </trkpt>
      <trkpt lat="56.5071" lon="-5.30286">
        <ele>155.44</ele>
        <time>2021-03-20T14:47:44Z</time>
      </trkpt>
      <trkpt lat="56.50775" lon="-5.30352">
        <ele>149.66</ele>
        <time>2021-03-20T14:47:48Z</time>
      </trkpt>
      <trkpt lat="56.50839" lon="-5.30454">
        <ele>146.86</ele>
        <time>2021-03-20T14:47:52Z</time>
      </trkpt>
      <trkpt lat="56.50952" lon="-5.30568">
        <ele>127.11</ele>
        <time>2021-03-20T14:47:55Z</time>
      </trkpt>
      <trkpt lat="56.50971" lon="-5.30638">
        <ele>125.34</ele>
        <time>2021-03-20T14:47:59Z</time>
      </trkpt>
      <trkpt lat="56.51017" lon="-5.30723">
        <ele>115.31</ele>
        <time>2021-03-20T14:48:02Z</time>
      </trkpt>
      <trkpt lat="56.51027" lon="-5.30768">
        <ele>112.13</ele>
        <time>2021-03-20T14:48:06Z</time>
      </trkpt>
      <trkpt lat="56.51121" lon="-5.30955">
        <ele>101.72</ele>
        <time>2021-03-20T14:48:09Z</time>
      </trkpt>
      <trkpt lat="56.51131" lon="-5.31016">
        <ele>94.91</ele>
        <time>2021-03-20T14:48:13Z</time>
      </trkpt>
      <trkpt lat="56.51145" lon="-5.31049">
        <ele>91.2</ele>
        <time>2021-03-20T14:48:17Z</time>
      </trkpt>
      <trkpt lat="56.51193" lon="-5.31106">
        <ele>86.12</ele>
        <time>2021-03-20T14:48:20Z</time>
      </trkpt>
      <trkpt lat="56.5126" lon="-5.31179">
        <ele>80.71</ele>
        <time>2021-03-20T14:48:24Z</time>
      </trkpt>
      <trkpt lat="56.51342" lon="-5.31343">
        <ele>72.93</ele>
        <time>2021-03-20T14:48:27Z</time>
      </trkpt>
      <trkpt lat="56.51369" lon="-5.31393">
        <ele>71.19</ele>
        <time>2021-03-20T14:48:31Z</time>
      </trkpt>
      <trkpt lat="56.51387" lon="-5.31449">
        <ele>68.5</ele>
        <time>2021-03-20T14:48:34Z</time>
      </trkpt>
      <trkpt lat="56.51405" lon="-5.3146">
        <ele>66.47</ele>
        <time>2021-03-20T14:48:38Z</time>
      </trkpt>
      <trkpt lat="56.51423" lon="-5.31465">
        <ele>63.6</ele>
        <time>2021-03-20T14:48:42Z</time>
      </trkpt>
      <trkpt lat="56.51458" lon="-5.31468">
        <ele>57.69</ele>
        <time>2021-03-20T14:48:45Z</time>
      </trkpt>
      <trkpt lat="56.51502" lon="-5.31461">
        <ele>54.32</ele>
        <time>2021-03-20T14:48:49Z</time>
      </trkpt>
      <trkpt lat="56.51562" lon="-5.31433">
        <ele>53.2</ele>
        <time>2021-03-20T14:48:52Z</time>
      </trkpt>
      <trkpt lat="56.51601" lon="-5.31419">
        <ele>51.73</ele>
        <time>2021-03-20T14:48:56Z</time>
      </trkpt>
      <trkpt lat="56.51623" lon="-5.3142">
        <ele>49.73</ele>
        <time>2021-03-20T14:48:59Z</time>
      </trkpt>
      <trkpt lat="56.51645" lon="-5.31436">
        <ele>47.32</ele>
        <time>2021-03-20T14:49:03Z</time>
      </trkpt>
      <trkpt lat="56.51668" lon="-5.31476">
        <ele>46</ele>
        <time>2021-03-20T14:49:07Z</time>
      </trkpt>
      <trkpt lat="56.51694" lon="-5.31526">
        <ele>46</ele>
        <time>2021-03-20T14:49:10Z</time>
      </trkpt>
      <trkpt lat="56.51722" lon="-5.31616">
        <ele>44.83</ele>
        <time>2021-03-20T14:49:14Z</time>
      </trkpt>
      <trkpt lat="56.51744" lon="-5.31703">
        <ele>40.06</ele>
        <time>2021-03-20T14:49:17Z</time>
      </trkpt>
      <trkpt lat="56.51756" lon="-5.31726">
        <ele>38.64</ele>
        <time>2021-03-20T14:49:21Z</time>
      </trkpt>
      <trkpt lat="56.51767" lon="-5.31735">
        <ele>37.93</ele>
        <time>2021-03-20T14:49:24Z</time>
      </trkpt>
      <trkpt lat="56.518" lon="-5.31743">
        <ele>36.43</ele>
        <time>2021-03-20T14:49:28Z</time>
      </trkpt>
      <trkpt lat="56.51822" lon="-5.31768">
        <ele>34.8</ele>
        <time>2021-03-20T14:49:32Z</time>
      </trkpt>
      <trkpt lat="56.51842" lon="-5.31799">
        <ele>34.47</ele>
        <time>2021-03-20T14:49:35Z</time>
      </trkpt>
      <trkpt lat="56.51894" lon="-5.31986">
        <ele>30.67</ele>
        <time>2021-03-20T14:49:39Z</time>
      </trkpt>
      <trkpt lat="56.5192" lon="-5.32046">
        <ele>29.87</ele>
        <time>2021-03-20T14:49:42Z</time>
      </trkpt>
      <trkpt lat="56.51954" lon="-5.32113">
        <ele>29.74</ele>
        <time>2021-03-20T14:49:46Z</time>
      </trkpt>
      <trkpt lat="56.51967" lon="-5.32123">
        <ele>27.95</ele>
        <time>2021-03-20T14:49:49Z</time>
      </trkpt>
      <trkpt lat="56.52007" lon="-5.32124">
        <ele>21.09</ele>
        <time>2021-03-20T14:49:53Z</time>
      </trkpt>
      <trkpt lat="56.52026" lon="-5.32088">
        <ele>17.37</ele>
        <time>2021-03-20T14:49:57Z</time>
      </trkpt>
      <trkpt lat="56.52143" lon="-5.31921">
        <ele>16.55</ele>
        <time>2021-03-20T14:50:00Z</time>
      </trkpt>
      <trkpt lat="56.5217" lon="-5.31926">
        <ele>14.65</ele>
        <time>2021-03-20T14:50:04Z</time>
      </trkpt>
      <trkpt lat="56.52174" lon="-5.31867">
        <ele>16.57</ele>
        <time>2021-03-20T14:50:06Z</time>
      </trkpt>
      <trkpt lat="56.52181" lon="-5.31803">
        <ele>17.56</ele>
        <time>2021-03-20T14:50:09Z</time>
      </trkpt>
      <trkpt lat="56.52195" lon="-5.31747">
        <ele>17.9</ele>
        <time>2021-03-20T14:50:12Z</time>
      </trkpt>
      <trkpt lat="56.5221" lon="-5.31698">
        <ele>16.51</ele>
        <time>2021-03-20T14:50:14Z</time>
      </trkpt>
      <trkpt lat="56.52246" lon="-5.31625">
        <ele>14.57</ele>
        <time>2021-03-20T14:50:17Z</time>
      </trkpt>
      <trkpt lat="56.52273" lon="-5.3159">
        <ele>15</ele>
        <time>2021-03-20T14:50:20Z</time>
      </trkpt>
      <trkpt lat="56.52371" lon="-5.31485">
        <ele>15.35</ele>
        <time>2021-03-20T14:50:22Z</time>
      </trkpt>
      <trkpt lat="56.52592" lon="-5.31232">
        <ele>12.66</ele>
        <time>2021-03-20T14:50:25Z</time>
      </trkpt>
      <trkpt lat="56.52639" lon="-5.31182">
        <ele>13.44</ele>
        <time>2021-03-20T14:50:28Z</time>
      </trkpt>
      <trkpt lat="56.52698" lon="-5.31137">
        <ele>12.94</ele>
        <time>2021-03-20T14:50:30Z</time>
      </trkpt>
      <trkpt lat="56.52762" lon="-5.31112">
        <ele>9.58</ele>
        <time>2021-03-20T14:50:33Z</time>
      </trkpt>
      <trkpt lat="56.52818" lon="-5.31099">
        <ele>8.54</ele>
        <time>2021-03-20T14:50:35Z</time>
      </trkpt>
      <trkpt lat="56.52845" lon="-5.31082">
        <ele>7.6</ele>
        <time>2021-03-20T14:50:38Z</time>
      </trkpt>
      <trkpt lat="56.52872" lon="-5.31058">
        <ele>7.49</ele>
        <time>2021-03-20T14:50:41Z</time>
      </trkpt>
      <trkpt lat="56.52894" lon="-5.31023">
        <ele>8</ele>
        <time>2021-03-20T14:50:43Z</time>
      </trkpt>
      <trkpt lat="56.52931" lon="-5.30941">
        <ele>13.77</ele>
        <time>2021-03-20T14:50:46Z</time>
      </trkpt>
      <trkpt lat="56.52954" lon="-5.30897">
        <ele>17.72</ele>
        <time>2021-03-20T14:50:49Z</time>
      </trkpt>
      <trkpt lat="56.52978" lon="-5.30866">
        <ele>20.5</ele>
        <time>2021-03-20T14:50:51Z</time>
      </trkpt>
      <trkpt lat="56.53008" lon="-5.30842">
        <ele>21.12</ele>
        <time>2021-03-20T14:50:54Z</time>
      </trkpt>
      <trkpt lat="56.53106" lon="-5.3079">
        <ele>21.03</ele>
        <time>2021-03-20T14:50:57Z</time>
      </trkpt>
      <trkpt lat="56.53148" lon="-5.30772">
        <ele>20.69</ele>
        <time>2021-03-20T14:50:59Z</time>
      </trkpt>
      <trkpt lat="56.53186" lon="-5.30772">
        <ele>17.4</ele>
        <time>2021-03-20T14:51:02Z</time>
      </trkpt>
      <trkpt lat="56.53254" lon="-5.30798">
        <ele>11.12</ele>
        <time>2021-03-20T14:51:05Z</time>
      </trkpt>
      <trkpt lat="56.53272" lon="-5.30798">
        <ele>9.73</ele>
        <time>2021-03-20T14:51:07Z</time>
      </trkpt>
      <trkpt lat="56.53291" lon="-5.30791">
        <ele>9.55</ele>
        <time>2021-03-20T14:51:10Z</time>
      </trkpt>
      <trkpt lat="56.53308" lon="-5.30777">
        <ele>7.28</ele>
        <time>2021-03-20T14:51:13Z</time>
      </trkpt>
      <trkpt lat="56.53329" lon="-5.30751">
        <ele>10.23</ele>
        <time>2021-03-20T14:51:15Z</time>
      </trkpt>
      <trkpt lat="56.53365" lon="-5.30674">
        <ele>10.75</ele>
        <time>2021-03-20T14:51:18Z</time>
      </trkpt>
      <trkpt lat="56.53384" lon="-5.30641">
        <ele>8.23</ele>
        <time>2021-03-20T14:51:20Z</time>
      </trkpt>
      <trkpt lat="56.53406" lon="-5.30613">
        <ele>6.17</ele>
        <time>2021-03-20T14:51:23Z</time>
      </trkpt>
      <trkpt lat="56.53451" lon="-5.30577">
        <ele>3.91</ele>
        <time>2021-03-20T14:51:26Z</time>
      </trkpt>
      <trkpt lat="56.53465" lon="-5.3056">
        <ele>5.66</ele>
        <time>2021-03-20T14:51:28Z</time>
      </trkpt>
      <trkpt lat="56.53497" lon="-5.30512">
        <ele>11.66</ele>
        <time>2021-03-20T14:51:31Z</time>
      </trkpt>
      <trkpt lat="56.53542" lon="-5.30435">
        <ele>17.68</ele>
        <time>2021-03-20T14:51:34Z</time>
      </trkpt>
      <trkpt lat="56.53572" lon="-5.30398">
        <ele>20.35</ele>
        <time>2021-03-20T14:51:36Z</time>
      </trkpt>
      <trkpt lat="56.53593" lon="-5.30391">
        <ele>20.86</ele>
        <time>2021-03-20T14:51:39Z</time>
      </trkpt>
      <trkpt lat="56.53612" lon="-5.30392">
        <ele>20.78</ele>
        <time>2021-03-20T14:51:42Z</time>
      </trkpt>
      <trkpt lat="56.53676" lon="-5.30407">
        <ele>16.48</ele>
        <time>2021-03-20T14:51:44Z</time>
      </trkpt>
      <trkpt lat="56.53718" lon="-5.30407">
        <ele>13.18</ele>
        <time>2021-03-20T14:51:47Z</time>
      </trkpt>
      <trkpt lat="56.53779" lon="-5.30399">
        <ele>9.45</ele>
        <time>2021-03-20T14:51:50Z</time>
      </trkpt>
      <trkpt lat="56.53838" lon="-5.30381">
        <ele>11.04</ele>
        <time>2021-03-20T14:51:52Z</time>
      </trkpt>
      <trkpt lat="56.54028" lon="-5.30357">
        <ele>5.57</ele>
        <time>2021-03-20T14:51:55Z</time>
      </trkpt>
      <trkpt lat="56.54062" lon="-5.30345">
        <ele>7.2</ele>
        <time>2021-03-20T14:51:58Z</time>
      </trkpt>
      <trkpt lat="56.54087" lon="-5.30323">
        <ele>6.24</ele>
        <time>2021-03-20T14:52:00Z</time>
      </trkpt>
      <trkpt lat="56.54119" lon="-5.3027">
        <ele>8.5</ele>
        <time>2021-03-20T14:52:03Z</time>
      </trkpt>
      <trkpt lat="56.54162" lon="-5.3021">
        <ele>9.67</ele>
        <time>2021-03-20T14:52:05Z</time>
      </trkpt>
      <trkpt lat="56.54187" lon="-5.30157">
        <ele>7.57</ele>
        <time>2021-03-20T14:52:08Z</time>
      </trkpt>
      <trkpt lat="56.54206" lon="-5.30094">
        <ele>7.05</ele>
        <time>2021-03-20T14:52:11Z</time>
      </trkpt>
      <trkpt lat="56.54218" lon="-5.30034">
        <ele>6.81</ele>
        <time>2021-03-20T14:52:13Z</time>
      </trkpt>
      <trkpt lat="56.54238" lon="-5.29865">
        <ele>8.3</ele>
        <time>2021-03-20T14:52:16Z</time>
      </trkpt>
      <trkpt lat="56.54243" lon="-5.29788">
        <ele>5.34</ele>
        <time>2021-03-20T14:52:19Z</time>
      </trkpt>
      <trkpt lat="56.54255" lon="-5.29732">
        <ele>4.72</ele>
        <time>2021-03-20T14:52:21Z</time>
      </trkpt>
      <trkpt lat="56.54267" lon="-5.29708">
        <ele>4.15</ele>
        <time>2021-03-20T14:52:24Z</time>
      </trkpt>
      <trkpt lat="56.54288" lon="-5.29682">
        <ele>5.1</ele>
        <time>2021-03-20T14:52:27Z</time>
      </trkpt>
      <trkpt lat="56.54331" lon="-5.29644">
        <ele>14.15</ele>
        <time>2021-03-20T14:52:29Z</time>
      </trkpt>
      <trkpt lat="56.54359" lon="-5.29604">
        <ele>14.51</ele>
        <time>2021-03-20T14:52:32Z</time>
      </trkpt>
      <trkpt lat="56.54375" lon="-5.29568">
        <ele>9.25</ele>
        <time>2021-03-20T14:52:35Z</time>
      </trkpt>
      <trkpt lat="56.54386" lon="-5.29529">
        <ele>5.57</ele>
        <time>2021-03-20T14:52:37Z</time>
      </trkpt>
      <trkpt lat="56.54411" lon="-5.29352">
        <ele>13.08</ele>
        <time>2021-03-20T14:52:40Z</time>
      </trkpt>
      <trkpt lat="56.54419" lon="-5.2932">
        <ele>12.75</ele>
        <time>2021-03-20T14:52:43Z</time>
      </trkpt>
      <trkpt lat="56.54426" lon="-5.29323">
        <ele>10.41</ele>
        <time>2021-03-20T14:52:44Z</time>
      </trkpt>
      <trkpt lat="56.54433" lon="-5.29317">
        <ele>9.06</ele>
        <time>2021-03-20T14:52:46Z</time>
      </trkpt>
      <trkpt lat="56.54435" lon="-5.2931">
        <ele>8.79</ele>
        <time>2021-03-20T14:52:48Z</time>
      </trkpt>
      <trkpt lat="56.54435" lon="-5.29303">
        <ele>9.12</ele>
        <time>2021-03-20T14:52:50Z</time>
      </trkpt>
      <trkpt lat="56.54433" lon="-5.29293">
        <ele>10.66</ele>
        <time>2021-03-20T14:52:52Z</time>
      </trkpt>
      <trkpt lat="56.54451" lon="-5.29263">
        <ele>7.6</ele>
        <time>2021-03-20T14:52:54Z</time>
      </trkpt>
      <trkpt lat="56.54482" lon="-5.29204">
        <ele>6.54</ele>
        <time>2021-03-20T14:52:55Z</time>
      </trkpt>
      <trkpt lat="56.54514" lon="-5.29153">
        <ele>7</ele>
        <time>2021-03-20T14:52:57Z</time>
      </trkpt>
      <trkpt lat="56.54549" lon="-5.29115">
        <ele>7.2</ele>
        <time>2021-03-20T14:52:59Z</time>
      </trkpt>
      <trkpt lat="56.54585" lon="-5.29092">
        <ele>7</ele>
        <time>2021-03-20T14:53:01Z</time>
      </trkpt>
      <trkpt lat="56.54658" lon="-5.29069">
        <ele>7.13</ele>
        <time>2021-03-20T14:53:03Z</time>
      </trkpt>
      <trkpt lat="56.54813" lon="-5.29038">
        <ele>4.54</ele>
        <time>2021-03-20T14:53:05Z</time>
      </trkpt>
      <trkpt lat="56.5485" lon="-5.29038">
        <ele>14.71</ele>
        <time>2021-03-20T14:53:06Z</time>
      </trkpt>
      <trkpt lat="56.54878" lon="-5.29045">
        <ele>18.58</ele>
        <time>2021-03-20T14:53:08Z</time>
      </trkpt>
      <trkpt lat="56.54906" lon="-5.29058">
        <ele>18.16</ele>
        <time>2021-03-20T14:53:10Z</time>
      </trkpt>
      <trkpt lat="56.54933" lon="-5.29077">
        <ele>14.95</ele>
        <time>2021-03-20T14:53:12Z</time>
      </trkpt>
      <trkpt lat="56.54957" lon="-5.29105">
        <ele>11.95</ele>
        <time>2021-03-20T14:53:14Z</time>
      </trkpt>
      <trkpt lat="56.54975" lon="-5.29131">
        <ele>10.4</ele>
        <time>2021-03-20T14:53:16Z</time>
      </trkpt>
      <trkpt lat="56.55" lon="-5.29176">
        <ele>10.62</ele>
        <time>2021-03-20T14:53:17Z</time>
      </trkpt>
      <trkpt lat="56.55013" lon="-5.29213">
        <ele>12.23</ele>
        <time>2021-03-20T14:53:19Z</time>
      </trkpt>
      <trkpt lat="56.55018" lon="-5.2924">
        <ele>13.59</ele>
        <time>2021-03-20T14:53:21Z</time>
      </trkpt>
      <trkpt lat="56.55013" lon="-5.29251">
        <ele>12.8</ele>
        <time>2021-03-20T14:53:26Z</time>
      </trkpt>
      <trkpt lat="56.55013" lon="-5.29265">
        <ele>13.05</ele>
        <time>2021-03-20T14:53:30Z</time>
      </trkpt>
      <trkpt lat="56.54993" lon="-5.293">
        <ele>9.52</ele>
        <time>2021-03-20T14:53:35Z</time>
      </trkpt>
      <trkpt lat="56.54977" lon="-5.2935">
        <ele>7.66</ele>
        <time>2021-03-20T14:53:40Z</time>
      </trkpt>
      <trkpt lat="56.54966" lon="-5.29421">
        <ele>8.68</ele>
        <time>2021-03-20T14:53:44Z</time>
      </trkpt>
      <trkpt lat="56.54956" lon="-5.29528">
        <ele>9.7</ele>
        <time>2021-03-20T14:53:49Z</time>
      </trkpt>
      <trkpt lat="56.549" lon="-5.29691">
        <ele>5.09</ele>
        <time>2021-03-20T14:53:54Z</time>
      </trkpt>
      <trkpt lat="56.54898" lon="-5.29727">
        <ele>5.14</ele>
        <time>2021-03-20T14:53:58Z</time>
      </trkpt>
      <trkpt lat="56.54901" lon="-5.29764">
        <ele>5.09</ele>
        <time>2021-03-20T14:54:03Z</time>
      </trkpt>
      <trkpt lat="56.54908" lon="-5.29796">
        <ele>5.36</ele>
        <time>2021-03-20T14:54:08Z</time>
      </trkpt>
      <trkpt lat="56.5492" lon="-5.29821">
        <ele>5.69</ele>
        <time>2021-03-20T14:54:12Z</time>
      </trkpt>
      <trkpt lat="56.54933" lon="-5.29839">
        <ele>5.81</ele>
        <time>2021-03-20T14:54:17Z</time>
      </trkpt>
      <trkpt lat="56.54947" lon="-5.29851">
        <ele>5.66</ele>
        <time>2021-03-20T14:54:22Z</time>
      </trkpt>
      <trkpt lat="56.54965" lon="-5.29855">
        <ele>4.89</ele>
        <time>2021-03-20T14:54:26Z</time>
      </trkpt>
      <trkpt lat="56.55012" lon="-5.29856">
        <ele>6.27</ele>
        <time>2021-03-20T14:54:31Z</time>
      </trkpt>
      <trkpt lat="56.55024" lon="-5.29863">
        <ele>6.58</ele>
        <time>2021-03-20T14:54:36Z</time>
      </trkpt>
      <trkpt lat="56.55042" lon="-5.29883">
        <ele>6.32</ele>
        <time>2021-03-20T14:54:40Z</time>
      </trkpt>
      <trkpt lat="56.55096" lon="-5.30005">
        <ele>6.01</ele>
        <time>2021-03-20T14:54:45Z</time>
      </trkpt>
      <trkpt lat="56.55135" lon="-5.30113">
        <ele>6.84</ele>
        <time>2021-03-20T14:54:50Z</time>
      </trkpt>
      <trkpt lat="56.55142" lon="-5.30145">
        <ele>7.11</ele>
        <time>2021-03-20T14:54:54Z</time>
      </trkpt>
      <trkpt lat="56.55145" lon="-5.30202">
        <ele>8.29</ele>
        <time>2021-03-20T14:54:59Z</time>
      </trkpt>
      <trkpt lat="56.55133" lon="-5.30376">
        <ele>4.57</ele>
        <time>2021-03-20T14:55:04Z</time>
      </trkpt>
      <trkpt lat="56.55132" lon="-5.30434">
        <ele>5.18</ele>
        <time>2021-03-20T14:55:08Z</time>
      </trkpt>
      <trkpt lat="56.55134" lon="-5.30531">
        <ele>8.36</ele>
        <time>2021-03-20T14:55:13Z</time>
      </trkpt>
      <trkpt lat="56.55156" lon="-5.31093">
        <ele>16.47</ele>
        <time>2021-03-20T14:55:17Z</time>
      </trkpt>
      <trkpt lat="56.55162" lon="-5.3116">
        <ele>17.44</ele>
        <time>2021-03-20T14:55:22Z</time>
      </trkpt>
      <trkpt lat="56.55178" lon="-5.31296">
        <ele>20.61</ele>
        <time>2021-03-20T14:55:27Z</time>
      </trkpt>
      <trkpt lat="56.55183" lon="-5.31367">
        <ele>22.15</ele>
        <time>2021-03-20T14:55:31Z</time>
      </trkpt>
      <trkpt lat="56.55182" lon="-5.31438">
        <ele>21.67</ele>
        <time>2021-03-20T14:55:36Z</time>
      </trkpt>
      <trkpt lat="56.55179" lon="-5.31495">
        <ele>20.73</ele>
        <time>2021-03-20T14:55:41Z</time>
      </trkpt>
      <trkpt lat="56.55156" lon="-5.31676">
        <ele>19.79</ele>
        <time>2021-03-20T14:55:45Z</time>
      </trkpt>
      <trkpt lat="56.55154" lon="-5.31716">
        <ele>19.61</ele>
        <time>2021-03-20T14:55:50Z</time>
      </trkpt>
      <trkpt lat="56.55154" lon="-5.31749">
        <ele>19.26</ele>
        <time>2021-03-20T14:55:55Z</time>
      </trkpt>
      <trkpt lat="56.55158" lon="-5.31792">
        <ele>19.34</ele>
        <time>2021-03-20T14:55:59Z</time>
      </trkpt>
      <trkpt lat="56.55193" lon="-5.31996">
        <ele>21.07</ele>
        <time>2021-03-20T14:56:04Z</time>
      </trkpt>
      <trkpt lat="56.55206" lon="-5.32057">
        <ele>19.8</ele>
        <time>2021-03-20T14:56:09Z</time>
      </trkpt>
      <trkpt lat="56.55265" lon="-5.32255">
        <ele>17.55</ele>
        <time>2021-03-20T14:56:13Z</time>
      </trkpt>
      <trkpt lat="56.55292" lon="-5.32352">
        <ele>18.15</ele>
        <time>2021-03-20T14:56:18Z</time>
      </trkpt>
      <trkpt lat="56.5531" lon="-5.3243">
        <ele>17.76</ele>
        <time>2021-03-20T14:56:23Z</time>
      </trkpt>
      <trkpt lat="56.55328" lon="-5.32518">
        <ele>16.82</ele>
        <time>2021-03-20T14:56:27Z</time>
      </trkpt>
      <trkpt lat="56.5538" lon="-5.32812">
        <ele>20.67</ele>
        <time>2021-03-20T14:56:32Z</time>
      </trkpt>
      <trkpt lat="56.5546" lon="-5.33097">
        <ele>27.57</ele>
        <time>2021-03-20T14:56:37Z</time>
      </trkpt>
      <trkpt lat="56.55536" lon="-5.33444">
        <ele>32.31</ele>
        <time>2021-03-20T14:56:41Z</time>
      </trkpt>
      <trkpt lat="56.55644" lon="-5.34043">
        <ele>28.45</ele>
        <time>2021-03-20T14:56:46Z</time>
      </trkpt>
      <trkpt lat="56.55698" lon="-5.3446">
        <ele>26.44</ele>
        <time>2021-03-20T14:56:51Z</time>
      </trkpt>
      <trkpt lat="56.55729" lon="-5.34652">
        <ele>17.5</ele>
        <time>2021-03-20T14:56:55Z</time>
      </trkpt>
      <trkpt lat="56.55833" lon="-5.35237">
        <ele>29.52</ele>
        <time>2021-03-20T14:57:00Z</time>
      </trkpt>
      <trkpt lat="56.55861" lon="-5.35333">
        <ele>30.99</ele>
        <time>2021-03-20T14:57:05Z</time>
      </trkpt>
      <trkpt lat="56.55889" lon="-5.3539">
        <ele>31.09</ele>
        <time>2021-03-20T14:57:09Z</time>
      </trkpt>
      <trkpt lat="56.56" lon="-5.35627">
        <ele>16.59</ele>
        <time>2021-03-20T14:57:14Z</time>
      </trkpt>
      <trkpt lat="56.56054" lon="-5.3571">
        <ele>15.61</ele>
        <time>2021-03-20T14:57:19Z</time>
      </trkpt>
      <trkpt lat="56.56109" lon="-5.3578">
        <ele>16.33</ele>
        <time>2021-03-20T14:57:23Z</time>
      </trkpt>
      <trkpt lat="56.56163" lon="-5.35828">
        <ele>17.74</ele>
        <time>2021-03-20T14:57:28Z</time>
      </trkpt>
      <trkpt lat="56.56192" lon="-5.35841">
        <ele>15.43</ele>
        <time>2021-03-20T14:57:33Z</time>
      </trkpt>
      <trkpt lat="56.56219" lon="-5.35843">
        <ele>12.08</ele>
        <time>2021-03-20T14:57:37Z</time>
      </trkpt>
      <trkpt lat="56.56279" lon="-5.35822">
        <ele>6</ele>
        <time>2021-03-20T14:57:42Z</time>
      </trkpt>
      <trkpt lat="56.56372" lon="-5.35782">
        <ele>5.08</ele>
        <time>2021-03-20T14:57:46Z</time>
      </trkpt>
      <trkpt lat="56.56399" lon="-5.35775">
        <ele>5</ele>
        <time>2021-03-20T14:57:51Z</time>
      </trkpt>
      <trkpt lat="56.5643" lon="-5.35775">
        <ele>5.93</ele>
        <time>2021-03-20T14:57:56Z</time>
      </trkpt>
      <trkpt lat="56.56466" lon="-5.35784">
        <ele>7.53</ele>
        <time>2021-03-20T14:58:00Z</time>
      </trkpt>
      <trkpt lat="56.56517" lon="-5.35821">
        <ele>9.39</ele>
        <time>2021-03-20T14:58:05Z</time>
      </trkpt>
      <trkpt lat="56.56547" lon="-5.3586">
        <ele>10.38</ele>
        <time>2021-03-20T14:58:10Z</time>
      </trkpt>
      <trkpt lat="56.56571" lon="-5.35908">
        <ele>11.83</ele>
        <time>2021-03-20T14:58:14Z</time>
      </trkpt>
      <trkpt lat="56.56593" lon="-5.35977">
        <ele>13.35</ele>
        <time>2021-03-20T14:58:19Z</time>
      </trkpt>
      <trkpt lat="56.56629" lon="-5.36163">
        <ele>12.63</ele>
        <time>2021-03-20T14:58:24Z</time>
      </trkpt>
      <trkpt lat="56.56642" lon="-5.36217">
        <ele>11.39</ele>
        <time>2021-03-20T14:58:28Z</time>
      </trkpt>
      <trkpt lat="56.56661" lon="-5.36264">
        <ele>11.81</ele>
        <time>2021-03-20T14:58:33Z</time>
      </trkpt>
      <trkpt lat="56.56693" lon="-5.36334">
        <ele>11.93</ele>
        <time>2021-03-20T14:58:38Z</time>
      </trkpt>
      <trkpt lat="56.56757" lon="-5.3646">
        <ele>15.72</ele>
        <time>2021-03-20T14:58:42Z</time>
      </trkpt>
      <trkpt lat="56.56805" lon="-5.36562">
        <ele>15.71</ele>
        <time>2021-03-20T14:58:47Z</time>
      </trkpt>
      <trkpt lat="56.56874" lon="-5.3667">
        <ele>14.87</ele>
        <time>2021-03-20T14:58:52Z</time>
      </trkpt>
      <trkpt lat="56.5692" lon="-5.36738">
        <ele>13.57</ele>
        <time>2021-03-20T14:58:56Z</time>
      </trkpt>
      <trkpt lat="56.5695" lon="-5.36785">
        <ele>14.29</ele>
        <time>2021-03-20T14:59:01Z</time>
      </trkpt>
      <trkpt lat="56.56986" lon="-5.36872">
        <ele>14.62</ele>
        <time>2021-03-20T14:59:06Z</time>
      </trkpt>
      <trkpt lat="56.57048" lon="-5.37055">
        <ele>14</ele>
        <time>2021-03-20T14:59:10Z</time>
      </trkpt>
      <trkpt lat="56.57068" lon="-5.3716">
        <ele>17.27</ele>
        <time>2021-03-20T14:59:15Z</time>
      </trkpt>
      <trkpt lat="56.57112" lon="-5.37495">
        <ele>20.23</ele>
        <time>2021-03-20T14:59:20Z</time>
      </trkpt>
      <trkpt lat="56.57133" lon="-5.37637">
        <ele>19.99</ele>
        <time>2021-03-20T14:59:24Z</time>
      </trkpt>
      <trkpt lat="56.57161" lon="-5.37728">
        <ele>20.28</ele>
        <time>2021-03-20T14:59:29Z</time>
      </trkpt>
      <trkpt lat="56.57228" lon="-5.37906">
        <ele>19.07</ele>
        <time>2021-03-20T14:59:34Z</time>
      </trkpt>
      <trkpt lat="56.57243" lon="-5.37932">
        <ele>18.55</ele>
        <time>2021-03-20T14:59:38Z</time>
      </trkpt>
      <trkpt lat="56.57265" lon="-5.37937">
        <ele>20.02</ele>
        <time>2021-03-20T14:59:43Z</time>
      </trkpt>
      <trkpt lat="56.57282" lon="-5.37936">
        <ele>21.29</ele>
        <time>2021-03-20T14:59:48Z</time>
      </trkpt>
      <trkpt lat="56.57463" lon="-5.37896">
        <ele>41.15</ele>
        <time>2021-03-20T14:59:52Z</time>
      </trkpt>
      <trkpt lat="56.57513" lon="-5.37866">
        <ele>44.64</ele>
        <time>2021-03-20T14:59:57Z</time>
      </trkpt>
      <trkpt lat="56.57605" lon="-5.37812">
        <ele>50.79</ele>
        <time>2021-03-20T15:00:02Z</time>
      </trkpt>
      <trkpt lat="56.57731" lon="-5.3771">
        <ele>54.85</ele>
        <time>2021-03-20T15:00:06Z</time>
      </trkpt>
      <trkpt lat="56.57764" lon="-5.37658">
        <ele>55.3</ele>
        <time>2021-03-20T15:00:11Z</time>
      </trkpt>
      <trkpt lat="56.5778" lon="-5.37599">
        <ele>57.01</ele>
        <time>2021-03-20T15:00:15Z</time>
      </trkpt>
      <trkpt lat="56.57801" lon="-5.3755">
        <ele>57.38</ele>
        <time>2021-03-20T15:00:20Z</time>
      </trkpt>
      <trkpt lat="56.57825" lon="-5.37519">
        <ele>58.62</ele>
        <time>2021-03-20T15:00:25Z</time>
      </trkpt>
      <trkpt lat="56.57857" lon="-5.37491">
        <ele>60.04</ele>
        <time>2021-03-20T15:00:29Z</time>
      </trkpt>
      <trkpt lat="56.57922" lon="-5.3746">
        <ele>57.03</ele>
        <time>2021-03-20T15:00:34Z</time>
      </trkpt>
      <trkpt lat="56.58027" lon="-5.37439">
        <ele>51.8</ele>
        <time>2021-03-20T15:00:39Z</time>
      </trkpt>
      <trkpt lat="56.58196" lon="-5.37391">
        <ele>36.59</ele>
        <time>2021-03-20T15:00:43Z</time>
      </trkpt>
      <trkpt lat="56.58257" lon="-5.37359">
        <ele>34.04</ele>
        <time>2021-03-20T15:00:48Z</time>
      </trkpt>
      <trkpt lat="56.58297" lon="-5.37325">
        <ele>29.84</ele>
        <time>2021-03-20T15:00:53Z</time>
      </trkpt>
      <trkpt lat="56.58349" lon="-5.37253">
        <ele>27.87</ele>
        <time>2021-03-20T15:00:57Z</time>
      </trkpt>
      <trkpt lat="56.58455" lon="-5.37158">
        <ele>22.76</ele>
        <time>2021-03-20T15:01:02Z</time>
      </trkpt>
      <trkpt lat="56.58499" lon="-5.37098">
        <ele>25.42</ele>
        <time>2021-03-20T15:01:07Z</time>
      </trkpt>
      <trkpt lat="56.58529" lon="-5.37068">
        <ele>24.15</ele>
        <time>2021-03-20T15:01:11Z</time>
      </trkpt>
      <trkpt lat="56.58569" lon="-5.3706">
        <ele>19.9</ele>
        <time>2021-03-20T15:01:16Z</time>
      </trkpt>
      <trkpt lat="56.58592" lon="-5.37066">
        <ele>18.13</ele>
        <time>2021-03-20T15:01:21Z</time>
      </trkpt>
      <trkpt lat="56.58605" lon="-5.37083">
        <ele>17.58</ele>
        <time>2021-03-20T15:01:25Z</time>
      </trkpt>
      <trkpt lat="56.58619" lon="-5.37131">
        <ele>17.11</ele>
        <time>2021-03-20T15:01:30Z</time>
      </trkpt>
      <trkpt lat="56.58631" lon="-5.372">
        <ele>15.22</ele>
        <time>2021-03-20T15:01:35Z</time>
      </trkpt>
      <trkpt lat="56.5865" lon="-5.37268">
        <ele>13.72</ele>
        <time>2021-03-20T15:01:39Z</time>
      </trkpt>
      <trkpt lat="56.58717" lon="-5.37403">
        <ele>4.76</ele>
        <time>2021-03-20T15:01:44Z</time>
      </trkpt>
      <trkpt lat="56.58745" lon="-5.37429">
        <ele>2.3</ele>
        <time>2021-03-20T15:01:49Z</time>
      </trkpt>
      <trkpt lat="56.58778" lon="-5.37425">
        <ele>2</ele>
        <time>2021-03-20T15:01:53Z</time>
      </trkpt>
      <trkpt lat="56.58896" lon="-5.37353">
        <ele>3.57</ele>
        <time>2021-03-20T15:01:58Z</time>
      </trkpt>
      <trkpt lat="56.58982" lon="-5.37281">
        <ele>6.73</ele>
        <time>2021-03-20T15:02:03Z</time>
      </trkpt>
      <trkpt lat="56.59041" lon="-5.37221">
        <ele>6.62</ele>
        <time>2021-03-20T15:02:07Z</time>
      </trkpt>
      <trkpt lat="56.59231" lon="-5.3698">
        <ele>13.47</ele>
        <time>2021-03-20T15:02:12Z</time>
      </trkpt>
      <trkpt lat="56.59312" lon="-5.36891">
        <ele>14.69</ele>
        <time>2021-03-20T15:02:17Z</time>
      </trkpt>
      <trkpt lat="56.59378" lon="-5.36785">
        <ele>17.02</ele>
        <time>2021-03-20T15:02:21Z</time>
      </trkpt>
      <trkpt lat="56.59439" lon="-5.36666">
        <ele>22.69</ele>
        <time>2021-03-20T15:02:26Z</time>
      </trkpt>
      <trkpt lat="56.59473" lon="-5.36613">
        <ele>23.46</ele>
        <time>2021-03-20T15:02:31Z</time>
      </trkpt>
      <trkpt lat="56.59576" lon="-5.36467">
        <ele>23.25</ele>
        <time>2021-03-20T15:02:35Z</time>
      </trkpt>
      <trkpt lat="56.59621" lon="-5.36415">
        <ele>17.98</ele>
        <time>2021-03-20T15:02:40Z</time>
      </trkpt>
      <trkpt lat="56.5965" lon="-5.36388">
        <ele>9.01</ele>
        <time>2021-03-20T15:02:44Z</time>
      </trkpt>
      <trkpt lat="56.59648" lon="-5.36361">
        <ele>14.69</ele>
        <time>2021-03-20T15:02:49Z</time>
      </trkpt>
      <trkpt lat="56.59662" lon="-5.36313">
        <ele>21.02</ele>
        <time>2021-03-20T15:02:53Z</time>
      </trkpt>
      <trkpt lat="56.59719" lon="-5.36192">
        <ele>27.04</ele>
        <time>2021-03-20T15:02:58Z</time>
      </trkpt>
      <trkpt lat="56.59736" lon="-5.36167">
        <ele>28.4</ele>
        <time>2021-03-20T15:03:02Z</time>
      </trkpt>
      <trkpt lat="56.60008" lon="-5.36026">
        <ele>17.9</ele>
        <time>2021-03-20T15:03:07Z</time>
      </trkpt>
      <trkpt lat="56.60061" lon="-5.35996">
        <ele>18.6</ele>
        <time>2021-03-20T15:03:11Z</time>
      </trkpt>
      <trkpt lat="56.6018" lon="-5.35882">
        <ele>12.92</ele>
        <time>2021-03-20T15:03:16Z</time>
      </trkpt>
      <trkpt lat="56.60203" lon="-5.35844">
        <ele>13.54</ele>
        <time>2021-03-20T15:03:20Z</time>
      </trkpt>
      <trkpt lat="56.60294" lon="-5.35617">
        <ele>26.91</ele>
        <time>2021-03-20T15:03:24Z</time>
      </trkpt>
      <trkpt lat="56.60417" lon="-5.35508">
        <ele>21.16</ele>
        <time>2021-03-20T15:03:29Z</time>
      </trkpt>
      <trkpt lat="56.60455" lon="-5.35487">
        <ele>19.27</ele>
        <time>2021-03-20T15:03:33Z</time>
      </trkpt>
      <trkpt lat="56.60586" lon="-5.35449">
        <ele>9.56</ele>
        <time>2021-03-20T15:03:38Z</time>
      </trkpt>
      <trkpt lat="56.60592" lon="-5.3545">
        <ele>8.96</ele>
        <time>2021-03-20T15:03:42Z</time>
      </trkpt>
      <trkpt lat="56.60605" lon="-5.35471">
        <ele>7.47</ele>
        <time>2021-03-20T15:03:47Z</time>
      </trkpt>
      <trkpt lat="56.60653" lon="-5.3539">
        <ele>5.5</ele>
        <time>2021-03-20T15:03:52Z</time>
      </trkpt>
      <trkpt lat="56.60708" lon="-5.35286">
        <ele>5.1</ele>
        <time>2021-03-20T15:03:58Z</time>
      </trkpt>
      <trkpt lat="56.60834" lon="-5.35058">
        <ele>6.76</ele>
        <time>2021-03-20T15:04:03Z</time>
      </trkpt>
      <trkpt lat="56.60929" lon="-5.34875">
        <ele>10.47</ele>
        <time>2021-03-20T15:04:09Z</time>
      </trkpt>
      <trkpt lat="56.61089" lon="-5.34526">
        <ele>5.37</ele>
        <time>2021-03-20T15:04:14Z</time>
      </trkpt>
      <trkpt lat="56.61208" lon="-5.3432">
        <ele>14.67</ele>
        <time>2021-03-20T15:04:20Z</time>
      </trkpt>
      <trkpt lat="56.61291" lon="-5.34185">
        <ele>13.76</ele>
        <time>2021-03-20T15:04:25Z</time>
      </trkpt>
      <trkpt lat="56.61348" lon="-5.34106">
        <ele>10.7</ele>
        <time>2021-03-20T15:04:31Z</time>
      </trkpt>
      <trkpt lat="56.61431" lon="-5.33978">
        <ele>20.55</ele>
        <time>2021-03-20T15:04:36Z</time>
      </trkpt>
      <trkpt lat="56.61491" lon="-5.33869">
        <ele>12.2</ele>
        <time>2021-03-20T15:04:42Z</time>
      </trkpt>
      <trkpt lat="56.61543" lon="-5.33766">
        <ele>12.01</ele>
        <time>2021-03-20T15:04:47Z</time>
      </trkpt>
      <trkpt lat="56.61629" lon="-5.3357">
        <ele>12.7</ele>
        <time>2021-03-20T15:04:53Z</time>
      </trkpt>
      <trkpt lat="56.61709" lon="-5.33352">
        <ele>9.69</ele>
        <time>2021-03-20T15:04:58Z</time>
      </trkpt>
      <trkpt lat="56.61793" lon="-5.33092">
        <ele>30.6</ele>
        <time>2021-03-20T15:05:04Z</time>
      </trkpt>
      <trkpt lat="56.61879" lon="-5.32886">
        <ele>13.93</ele>
        <time>2021-03-20T15:05:09Z</time>
      </trkpt>
      <trkpt lat="56.62134" lon="-5.32302">
        <ele>15.11</ele>
        <time>2021-03-20T15:05:14Z</time>
      </trkpt>
      <trkpt lat="56.62186" lon="-5.32167">
        <ele>15.81</ele>
        <time>2021-03-20T15:05:20Z</time>
      </trkpt>
      <trkpt lat="56.62255" lon="-5.31959">
        <ele>17.4</ele>
        <time>2021-03-20T15:05:25Z</time>
      </trkpt>
      <trkpt lat="56.62359" lon="-5.31753">
        <ele>15.56</ele>
        <time>2021-03-20T15:05:31Z</time>
      </trkpt>
      <trkpt lat="56.62377" lon="-5.31723">
        <ele>13.66</ele>
        <time>2021-03-20T15:05:36Z</time>
      </trkpt>
      <trkpt lat="56.62408" lon="-5.31687">
        <ele>12.18</ele>
        <time>2021-03-20T15:05:42Z</time>
      </trkpt>
      <trkpt lat="56.62496" lon="-5.31615">
        <ele>6.03</ele>
        <time>2021-03-20T15:05:47Z</time>
      </trkpt>
      <trkpt lat="56.62735" lon="-5.31384">
        <ele>5.56</ele>
        <time>2021-03-20T15:05:53Z</time>
      </trkpt>
      <trkpt lat="56.62807" lon="-5.31311">
        <ele>13.45</ele>
        <time>2021-03-20T15:05:58Z</time>
      </trkpt>
      <trkpt lat="56.62839" lon="-5.31275">
        <ele>16.64</ele>
        <time>2021-03-20T15:06:04Z</time>
      </trkpt>
      <trkpt lat="56.6287" lon="-5.31227">
        <ele>17.75</ele>
        <time>2021-03-20T15:06:09Z</time>
      </trkpt>
      <trkpt lat="56.62958" lon="-5.31075">
        <ele>24.23</ele>
        <time>2021-03-20T15:06:15Z</time>
      </trkpt>
      <trkpt lat="56.63099" lon="-5.30841">
        <ele>22.53</ele>
        <time>2021-03-20T15:06:20Z</time>
      </trkpt>
      <trkpt lat="56.63251" lon="-5.30572">
        <ele>26.37</ele>
        <time>2021-03-20T15:06:26Z</time>
      </trkpt>
      <trkpt lat="56.63342" lon="-5.30385">
        <ele>20.68</ele>
        <time>2021-03-20T15:06:31Z</time>
      </trkpt>
      <trkpt lat="56.63381" lon="-5.30298">
        <ele>22.4</ele>
        <time>2021-03-20T15:06:37Z</time>
      </trkpt>
      <trkpt lat="56.63491" lon="-5.30063">
        <ele>22.83</ele>
        <time>2021-03-20T15:06:42Z</time>
      </trkpt>
      <trkpt lat="56.63545" lon="-5.2994">
        <ele>22.75</ele>
        <time>2021-03-20T15:06:48Z</time>
      </trkpt>
      <trkpt lat="56.63577" lon="-5.2986">
        <ele>22.26</ele>
        <time>2021-03-20T15:06:53Z</time>
      </trkpt>
      <trkpt lat="56.63653" lon="-5.29649">
        <ele>23.55</ele>
        <time>2021-03-20T15:06:59Z</time>
      </trkpt>
      <trkpt lat="56.63666" lon="-5.29601">
        <ele>22.75</ele>
        <time>2021-03-20T15:07:04Z</time>
      </trkpt>
      <trkpt lat="56.6367" lon="-5.29567">
        <ele>22.28</ele>
        <time>2021-03-20T15:07:10Z</time>
      </trkpt>
      <trkpt lat="56.63671" lon="-5.29536">
        <ele>21.23</ele>
        <time>2021-03-20T15:07:15Z</time>
      </trkpt>
      <trkpt lat="56.63666" lon="-5.29497">
        <ele>18.99</ele>
        <time>2021-03-20T15:07:21Z</time>
      </trkpt>
      <trkpt lat="56.63659" lon="-5.29468">
        <ele>18.57</ele>
        <time>2021-03-20T15:07:26Z</time>
      </trkpt>
      <trkpt lat="56.63631" lon="-5.29377">
        <ele>16.11</ele>
        <time>2021-03-20T15:07:32Z</time>
      </trkpt>
      <trkpt lat="56.63622" lon="-5.29329">
        <ele>15.06</ele>
        <time>2021-03-20T15:07:37Z</time>
      </trkpt>
      <trkpt lat="56.63617" lon="-5.29297">
        <ele>17.62</ele>
        <time>2021-03-20T15:07:43Z</time>
      </trkpt>
      <trkpt lat="56.63617" lon="-5.29258">
        <ele>20.43</ele>
        <time>2021-03-20T15:07:48Z</time>
      </trkpt>
      <trkpt lat="56.63623" lon="-5.29201">
        <ele>22.34</ele>
        <time>2021-03-20T15:07:54Z</time>
      </trkpt>
      <trkpt lat="56.63637" lon="-5.2911">
        <ele>20.67</ele>
        <time>2021-03-20T15:07:59Z</time>
      </trkpt>
      <trkpt lat="56.63648" lon="-5.29013">
        <ele>18.93</ele>
        <time>2021-03-20T15:08:05Z</time>
      </trkpt>
      <trkpt lat="56.63648" lon="-5.28878">
        <ele>18.34</ele>
        <time>2021-03-20T15:08:10Z</time>
      </trkpt>
      <trkpt lat="56.6365" lon="-5.28854">
        <ele>18.12</ele>
        <time>2021-03-20T15:08:16Z</time>
      </trkpt>
      <trkpt lat="56.63654" lon="-5.28825">
        <ele>17.56</ele>
        <time>2021-03-20T15:08:21Z</time>
      </trkpt>
      <trkpt lat="56.6366" lon="-5.28804">
        <ele>17.76</ele>
        <time>2021-03-20T15:08:26Z</time>
      </trkpt>
      <trkpt lat="56.63669" lon="-5.28781">
        <ele>17.91</ele>
        <time>2021-03-20T15:08:32Z</time>
      </trkpt>
      <trkpt lat="56.63682" lon="-5.2876">
        <ele>17.44</ele>
        <time>2021-03-20T15:08:37Z</time>
      </trkpt>
      <trkpt lat="56.63719" lon="-5.2872">
        <ele>17</ele>
        <time>2021-03-20T15:08:43Z</time>
      </trkpt>
      <trkpt lat="56.63748" lon="-5.28701">
        <ele>16.06</ele>
        <time>2021-03-20T15:08:48Z</time>
      </trkpt>
      <trkpt lat="56.63777" lon="-5.28696">
        <ele>16.97</ele>
        <time>2021-03-20T15:08:54Z</time>
      </trkpt>
      <trkpt lat="56.63828" lon="-5.28683">
        <ele>15.83</ele>
        <time>2021-03-20T15:08:59Z</time>
      </trkpt>
      <trkpt lat="56.63928" lon="-5.28619">
        <ele>17.17</ele>
        <time>2021-03-20T15:09:05Z</time>
      </trkpt>
      <trkpt lat="56.63974" lon="-5.28585">
        <ele>17.05</ele>
        <time>2021-03-20T15:09:10Z</time>
      </trkpt>
      <trkpt lat="56.64" lon="-5.28555">
        <ele>18.98</ele>
        <time>2021-03-20T15:09:16Z</time>
      </trkpt>
      <trkpt lat="56.64021" lon="-5.28521">
        <ele>19.51</ele>
        <time>2021-03-20T15:09:21Z</time>
      </trkpt>
      <trkpt lat="56.64045" lon="-5.2847">
        <ele>17.92</ele>
        <time>2021-03-20T15:09:27Z</time>
      </trkpt>
      <trkpt lat="56.64118" lon="-5.28252">
        <ele>15.78</ele>
        <time>2021-03-20T15:09:32Z</time>
      </trkpt>
      <trkpt lat="56.642" lon="-5.28054">
        <ele>26.81</ele>
        <time>2021-03-20T15:09:38Z</time>
      </trkpt>
      <trkpt lat="56.64221" lon="-5.27984">
        <ele>26.2</ele>
        <time>2021-03-20T15:09:43Z</time>
      </trkpt>
      <trkpt lat="56.64239" lon="-5.27862">
        <ele>25.51</ele>
        <time>2021-03-20T15:09:49Z</time>
      </trkpt>
      <trkpt lat="56.64247" lon="-5.27826">
        <ele>24.4</ele>
        <time>2021-03-20T15:09:54Z</time>
      </trkpt>
      <trkpt lat="56.64271" lon="-5.27768">
        <ele>25.18</ele>
        <time>2021-03-20T15:10:00Z</time>
      </trkpt>
      <trkpt lat="56.64282" lon="-5.27756">
        <ele>25.9</ele>
        <time>2021-03-20T15:10:05Z</time>
      </trkpt>
      <trkpt lat="56.6437" lon="-5.27684">
        <ele>26.27</ele>
        <time>2021-03-20T15:10:11Z</time>
      </trkpt>
      <trkpt lat="56.64442" lon="-5.27643">
        <ele>28.46</ele>
        <time>2021-03-20T15:10:16Z</time>
      </trkpt>
      <trkpt lat="56.64543" lon="-5.27593">
        <ele>33.29</ele>
        <time>2021-03-20T15:10:22Z</time>
      </trkpt>
      <trkpt lat="56.64595" lon="-5.27534">
        <ele>35.72</ele>
        <time>2021-03-20T15:10:27Z</time>
      </trkpt>
      <trkpt lat="56.64718" lon="-5.27327">
        <ele>36.61</ele>
        <time>2021-03-20T15:10:33Z</time>
      </trkpt>
      <trkpt lat="56.6486" lon="-5.2714">
        <ele>38</ele>
        <time>2021-03-20T15:10:38Z</time>
      </trkpt>
      <trkpt lat="56.64969" lon="-5.26988">
        <ele>33.45</ele>
        <time>2021-03-20T15:10:44Z</time>
      </trkpt>
      <trkpt lat="56.65097" lon="-5.26806">
        <ele>38.99</ele>
        <time>2021-03-20T15:10:49Z</time>
      </trkpt>
      <trkpt lat="56.65117" lon="-5.2678">
        <ele>39.01</ele>
        <time>2021-03-20T15:10:55Z</time>
      </trkpt>
      <trkpt lat="56.65259" lon="-5.26567">
        <ele>43.3</ele>
        <time>2021-03-20T15:11:00Z</time>
      </trkpt>
      <trkpt lat="56.65401" lon="-5.26299">
        <ele>40.76</ele>
        <time>2021-03-20T15:11:06Z</time>
      </trkpt>
      <trkpt lat="56.65485" lon="-5.26161">
        <ele>37.65</ele>
        <time>2021-03-20T15:11:11Z</time>
      </trkpt>
      <trkpt lat="56.65584" lon="-5.26036">
        <ele>36.71</ele>
        <time>2021-03-20T15:11:17Z</time>
      </trkpt>
      <trkpt lat="56.65584" lon="-5.26036">
        <ele>36.71</ele>
        <time>2021-03-20T15:11:17Z</time>
      </trkpt>
      <trkpt lat="56.65775" lon="-5.2579">
        <ele>27.2</ele>
        <time>2021-03-20T15:11:20Z</time>
      </trkpt>
      <trkpt lat="56.65838" lon="-5.25722">
        <ele>26.68</ele>
        <time>2021-03-20T15:11:24Z</time>
      </trkpt>
      <trkpt lat="56.6598" lon="-5.25587">
        <ele>25.24</ele>
        <time>2021-03-20T15:11:27Z</time>
      </trkpt>
      <trkpt lat="56.66007" lon="-5.25566">
        <ele>24.86</ele>
        <time>2021-03-20T15:11:31Z</time>
      </trkpt>
      <trkpt lat="56.66034" lon="-5.25549">
        <ele>24.25</ele>
        <time>2021-03-20T15:11:34Z</time>
      </trkpt>
      <trkpt lat="56.66055" lon="-5.25539">
        <ele>23.81</ele>
        <time>2021-03-20T15:11:37Z</time>
      </trkpt>
      <trkpt lat="56.66083" lon="-5.25532">
        <ele>22.6</ele>
        <time>2021-03-20T15:11:41Z</time>
      </trkpt>
      <trkpt lat="56.66215" lon="-5.25524">
        <ele>24.33</ele>
        <time>2021-03-20T15:11:44Z</time>
      </trkpt>
      <trkpt lat="56.66237" lon="-5.25518">
        <ele>25.22</ele>
        <time>2021-03-20T15:11:48Z</time>
      </trkpt>
      <trkpt lat="56.66291" lon="-5.25495">
        <ele>27.07</ele>
        <time>2021-03-20T15:11:51Z</time>
      </trkpt>
      <trkpt lat="56.66322" lon="-5.25473">
        <ele>24.18</ele>
        <time>2021-03-20T15:11:55Z</time>
      </trkpt>
      <trkpt lat="56.66359" lon="-5.2544">
        <ele>21.36</ele>
        <time>2021-03-20T15:11:58Z</time>
      </trkpt>
      <trkpt lat="56.66388" lon="-5.25408">
        <ele>19.73</ele>
        <time>2021-03-20T15:12:02Z</time>
      </trkpt>
      <trkpt lat="56.66436" lon="-5.25344">
        <ele>17.57</ele>
        <time>2021-03-20T15:12:05Z</time>
      </trkpt>
      <trkpt lat="56.66467" lon="-5.25298">
        <ele>14.44</ele>
        <time>2021-03-20T15:12:09Z</time>
      </trkpt>
      <trkpt lat="56.66495" lon="-5.25266">
        <ele>12.16</ele>
        <time>2021-03-20T15:12:12Z</time>
      </trkpt>
      <trkpt lat="56.66559" lon="-5.25208">
        <ele>8.01</ele>
        <time>2021-03-20T15:12:16Z</time>
      </trkpt>
      <trkpt lat="56.66632" lon="-5.2514">
        <ele>5.44</ele>
        <time>2021-03-20T15:12:19Z</time>
      </trkpt>
      <trkpt lat="56.6667" lon="-5.25113">
        <ele>6.11</ele>
        <time>2021-03-20T15:12:23Z</time>
      </trkpt>
      <trkpt lat="56.6669" lon="-5.25104">
        <ele>7.38</ele>
        <time>2021-03-20T15:12:26Z</time>
      </trkpt>
      <trkpt lat="56.66717" lon="-5.251">
        <ele>7.02</ele>
        <time>2021-03-20T15:12:30Z</time>
      </trkpt>
      <trkpt lat="56.66784" lon="-5.25101">
        <ele>5.01</ele>
        <time>2021-03-20T15:12:33Z</time>
      </trkpt>
      <trkpt lat="56.66814" lon="-5.25089">
        <ele>6.22</ele>
        <time>2021-03-20T15:12:37Z</time>
      </trkpt>
      <trkpt lat="56.66884" lon="-5.25051">
        <ele>7.94</ele>
        <time>2021-03-20T15:12:40Z</time>
      </trkpt>
      <trkpt lat="56.66924" lon="-5.25014">
        <ele>7.62</ele>
        <time>2021-03-20T15:12:44Z</time>
      </trkpt>
      <trkpt lat="56.66947" lon="-5.24979">
        <ele>6.66</ele>
        <time>2021-03-20T15:12:47Z</time>
      </trkpt>
      <trkpt lat="56.66993" lon="-5.24895">
        <ele>9.3</ele>
        <time>2021-03-20T15:12:51Z</time>
      </trkpt>
      <trkpt lat="56.67007" lon="-5.24876">
        <ele>10.47</ele>
        <time>2021-03-20T15:12:54Z</time>
      </trkpt>
      <trkpt lat="56.67046" lon="-5.2484">
        <ele>12.14</ele>
        <time>2021-03-20T15:12:58Z</time>
      </trkpt>
      <trkpt lat="56.67058" lon="-5.24832">
        <ele>12.1</ele>
        <time>2021-03-20T15:13:01Z</time>
      </trkpt>
      <trkpt lat="56.6709" lon="-5.24823">
        <ele>13.53</ele>
        <time>2021-03-20T15:13:04Z</time>
      </trkpt>
      <trkpt lat="56.6715" lon="-5.24822">
        <ele>13.87</ele>
        <time>2021-03-20T15:13:08Z</time>
      </trkpt>
      <trkpt lat="56.67192" lon="-5.24811">
        <ele>13.63</ele>
        <time>2021-03-20T15:13:11Z</time>
      </trkpt>
      <trkpt lat="56.67225" lon="-5.24795">
        <ele>12.66</ele>
        <time>2021-03-20T15:13:15Z</time>
      </trkpt>
      <trkpt lat="56.67258" lon="-5.24767">
        <ele>12.69</ele>
        <time>2021-03-20T15:13:18Z</time>
      </trkpt>
      <trkpt lat="56.67301" lon="-5.24715">
        <ele>14.73</ele>
        <time>2021-03-20T15:13:22Z</time>
      </trkpt>
      <trkpt lat="56.67335" lon="-5.24651">
        <ele>12.82</ele>
        <time>2021-03-20T15:13:25Z</time>
      </trkpt>
      <trkpt lat="56.67387" lon="-5.24529">
        <ele>10.21</ele>
        <time>2021-03-20T15:13:29Z</time>
      </trkpt>
      <trkpt lat="56.67421" lon="-5.24439">
        <ele>7.64</ele>
        <time>2021-03-20T15:13:32Z</time>
      </trkpt>
      <trkpt lat="56.67455" lon="-5.24317">
        <ele>7.5</ele>
        <time>2021-03-20T15:13:36Z</time>
      </trkpt>
      <trkpt lat="56.67476" lon="-5.24263">
        <ele>8.26</ele>
        <time>2021-03-20T15:13:39Z</time>
      </trkpt>
      <trkpt lat="56.67509" lon="-5.24202">
        <ele>11.15</ele>
        <time>2021-03-20T15:13:43Z</time>
      </trkpt>
      <trkpt lat="56.67533" lon="-5.2417">
        <ele>11.64</ele>
        <time>2021-03-20T15:13:46Z</time>
      </trkpt>
      <trkpt lat="56.67661" lon="-5.24036">
        <ele>7.96</ele>
        <time>2021-03-20T15:13:50Z</time>
      </trkpt>
      <trkpt lat="56.67752" lon="-5.23905">
        <ele>10.97</ele>
        <time>2021-03-20T15:13:53Z</time>
      </trkpt>
      <trkpt lat="56.67792" lon="-5.23845">
        <ele>11.89</ele>
        <time>2021-03-20T15:13:57Z</time>
      </trkpt>
      <trkpt lat="56.67847" lon="-5.23758">
        <ele>14</ele>
        <time>2021-03-20T15:14:00Z</time>
      </trkpt>
      <trkpt lat="56.68051" lon="-5.23224">
        <ele>11.6</ele>
        <time>2021-03-20T15:14:04Z</time>
      </trkpt>
      <trkpt lat="56.68133" lon="-5.23065">
        <ele>8.41</ele>
        <time>2021-03-20T15:14:07Z</time>
      </trkpt>
      <trkpt lat="56.68203" lon="-5.22955">
        <ele>5.3</ele>
        <time>2021-03-20T15:14:11Z</time>
      </trkpt>
      <trkpt lat="56.68423" lon="-5.22706">
        <ele>12.17</ele>
        <time>2021-03-20T15:14:14Z</time>
      </trkpt>
      <trkpt lat="56.68489" lon="-5.22595">
        <ele>14.16</ele>
        <time>2021-03-20T15:14:18Z</time>
      </trkpt>
      <trkpt lat="56.68556" lon="-5.22453">
        <ele>13.07</ele>
        <time>2021-03-20T15:14:21Z</time>
      </trkpt>
      <trkpt lat="56.68593" lon="-5.22314">
        <ele>17.16</ele>
        <time>2021-03-20T15:14:25Z</time>
      </trkpt>
      <trkpt lat="56.68611" lon="-5.22175">
        <ele>20</ele>
        <time>2021-03-20T15:14:28Z</time>
      </trkpt>
      <trkpt lat="56.68617" lon="-5.22012">
        <ele>10.74</ele>
        <time>2021-03-20T15:14:31Z</time>
      </trkpt>
      <trkpt lat="56.68631" lon="-5.2171">
        <ele>11.95</ele>
        <time>2021-03-20T15:14:35Z</time>
      </trkpt>
      <trkpt lat="56.68641" lon="-5.21578">
        <ele>16.45</ele>
        <time>2021-03-20T15:14:38Z</time>
      </trkpt>
      <trkpt lat="56.68657" lon="-5.21474">
        <ele>19.14</ele>
        <time>2021-03-20T15:14:42Z</time>
      </trkpt>
      <trkpt lat="56.68663" lon="-5.21409">
        <ele>7.34</ele>
        <time>2021-03-20T15:14:45Z</time>
      </trkpt>
      <trkpt lat="56.68664" lon="-5.21355">
        <ele>5.69</ele>
        <time>2021-03-20T15:14:49Z</time>
      </trkpt>
      <trkpt lat="56.6866" lon="-5.21295">
        <ele>6.19</ele>
        <time>2021-03-20T15:14:52Z</time>
      </trkpt>
      <trkpt lat="56.68654" lon="-5.21243">
        <ele>7.59</ele>
        <time>2021-03-20T15:14:56Z</time>
      </trkpt>
      <trkpt lat="56.68642" lon="-5.21189">
        <ele>11.19</ele>
        <time>2021-03-20T15:14:59Z</time>
      </trkpt>
      <trkpt lat="56.68616" lon="-5.21088">
        <ele>18.92</ele>
        <time>2021-03-20T15:15:03Z</time>
      </trkpt>
      <trkpt lat="56.68608" lon="-5.21048">
        <ele>20.72</ele>
        <time>2021-03-20T15:15:06Z</time>
      </trkpt>
      <trkpt lat="56.68605" lon="-5.2101">
        <ele>25.81</ele>
        <time>2021-03-20T15:15:10Z</time>
      </trkpt>
      <trkpt lat="56.68606" lon="-5.20968">
        <ele>26.01</ele>
        <time>2021-03-20T15:15:13Z</time>
      </trkpt>
      <trkpt lat="56.68613" lon="-5.20892">
        <ele>14.74</ele>
        <time>2021-03-20T15:15:17Z</time>
      </trkpt>
      <trkpt lat="56.68616" lon="-5.20853">
        <ele>14.64</ele>
        <time>2021-03-20T15:15:20Z</time>
      </trkpt>
      <trkpt lat="56.68615" lon="-5.20811">
        <ele>13.7</ele>
        <time>2021-03-20T15:15:24Z</time>
      </trkpt>
      <trkpt lat="56.68603" lon="-5.20588">
        <ele>23.94</ele>
        <time>2021-03-20T15:15:27Z</time>
      </trkpt>
      <trkpt lat="56.68603" lon="-5.20477">
        <ele>23.17</ele>
        <time>2021-03-20T15:15:31Z</time>
      </trkpt>
      <trkpt lat="56.68611" lon="-5.20334">
        <ele>22</ele>
        <time>2021-03-20T15:15:34Z</time>
      </trkpt>
      <trkpt lat="56.6861" lon="-5.20222">
        <ele>20.09</ele>
        <time>2021-03-20T15:15:38Z</time>
      </trkpt>
      <trkpt lat="56.68601" lon="-5.20128">
        <ele>18.26</ele>
        <time>2021-03-20T15:15:41Z</time>
      </trkpt>
      <trkpt lat="56.68575" lon="-5.19928">
        <ele>12.56</ele>
        <time>2021-03-20T15:15:45Z</time>
      </trkpt>
      <trkpt lat="56.6857" lon="-5.1982">
        <ele>8.42</ele>
        <time>2021-03-20T15:15:48Z</time>
      </trkpt>
      <trkpt lat="56.68571" lon="-5.19666">
        <ele>7.74</ele>
        <time>2021-03-20T15:15:52Z</time>
      </trkpt>
      <trkpt lat="56.68587" lon="-5.1947">
        <ele>8.3</ele>
        <time>2021-03-20T15:15:55Z</time>
      </trkpt>
      <trkpt lat="56.68597" lon="-5.19386">
        <ele>5.55</ele>
        <time>2021-03-20T15:15:58Z</time>
      </trkpt>
      <trkpt lat="56.68602" lon="-5.19352">
        <ele>5.06</ele>
        <time>2021-03-20T15:16:02Z</time>
      </trkpt>
      <trkpt lat="56.68613" lon="-5.19318">
        <ele>4.88</ele>
        <time>2021-03-20T15:16:05Z</time>
      </trkpt>
      <trkpt lat="56.68667" lon="-5.19204">
        <ele>2.97</ele>
        <time>2021-03-20T15:16:09Z</time>
      </trkpt>
      <trkpt lat="56.68681" lon="-5.19169">
        <ele>2.38</ele>
        <time>2021-03-20T15:16:12Z</time>
      </trkpt>
      <trkpt lat="56.68689" lon="-5.19139">
        <ele>2.56</ele>
        <time>2021-03-20T15:16:16Z</time>
      </trkpt>
      <trkpt lat="56.68697" lon="-5.19091">
        <ele>3.53</ele>
        <time>2021-03-20T15:16:19Z</time>
      </trkpt>
      <trkpt lat="56.68701" lon="-5.18907">
        <ele>4.23</ele>
        <time>2021-03-20T15:16:23Z</time>
      </trkpt>
      <trkpt lat="56.68702" lon="-5.18832">
        <ele>3.74</ele>
        <time>2021-03-20T15:16:26Z</time>
      </trkpt>
      <trkpt lat="56.68706" lon="-5.18751">
        <ele>4.58</ele>
        <time>2021-03-20T15:16:30Z</time>
      </trkpt>
      <trkpt lat="56.68714" lon="-5.18701">
        <ele>5.29</ele>
        <time>2021-03-20T15:16:33Z</time>
      </trkpt>
      <trkpt lat="56.68729" lon="-5.18638">
        <ele>4.75</ele>
        <time>2021-03-20T15:16:37Z</time>
      </trkpt>
      <trkpt lat="56.68747" lon="-5.18579">
        <ele>4.37</ele>
        <time>2021-03-20T15:16:40Z</time>
      </trkpt>
      <trkpt lat="56.68774" lon="-5.18511">
        <ele>4.12</ele>
        <time>2021-03-20T15:16:44Z</time>
      </trkpt>
      <trkpt lat="56.68782" lon="-5.18473">
        <ele>3.99</ele>
        <time>2021-03-20T15:16:47Z</time>
      </trkpt>
      <trkpt lat="56.68783" lon="-5.18438">
        <ele>4.85</ele>
        <time>2021-03-20T15:16:51Z</time>
      </trkpt>
      <trkpt lat="56.68781" lon="-5.18399">
        <ele>5.56</ele>
        <time>2021-03-20T15:16:54Z</time>
      </trkpt>
      <trkpt lat="56.68782" lon="-5.18344">
        <ele>7.2</ele>
        <time>2021-03-20T15:16:58Z</time>
      </trkpt>
      <trkpt lat="56.68792" lon="-5.18278">
        <ele>7.43</ele>
        <time>2021-03-20T15:17:01Z</time>
      </trkpt>
      <trkpt lat="56.68793" lon="-5.1825">
        <ele>7.34</ele>
        <time>2021-03-20T15:17:05Z</time>
      </trkpt>
      <trkpt lat="56.68789" lon="-5.18207">
        <ele>7.81</ele>
        <time>2021-03-20T15:17:08Z</time>
      </trkpt>
      <trkpt lat="56.68743" lon="-5.18018">
        <ele>11.53</ele>
        <time>2021-03-20T15:17:12Z</time>
      </trkpt>
      <trkpt lat="56.68736" lon="-5.17994">
        <ele>11.84</ele>
        <time>2021-03-20T15:17:15Z</time>
      </trkpt>
      <trkpt lat="56.68719" lon="-5.17948">
        <ele>10.69</ele>
        <time>2021-03-20T15:17:19Z</time>
      </trkpt>
      <trkpt lat="56.68698" lon="-5.17898">
        <ele>10.17</ele>
        <time>2021-03-20T15:17:22Z</time>
      </trkpt>
      <trkpt lat="56.68686" lon="-5.17866">
        <ele>9.77</ele>
        <time>2021-03-20T15:17:25Z</time>
      </trkpt>
      <trkpt lat="56.68669" lon="-5.17807">
        <ele>8.97</ele>
        <time>2021-03-20T15:17:29Z</time>
      </trkpt>
      <trkpt lat="56.68625" lon="-5.17631">
        <ele>8.31</ele>
        <time>2021-03-20T15:17:32Z</time>
      </trkpt>
      <trkpt lat="56.68604" lon="-5.17558">
        <ele>8.35</ele>
        <time>2021-03-20T15:17:36Z</time>
      </trkpt>
      <trkpt lat="56.68574" lon="-5.17491">
        <ele>11.33</ele>
        <time>2021-03-20T15:17:39Z</time>
      </trkpt>
      <trkpt lat="56.68532" lon="-5.1743">
        <ele>12.83</ele>
        <time>2021-03-20T15:17:43Z</time>
      </trkpt>
      <trkpt lat="56.68516" lon="-5.17413">
        <ele>13.29</ele>
        <time>2021-03-20T15:17:46Z</time>
      </trkpt>
      <trkpt lat="56.68503" lon="-5.17404">
        <ele>13.45</ele>
        <time>2021-03-20T15:17:50Z</time>
      </trkpt>
      <trkpt lat="56.68494" lon="-5.17402">
        <ele>13.47</ele>
        <time>2021-03-20T15:17:53Z</time>
      </trkpt>
      <trkpt lat="56.68471" lon="-5.17387">
        <ele>13.13</ele>
        <time>2021-03-20T15:17:57Z</time>
      </trkpt>
      <trkpt lat="56.68465" lon="-5.1738">
        <ele>14.01</ele>
        <time>2021-03-20T15:18:01Z</time>
      </trkpt>
      <trkpt lat="56.6846" lon="-5.17379">
        <ele>14.79</ele>
        <time>2021-03-20T15:18:05Z</time>
      </trkpt>
      <trkpt lat="56.68454" lon="-5.17382">
        <ele>15.63</ele>
        <time>2021-03-20T15:18:10Z</time>
      </trkpt>
      <trkpt lat="56.68446" lon="-5.17394">
        <ele>16.91</ele>
        <time>2021-03-20T15:18:14Z</time>
      </trkpt>
      <trkpt lat="56.68445" lon="-5.17404">
        <ele>17.53</ele>
        <time>2021-03-20T15:18:18Z</time>
      </trkpt>
      <trkpt lat="56.68445" lon="-5.17414">
        <ele>17.86</ele>
        <time>2021-03-20T15:18:22Z</time>
      </trkpt>
      <trkpt lat="56.68446" lon="-5.17422">
        <ele>17.75</ele>
        <time>2021-03-20T15:18:26Z</time>
      </trkpt>
      <trkpt lat="56.68466" lon="-5.17471">
        <ele>15.83</ele>
        <time>2021-03-20T15:18:31Z</time>
      </trkpt>
      <trkpt lat="56.68545" lon="-5.17925">
        <ele>17.49</ele>
        <time>2021-03-20T15:18:35Z</time>
      </trkpt>
      <trkpt lat="56.68557" lon="-5.1798">
        <ele>18.27</ele>
        <time>2021-03-20T15:18:39Z</time>
      </trkpt>
      <trkpt lat="56.68576" lon="-5.18042">
        <ele>20.38</ele>
        <time>2021-03-20T15:18:43Z</time>
      </trkpt>
      <trkpt lat="56.68595" lon="-5.18091">
        <ele>21</ele>
        <time>2021-03-20T15:18:48Z</time>
      </trkpt>
      <trkpt lat="56.68625" lon="-5.18141">
        <ele>22.54</ele>
        <time>2021-03-20T15:18:52Z</time>
      </trkpt>
      <trkpt lat="56.68655" lon="-5.1818">
        <ele>25.57</ele>
        <time>2021-03-20T15:18:56Z</time>
      </trkpt>
      <trkpt lat="56.68685" lon="-5.18208">
        <ele>28.31</ele>
        <time>2021-03-20T15:19:00Z</time>
      </trkpt>
      <trkpt lat="56.68725" lon="-5.18228">
        <ele>26.67</ele>
        <time>2021-03-20T15:19:04Z</time>
      </trkpt>
      <trkpt lat="56.68773" lon="-5.18233">
        <ele>11.33</ele>
        <time>2021-03-20T15:19:09Z</time>
      </trkpt>
      <trkpt lat="56.6904" lon="-5.18237">
        <ele>8.84</ele>
        <time>2021-03-20T15:19:13Z</time>
      </trkpt>
      <trkpt lat="56.69243" lon="-5.18239">
        <ele>12.39</ele>
        <time>2021-03-20T15:19:17Z</time>
      </trkpt>
      <trkpt lat="56.69328" lon="-5.1823">
        <ele>11.94</ele>
        <time>2021-03-20T15:19:21Z</time>
      </trkpt>
      <trkpt lat="56.69449" lon="-5.18206">
        <ele>12.83</ele>
        <time>2021-03-20T15:19:25Z</time>
      </trkpt>
      <trkpt lat="56.69521" lon="-5.18186">
        <ele>11.46</ele>
        <time>2021-03-20T15:19:30Z</time>
      </trkpt>
      <trkpt lat="56.69627" lon="-5.18162">
        <ele>11</ele>
        <time>2021-03-20T15:19:34Z</time>
      </trkpt>
      <trkpt lat="56.6966" lon="-5.18159">
        <ele>11.75</ele>
        <time>2021-03-20T15:19:38Z</time>
      </trkpt>
      <trkpt lat="56.6971" lon="-5.18163">
        <ele>13.57</ele>
        <time>2021-03-20T15:19:42Z</time>
      </trkpt>
      <trkpt lat="56.69758" lon="-5.18173">
        <ele>12.79</ele>
        <time>2021-03-20T15:19:47Z</time>
      </trkpt>
      <trkpt lat="56.69786" lon="-5.18183">
        <ele>12.51</ele>
        <time>2021-03-20T15:19:51Z</time>
      </trkpt>
      <trkpt lat="56.69826" lon="-5.18201">
        <ele>12.49</ele>
        <time>2021-03-20T15:19:55Z</time>
      </trkpt>
      <trkpt lat="56.69872" lon="-5.18231">
        <ele>12.5</ele>
        <time>2021-03-20T15:19:59Z</time>
      </trkpt>
      <trkpt lat="56.69985" lon="-5.18323">
        <ele>12.76</ele>
        <time>2021-03-20T15:20:03Z</time>
      </trkpt>
      <trkpt lat="56.70006" lon="-5.18353">
        <ele>13.52</ele>
        <time>2021-03-20T15:20:08Z</time>
      </trkpt>
      <trkpt lat="56.70023" lon="-5.18388">
        <ele>13.4</ele>
        <time>2021-03-20T15:20:12Z</time>
      </trkpt>
      <trkpt lat="56.7003" lon="-5.18411">
        <ele>12.96</ele>
        <time>2021-03-20T15:20:16Z</time>
      </trkpt>
      <trkpt lat="56.70034" lon="-5.18435">
        <ele>13.39</ele>
        <time>2021-03-20T15:20:20Z</time>
      </trkpt>
      <trkpt lat="56.70041" lon="-5.18507">
        <ele>14</ele>
        <time>2021-03-20T15:20:25Z</time>
      </trkpt>
      <trkpt lat="56.70048" lon="-5.18736">
        <ele>14.95</ele>
        <time>2021-03-20T15:20:29Z</time>
      </trkpt>
      <trkpt lat="56.7006" lon="-5.18928">
        <ele>20.2</ele>
        <time>2021-03-20T15:20:33Z</time>
      </trkpt>
      <trkpt lat="56.70061" lon="-5.18977">
        <ele>19.64</ele>
        <time>2021-03-20T15:20:37Z</time>
      </trkpt>
      <trkpt lat="56.7006" lon="-5.19009">
        <ele>19</ele>
        <time>2021-03-20T15:20:41Z</time>
      </trkpt>
      <trkpt lat="56.70054" lon="-5.19054">
        <ele>16.66</ele>
        <time>2021-03-20T15:20:46Z</time>
      </trkpt>
      <trkpt lat="56.7004" lon="-5.19138">
        <ele>13.28</ele>
        <time>2021-03-20T15:20:50Z</time>
      </trkpt>
      <trkpt lat="56.70036" lon="-5.19204">
        <ele>10.19</ele>
        <time>2021-03-20T15:20:54Z</time>
      </trkpt>
      <trkpt lat="56.7003" lon="-5.19577">
        <ele>14.74</ele>
        <time>2021-03-20T15:20:58Z</time>
      </trkpt>
      <trkpt lat="56.70031" lon="-5.19618">
        <ele>13.61</ele>
        <time>2021-03-20T15:21:03Z</time>
      </trkpt>
      <trkpt lat="56.70038" lon="-5.19674">
        <ele>14.43</ele>
        <time>2021-03-20T15:21:07Z</time>
      </trkpt>
      <trkpt lat="56.70082" lon="-5.19868">
        <ele>9.32</ele>
        <time>2021-03-20T15:21:11Z</time>
      </trkpt>
      <trkpt lat="56.70146" lon="-5.20175">
        <ele>4.92</ele>
        <time>2021-03-20T15:21:15Z</time>
      </trkpt>
      <trkpt lat="56.70183" lon="-5.20342">
        <ele>7.55</ele>
        <time>2021-03-20T15:21:19Z</time>
      </trkpt>
      <trkpt lat="56.70199" lon="-5.20396">
        <ele>6.35</ele>
        <time>2021-03-20T15:21:24Z</time>
      </trkpt>
      <trkpt lat="56.70227" lon="-5.20474">
        <ele>9.97</ele>
        <time>2021-03-20T15:21:28Z</time>
      </trkpt>
      <trkpt lat="56.7024" lon="-5.20514">
        <ele>12.91</ele>
        <time>2021-03-20T15:21:32Z</time>
      </trkpt>
      <trkpt lat="56.70247" lon="-5.2055">
        <ele>13.64</ele>
        <time>2021-03-20T15:21:36Z</time>
      </trkpt>
      <trkpt lat="56.70252" lon="-5.20608">
        <ele>15.65</ele>
        <time>2021-03-20T15:21:40Z</time>
      </trkpt>
      <trkpt lat="56.70249" lon="-5.20664">
        <ele>21.43</ele>
        <time>2021-03-20T15:21:45Z</time>
      </trkpt>
      <trkpt lat="56.70246" lon="-5.20692">
        <ele>23.69</ele>
        <time>2021-03-20T15:21:49Z</time>
      </trkpt>
      <trkpt lat="56.70228" lon="-5.2078">
        <ele>21.23</ele>
        <time>2021-03-20T15:21:53Z</time>
      </trkpt>
      <trkpt lat="56.70224" lon="-5.20824">
        <ele>18.67</ele>
        <time>2021-03-20T15:21:57Z</time>
      </trkpt>
      <trkpt lat="56.70223" lon="-5.20863">
        <ele>16.48</ele>
        <time>2021-03-20T15:22:02Z</time>
      </trkpt>
      <trkpt lat="56.70233" lon="-5.21027">
        <ele>13.37</ele>
        <time>2021-03-20T15:22:06Z</time>
      </trkpt>
      <trkpt lat="56.70228" lon="-5.2113">
        <ele>9.61</ele>
        <time>2021-03-20T15:22:10Z</time>
      </trkpt>
      <trkpt lat="56.70229" lon="-5.21162">
        <ele>9.94</ele>
        <time>2021-03-20T15:22:14Z</time>
      </trkpt>
      <trkpt lat="56.70261" lon="-5.21532">
        <ele>14.83</ele>
        <time>2021-03-20T15:22:18Z</time>
      </trkpt>
      <trkpt lat="56.70272" lon="-5.21643">
        <ele>10.66</ele>
        <time>2021-03-20T15:22:23Z</time>
      </trkpt>
      <trkpt lat="56.70275" lon="-5.21686">
        <ele>8.51</ele>
        <time>2021-03-20T15:22:27Z</time>
      </trkpt>
      <trkpt lat="56.70276" lon="-5.21901">
        <ele>9.21</ele>
        <time>2021-03-20T15:22:31Z</time>
      </trkpt>
      <trkpt lat="56.70279" lon="-5.21936">
        <ele>9.35</ele>
        <time>2021-03-20T15:22:35Z</time>
      </trkpt>
      <trkpt lat="56.70282" lon="-5.21967">
        <ele>10.89</ele>
        <time>2021-03-20T15:22:40Z</time>
      </trkpt>
      <trkpt lat="56.7031" lon="-5.22128">
        <ele>14.49</ele>
        <time>2021-03-20T15:22:44Z</time>
      </trkpt>
      <trkpt lat="56.70313" lon="-5.22198">
        <ele>17.78</ele>
        <time>2021-03-20T15:22:48Z</time>
      </trkpt>
      <trkpt lat="56.70312" lon="-5.22247">
        <ele>20.07</ele>
        <time>2021-03-20T15:22:52Z</time>
      </trkpt>
      <trkpt lat="56.70283" lon="-5.22506">
        <ele>18.73</ele>
        <time>2021-03-20T15:22:56Z</time>
      </trkpt>
      <trkpt lat="56.70281" lon="-5.22559">
        <ele>17.3</ele>
        <time>2021-03-20T15:23:01Z</time>
      </trkpt>
      <trkpt lat="56.70284" lon="-5.22604">
        <ele>16.74</ele>
        <time>2021-03-20T15:23:05Z</time>
      </trkpt>
      <trkpt lat="56.7032" lon="-5.22848">
        <ele>16.75</ele>
        <time>2021-03-20T15:23:09Z</time>
      </trkpt>
      <trkpt lat="56.70331" lon="-5.2289">
        <ele>16.7</ele>
        <time>2021-03-20T15:23:13Z</time>
      </trkpt>
      <trkpt lat="56.70346" lon="-5.22921">
        <ele>16.3</ele>
        <time>2021-03-20T15:23:17Z</time>
      </trkpt>
      <trkpt lat="56.70369" lon="-5.22951">
        <ele>16.27</ele>
        <time>2021-03-20T15:23:22Z</time>
      </trkpt>
      <trkpt lat="56.70561" lon="-5.23143">
        <ele>18.84</ele>
        <time>2021-03-20T15:23:26Z</time>
      </trkpt>
      <trkpt lat="56.70585" lon="-5.23163">
        <ele>18.18</ele>
        <time>2021-03-20T15:23:30Z</time>
      </trkpt>
      <trkpt lat="56.7061" lon="-5.23176">
        <ele>18.97</ele>
        <time>2021-03-20T15:23:34Z</time>
      </trkpt>
      <trkpt lat="56.70627" lon="-5.23181">
        <ele>19.58</ele>
        <time>2021-03-20T15:23:39Z</time>
      </trkpt>
      <trkpt lat="56.70644" lon="-5.23182">
        <ele>20.19</ele>
        <time>2021-03-20T15:23:43Z</time>
      </trkpt>
      <trkpt lat="56.70659" lon="-5.23178">
        <ele>20.72</ele>
        <time>2021-03-20T15:23:47Z</time>
      </trkpt>
      <trkpt lat="56.70683" lon="-5.23168">
        <ele>21.03</ele>
        <time>2021-03-20T15:23:51Z</time>
      </trkpt>
      <trkpt lat="56.7072" lon="-5.23143">
        <ele>20.14</ele>
        <time>2021-03-20T15:23:55Z</time>
      </trkpt>
      <trkpt lat="56.70758" lon="-5.23114">
        <ele>20.02</ele>
        <time>2021-03-20T15:24:00Z</time>
      </trkpt>
      <trkpt lat="56.70788" lon="-5.23085">
        <ele>19.64</ele>
        <time>2021-03-20T15:24:04Z</time>
      </trkpt>
      <trkpt lat="56.70868" lon="-5.22998">
        <ele>19.48</ele>
        <time>2021-03-20T15:24:08Z</time>
      </trkpt>
      <trkpt lat="56.7092" lon="-5.2294">
        <ele>22.3</ele>
        <time>2021-03-20T15:24:12Z</time>
      </trkpt>
      <trkpt lat="56.7092" lon="-5.2294">
        <ele>22.3</ele>
        <time>2021-03-20T15:24:12Z</time>
      </trkpt>
      <trkpt lat="56.70972" lon="-5.22894">
        <ele>22.51</ele>
        <time>2021-03-20T15:24:15Z</time>
      </trkpt>
      <trkpt lat="56.7104" lon="-5.2285">
        <ele>25.04</ele>
        <time>2021-03-20T15:24:18Z</time>
      </trkpt>
      <trkpt lat="56.71157" lon="-5.22795">
        <ele>29.42</ele>
        <time>2021-03-20T15:24:21Z</time>
      </trkpt>
      <trkpt lat="56.7118" lon="-5.22781">
        <ele>28.91</ele>
        <time>2021-03-20T15:24:24Z</time>
      </trkpt>
      <trkpt lat="56.712" lon="-5.22764">
        <ele>27.63</ele>
        <time>2021-03-20T15:24:27Z</time>
      </trkpt>
      <trkpt lat="56.71267" lon="-5.22693">
        <ele>24.14</ele>
        <time>2021-03-20T15:24:30Z</time>
      </trkpt>
      <trkpt lat="56.71284" lon="-5.22678">
        <ele>24.13</ele>
        <time>2021-03-20T15:24:33Z</time>
      </trkpt>
      <trkpt lat="56.71299" lon="-5.2267">
        <ele>24.06</ele>
        <time>2021-03-20T15:24:36Z</time>
      </trkpt>
      <trkpt lat="56.71318" lon="-5.22665">
        <ele>24.73</ele>
        <time>2021-03-20T15:24:38Z</time>
      </trkpt>
      <trkpt lat="56.71425" lon="-5.22662">
        <ele>21.83</ele>
        <time>2021-03-20T15:24:41Z</time>
      </trkpt>
      <trkpt lat="56.71437" lon="-5.22664">
        <ele>20.64</ele>
        <time>2021-03-20T15:24:44Z</time>
      </trkpt>
      <trkpt lat="56.71457" lon="-5.22674">
        <ele>20.36</ele>
        <time>2021-03-20T15:24:47Z</time>
      </trkpt>
      <trkpt lat="56.71466" lon="-5.22682">
        <ele>20.65</ele>
        <time>2021-03-20T15:24:50Z</time>
      </trkpt>
      <trkpt lat="56.71485" lon="-5.22714">
        <ele>20.63</ele>
        <time>2021-03-20T15:24:53Z</time>
      </trkpt>
      <trkpt lat="56.71493" lon="-5.22733">
        <ele>20.51</ele>
        <time>2021-03-20T15:24:56Z</time>
      </trkpt>
      <trkpt lat="56.71516" lon="-5.22827">
        <ele>18.29</ele>
        <time>2021-03-20T15:24:59Z</time>
      </trkpt>
      <trkpt lat="56.71523" lon="-5.22851">
        <ele>16.89</ele>
        <time>2021-03-20T15:25:02Z</time>
      </trkpt>
      <trkpt lat="56.71532" lon="-5.22872">
        <ele>15.94</ele>
        <time>2021-03-20T15:25:05Z</time>
      </trkpt>
      <trkpt lat="56.71735" lon="-5.23208">
        <ele>19</ele>
        <time>2021-03-20T15:25:07Z</time>
      </trkpt>
      <trkpt lat="56.71753" lon="-5.23229">
        <ele>18.96</ele>
        <time>2021-03-20T15:25:10Z</time>
      </trkpt>
      <trkpt lat="56.7178" lon="-5.2325">
        <ele>20.19</ele>
        <time>2021-03-20T15:25:13Z</time>
      </trkpt>
      <trkpt lat="56.71798" lon="-5.23256">
        <ele>21.27</ele>
        <time>2021-03-20T15:25:16Z</time>
      </trkpt>
      <trkpt lat="56.71815" lon="-5.23259">
        <ele>22.03</ele>
        <time>2021-03-20T15:25:19Z</time>
      </trkpt>
      <trkpt lat="56.71831" lon="-5.23257">
        <ele>22.67</ele>
        <time>2021-03-20T15:25:22Z</time>
      </trkpt>
      <trkpt lat="56.71858" lon="-5.23242">
        <ele>24.49</ele>
        <time>2021-03-20T15:25:25Z</time>
      </trkpt>
      <trkpt lat="56.71882" lon="-5.23223">
        <ele>24.47</ele>
        <time>2021-03-20T15:25:28Z</time>
      </trkpt>
      <trkpt lat="56.71952" lon="-5.23148">
        <ele>25.73</ele>
        <time>2021-03-20T15:25:31Z</time>
      </trkpt>
      <trkpt lat="56.71966" lon="-5.23137">
        <ele>26.41</ele>
        <time>2021-03-20T15:25:34Z</time>
      </trkpt>
      <trkpt lat="56.71982" lon="-5.2313">
        <ele>26.23</ele>
        <time>2021-03-20T15:25:37Z</time>
      </trkpt>
      <trkpt lat="56.71996" lon="-5.23128">
        <ele>25.43</ele>
        <time>2021-03-20T15:25:39Z</time>
      </trkpt>
      <trkpt lat="56.72014" lon="-5.23133">
        <ele>23.6</ele>
        <time>2021-03-20T15:25:42Z</time>
      </trkpt>
      <trkpt lat="56.72036" lon="-5.23148">
        <ele>21.45</ele>
        <time>2021-03-20T15:25:45Z</time>
      </trkpt>
      <trkpt lat="56.72102" lon="-5.23204">
        <ele>20.46</ele>
        <time>2021-03-20T15:25:48Z</time>
      </trkpt>
      <trkpt lat="56.72118" lon="-5.23214">
        <ele>19.03</ele>
        <time>2021-03-20T15:25:51Z</time>
      </trkpt>
      <trkpt lat="56.72147" lon="-5.23227">
        <ele>17.52</ele>
        <time>2021-03-20T15:25:54Z</time>
      </trkpt>
      <trkpt lat="56.72184" lon="-5.23226">
        <ele>18.81</ele>
        <time>2021-03-20T15:25:57Z</time>
      </trkpt>
      <trkpt lat="56.72225" lon="-5.2323">
        <ele>18.88</ele>
        <time>2021-03-20T15:26:00Z</time>
      </trkpt>
      <trkpt lat="56.72236" lon="-5.23233">
        <ele>18.11</ele>
        <time>2021-03-20T15:26:03Z</time>
      </trkpt>
      <trkpt lat="56.72234" lon="-5.23249">
        <ele>16.18</ele>
        <time>2021-03-20T15:26:20Z</time>
      </trkpt>
      <trkpt lat="56.72229" lon="-5.23258">
        <ele>15.23</ele>
        <time>2021-03-20T15:26:38Z</time>
      </trkpt>
      <trkpt lat="56.72223" lon="-5.23261">
        <ele>14.86</ele>
        <time>2021-03-20T15:26:55Z</time>
      </trkpt>
      <trkpt lat="56.72181" lon="-5.23254">
        <ele>15.07</ele>
        <time>2021-03-20T15:27:13Z</time>
      </trkpt>
      <trkpt lat="56.72168" lon="-5.23258">
        <ele>14.13</ele>
        <time>2021-03-20T15:27:30Z</time>
      </trkpt>
      <trkpt lat="56.7215" lon="-5.23283">
        <ele>11.73</ele>
        <time>2021-03-20T15:27:47Z</time>
      </trkpt>
      <trkpt lat="56.72141" lon="-5.23321">
        <ele>10.3</ele>
        <time>2021-03-20T15:28:05Z</time>
      </trkpt>
      <trkpt lat="56.72138" lon="-5.23348">
        <ele>10.06</ele>
        <time>2021-03-20T15:28:22Z</time>
      </trkpt>
      <trkpt lat="56.72138" lon="-5.23364">
        <ele>10.05</ele>
        <time>2021-03-20T15:28:40Z</time>
      </trkpt>
      <trkpt lat="56.72146" lon="-5.23426">
        <ele>8.25</ele>
        <time>2021-03-20T15:28:57Z</time>
      </trkpt>
      <trkpt lat="56.72147" lon="-5.23551">
        <ele>1</ele>
        <time>2021-03-20T15:29:15Z</time>
      </trkpt>
      <trkpt lat="56.72164" lon="-5.23603">
        <ele>1.32</ele>
        <time>2021-03-20T15:29:32Z</time>
      </trkpt>
      <trkpt lat="56.72172" lon="-5.23635">
        <ele>1.51</ele>
        <time>2021-03-20T15:29:50Z</time>
      </trkpt>
      <trkpt lat="56.72224" lon="-5.23763">
        <ele>2.29</ele>
        <time>2021-03-20T15:30:07Z</time>
      </trkpt>
      <trkpt lat="56.72267" lon="-5.23863">
        <ele>2.91</ele>
        <time>2021-03-20T15:30:25Z</time>
      </trkpt>
      <trkpt lat="56.7228" lon="-5.23908">
        <ele>3.17</ele>
        <time>2021-03-20T15:30:42Z</time>
      </trkpt>
      <trkpt lat="56.72295" lon="-5.23988">
        <ele>3.62</ele>
        <time>2021-03-20T15:30:59Z</time>
      </trkpt>
      <trkpt lat="56.72303" lon="-5.24075">
        <ele>4.11</ele>
        <time>2021-03-20T15:31:17Z</time>
      </trkpt>
      <trkpt lat="56.72304" lon="-5.24119">
        <ele>4.36</ele>
        <time>2021-03-20T15:31:34Z</time>
      </trkpt>
      <trkpt lat="56.72302" lon="-5.24158">
        <ele>4.58</ele>
        <time>2021-03-20T15:31:52Z</time>
      </trkpt>
      <trkpt lat="56.72292" lon="-5.2423">
        <ele>5</ele>
        <time>2021-03-20T15:32:09Z</time>
      </trkpt>
      <trkpt lat="56.72282" lon="-5.24287">
        <ele>0.44</ele>
        <time>2021-03-20T15:32:27Z</time>
      </trkpt>
      <trkpt lat="56.72275" lon="-5.24286">
        <ele>0.53</ele>
        <time>2021-03-20T15:32:44Z</time>
      </trkpt>
      <trkpt lat="56.72262" lon="-5.24364">
        <ele>5.18</ele>
        <time>2021-03-20T15:33:02Z</time>
      </trkpt>
      <trkpt lat="56.72234" lon="-5.24316">
        <ele>6.79</ele>
        <time>2021-03-20T15:33:03Z</time>
      </trkpt>
      <trkpt lat="56.72202" lon="-5.24291">
        <ele>6.46</ele>
        <time>2021-03-20T15:33:05Z</time>
      </trkpt>
      <trkpt lat="56.72176" lon="-5.24284">
        <ele>6.38</ele>
        <time>2021-03-20T15:33:07Z</time>
      </trkpt>
      <trkpt lat="56.72118" lon="-5.24282">
        <ele>3.79</ele>
        <time>2021-03-20T15:33:09Z</time>
      </trkpt>
      <trkpt lat="56.72101" lon="-5.24286">
        <ele>3.24</ele>
        <time>2021-03-20T15:33:11Z</time>
      </trkpt>
      <trkpt lat="56.72083" lon="-5.24295">
        <ele>3.24</ele>
        <time>2021-03-20T15:33:12Z</time>
      </trkpt>
      <trkpt lat="56.7207" lon="-5.24306">
        <ele>3.52</ele>
        <time>2021-03-20T15:33:14Z</time>
      </trkpt>
      <trkpt lat="56.72052" lon="-5.24324">
        <ele>3.49</ele>
        <time>2021-03-20T15:33:16Z</time>
      </trkpt>
      <trkpt lat="56.72036" lon="-5.24348">
        <ele>3.48</ele>
        <time>2021-03-20T15:33:18Z</time>
      </trkpt>
      <trkpt lat="56.72019" lon="-5.24384">
        <ele>4.2</ele>
        <time>2021-03-20T15:33:20Z</time>
      </trkpt>
      <trkpt lat="56.7201" lon="-5.24413">
        <ele>4.58</ele>
        <time>2021-03-20T15:33:21Z</time>
      </trkpt>
      <trkpt lat="56.72002" lon="-5.2445">
        <ele>4.91</ele>
        <time>2021-03-20T15:33:23Z</time>
      </trkpt>
      <trkpt lat="56.71997" lon="-5.24488">
        <ele>3.9</ele>
        <time>2021-03-20T15:33:25Z</time>
      </trkpt>
      <trkpt lat="56.71996" lon="-5.24526">
        <ele>2.92</ele>
        <time>2021-03-20T15:33:27Z</time>
      </trkpt>
      <trkpt lat="56.71997" lon="-5.24644">
        <ele>1.98</ele>
        <time>2021-03-20T15:33:29Z</time>
      </trkpt>
      <trkpt lat="56.71995" lon="-5.24683">
        <ele>3.74</ele>
        <time>2021-03-20T15:33:30Z</time>
      </trkpt>
      <trkpt lat="56.7199" lon="-5.24724">
        <ele>5.26</ele>
        <time>2021-03-20T15:33:32Z</time>
      </trkpt>
      <trkpt lat="56.71966" lon="-5.24844">
        <ele>7.54</ele>
        <time>2021-03-20T15:33:34Z</time>
      </trkpt>
      <trkpt lat="56.71939" lon="-5.25039">
        <ele>9.36</ele>
        <time>2021-03-20T15:33:36Z</time>
      </trkpt>
      <trkpt lat="56.71925" lon="-5.25089">
        <ele>7.15</ele>
        <time>2021-03-20T15:33:37Z</time>
      </trkpt>
      <trkpt lat="56.71894" lon="-5.25179">
        <ele>5.29</ele>
        <time>2021-03-20T15:33:39Z</time>
      </trkpt>
      <trkpt lat="56.71903" lon="-5.25208">
        <ele>5.51</ele>
        <time>2021-03-20T15:33:45Z</time>
      </trkpt>
      <trkpt lat="56.71901" lon="-5.25307">
        <ele>4.43</ele>
        <time>2021-03-20T15:33:50Z</time>
      </trkpt>
      <trkpt lat="56.71921" lon="-5.25892">
        <ele>7.14</ele>
        <time>2021-03-20T15:33:55Z</time>
      </trkpt>
      <trkpt lat="56.71941" lon="-5.25977">
        <ele>8.86</ele>
        <time>2021-03-20T15:34:00Z</time>
      </trkpt>
      <trkpt lat="56.71962" lon="-5.26019">
        <ele>10.29</ele>
        <time>2021-03-20T15:34:06Z</time>
      </trkpt>
      <trkpt lat="56.71965" lon="-5.26094">
        <ele>11.44</ele>
        <time>2021-03-20T15:34:11Z</time>
      </trkpt>
      <trkpt lat="56.71961" lon="-5.26236">
        <ele>13.74</ele>
        <time>2021-03-20T15:34:16Z</time>
      </trkpt>
      <trkpt lat="56.71922" lon="-5.26332">
        <ele>14.81</ele>
        <time>2021-03-20T15:34:21Z</time>
      </trkpt>
      <trkpt lat="56.71882" lon="-5.26444">
        <ele>12.95</ele>
        <time>2021-03-20T15:34:27Z</time>
      </trkpt>
      <trkpt lat="56.71847" lon="-5.26642">
        <ele>11.93</ele>
        <time>2021-03-20T15:34:32Z</time>
      </trkpt>
      <trkpt lat="56.71843" lon="-5.2669">
        <ele>13.05</ele>
        <time>2021-03-20T15:34:37Z</time>
      </trkpt>
      <trkpt lat="56.71753" lon="-5.26819">
        <ele>13.7</ele>
        <time>2021-03-20T15:34:42Z</time>
      </trkpt>
      <trkpt lat="56.7145" lon="-5.27145">
        <ele>12</ele>
        <time>2021-03-20T15:34:48Z</time>
      </trkpt>
      <trkpt lat="56.71443" lon="-5.27148">
        <ele>11.9</ele>
        <time>2021-03-20T15:34:53Z</time>
      </trkpt>
      <trkpt lat="56.71422" lon="-5.27147">
        <ele>10.6</ele>
        <time>2021-03-20T15:34:58Z</time>
      </trkpt>
      <trkpt lat="56.71413" lon="-5.27198">
        <ele>11.57</ele>
        <time>2021-03-20T15:35:02Z</time>
      </trkpt>
      <trkpt lat="56.71394" lon="-5.27276">
        <ele>10.19</ele>
        <time>2021-03-20T15:35:05Z</time>
      </trkpt>
      <trkpt lat="56.71383" lon="-5.27308">
        <ele>9.78</ele>
        <time>2021-03-20T15:35:09Z</time>
      </trkpt>
      <trkpt lat="56.71364" lon="-5.27344">
        <ele>9.5</ele>
        <time>2021-03-20T15:35:13Z</time>
      </trkpt>
      <trkpt lat="56.7134" lon="-5.27381">
        <ele>11.23</ele>
        <time>2021-03-20T15:35:16Z</time>
      </trkpt>
      <trkpt lat="56.71219" lon="-5.27526">
        <ele>13.68</ele>
        <time>2021-03-20T15:35:20Z</time>
      </trkpt>
      <trkpt lat="56.71195" lon="-5.27558">
        <ele>14.09</ele>
        <time>2021-03-20T15:35:24Z</time>
      </trkpt>
      <trkpt lat="56.71167" lon="-5.27606">
        <ele>14.82</ele>
        <time>2021-03-20T15:35:27Z</time>
      </trkpt>
      <trkpt lat="56.71139" lon="-5.27675">
        <ele>15.31</ele>
        <time>2021-03-20T15:35:31Z</time>
      </trkpt>
      <trkpt lat="56.71126" lon="-5.27723">
        <ele>15.1</ele>
        <time>2021-03-20T15:35:34Z</time>
      </trkpt>
      <trkpt lat="56.71117" lon="-5.27765">
        <ele>15.41</ele>
        <time>2021-03-20T15:35:38Z</time>
      </trkpt>
      <trkpt lat="56.71044" lon="-5.28235">
        <ele>14.04</ele>
        <time>2021-03-20T15:35:42Z</time>
      </trkpt>
      <trkpt lat="56.71039" lon="-5.28309">
        <ele>15.88</ele>
        <time>2021-03-20T15:35:45Z</time>
      </trkpt>
      <trkpt lat="56.71041" lon="-5.2839">
        <ele>15.87</ele>
        <time>2021-03-20T15:35:49Z</time>
      </trkpt>
      <trkpt lat="56.71044" lon="-5.28423">
        <ele>14.91</ele>
        <time>2021-03-20T15:35:53Z</time>
      </trkpt>
      <trkpt lat="56.71056" lon="-5.28499">
        <ele>13.09</ele>
        <time>2021-03-20T15:35:56Z</time>
      </trkpt>
      <trkpt lat="56.71116" lon="-5.28696">
        <ele>12.11</ele>
        <time>2021-03-20T15:36:00Z</time>
      </trkpt>
      <trkpt lat="56.7132" lon="-5.2949">
        <ele>12.55</ele>
        <time>2021-03-20T15:36:03Z</time>
      </trkpt>
      <trkpt lat="56.71328" lon="-5.29526">
        <ele>12.52</ele>
        <time>2021-03-20T15:36:07Z</time>
      </trkpt>
      <trkpt lat="56.71339" lon="-5.29587">
        <ele>11.9</ele>
        <time>2021-03-20T15:36:11Z</time>
      </trkpt>
      <trkpt lat="56.71342" lon="-5.2965">
        <ele>10.32</ele>
        <time>2021-03-20T15:36:14Z</time>
      </trkpt>
      <trkpt lat="56.7134" lon="-5.2968">
        <ele>9.35</ele>
        <time>2021-03-20T15:36:18Z</time>
      </trkpt>
      <trkpt lat="56.71335" lon="-5.29719">
        <ele>8.29</ele>
        <time>2021-03-20T15:36:21Z</time>
      </trkpt>
      <trkpt lat="56.71321" lon="-5.29782">
        <ele>5.94</ele>
        <time>2021-03-20T15:36:25Z</time>
      </trkpt>
      <trkpt lat="56.71303" lon="-5.29843">
        <ele>3.56</ele>
        <time>2021-03-20T15:36:29Z</time>
      </trkpt>
      <trkpt lat="56.71286" lon="-5.29915">
        <ele>2.95</ele>
        <time>2021-03-20T15:36:32Z</time>
      </trkpt>
      <trkpt lat="56.71275" lon="-5.2997">
        <ele>3.01</ele>
        <time>2021-03-20T15:36:36Z</time>
      </trkpt>
      <trkpt lat="56.71266" lon="-5.30079">
        <ele>3.83</ele>
        <time>2021-03-20T15:36:40Z</time>
      </trkpt>
      <trkpt lat="56.71262" lon="-5.30202">
        <ele>5</ele>
        <time>2021-03-20T15:36:43Z</time>
      </trkpt>
      <trkpt lat="56.71252" lon="-5.30276">
        <ele>5</ele>
        <time>2021-03-20T15:36:47Z</time>
      </trkpt>
      <trkpt lat="56.71205" lon="-5.30397">
        <ele>8.28</ele>
        <time>2021-03-20T15:36:50Z</time>
      </trkpt>
      <trkpt lat="56.71127" lon="-5.30532">
        <ele>12.16</ele>
        <time>2021-03-20T15:36:54Z</time>
      </trkpt>
      <trkpt lat="56.71099" lon="-5.30576">
        <ele>11.9</ele>
        <time>2021-03-20T15:36:58Z</time>
      </trkpt>
      <trkpt lat="56.71069" lon="-5.30609">
        <ele>10.32</ele>
        <time>2021-03-20T15:37:01Z</time>
      </trkpt>
      <trkpt lat="56.71045" lon="-5.30632">
        <ele>10.47</ele>
        <time>2021-03-20T15:37:05Z</time>
      </trkpt>
      <trkpt lat="56.70949" lon="-5.30693">
        <ele>15.19</ele>
        <time>2021-03-20T15:37:09Z</time>
      </trkpt>
      <trkpt lat="56.70933" lon="-5.30708">
        <ele>14.69</ele>
        <time>2021-03-20T15:37:12Z</time>
      </trkpt>
      <trkpt lat="56.70905" lon="-5.30743">
        <ele>14.74</ele>
        <time>2021-03-20T15:37:16Z</time>
      </trkpt>
      <trkpt lat="56.70895" lon="-5.3076">
        <ele>15.52</ele>
        <time>2021-03-20T15:37:19Z</time>
      </trkpt>
      <trkpt lat="56.70886" lon="-5.30775">
        <ele>16.09</ele>
        <time>2021-03-20T15:37:23Z</time>
      </trkpt>
      <trkpt lat="56.70855" lon="-5.30844">
        <ele>18.47</ele>
        <time>2021-03-20T15:37:27Z</time>
      </trkpt>
      <trkpt lat="56.70844" lon="-5.30862">
        <ele>15.87</ele>
        <time>2021-03-20T15:37:30Z</time>
      </trkpt>
      <trkpt lat="56.7081" lon="-5.30904">
        <ele>12</ele>
        <time>2021-03-20T15:37:34Z</time>
      </trkpt>
      <trkpt lat="56.70782" lon="-5.30934">
        <ele>14.96</ele>
        <time>2021-03-20T15:37:38Z</time>
      </trkpt>
      <trkpt lat="56.70754" lon="-5.30973">
        <ele>14.06</ele>
        <time>2021-03-20T15:37:41Z</time>
      </trkpt>
      <trkpt lat="56.70731" lon="-5.3101">
        <ele>15.9</ele>
        <time>2021-03-20T15:37:45Z</time>
      </trkpt>
      <trkpt lat="56.70655" lon="-5.31157">
        <ele>23.1</ele>
        <time>2021-03-20T15:37:48Z</time>
      </trkpt>
      <trkpt lat="56.70627" lon="-5.31227">
        <ele>18.76</ele>
        <time>2021-03-20T15:37:52Z</time>
      </trkpt>
      <trkpt lat="56.70602" lon="-5.313">
        <ele>20.21</ele>
        <time>2021-03-20T15:37:56Z</time>
      </trkpt>
      <trkpt lat="56.70589" lon="-5.31331">
        <ele>20.09</ele>
        <time>2021-03-20T15:37:59Z</time>
      </trkpt>
      <trkpt lat="56.70578" lon="-5.31353">
        <ele>18.67</ele>
        <time>2021-03-20T15:38:03Z</time>
      </trkpt>
      <trkpt lat="56.70564" lon="-5.31374">
        <ele>15.84</ele>
        <time>2021-03-20T15:38:07Z</time>
      </trkpt>
      <trkpt lat="56.70544" lon="-5.31396">
        <ele>15.07</ele>
        <time>2021-03-20T15:38:10Z</time>
      </trkpt>
      <trkpt lat="56.70525" lon="-5.31411">
        <ele>18.44</ele>
        <time>2021-03-20T15:38:14Z</time>
      </trkpt>
      <trkpt lat="56.7046" lon="-5.31447">
        <ele>23.45</ele>
        <time>2021-03-20T15:38:17Z</time>
      </trkpt>
      <trkpt lat="56.70429" lon="-5.31471">
        <ele>21.68</ele>
        <time>2021-03-20T15:38:21Z</time>
      </trkpt>
      <trkpt lat="56.70385" lon="-5.31523">
        <ele>16.34</ele>
        <time>2021-03-20T15:38:25Z</time>
      </trkpt>
      <trkpt lat="56.70343" lon="-5.3158">
        <ele>15.72</ele>
        <time>2021-03-20T15:38:28Z</time>
      </trkpt>
      <trkpt lat="56.70316" lon="-5.31635">
        <ele>18.77</ele>
        <time>2021-03-20T15:38:32Z</time>
      </trkpt>
      <trkpt lat="56.70198" lon="-5.31905">
        <ele>13.03</ele>
        <time>2021-03-20T15:38:36Z</time>
      </trkpt>
      <trkpt lat="56.70185" lon="-5.31931">
        <ele>13.25</ele>
        <time>2021-03-20T15:38:39Z</time>
      </trkpt>
      <trkpt lat="56.70166" lon="-5.31963">
        <ele>14.96</ele>
        <time>2021-03-20T15:38:43Z</time>
      </trkpt>
      <trkpt lat="56.70148" lon="-5.31988">
        <ele>16</ele>
        <time>2021-03-20T15:38:46Z</time>
      </trkpt>
      <trkpt lat="56.70126" lon="-5.32015">
        <ele>16.92</ele>
        <time>2021-03-20T15:38:50Z</time>
      </trkpt>
      <trkpt lat="56.70078" lon="-5.32051">
        <ele>18.34</ele>
        <time>2021-03-20T15:38:54Z</time>
      </trkpt>
      <trkpt lat="56.69886" lon="-5.32161">
        <ele>15.55</ele>
        <time>2021-03-20T15:38:57Z</time>
      </trkpt>
      <trkpt lat="56.69826" lon="-5.32196">
        <ele>15.37</ele>
        <time>2021-03-20T15:39:01Z</time>
      </trkpt>
      <trkpt lat="56.69807" lon="-5.32209">
        <ele>15.3</ele>
        <time>2021-03-20T15:39:05Z</time>
      </trkpt>
      <trkpt lat="56.69793" lon="-5.32223">
        <ele>15.26</ele>
        <time>2021-03-20T15:39:08Z</time>
      </trkpt>
      <trkpt lat="56.69778" lon="-5.32242">
        <ele>14.42</ele>
        <time>2021-03-20T15:39:12Z</time>
      </trkpt>
      <trkpt lat="56.69756" lon="-5.3228">
        <ele>14.82</ele>
        <time>2021-03-20T15:39:15Z</time>
      </trkpt>
      <trkpt lat="56.6974" lon="-5.32325">
        <ele>14.51</ele>
        <time>2021-03-20T15:39:19Z</time>
      </trkpt>
      <trkpt lat="56.69732" lon="-5.32356">
        <ele>14.23</ele>
        <time>2021-03-20T15:39:23Z</time>
      </trkpt>
      <trkpt lat="56.69726" lon="-5.32389">
        <ele>13.91</ele>
        <time>2021-03-20T15:39:26Z</time>
      </trkpt>
      <trkpt lat="56.69714" lon="-5.32467">
        <ele>14.16</ele>
        <time>2021-03-20T15:39:30Z</time>
      </trkpt>
      <trkpt lat="56.69669" lon="-5.32823">
        <ele>10.42</ele>
        <time>2021-03-20T15:39:34Z</time>
      </trkpt>
      <trkpt lat="56.69657" lon="-5.32902">
        <ele>13.65</ele>
        <time>2021-03-20T15:39:37Z</time>
      </trkpt>
      <trkpt lat="56.69648" lon="-5.32943">
        <ele>15.5</ele>
        <time>2021-03-20T15:39:41Z</time>
      </trkpt>
      <trkpt lat="56.69627" lon="-5.33008">
        <ele>16.34</ele>
        <time>2021-03-20T15:39:44Z</time>
      </trkpt>
      <trkpt lat="56.69401" lon="-5.3354">
        <ele>16.32</ele>
        <time>2021-03-20T15:39:48Z</time>
      </trkpt>
      <trkpt lat="56.6938" lon="-5.33582">
        <ele>16.65</ele>
        <time>2021-03-20T15:39:52Z</time>
      </trkpt>
      <trkpt lat="56.69346" lon="-5.33629">
        <ele>13.62</ele>
        <time>2021-03-20T15:39:55Z</time>
      </trkpt>
      <trkpt lat="56.69265" lon="-5.33715">
        <ele>6.38</ele>
        <time>2021-03-20T15:39:59Z</time>
      </trkpt>
      <trkpt lat="56.69228" lon="-5.33763">
        <ele>7.01</ele>
        <time>2021-03-20T15:40:03Z</time>
      </trkpt>
      <trkpt lat="56.68621" lon="-5.34901">
        <ele>16.59</ele>
        <time>2021-03-20T15:40:06Z</time>
      </trkpt>
      <trkpt lat="56.68601" lon="-5.34949">
        <ele>16.15</ele>
        <time>2021-03-20T15:40:10Z</time>
      </trkpt>
      <trkpt lat="56.68581" lon="-5.35004">
        <ele>18.25</ele>
        <time>2021-03-20T15:40:13Z</time>
      </trkpt>
      <trkpt lat="56.6857" lon="-5.35043">
        <ele>21.54</ele>
        <time>2021-03-20T15:40:17Z</time>
      </trkpt>
      <trkpt lat="56.68552" lon="-5.35113">
        <ele>24.45</ele>
        <time>2021-03-20T15:40:21Z</time>
      </trkpt>
      <trkpt lat="56.68467" lon="-5.35604">
        <ele>13</ele>
        <time>2021-03-20T15:40:24Z</time>
      </trkpt>
      <trkpt lat="56.68453" lon="-5.35663">
        <ele>11.84</ele>
        <time>2021-03-20T15:40:28Z</time>
      </trkpt>
      <trkpt lat="56.6844" lon="-5.35709">
        <ele>10.28</ele>
        <time>2021-03-20T15:40:32Z</time>
      </trkpt>
      <trkpt lat="56.68409" lon="-5.35787">
        <ele>7.99</ele>
        <time>2021-03-20T15:40:35Z</time>
      </trkpt>
      <trkpt lat="56.6811" lon="-5.36466">
        <ele>14.42</ele>
        <time>2021-03-20T15:40:39Z</time>
      </trkpt>
      <trkpt lat="56.68083" lon="-5.36538">
        <ele>14.33</ele>
        <time>2021-03-20T15:40:42Z</time>
      </trkpt>
      <trkpt lat="56.68075" lon="-5.36577">
        <ele>14.21</ele>
        <time>2021-03-20T15:40:46Z</time>
      </trkpt>
      <trkpt lat="56.68047" lon="-5.36741">
        <ele>14.7</ele>
        <time>2021-03-20T15:40:50Z</time>
      </trkpt>
      <trkpt lat="56.68018" lon="-5.36925">
        <ele>12.65</ele>
        <time>2021-03-20T15:40:53Z</time>
      </trkpt>
      <trkpt lat="56.68015" lon="-5.36956">
        <ele>12.55</ele>
        <time>2021-03-20T15:40:57Z</time>
      </trkpt>
      <trkpt lat="56.68013" lon="-5.37012">
        <ele>12.46</ele>
        <time>2021-03-20T15:41:01Z</time>
      </trkpt>
      <trkpt lat="56.68013" lon="-5.37062">
        <ele>12.08</ele>
        <time>2021-03-20T15:41:04Z</time>
      </trkpt>
      <trkpt lat="56.6802" lon="-5.37353">
        <ele>15.89</ele>
        <time>2021-03-20T15:41:08Z</time>
      </trkpt>
      <trkpt lat="56.68028" lon="-5.37441">
        <ele>16.11</ele>
        <time>2021-03-20T15:41:12Z</time>
      </trkpt>
      <trkpt lat="56.68019" lon="-5.37447">
        <ele>15.02</ele>
        <time>2021-03-20T15:41:13Z</time>
      </trkpt>
      <trkpt lat="56.6801" lon="-5.37465">
        <ele>13.8</ele>
        <time>2021-03-20T15:41:15Z</time>
      </trkpt>
      <trkpt lat="56.67991" lon="-5.37512">
        <ele>12.37</ele>
        <time>2021-03-20T15:41:17Z</time>
      </trkpt>
      <trkpt lat="56.67973" lon="-5.37546">
        <ele>12</ele>
        <time>2021-03-20T15:41:19Z</time>
      </trkpt>
      <trkpt lat="56.6794" lon="-5.37595">
        <ele>12.14</ele>
        <time>2021-03-20T15:41:21Z</time>
      </trkpt>
      <trkpt lat="56.67922" lon="-5.37613">
        <ele>12.81</ele>
        <time>2021-03-20T15:41:23Z</time>
      </trkpt>
      <trkpt lat="56.67878" lon="-5.37666">
        <ele>11.61</ele>
        <time>2021-03-20T15:41:25Z</time>
      </trkpt>
      <trkpt lat="56.67839" lon="-5.37698">
        <ele>11</ele>
        <time>2021-03-20T15:41:27Z</time>
      </trkpt>
      <trkpt lat="56.67798" lon="-5.37721">
        <ele>11.98</ele>
        <time>2021-03-20T15:41:29Z</time>
      </trkpt>
      <trkpt lat="56.67708" lon="-5.37742">
        <ele>16.62</ele>
        <time>2021-03-20T15:41:31Z</time>
      </trkpt>
      <trkpt lat="56.67693" lon="-5.3775">
        <ele>17.02</ele>
        <time>2021-03-20T15:41:33Z</time>
      </trkpt>
      <trkpt lat="56.67685" lon="-5.37762">
        <ele>17.86</ele>
        <time>2021-03-20T15:41:34Z</time>
      </trkpt>
      <trkpt lat="56.67674" lon="-5.37789">
        <ele>20.33</ele>
        <time>2021-03-20T15:41:36Z</time>
      </trkpt>
      <trkpt lat="56.6765" lon="-5.37882">
        <ele>27.74</ele>
        <time>2021-03-20T15:41:38Z</time>
      </trkpt>
      <trkpt lat="56.67635" lon="-5.37967">
        <ele>33.82</ele>
        <time>2021-03-20T15:41:40Z</time>
      </trkpt>
      <trkpt lat="56.67627" lon="-5.38001">
        <ele>35.49</ele>
        <time>2021-03-20T15:41:42Z</time>
      </trkpt>
      <trkpt lat="56.67605" lon="-5.38067">
        <ele>40.93</ele>
        <time>2021-03-20T15:41:44Z</time>
      </trkpt>
      <trkpt lat="56.67594" lon="-5.38088">
        <ele>42.85</ele>
        <time>2021-03-20T15:41:46Z</time>
      </trkpt>
      <trkpt lat="56.6757" lon="-5.38114">
        <ele>44.94</ele>
        <time>2021-03-20T15:41:48Z</time>
      </trkpt>
      <trkpt lat="56.67561" lon="-5.38135">
        <ele>47.64</ele>
        <time>2021-03-20T15:41:50Z</time>
      </trkpt>
      <trkpt lat="56.67546" lon="-5.38164">
        <ele>50.71</ele>
        <time>2021-03-20T15:41:52Z</time>
      </trkpt>
      <trkpt lat="56.6751" lon="-5.3822">
        <ele>57.79</ele>
        <time>2021-03-20T15:41:54Z</time>
      </trkpt>
      <trkpt lat="56.67442" lon="-5.38367">
        <ele>60.9</ele>
        <time>2021-03-20T15:41:56Z</time>
      </trkpt>
      <trkpt lat="56.67433" lon="-5.38447">
        <ele>57.95</ele>
        <time>2021-03-20T15:41:57Z</time>
      </trkpt>
      <trkpt lat="56.67432" lon="-5.38487">
        <ele>55.57</ele>
        <time>2021-03-20T15:41:59Z</time>
      </trkpt>
      <trkpt lat="56.67439" lon="-5.38574">
        <ele>53.04</ele>
        <time>2021-03-20T15:42:01Z</time>
      </trkpt>
      <trkpt lat="56.6744" lon="-5.38624">
        <ele>52.84</ele>
        <time>2021-03-20T15:42:03Z</time>
      </trkpt>
      <trkpt lat="56.67439" lon="-5.38679">
        <ele>53.16</ele>
        <time>2021-03-20T15:42:05Z</time>
      </trkpt>
      <trkpt lat="56.67436" lon="-5.38732">
        <ele>53.74</ele>
        <time>2021-03-20T15:42:07Z</time>
      </trkpt>
      <trkpt lat="56.67431" lon="-5.3876">
        <ele>54.03</ele>
        <time>2021-03-20T15:42:09Z</time>
      </trkpt>
      <trkpt lat="56.674" lon="-5.38843">
        <ele>54.6</ele>
        <time>2021-03-20T15:42:11Z</time>
      </trkpt>
      <trkpt lat="56.67382" lon="-5.38882">
        <ele>55.21</ele>
        <time>2021-03-20T15:42:13Z</time>
      </trkpt>
      <trkpt lat="56.67366" lon="-5.38905">
        <ele>56.15</ele>
        <time>2021-03-20T15:42:15Z</time>
      </trkpt>
      <trkpt lat="56.67345" lon="-5.38923">
        <ele>56.81</ele>
        <time>2021-03-20T15:42:17Z</time>
      </trkpt>
      <trkpt lat="56.67294" lon="-5.39003">
        <ele>57.01</ele>
        <time>2021-03-20T15:42:19Z</time>
      </trkpt>
      <trkpt lat="56.67249" lon="-5.39086">
        <ele>58.14</ele>
        <time>2021-03-20T15:42:20Z</time>
      </trkpt>
      <trkpt lat="56.67192" lon="-5.39172">
        <ele>56.24</ele>
        <time>2021-03-20T15:42:22Z</time>
      </trkpt>
      <trkpt lat="56.67119" lon="-5.3925">
        <ele>58.26</ele>
        <time>2021-03-20T15:42:24Z</time>
      </trkpt>
      <trkpt lat="56.67012" lon="-5.39381">
        <ele>61.26</ele>
        <time>2021-03-20T15:42:26Z</time>
      </trkpt>
      <trkpt lat="56.66964" lon="-5.39446">
        <ele>63.56</ele>
        <time>2021-03-20T15:42:28Z</time>
      </trkpt>
      <trkpt lat="56.66892" lon="-5.39566">
        <ele>65.88</ele>
        <time>2021-03-20T15:42:30Z</time>
      </trkpt>
      <trkpt lat="56.66871" lon="-5.39617">
        <ele>65.11</ele>
        <time>2021-03-20T15:42:32Z</time>
      </trkpt>
      <trkpt lat="56.66846" lon="-5.39725">
        <ele>60.35</ele>
        <time>2021-03-20T15:42:34Z</time>
      </trkpt>
      <trkpt lat="56.66819" lon="-5.3986">
        <ele>56.93</ele>
        <time>2021-03-20T15:42:36Z</time>
      </trkpt>
      <trkpt lat="56.66805" lon="-5.39908">
        <ele>56.59</ele>
        <time>2021-03-20T15:42:38Z</time>
      </trkpt>
      <trkpt lat="56.66794" lon="-5.39934">
        <ele>56.13</ele>
        <time>2021-03-20T15:42:40Z</time>
      </trkpt>
      <trkpt lat="56.66698" lon="-5.40105">
        <ele>53.24</ele>
        <time>2021-03-20T15:42:41Z</time>
      </trkpt>
      <trkpt lat="56.66686" lon="-5.40136">
        <ele>53.91</ele>
        <time>2021-03-20T15:42:43Z</time>
      </trkpt>
      <trkpt lat="56.66664" lon="-5.40223">
        <ele>54.82</ele>
        <time>2021-03-20T15:42:45Z</time>
      </trkpt>
      <trkpt lat="56.66657" lon="-5.40238">
        <ele>55.42</ele>
        <time>2021-03-20T15:42:47Z</time>
      </trkpt>
      <trkpt lat="56.66644" lon="-5.40253">
        <ele>55.56</ele>
        <time>2021-03-20T15:42:49Z</time>
      </trkpt>
      <trkpt lat="56.66618" lon="-5.40272">
        <ele>55.21</ele>
        <time>2021-03-20T15:42:51Z</time>
      </trkpt>
      <trkpt lat="56.66601" lon="-5.4028">
        <ele>54.8</ele>
        <time>2021-03-20T15:42:53Z</time>
      </trkpt>
      <trkpt lat="56.66572" lon="-5.40286">
        <ele>54.19</ele>
        <time>2021-03-20T15:42:55Z</time>
      </trkpt>
      <trkpt lat="56.66554" lon="-5.40294">
        <ele>54.2</ele>
        <time>2021-03-20T15:42:57Z</time>
      </trkpt>
      <trkpt lat="56.66541" lon="-5.40308">
        <ele>55.09</ele>
        <time>2021-03-20T15:42:59Z</time>
      </trkpt>
      <trkpt lat="56.66504" lon="-5.40359">
        <ele>58.86</ele>
        <time>2021-03-20T15:43:01Z</time>
      </trkpt>
      <trkpt lat="56.66487" lon="-5.40374">
        <ele>59.94</ele>
        <time>2021-03-20T15:43:03Z</time>
      </trkpt>
      <trkpt lat="56.66469" lon="-5.40387">
        <ele>60.82</ele>
        <time>2021-03-20T15:43:04Z</time>
      </trkpt>
      <trkpt lat="56.6641" lon="-5.40406">
        <ele>62.47</ele>
        <time>2021-03-20T15:43:06Z</time>
      </trkpt>
      <trkpt lat="56.66395" lon="-5.40414">
        <ele>63.58</ele>
        <time>2021-03-20T15:43:08Z</time>
      </trkpt>
      <trkpt lat="56.66377" lon="-5.4043">
        <ele>65.17</ele>
        <time>2021-03-20T15:43:10Z</time>
      </trkpt>
      <trkpt lat="56.66326" lon="-5.40486">
        <ele>69.36</ele>
        <time>2021-03-20T15:43:12Z</time>
      </trkpt>
      <trkpt lat="56.66292" lon="-5.40516">
        <ele>69.86</ele>
        <time>2021-03-20T15:43:14Z</time>
      </trkpt>
      <trkpt lat="56.66116" lon="-5.40639">
        <ele>58.53</ele>
        <time>2021-03-20T15:43:16Z</time>
      </trkpt>
      <trkpt lat="56.66075" lon="-5.4066">
        <ele>55.61</ele>
        <time>2021-03-20T15:43:18Z</time>
      </trkpt>
      <trkpt lat="56.6603" lon="-5.40669">
        <ele>51.54</ele>
        <time>2021-03-20T15:43:20Z</time>
      </trkpt>
      <trkpt lat="56.66022" lon="-5.40678">
        <ele>52.22</ele>
        <time>2021-03-20T15:43:22Z</time>
      </trkpt>
      <trkpt lat="56.66009" lon="-5.4071">
        <ele>54.75</ele>
        <time>2021-03-20T15:43:24Z</time>
      </trkpt>
      <trkpt lat="56.6595" lon="-5.40775">
        <ele>53.63</ele>
        <time>2021-03-20T15:43:25Z</time>
      </trkpt>
      <trkpt lat="56.6592" lon="-5.40802">
        <ele>49.6</ele>
        <time>2021-03-20T15:43:27Z</time>
      </trkpt>
      <trkpt lat="56.65905" lon="-5.40823">
        <ele>47.66</ele>
        <time>2021-03-20T15:43:29Z</time>
      </trkpt>
      <trkpt lat="56.6588" lon="-5.40865">
        <ele>45.53</ele>
        <time>2021-03-20T15:43:31Z</time>
      </trkpt>
      <trkpt lat="56.65853" lon="-5.40901">
        <ele>41.31</ele>
        <time>2021-03-20T15:43:33Z</time>
      </trkpt>
      <trkpt lat="56.65835" lon="-5.40921">
        <ele>38.73</ele>
        <time>2021-03-20T15:43:35Z</time>
      </trkpt>
      <trkpt lat="56.65795" lon="-5.40942">
        <ele>31.28</ele>
        <time>2021-03-20T15:43:37Z</time>
      </trkpt>
      <trkpt lat="56.65788" lon="-5.40949">
        <ele>30.77</ele>
        <time>2021-03-20T15:43:39Z</time>
      </trkpt>
      <trkpt lat="56.65752" lon="-5.41011">
        <ele>31.01</ele>
        <time>2021-03-20T15:43:41Z</time>
      </trkpt>
      <trkpt lat="56.65729" lon="-5.41037">
        <ele>29.27</ele>
        <time>2021-03-20T15:43:43Z</time>
      </trkpt>
      <trkpt lat="56.65702" lon="-5.41087">
        <ele>28</ele>
        <time>2021-03-20T15:43:45Z</time>
      </trkpt>
      <trkpt lat="56.65693" lon="-5.41093">
        <ele>27.53</ele>
        <time>2021-03-20T15:43:47Z</time>
      </trkpt>
      <trkpt lat="56.65676" lon="-5.41098">
        <ele>26.02</ele>
        <time>2021-03-20T15:43:48Z</time>
      </trkpt>
      <trkpt lat="56.6565" lon="-5.41101">
        <ele>23.69</ele>
        <time>2021-03-20T15:43:50Z</time>
      </trkpt>
      <trkpt lat="56.65632" lon="-5.41118">
        <ele>22.95</ele>
        <time>2021-03-20T15:43:52Z</time>
      </trkpt>
      <trkpt lat="56.65613" lon="-5.41141">
        <ele>23.47</ele>
        <time>2021-03-20T15:43:54Z</time>
      </trkpt>
      <trkpt lat="56.65602" lon="-5.41163">
        <ele>23.98</ele>
        <time>2021-03-20T15:43:56Z</time>
      </trkpt>
      <trkpt lat="56.65587" lon="-5.41197">
        <ele>23.82</ele>
        <time>2021-03-20T15:43:58Z</time>
      </trkpt>
      <trkpt lat="56.65573" lon="-5.41221">
        <ele>22.47</ele>
        <time>2021-03-20T15:44:00Z</time>
      </trkpt>
      <trkpt lat="56.65561" lon="-5.41241">
        <ele>22.03</ele>
        <time>2021-03-20T15:44:02Z</time>
      </trkpt>
      <trkpt lat="56.6553" lon="-5.41278">
        <ele>20.27</ele>
        <time>2021-03-20T15:44:04Z</time>
      </trkpt>
      <trkpt lat="56.65521" lon="-5.41299">
        <ele>20.6</ele>
        <time>2021-03-20T15:44:06Z</time>
      </trkpt>
      <trkpt lat="56.655" lon="-5.41377">
        <ele>19.55</ele>
        <time>2021-03-20T15:44:08Z</time>
      </trkpt>
      <trkpt lat="56.65479" lon="-5.41436">
        <ele>20.14</ele>
        <time>2021-03-20T15:44:10Z</time>
      </trkpt>
      <trkpt lat="56.65437" lon="-5.41492">
        <ele>18.47</ele>
        <time>2021-03-20T15:44:11Z</time>
      </trkpt>
      <trkpt lat="56.65412" lon="-5.4152">
        <ele>17.8</ele>
        <time>2021-03-20T15:44:13Z</time>
      </trkpt>
      <trkpt lat="56.65389" lon="-5.41535">
        <ele>19.52</ele>
        <time>2021-03-20T15:44:15Z</time>
      </trkpt>
      <trkpt lat="56.65371" lon="-5.4154">
        <ele>22.76</ele>
        <time>2021-03-20T15:44:17Z</time>
      </trkpt>
      <trkpt lat="56.65357" lon="-5.41536">
        <ele>24.44</ele>
        <time>2021-03-20T15:44:19Z</time>
      </trkpt>
      <trkpt lat="56.65348" lon="-5.41524">
        <ele>25.14</ele>
        <time>2021-03-20T15:44:21Z</time>
      </trkpt>
      <trkpt lat="56.6534" lon="-5.41508">
        <ele>25.15</ele>
        <time>2021-03-20T15:44:23Z</time>
      </trkpt>
      <trkpt lat="56.6532" lon="-5.41426">
        <ele>20.87</ele>
        <time>2021-03-20T15:44:25Z</time>
      </trkpt>
      <trkpt lat="56.65314" lon="-5.41413">
        <ele>20.33</ele>
        <time>2021-03-20T15:44:27Z</time>
      </trkpt>
      <trkpt lat="56.65263" lon="-5.41379">
        <ele>26.32</ele>
        <time>2021-03-20T15:44:29Z</time>
      </trkpt>
      <trkpt lat="56.65236" lon="-5.41371">
        <ele>28.94</ele>
        <time>2021-03-20T15:44:31Z</time>
      </trkpt>
      <trkpt lat="56.65214" lon="-5.41355">
        <ele>27.83</ele>
        <time>2021-03-20T15:44:32Z</time>
      </trkpt>
      <trkpt lat="56.6519" lon="-5.41322">
        <ele>22.18</ele>
        <time>2021-03-20T15:44:34Z</time>
      </trkpt>
      <trkpt lat="56.65182" lon="-5.41321">
        <ele>21.78</ele>
        <time>2021-03-20T15:44:36Z</time>
      </trkpt>
      <trkpt lat="56.6517" lon="-5.41325">
        <ele>21.57</ele>
        <time>2021-03-20T15:44:38Z</time>
      </trkpt>
      <trkpt lat="56.65157" lon="-5.41335">
        <ele>21.56</ele>
        <time>2021-03-20T15:44:40Z</time>
      </trkpt>
      <trkpt lat="56.65129" lon="-5.41363">
        <ele>22.82</ele>
        <time>2021-03-20T15:44:42Z</time>
      </trkpt>
      <trkpt lat="56.65073" lon="-5.41429">
        <ele>20.81</ele>
        <time>2021-03-20T15:44:44Z</time>
      </trkpt>
      <trkpt lat="56.6505" lon="-5.41465">
        <ele>22.18</ele>
        <time>2021-03-20T15:44:46Z</time>
      </trkpt>
      <trkpt lat="56.65008" lon="-5.41564">
        <ele>23.72</ele>
        <time>2021-03-20T15:44:48Z</time>
      </trkpt>
      <trkpt lat="56.64955" lon="-5.4163">
        <ele>21.27</ele>
        <time>2021-03-20T15:44:50Z</time>
      </trkpt>
      <trkpt lat="56.64944" lon="-5.41647">
        <ele>20.28</ele>
        <time>2021-03-20T15:44:52Z</time>
      </trkpt>
      <trkpt lat="56.64927" lon="-5.41691">
        <ele>18.1</ele>
        <time>2021-03-20T15:44:54Z</time>
      </trkpt>
      <trkpt lat="56.6492" lon="-5.41717">
        <ele>17.45</ele>
        <time>2021-03-20T15:44:55Z</time>
      </trkpt>
      <trkpt lat="56.64891" lon="-5.41776">
        <ele>17.35</ele>
        <time>2021-03-20T15:44:57Z</time>
      </trkpt>
      <trkpt lat="56.6486" lon="-5.41828">
        <ele>18.32</ele>
        <time>2021-03-20T15:44:59Z</time>
      </trkpt>
      <trkpt lat="56.64837" lon="-5.41846">
        <ele>16.44</ele>
        <time>2021-03-20T15:45:01Z</time>
      </trkpt>
      <trkpt lat="56.64829" lon="-5.41883">
        <ele>20</ele>
        <time>2021-03-20T15:45:03Z</time>
      </trkpt>
      <trkpt lat="56.64813" lon="-5.41913">
        <ele>20.27</ele>
        <time>2021-03-20T15:45:05Z</time>
      </trkpt>
      <trkpt lat="56.64779" lon="-5.41991">
        <ele>23.96</ele>
        <time>2021-03-20T15:45:07Z</time>
      </trkpt>
      <trkpt lat="56.64702" lon="-5.42136">
        <ele>19.11</ele>
        <time>2021-03-20T15:45:09Z</time>
      </trkpt>
      <trkpt lat="56.64683" lon="-5.42186">
        <ele>16.42</ele>
        <time>2021-03-20T15:45:11Z</time>
      </trkpt>
      <trkpt lat="56.64661" lon="-5.42392">
        <ele>21.42</ele>
        <time>2021-03-20T15:45:13Z</time>
      </trkpt>
      <trkpt lat="56.64652" lon="-5.42462">
        <ele>22.62</ele>
        <time>2021-03-20T15:45:15Z</time>
      </trkpt>
      <trkpt lat="56.64646" lon="-5.42528">
        <ele>21.89</ele>
        <time>2021-03-20T15:45:17Z</time>
      </trkpt>
      <trkpt lat="56.64628" lon="-5.42628">
        <ele>21.25</ele>
        <time>2021-03-20T15:45:18Z</time>
      </trkpt>
      <trkpt lat="56.64622" lon="-5.42672">
        <ele>22.5</ele>
        <time>2021-03-20T15:45:20Z</time>
      </trkpt>
      <trkpt lat="56.64619" lon="-5.42723">
        <ele>23.62</ele>
        <time>2021-03-20T15:45:22Z</time>
      </trkpt>
      <trkpt lat="56.64626" lon="-5.4297">
        <ele>19.07</ele>
        <time>2021-03-20T15:45:24Z</time>
      </trkpt>
      <trkpt lat="56.64626" lon="-5.42989">
        <ele>18.38</ele>
        <time>2021-03-20T15:45:26Z</time>
      </trkpt>
      <trkpt lat="56.64623" lon="-5.43011">
        <ele>17.94</ele>
        <time>2021-03-20T15:45:28Z</time>
      </trkpt>
      <trkpt lat="56.6462" lon="-5.43025">
        <ele>17.69</ele>
        <time>2021-03-20T15:45:30Z</time>
      </trkpt>
      <trkpt lat="56.64613" lon="-5.43046">
        <ele>17.12</ele>
        <time>2021-03-20T15:45:32Z</time>
      </trkpt>
      <trkpt lat="56.64575" lon="-5.43139">
        <ele>16.99</ele>
        <time>2021-03-20T15:45:34Z</time>
      </trkpt>
      <trkpt lat="56.64553" lon="-5.43203">
        <ele>17</ele>
        <time>2021-03-20T15:45:36Z</time>
      </trkpt>
      <trkpt lat="56.64529" lon="-5.43258">
        <ele>17.07</ele>
        <time>2021-03-20T15:45:38Z</time>
      </trkpt>
      <trkpt lat="56.64517" lon="-5.43277">
        <ele>16.6</ele>
        <time>2021-03-20T15:45:39Z</time>
      </trkpt>
      <trkpt lat="56.64501" lon="-5.43293">
        <ele>16.6</ele>
        <time>2021-03-20T15:45:41Z</time>
      </trkpt>
      <trkpt lat="56.64379" lon="-5.43405">
        <ele>19.4</ele>
        <time>2021-03-20T15:45:43Z</time>
      </trkpt>
      <trkpt lat="56.64209" lon="-5.43553">
        <ele>7.98</ele>
        <time>2021-03-20T15:45:45Z</time>
      </trkpt>
      <trkpt lat="56.64118" lon="-5.43621">
        <ele>5.09</ele>
        <time>2021-03-20T15:45:47Z</time>
      </trkpt>
      <trkpt lat="56.63938" lon="-5.43794">
        <ele>5.09</ele>
        <time>2021-03-20T15:45:49Z</time>
      </trkpt>
      <trkpt lat="56.6391" lon="-5.43827">
        <ele>5.12</ele>
        <time>2021-03-20T15:45:51Z</time>
      </trkpt>
      <trkpt lat="56.63888" lon="-5.43876">
        <ele>7.99</ele>
        <time>2021-03-20T15:45:53Z</time>
      </trkpt>
      <trkpt lat="56.63819" lon="-5.43998">
        <ele>6.43</ele>
        <time>2021-03-20T15:45:55Z</time>
      </trkpt>
      <trkpt lat="56.63795" lon="-5.44053">
        <ele>6.7</ele>
        <time>2021-03-20T15:45:57Z</time>
      </trkpt>
      <trkpt lat="56.63772" lon="-5.44119">
        <ele>6.97</ele>
        <time>2021-03-20T15:45:59Z</time>
      </trkpt>
      <trkpt lat="56.6375" lon="-5.44171">
        <ele>7.3</ele>
        <time>2021-03-20T15:46:01Z</time>
      </trkpt>
      <trkpt lat="56.63708" lon="-5.44235">
        <ele>8.34</ele>
        <time>2021-03-20T15:46:02Z</time>
      </trkpt>
      <trkpt lat="56.63673" lon="-5.44263">
        <ele>7.17</ele>
        <time>2021-03-20T15:46:04Z</time>
      </trkpt>
      <trkpt lat="56.63598" lon="-5.44309">
        <ele>7.84</ele>
        <time>2021-03-20T15:46:06Z</time>
      </trkpt>
      <trkpt lat="56.63548" lon="-5.44345">
        <ele>6.49</ele>
        <time>2021-03-20T15:46:08Z</time>
      </trkpt>
      <trkpt lat="56.6349" lon="-5.44401">
        <ele>6.35</ele>
        <time>2021-03-20T15:46:10Z</time>
      </trkpt>
      <trkpt lat="56.63454" lon="-5.44431">
        <ele>5.02</ele>
        <time>2021-03-20T15:46:12Z</time>
      </trkpt>
      <trkpt lat="56.63427" lon="-5.44439">
        <ele>4.15</ele>
        <time>2021-03-20T15:46:14Z</time>
      </trkpt>
      <trkpt lat="56.63397" lon="-5.44436">
        <ele>3.97</ele>
        <time>2021-03-20T15:46:16Z</time>
      </trkpt>
      <trkpt lat="56.63397" lon="-5.44436">
        <ele>3.97</ele>
        <time>2021-03-20T15:46:16Z</time>
      </trkpt>
      <trkpt lat="56.63385" lon="-5.44435">
        <ele>3.8</ele>
        <time>2021-03-20T15:46:19Z</time>
      </trkpt>
      <trkpt lat="56.63366" lon="-5.44443">
        <ele>4.8</ele>
        <time>2021-03-20T15:46:21Z</time>
      </trkpt>
      <trkpt lat="56.63331" lon="-5.44484">
        <ele>5.86</ele>
        <time>2021-03-20T15:46:24Z</time>
      </trkpt>
      <trkpt lat="56.63302" lon="-5.44528">
        <ele>4.75</ele>
        <time>2021-03-20T15:46:26Z</time>
      </trkpt>
      <trkpt lat="56.63242" lon="-5.4466">
        <ele>5.14</ele>
        <time>2021-03-20T15:46:29Z</time>
      </trkpt>
      <trkpt lat="56.63176" lon="-5.44829">
        <ele>11.12</ele>
        <time>2021-03-20T15:46:31Z</time>
      </trkpt>
      <trkpt lat="56.63154" lon="-5.44866">
        <ele>14.87</ele>
        <time>2021-03-20T15:46:34Z</time>
      </trkpt>
      <trkpt lat="56.63123" lon="-5.4489">
        <ele>11.77</ele>
        <time>2021-03-20T15:46:37Z</time>
      </trkpt>
      <trkpt lat="56.63083" lon="-5.44928">
        <ele>13.67</ele>
        <time>2021-03-20T15:46:39Z</time>
      </trkpt>
      <trkpt lat="56.63004" lon="-5.45012">
        <ele>16.5</ele>
        <time>2021-03-20T15:46:42Z</time>
      </trkpt>
      <trkpt lat="56.62959" lon="-5.45066">
        <ele>17.85</ele>
        <time>2021-03-20T15:46:44Z</time>
      </trkpt>
      <trkpt lat="56.62911" lon="-5.45085">
        <ele>13.26</ele>
        <time>2021-03-20T15:46:47Z</time>
      </trkpt>
      <trkpt lat="56.62849" lon="-5.45224">
        <ele>26.78</ele>
        <time>2021-03-20T15:46:49Z</time>
      </trkpt>
      <trkpt lat="56.62823" lon="-5.45247">
        <ele>24.65</ele>
        <time>2021-03-20T15:46:52Z</time>
      </trkpt>
      <trkpt lat="56.6276" lon="-5.45257">
        <ele>10.7</ele>
        <time>2021-03-20T15:46:55Z</time>
      </trkpt>
      <trkpt lat="56.62716" lon="-5.45288">
        <ele>7.92</ele>
        <time>2021-03-20T15:46:57Z</time>
      </trkpt>
      <trkpt lat="56.62665" lon="-5.45315">
        <ele>6.23</ele>
        <time>2021-03-20T15:47:00Z</time>
      </trkpt>
      <trkpt lat="56.62626" lon="-5.45364">
        <ele>6.18</ele>
        <time>2021-03-20T15:47:02Z</time>
      </trkpt>
      <trkpt lat="56.62582" lon="-5.45459">
        <ele>7.45</ele>
        <time>2021-03-20T15:47:05Z</time>
      </trkpt>
      <trkpt lat="56.62537" lon="-5.45511">
        <ele>6.19</ele>
        <time>2021-03-20T15:47:07Z</time>
      </trkpt>
      <trkpt lat="56.62496" lon="-5.45573">
        <ele>6.13</ele>
        <time>2021-03-20T15:47:10Z</time>
      </trkpt>
      <trkpt lat="56.62468" lon="-5.45683">
        <ele>13.71</ele>
        <time>2021-03-20T15:47:13Z</time>
      </trkpt>
      <trkpt lat="56.62419" lon="-5.45787">
        <ele>24.36</ele>
        <time>2021-03-20T15:47:15Z</time>
      </trkpt>
      <trkpt lat="56.62381" lon="-5.45824">
        <ele>19.34</ele>
        <time>2021-03-20T15:47:18Z</time>
      </trkpt>
      <trkpt lat="56.6234" lon="-5.45892">
        <ele>21.65</ele>
        <time>2021-03-20T15:47:20Z</time>
      </trkpt>
      <trkpt lat="56.62261" lon="-5.45965">
        <ele>13.86</ele>
        <time>2021-03-20T15:47:23Z</time>
      </trkpt>
      <trkpt lat="56.6222" lon="-5.46023">
        <ele>11.14</ele>
        <time>2021-03-20T15:47:25Z</time>
      </trkpt>
      <trkpt lat="56.62185" lon="-5.46106">
        <ele>26.97</ele>
        <time>2021-03-20T15:47:28Z</time>
      </trkpt>
      <trkpt lat="56.62142" lon="-5.46198">
        <ele>33.23</ele>
        <time>2021-03-20T15:47:30Z</time>
      </trkpt>
      <trkpt lat="56.62084" lon="-5.4631">
        <ele>27.83</ele>
        <time>2021-03-20T15:47:33Z</time>
      </trkpt>
      <trkpt lat="56.62047" lon="-5.46349">
        <ele>23.11</ele>
        <time>2021-03-20T15:47:36Z</time>
      </trkpt>
      <trkpt lat="56.62019" lon="-5.46392">
        <ele>18.16</ele>
        <time>2021-03-20T15:47:38Z</time>
      </trkpt>
      <trkpt lat="56.61985" lon="-5.46482">
        <ele>20.69</ele>
        <time>2021-03-20T15:47:41Z</time>
      </trkpt>
      <trkpt lat="56.61869" lon="-5.4665">
        <ele>10.85</ele>
        <time>2021-03-20T15:47:43Z</time>
      </trkpt>
      <trkpt lat="56.61738" lon="-5.46829">
        <ele>13.45</ele>
        <time>2021-03-20T15:47:46Z</time>
      </trkpt>
      <trkpt lat="56.61592" lon="-5.4699">
        <ele>8.91</ele>
        <time>2021-03-20T15:47:48Z</time>
      </trkpt>
      <trkpt lat="56.6157" lon="-5.47043">
        <ele>8.91</ele>
        <time>2021-03-20T15:47:51Z</time>
      </trkpt>
      <trkpt lat="56.61513" lon="-5.47258">
        <ele>14.18</ele>
        <time>2021-03-20T15:47:54Z</time>
      </trkpt>
      <trkpt lat="56.61505" lon="-5.47317">
        <ele>11.61</ele>
        <time>2021-03-20T15:47:56Z</time>
      </trkpt>
      <trkpt lat="56.61508" lon="-5.47373">
        <ele>9.95</ele>
        <time>2021-03-20T15:47:59Z</time>
      </trkpt>
      <trkpt lat="56.61527" lon="-5.47444">
        <ele>7.87</ele>
        <time>2021-03-20T15:48:01Z</time>
      </trkpt>
      <trkpt lat="56.6153" lon="-5.47513">
        <ele>5.02</ele>
        <time>2021-03-20T15:48:04Z</time>
      </trkpt>
      <trkpt lat="56.61539" lon="-5.47557">
        <ele>6</ele>
        <time>2021-03-20T15:48:06Z</time>
      </trkpt>
      <trkpt lat="56.61571" lon="-5.47634">
        <ele>7.34</ele>
        <time>2021-03-20T15:48:09Z</time>
      </trkpt>
      <trkpt lat="56.61592" lon="-5.47669">
        <ele>9.93</ele>
        <time>2021-03-20T15:48:12Z</time>
      </trkpt>
      <trkpt lat="56.61611" lon="-5.47708">
        <ele>11.97</ele>
        <time>2021-03-20T15:48:14Z</time>
      </trkpt>
      <trkpt lat="56.61641" lon="-5.4784">
        <ele>9.63</ele>
        <time>2021-03-20T15:48:17Z</time>
      </trkpt>
      <trkpt lat="56.61658" lon="-5.47869">
        <ele>8.21</ele>
        <time>2021-03-20T15:48:19Z</time>
      </trkpt>
      <trkpt lat="56.61685" lon="-5.47887">
        <ele>7.15</ele>
        <time>2021-03-20T15:48:22Z</time>
      </trkpt>
      <trkpt lat="56.61818" lon="-5.47906">
        <ele>6.38</ele>
        <time>2021-03-20T15:48:24Z</time>
      </trkpt>
      <trkpt lat="56.61849" lon="-5.47897">
        <ele>6.7</ele>
        <time>2021-03-20T15:48:27Z</time>
      </trkpt>
      <trkpt lat="56.61913" lon="-5.47837">
        <ele>7.01</ele>
        <time>2021-03-20T15:48:30Z</time>
      </trkpt>
      <trkpt lat="56.62063" lon="-5.47762">
        <ele>11.99</ele>
        <time>2021-03-20T15:48:32Z</time>
      </trkpt>
      <trkpt lat="56.62075" lon="-5.47761">
        <ele>11.77</ele>
        <time>2021-03-20T15:48:35Z</time>
      </trkpt>
      <trkpt lat="56.62079" lon="-5.47763">
        <ele>11.6</ele>
        <time>2021-03-20T15:48:37Z</time>
      </trkpt>
      <trkpt lat="56.62082" lon="-5.47769">
        <ele>11.34</ele>
        <time>2021-03-20T15:48:40Z</time>
      </trkpt>
      <trkpt lat="56.62083" lon="-5.47777">
        <ele>11.02</ele>
        <time>2021-03-20T15:48:42Z</time>
      </trkpt>
      <trkpt lat="56.62088" lon="-5.47986">
        <ele>9</ele>
        <time>2021-03-20T15:48:45Z</time>
      </trkpt>
      <trkpt lat="56.62094" lon="-5.48154">
        <ele>12.33</ele>
        <time>2021-03-20T15:48:48Z</time>
      </trkpt>
      <trkpt lat="56.62092" lon="-5.48167">
        <ele>12.32</ele>
        <time>2021-03-20T15:48:50Z</time>
      </trkpt>
      <trkpt lat="56.62087" lon="-5.48178">
        <ele>12.72</ele>
        <time>2021-03-20T15:48:53Z</time>
      </trkpt>
      <trkpt lat="56.62043" lon="-5.48222">
        <ele>11.11</ele>
        <time>2021-03-20T15:48:55Z</time>
      </trkpt>
      <trkpt lat="56.62024" lon="-5.48234">
        <ele>9.94</ele>
        <time>2021-03-20T15:48:58Z</time>
      </trkpt>
      <trkpt lat="56.62014" lon="-5.48244">
        <ele>10.3</ele>
        <time>2021-03-20T15:49:00Z</time>
      </trkpt>
      <trkpt lat="56.61978" lon="-5.48302">
        <ele>12.3</ele>
        <time>2021-03-20T15:49:03Z</time>
      </trkpt>
      <trkpt lat="56.6191" lon="-5.48379">
        <ele>19.6</ele>
        <time>2021-03-20T15:49:06Z</time>
      </trkpt>
      <trkpt lat="56.61791" lon="-5.48447">
        <ele>19.16</ele>
        <time>2021-03-20T15:49:08Z</time>
      </trkpt>
      <trkpt lat="56.61718" lon="-5.48504">
        <ele>26</ele>
        <time>2021-03-20T15:49:11Z</time>
      </trkpt>
      <trkpt lat="56.61697" lon="-5.48532">
        <ele>27.6</ele>
        <time>2021-03-20T15:49:13Z</time>
      </trkpt>
      <trkpt lat="56.61683" lon="-5.48574">
        <ele>31.14</ele>
        <time>2021-03-20T15:49:16Z</time>
      </trkpt>
      <trkpt lat="56.61663" lon="-5.48607">
        <ele>27.4</ele>
        <time>2021-03-20T15:49:18Z</time>
      </trkpt>
      <trkpt lat="56.61654" lon="-5.4863">
        <ele>26.88</ele>
        <time>2021-03-20T15:49:21Z</time>
      </trkpt>
      <trkpt lat="56.61651" lon="-5.48683">
        <ele>34.34</ele>
        <time>2021-03-20T15:49:24Z</time>
      </trkpt>
      <trkpt lat="56.61648" lon="-5.48701">
        <ele>36.2</ele>
        <time>2021-03-20T15:49:26Z</time>
      </trkpt>
      <trkpt lat="56.61631" lon="-5.48737">
        <ele>35.01</ele>
        <time>2021-03-20T15:49:29Z</time>
      </trkpt>
      <trkpt lat="56.61619" lon="-5.4877">
        <ele>34.51</ele>
        <time>2021-03-20T15:49:31Z</time>
      </trkpt>
      <trkpt lat="56.6159" lon="-5.48871">
        <ele>40.89</ele>
        <time>2021-03-20T15:49:34Z</time>
      </trkpt>
      <trkpt lat="56.61577" lon="-5.48893">
        <ele>41.05</ele>
        <time>2021-03-20T15:49:36Z</time>
      </trkpt>
      <trkpt lat="56.61537" lon="-5.48911">
        <ele>33.89</ele>
        <time>2021-03-20T15:49:39Z</time>
      </trkpt>
      <trkpt lat="56.61511" lon="-5.48936">
        <ele>33.56</ele>
        <time>2021-03-20T15:49:42Z</time>
      </trkpt>
      <trkpt lat="56.61498" lon="-5.48954">
        <ele>33.73</ele>
        <time>2021-03-20T15:49:44Z</time>
      </trkpt>
      <trkpt lat="56.61485" lon="-5.48986">
        <ele>37.08</ele>
        <time>2021-03-20T15:49:47Z</time>
      </trkpt>
      <trkpt lat="56.6148" lon="-5.49018">
        <ele>39.85</ele>
        <time>2021-03-20T15:49:49Z</time>
      </trkpt>
      <trkpt lat="56.61475" lon="-5.49113">
        <ele>42.88</ele>
        <time>2021-03-20T15:49:52Z</time>
      </trkpt>
      <trkpt lat="56.61504" lon="-5.49246">
        <ele>43.21</ele>
        <time>2021-03-20T15:49:54Z</time>
      </trkpt>
      <trkpt lat="56.61532" lon="-5.49329">
        <ele>43.42</ele>
        <time>2021-03-20T15:49:57Z</time>
      </trkpt>
      <trkpt lat="56.61538" lon="-5.49409">
        <ele>38.73</ele>
        <time>2021-03-20T15:49:59Z</time>
      </trkpt>
      <trkpt lat="56.61576" lon="-5.49562">
        <ele>35.7</ele>
        <time>2021-03-20T15:50:02Z</time>
      </trkpt>
      <trkpt lat="56.6162" lon="-5.49665">
        <ele>38.73</ele>
        <time>2021-03-20T15:50:05Z</time>
      </trkpt>
      <trkpt lat="56.61676" lon="-5.49828">
        <ele>39.36</ele>
        <time>2021-03-20T15:50:07Z</time>
      </trkpt>
      <trkpt lat="56.61722" lon="-5.49997">
        <ele>39.25</ele>
        <time>2021-03-20T15:50:10Z</time>
      </trkpt>
      <trkpt lat="56.61723" lon="-5.50066">
        <ele>37.09</ele>
        <time>2021-03-20T15:50:12Z</time>
      </trkpt>
      <trkpt lat="56.61737" lon="-5.50147">
        <ele>37.81</ele>
        <time>2021-03-20T15:50:15Z</time>
      </trkpt>
      <trkpt lat="56.6179" lon="-5.50321">
        <ele>43.05</ele>
        <time>2021-03-20T15:50:17Z</time>
      </trkpt>
      <trkpt lat="56.61859" lon="-5.50631">
        <ele>36.87</ele>
        <time>2021-03-20T15:50:20Z</time>
      </trkpt>
      <trkpt lat="56.61896" lon="-5.5077">
        <ele>42.78</ele>
        <time>2021-03-20T15:50:23Z</time>
      </trkpt>
      <trkpt lat="56.61903" lon="-5.50851">
        <ele>40.23</ele>
        <time>2021-03-20T15:50:25Z</time>
      </trkpt>
      <trkpt lat="56.61923" lon="-5.50961">
        <ele>39.92</ele>
        <time>2021-03-20T15:50:28Z</time>
      </trkpt>
      <trkpt lat="56.61948" lon="-5.51036">
        <ele>44.34</ele>
        <time>2021-03-20T15:50:30Z</time>
      </trkpt>
      <trkpt lat="56.61954" lon="-5.51064">
        <ele>45.95</ele>
        <time>2021-03-20T15:50:33Z</time>
      </trkpt>
      <trkpt lat="56.61958" lon="-5.51115">
        <ele>44.94</ele>
        <time>2021-03-20T15:50:35Z</time>
      </trkpt>
      <trkpt lat="56.61977" lon="-5.51191">
        <ele>48.41</ele>
        <time>2021-03-20T15:50:38Z</time>
      </trkpt>
      <trkpt lat="56.61981" lon="-5.51239">
        <ele>48.35</ele>
        <time>2021-03-20T15:50:41Z</time>
      </trkpt>
      <trkpt lat="56.61974" lon="-5.51298">
        <ele>41.21</ele>
        <time>2021-03-20T15:50:43Z</time>
      </trkpt>
      <trkpt lat="56.61975" lon="-5.5132">
        <ele>40.73</ele>
        <time>2021-03-20T15:50:46Z</time>
      </trkpt>
      <trkpt lat="56.61992" lon="-5.51397">
        <ele>44.1</ele>
        <time>2021-03-20T15:50:48Z</time>
      </trkpt>
      <trkpt lat="56.61997" lon="-5.51427">
        <ele>45.11</ele>
        <time>2021-03-20T15:50:51Z</time>
      </trkpt>
      <trkpt lat="56.62001" lon="-5.5152">
        <ele>46.14</ele>
        <time>2021-03-20T15:50:53Z</time>
      </trkpt>
      <trkpt lat="56.62024" lon="-5.51691">
        <ele>47.23</ele>
        <time>2021-03-20T15:50:56Z</time>
      </trkpt>
      <trkpt lat="56.62012" lon="-5.51758">
        <ele>48.56</ele>
        <time>2021-03-20T15:50:59Z</time>
      </trkpt>
      <trkpt lat="56.62015" lon="-5.51846">
        <ele>48.44</ele>
        <time>2021-03-20T15:51:01Z</time>
      </trkpt>
      <trkpt lat="56.62025" lon="-5.5193">
        <ele>49.9</ele>
        <time>2021-03-20T15:51:04Z</time>
      </trkpt>
      <trkpt lat="56.62042" lon="-5.52024">
        <ele>53.8</ele>
        <time>2021-03-20T15:51:06Z</time>
      </trkpt>
      <trkpt lat="56.6205" lon="-5.52041">
        <ele>55.17</ele>
        <time>2021-03-20T15:51:09Z</time>
      </trkpt>
      <trkpt lat="56.62094" lon="-5.5211">
        <ele>58.98</ele>
        <time>2021-03-20T15:51:11Z</time>
      </trkpt>
      <trkpt lat="56.62103" lon="-5.5213">
        <ele>60.13</ele>
        <time>2021-03-20T15:51:14Z</time>
      </trkpt>
      <trkpt lat="56.62112" lon="-5.52209">
        <ele>65.07</ele>
        <time>2021-03-20T15:51:17Z</time>
      </trkpt>
      <trkpt lat="56.62151" lon="-5.52352">
        <ele>71.05</ele>
        <time>2021-03-20T15:51:19Z</time>
      </trkpt>
      <trkpt lat="56.62162" lon="-5.52373">
        <ele>71.28</ele>
        <time>2021-03-20T15:51:22Z</time>
      </trkpt>
      <trkpt lat="56.62208" lon="-5.52454">
        <ele>71.84</ele>
        <time>2021-03-20T15:51:24Z</time>
      </trkpt>
      <trkpt lat="56.62237" lon="-5.52563">
        <ele>67.63</ele>
        <time>2021-03-20T15:51:27Z</time>
      </trkpt>
      <trkpt lat="56.62251" lon="-5.52588">
        <ele>65.97</ele>
        <time>2021-03-20T15:51:29Z</time>
      </trkpt>
      <trkpt lat="56.62262" lon="-5.52604">
        <ele>64.9</ele>
        <time>2021-03-20T15:51:32Z</time>
      </trkpt>
      <trkpt lat="56.62321" lon="-5.52639">
        <ele>60.99</ele>
        <time>2021-03-20T15:51:35Z</time>
      </trkpt>
      <trkpt lat="56.62328" lon="-5.52654">
        <ele>60.45</ele>
        <time>2021-03-20T15:51:37Z</time>
      </trkpt>
      <trkpt lat="56.62332" lon="-5.52703">
        <ele>61.22</ele>
        <time>2021-03-20T15:51:40Z</time>
      </trkpt>
      <trkpt lat="56.6236" lon="-5.52825">
        <ele>66.26</ele>
        <time>2021-03-20T15:51:42Z</time>
      </trkpt>
      <trkpt lat="56.62413" lon="-5.52986">
        <ele>67.46</ele>
        <time>2021-03-20T15:51:45Z</time>
      </trkpt>
      <trkpt lat="56.62431" lon="-5.53057">
        <ele>65.9</ele>
        <time>2021-03-20T15:51:47Z</time>
      </trkpt>
      <trkpt lat="56.62457" lon="-5.53126">
        <ele>64.69</ele>
        <time>2021-03-20T15:51:50Z</time>
      </trkpt>
      <trkpt lat="56.62464" lon="-5.53158">
        <ele>61.78</ele>
        <time>2021-03-20T15:51:53Z</time>
      </trkpt>
      <trkpt lat="56.62525" lon="-5.53221">
        <ele>57.72</ele>
        <time>2021-03-20T15:51:55Z</time>
      </trkpt>
      <trkpt lat="56.62539" lon="-5.53241">
        <ele>56.09</ele>
        <time>2021-03-20T15:51:58Z</time>
      </trkpt>
      <trkpt lat="56.62549" lon="-5.53244">
        <ele>56.76</ele>
        <time>2021-03-20T15:52:00Z</time>
      </trkpt>
      <trkpt lat="56.62569" lon="-5.53236">
        <ele>62.31</ele>
        <time>2021-03-20T15:52:03Z</time>
      </trkpt>
      <trkpt lat="56.6258" lon="-5.53237">
        <ele>64.48</ele>
        <time>2021-03-20T15:52:05Z</time>
      </trkpt>
      <trkpt lat="56.62602" lon="-5.53269">
        <ele>64.18</ele>
        <time>2021-03-20T15:52:08Z</time>
      </trkpt>
      <trkpt lat="56.62636" lon="-5.53334">
        <ele>64.94</ele>
        <time>2021-03-20T15:52:11Z</time>
      </trkpt>
      <trkpt lat="56.62653" lon="-5.53378">
        <ele>63.16</ele>
        <time>2021-03-20T15:52:13Z</time>
      </trkpt>
      <trkpt lat="56.62675" lon="-5.53454">
        <ele>60.85</ele>
        <time>2021-03-20T15:52:16Z</time>
      </trkpt>
      <trkpt lat="56.62695" lon="-5.5349">
        <ele>65.52</ele>
        <time>2021-03-20T15:52:18Z</time>
      </trkpt>
      <trkpt lat="56.62704" lon="-5.53515">
        <ele>68.64</ele>
        <time>2021-03-20T15:52:21Z</time>
      </trkpt>
      <trkpt lat="56.62705" lon="-5.53535">
        <ele>69.25</ele>
        <time>2021-03-20T15:52:23Z</time>
      </trkpt>
      <trkpt lat="56.62695" lon="-5.53605">
        <ele>66.38</ele>
        <time>2021-03-20T15:52:26Z</time>
      </trkpt>
      <trkpt lat="56.62695" lon="-5.53626">
        <ele>65.54</ele>
        <time>2021-03-20T15:52:28Z</time>
      </trkpt>
      <trkpt lat="56.62704" lon="-5.5369">
        <ele>66.79</ele>
        <time>2021-03-20T15:52:31Z</time>
      </trkpt>
      <trkpt lat="56.6271" lon="-5.53727">
        <ele>67.91</ele>
        <time>2021-03-20T15:52:34Z</time>
      </trkpt>
      <trkpt lat="56.6272" lon="-5.53758">
        <ele>68.58</ele>
        <time>2021-03-20T15:52:36Z</time>
      </trkpt>
      <trkpt lat="56.62748" lon="-5.53838">
        <ele>68.34</ele>
        <time>2021-03-20T15:52:39Z</time>
      </trkpt>
      <trkpt lat="56.62754" lon="-5.53895">
        <ele>65.97</ele>
        <time>2021-03-20T15:52:41Z</time>
      </trkpt>
      <trkpt lat="56.62805" lon="-5.54002">
        <ele>70.8</ele>
        <time>2021-03-20T15:52:44Z</time>
      </trkpt>
      <trkpt lat="56.62826" lon="-5.54036">
        <ele>70.89</ele>
        <time>2021-03-20T15:52:46Z</time>
      </trkpt>
      <trkpt lat="56.62847" lon="-5.54056">
        <ele>72.48</ele>
        <time>2021-03-20T15:52:49Z</time>
      </trkpt>
      <trkpt lat="56.62855" lon="-5.54083">
        <ele>72.55</ele>
        <time>2021-03-20T15:52:52Z</time>
      </trkpt>
      <trkpt lat="56.62855" lon="-5.54267">
        <ele>76.11</ele>
        <time>2021-03-20T15:52:54Z</time>
      </trkpt>
      <trkpt lat="56.62849" lon="-5.54397">
        <ele>73.44</ele>
        <time>2021-03-20T15:52:57Z</time>
      </trkpt>
      <trkpt lat="56.62856" lon="-5.54489">
        <ele>71.54</ele>
        <time>2021-03-20T15:52:59Z</time>
      </trkpt>
      <trkpt lat="56.62864" lon="-5.54539">
        <ele>70.97</ele>
        <time>2021-03-20T15:53:02Z</time>
      </trkpt>
      <trkpt lat="56.62874" lon="-5.54679">
        <ele>69.22</ele>
        <time>2021-03-20T15:53:04Z</time>
      </trkpt>
      <trkpt lat="56.62886" lon="-5.54729">
        <ele>69.14</ele>
        <time>2021-03-20T15:53:07Z</time>
      </trkpt>
      <trkpt lat="56.62904" lon="-5.54777">
        <ele>69</ele>
        <time>2021-03-20T15:53:10Z</time>
      </trkpt>
      <trkpt lat="56.62941" lon="-5.5484">
        <ele>69.19</ele>
        <time>2021-03-20T15:53:12Z</time>
      </trkpt>
      <trkpt lat="56.62967" lon="-5.54917">
        <ele>70.8</ele>
        <time>2021-03-20T15:53:15Z</time>
      </trkpt>
      <trkpt lat="56.6304" lon="-5.55154">
        <ele>74.8</ele>
        <time>2021-03-20T15:53:17Z</time>
      </trkpt>
      <trkpt lat="56.63078" lon="-5.55328">
        <ele>80.43</ele>
        <time>2021-03-20T15:53:20Z</time>
      </trkpt>
      <trkpt lat="56.6309" lon="-5.55377">
        <ele>81.1</ele>
        <time>2021-03-20T15:53:22Z</time>
      </trkpt>
      <trkpt lat="56.63125" lon="-5.55454">
        <ele>85.01</ele>
        <time>2021-03-20T15:53:25Z</time>
      </trkpt>
      <trkpt lat="56.63139" lon="-5.55498">
        <ele>86.15</ele>
        <time>2021-03-20T15:53:28Z</time>
      </trkpt>
      <trkpt lat="56.63158" lon="-5.55539">
        <ele>89.85</ele>
        <time>2021-03-20T15:53:30Z</time>
      </trkpt>
      <trkpt lat="56.63183" lon="-5.55613">
        <ele>96.43</ele>
        <time>2021-03-20T15:53:33Z</time>
      </trkpt>
      <trkpt lat="56.63185" lon="-5.55637">
        <ele>98.15</ele>
        <time>2021-03-20T15:53:35Z</time>
      </trkpt>
      <trkpt lat="56.63182" lon="-5.55676">
        <ele>98.19</ele>
        <time>2021-03-20T15:53:38Z</time>
      </trkpt>
      <trkpt lat="56.63194" lon="-5.55738">
        <ele>102.41</ele>
        <time>2021-03-20T15:53:40Z</time>
      </trkpt>
      <trkpt lat="56.63213" lon="-5.55821">
        <ele>106.78</ele>
        <time>2021-03-20T15:53:43Z</time>
      </trkpt>
      <trkpt lat="56.63273" lon="-5.56018">
        <ele>114.11</ele>
        <time>2021-03-20T15:53:46Z</time>
      </trkpt>
      <trkpt lat="56.63273" lon="-5.56095">
        <ele>112.39</ele>
        <time>2021-03-20T15:53:48Z</time>
      </trkpt>
      <trkpt lat="56.633" lon="-5.56177">
        <ele>115.36</ele>
        <time>2021-03-20T15:53:51Z</time>
      </trkpt>
      <trkpt lat="56.6331" lon="-5.56341">
        <ele>118.04</ele>
        <time>2021-03-20T15:53:53Z</time>
      </trkpt>
      <trkpt lat="56.6335" lon="-5.56447">
        <ele>122.89</ele>
        <time>2021-03-20T15:53:56Z</time>
      </trkpt>
      <trkpt lat="56.63358" lon="-5.56497">
        <ele>123.7</ele>
        <time>2021-03-20T15:53:58Z</time>
      </trkpt>
      <trkpt lat="56.63393" lon="-5.56585">
        <ele>129.06</ele>
        <time>2021-03-20T15:54:01Z</time>
      </trkpt>
      <trkpt lat="56.63409" lon="-5.56646">
        <ele>129.96</ele>
        <time>2021-03-20T15:54:04Z</time>
      </trkpt>
      <trkpt lat="56.63489" lon="-5.56853">
        <ele>142.38</ele>
        <time>2021-03-20T15:54:06Z</time>
      </trkpt>
      <trkpt lat="56.63497" lon="-5.56886">
        <ele>142.07</ele>
        <time>2021-03-20T15:54:09Z</time>
      </trkpt>
      <trkpt lat="56.63554" lon="-5.57023">
        <ele>147.04</ele>
        <time>2021-03-20T15:54:11Z</time>
      </trkpt>
      <trkpt lat="56.63563" lon="-5.5705">
        <ele>147.55</ele>
        <time>2021-03-20T15:54:14Z</time>
      </trkpt>
      <trkpt lat="56.63569" lon="-5.57089">
        <ele>149.07</ele>
        <time>2021-03-20T15:54:16Z</time>
      </trkpt>
      <trkpt lat="56.63592" lon="-5.57143">
        <ele>150.58</ele>
        <time>2021-03-20T15:54:19Z</time>
      </trkpt>
      <trkpt lat="56.63605" lon="-5.57194">
        <ele>151.76</ele>
        <time>2021-03-20T15:54:22Z</time>
      </trkpt>
      <trkpt lat="56.63622" lon="-5.57279">
        <ele>153.43</ele>
        <time>2021-03-20T15:54:24Z</time>
      </trkpt>
      <trkpt lat="56.63622" lon="-5.57328">
        <ele>154.38</ele>
        <time>2021-03-20T15:54:27Z</time>
      </trkpt>
      <trkpt lat="56.63628" lon="-5.57363">
        <ele>154.62</ele>
        <time>2021-03-20T15:54:29Z</time>
      </trkpt>
      <trkpt lat="56.63647" lon="-5.57404">
        <ele>155.73</ele>
        <time>2021-03-20T15:54:32Z</time>
      </trkpt>
      <trkpt lat="56.63655" lon="-5.5743">
        <ele>156.17</ele>
        <time>2021-03-20T15:54:34Z</time>
      </trkpt>
      <trkpt lat="56.63655" lon="-5.57534">
        <ele>157.27</ele>
        <time>2021-03-20T15:54:37Z</time>
      </trkpt>
      <trkpt lat="56.63658" lon="-5.57654">
        <ele>159.38</ele>
        <time>2021-03-20T15:54:40Z</time>
      </trkpt>
      <trkpt lat="56.63668" lon="-5.57705">
        <ele>158.71</ele>
        <time>2021-03-20T15:54:42Z</time>
      </trkpt>
      <trkpt lat="56.63678" lon="-5.57734">
        <ele>157.91</ele>
        <time>2021-03-20T15:54:45Z</time>
      </trkpt>
      <trkpt lat="56.63704" lon="-5.57784">
        <ele>157.87</ele>
        <time>2021-03-20T15:54:47Z</time>
      </trkpt>
      <trkpt lat="56.63718" lon="-5.57798">
        <ele>158.79</ele>
        <time>2021-03-20T15:54:50Z</time>
      </trkpt>
      <trkpt lat="56.6381" lon="-5.57884">
        <ele>158.17</ele>
        <time>2021-03-20T15:54:52Z</time>
      </trkpt>
      <trkpt lat="56.63828" lon="-5.57909">
        <ele>158.09</ele>
        <time>2021-03-20T15:54:55Z</time>
      </trkpt>
      <trkpt lat="56.63847" lon="-5.57955">
        <ele>157.62</ele>
        <time>2021-03-20T15:54:57Z</time>
      </trkpt>
      <trkpt lat="56.63876" lon="-5.58048">
        <ele>159.06</ele>
        <time>2021-03-20T15:55:00Z</time>
      </trkpt>
      <trkpt lat="56.63897" lon="-5.58131">
        <ele>160.91</ele>
        <time>2021-03-20T15:55:03Z</time>
      </trkpt>
      <trkpt lat="56.63926" lon="-5.58255">
        <ele>162.24</ele>
        <time>2021-03-20T15:55:05Z</time>
      </trkpt>
      <trkpt lat="56.63942" lon="-5.58375">
        <ele>160.17</ele>
        <time>2021-03-20T15:55:08Z</time>
      </trkpt>
      <trkpt lat="56.63946" lon="-5.58436">
        <ele>160.21</ele>
        <time>2021-03-20T15:55:10Z</time>
      </trkpt>
      <trkpt lat="56.63951" lon="-5.58597">
        <ele>159.35</ele>
        <time>2021-03-20T15:55:13Z</time>
      </trkpt>
      <trkpt lat="56.63954" lon="-5.58649">
        <ele>159.06</ele>
        <time>2021-03-20T15:55:15Z</time>
      </trkpt>
      <trkpt lat="56.63971" lon="-5.5878">
        <ele>156.88</ele>
        <time>2021-03-20T15:55:18Z</time>
      </trkpt>
      <trkpt lat="56.63992" lon="-5.58871">
        <ele>160.01</ele>
        <time>2021-03-20T15:55:21Z</time>
      </trkpt>
      <trkpt lat="56.64031" lon="-5.58997">
        <ele>163.49</ele>
        <time>2021-03-20T15:55:23Z</time>
      </trkpt>
      <trkpt lat="56.64039" lon="-5.59041">
        <ele>163.76</ele>
        <time>2021-03-20T15:55:26Z</time>
      </trkpt>
      <trkpt lat="56.64043" lon="-5.59078">
        <ele>164.19</ele>
        <time>2021-03-20T15:55:28Z</time>
      </trkpt>
      <trkpt lat="56.64041" lon="-5.59119">
        <ele>163.58</ele>
        <time>2021-03-20T15:55:31Z</time>
      </trkpt>
      <trkpt lat="56.63969" lon="-5.59749">
        <ele>153.87</ele>
        <time>2021-03-20T15:55:33Z</time>
      </trkpt>
      <trkpt lat="56.63966" lon="-5.59832">
        <ele>154.99</ele>
        <time>2021-03-20T15:55:36Z</time>
      </trkpt>
      <trkpt lat="56.63968" lon="-5.59884">
        <ele>156.13</ele>
        <time>2021-03-20T15:55:39Z</time>
      </trkpt>
      <trkpt lat="56.63977" lon="-5.59988">
        <ele>159.58</ele>
        <time>2021-03-20T15:55:41Z</time>
      </trkpt>
      <trkpt lat="56.63978" lon="-5.60062">
        <ele>163.08</ele>
        <time>2021-03-20T15:55:44Z</time>
      </trkpt>
      <trkpt lat="56.63985" lon="-5.60112">
        <ele>166.14</ele>
        <time>2021-03-20T15:55:46Z</time>
      </trkpt>
      <trkpt lat="56.63985" lon="-5.60135">
        <ele>167.33</ele>
        <time>2021-03-20T15:55:49Z</time>
      </trkpt>
      <trkpt lat="56.63981" lon="-5.60158">
        <ele>168.59</ele>
        <time>2021-03-20T15:55:51Z</time>
      </trkpt>
      <trkpt lat="56.6396" lon="-5.60234">
        <ele>169.34</ele>
        <time>2021-03-20T15:55:54Z</time>
      </trkpt>
      <trkpt lat="56.63943" lon="-5.60317">
        <ele>168.88</ele>
        <time>2021-03-20T15:55:57Z</time>
      </trkpt>
      <trkpt lat="56.63938" lon="-5.60356">
        <ele>168.34</ele>
        <time>2021-03-20T15:55:59Z</time>
      </trkpt>
      <trkpt lat="56.63938" lon="-5.60389">
        <ele>168.34</ele>
        <time>2021-03-20T15:56:02Z</time>
      </trkpt>
      <trkpt lat="56.63944" lon="-5.60442">
        <ele>169.99</ele>
        <time>2021-03-20T15:56:04Z</time>
      </trkpt>
      <trkpt lat="56.63945" lon="-5.60503">
        <ele>170.02</ele>
        <time>2021-03-20T15:56:07Z</time>
      </trkpt>
      <trkpt lat="56.63941" lon="-5.60553">
        <ele>169.59</ele>
        <time>2021-03-20T15:56:09Z</time>
      </trkpt>
      <trkpt lat="56.63934" lon="-5.60596">
        <ele>169.84</ele>
        <time>2021-03-20T15:56:12Z</time>
      </trkpt>
      <trkpt lat="56.63924" lon="-5.60642">
        <ele>169.88</ele>
        <time>2021-03-20T15:56:15Z</time>
      </trkpt>
      <trkpt lat="56.63922" lon="-5.607">
        <ele>170.38</ele>
        <time>2021-03-20T15:56:17Z</time>
      </trkpt>
      <trkpt lat="56.63917" lon="-5.60754">
        <ele>171.19</ele>
        <time>2021-03-20T15:56:20Z</time>
      </trkpt>
      <trkpt lat="56.63908" lon="-5.60815">
        <ele>171.39</ele>
        <time>2021-03-20T15:56:22Z</time>
      </trkpt>
      <trkpt lat="56.63898" lon="-5.60865">
        <ele>170.97</ele>
        <time>2021-03-20T15:56:25Z</time>
      </trkpt>
      <trkpt lat="56.63882" lon="-5.60982">
        <ele>171.23</ele>
        <time>2021-03-20T15:56:27Z</time>
      </trkpt>
      <trkpt lat="56.63877" lon="-5.61051">
        <ele>170.17</ele>
        <time>2021-03-20T15:56:30Z</time>
      </trkpt>
      <trkpt lat="56.63876" lon="-5.6115">
        <ele>170.08</ele>
        <time>2021-03-20T15:56:33Z</time>
      </trkpt>
      <trkpt lat="56.63877" lon="-5.61526">
        <ele>169.64</ele>
        <time>2021-03-20T15:56:35Z</time>
      </trkpt>
      <trkpt lat="56.63875" lon="-5.61572">
        <ele>169.18</ele>
        <time>2021-03-20T15:56:38Z</time>
      </trkpt>
      <trkpt lat="56.63855" lon="-5.61704">
        <ele>166</ele>
        <time>2021-03-20T15:56:40Z</time>
      </trkpt>
      <trkpt lat="56.6385" lon="-5.6175">
        <ele>164.99</ele>
        <time>2021-03-20T15:56:43Z</time>
      </trkpt>
      <trkpt lat="56.63828" lon="-5.61818">
        <ele>163.7</ele>
        <time>2021-03-20T15:56:45Z</time>
      </trkpt>
      <trkpt lat="56.63821" lon="-5.61859">
        <ele>162.15</ele>
        <time>2021-03-20T15:56:48Z</time>
      </trkpt>
      <trkpt lat="56.63823" lon="-5.61893">
        <ele>162.07</ele>
        <time>2021-03-20T15:56:51Z</time>
      </trkpt>
      <trkpt lat="56.63826" lon="-5.61908">
        <ele>163.16</ele>
        <time>2021-03-20T15:56:53Z</time>
      </trkpt>
      <trkpt lat="56.6383" lon="-5.61924">
        <ele>164.62</ele>
        <time>2021-03-20T15:56:56Z</time>
      </trkpt>
      <trkpt lat="56.63832" lon="-5.61941">
        <ele>165.61</ele>
        <time>2021-03-20T15:56:58Z</time>
      </trkpt>
      <trkpt lat="56.63804" lon="-5.62012">
        <ele>162.51</ele>
        <time>2021-03-20T15:57:02Z</time>
      </trkpt>
      <trkpt lat="56.63789" lon="-5.62079">
        <ele>162.14</ele>
        <time>2021-03-20T15:57:07Z</time>
      </trkpt>
      <trkpt lat="56.63786" lon="-5.62121">
        <ele>162.77</ele>
        <time>2021-03-20T15:57:11Z</time>
      </trkpt>
      <trkpt lat="56.63781" lon="-5.62216">
        <ele>167.03</ele>
        <time>2021-03-20T15:57:15Z</time>
      </trkpt>
      <trkpt lat="56.63781" lon="-5.62302">
        <ele>171.82</ele>
        <time>2021-03-20T15:57:19Z</time>
      </trkpt>
      <trkpt lat="56.63791" lon="-5.62426">
        <ele>173.32</ele>
        <time>2021-03-20T15:57:23Z</time>
      </trkpt>
      <trkpt lat="56.63795" lon="-5.62519">
        <ele>175.15</ele>
        <time>2021-03-20T15:57:27Z</time>
      </trkpt>
      <trkpt lat="56.63796" lon="-5.62597">
        <ele>176.1</ele>
        <time>2021-03-20T15:57:32Z</time>
      </trkpt>
      <trkpt lat="56.6379" lon="-5.62751">
        <ele>180.54</ele>
        <time>2021-03-20T15:57:36Z</time>
      </trkpt>
      <trkpt lat="56.6379" lon="-5.62814">
        <ele>180.5</ele>
        <time>2021-03-20T15:57:40Z</time>
      </trkpt>
      <trkpt lat="56.63792" lon="-5.62867">
        <ele>181.2</ele>
        <time>2021-03-20T15:57:44Z</time>
      </trkpt>
      <trkpt lat="56.63812" lon="-5.63185">
        <ele>188.67</ele>
        <time>2021-03-20T15:57:48Z</time>
      </trkpt>
      <trkpt lat="56.63813" lon="-5.63234">
        <ele>188.05</ele>
        <time>2021-03-20T15:57:52Z</time>
      </trkpt>
      <trkpt lat="56.63807" lon="-5.63458">
        <ele>187.68</ele>
        <time>2021-03-20T15:57:56Z</time>
      </trkpt>
      <trkpt lat="56.63798" lon="-5.6368">
        <ele>188.88</ele>
        <time>2021-03-20T15:58:01Z</time>
      </trkpt>
      <trkpt lat="56.63787" lon="-5.63744">
        <ele>188.8</ele>
        <time>2021-03-20T15:58:05Z</time>
      </trkpt>
      <trkpt lat="56.63767" lon="-5.63811">
        <ele>188.52</ele>
        <time>2021-03-20T15:58:09Z</time>
      </trkpt>
      <trkpt lat="56.63741" lon="-5.63888">
        <ele>187.12</ele>
        <time>2021-03-20T15:58:13Z</time>
      </trkpt>
      <trkpt lat="56.63565" lon="-5.6437">
        <ele>188.27</ele>
        <time>2021-03-20T15:58:17Z</time>
      </trkpt>
      <trkpt lat="56.63473" lon="-5.64619">
        <ele>198.57</ele>
        <time>2021-03-20T15:58:21Z</time>
      </trkpt>
      <trkpt lat="56.63454" lon="-5.64665">
        <ele>198.4</ele>
        <time>2021-03-20T15:58:26Z</time>
      </trkpt>
      <trkpt lat="56.63427" lon="-5.64715">
        <ele>198.25</ele>
        <time>2021-03-20T15:58:30Z</time>
      </trkpt>
      <trkpt lat="56.63314" lon="-5.64897">
        <ele>203.3</ele>
        <time>2021-03-20T15:58:34Z</time>
      </trkpt>
      <trkpt lat="56.63274" lon="-5.64946">
        <ele>205.84</ele>
        <time>2021-03-20T15:58:38Z</time>
      </trkpt>
      <trkpt lat="56.63239" lon="-5.64967">
        <ele>203.8</ele>
        <time>2021-03-20T15:58:42Z</time>
      </trkpt>
      <trkpt lat="56.63032" lon="-5.65018">
        <ele>183.91</ele>
        <time>2021-03-20T15:58:46Z</time>
      </trkpt>
      <trkpt lat="56.62933" lon="-5.65034">
        <ele>172.18</ele>
        <time>2021-03-20T15:58:50Z</time>
      </trkpt>
      <trkpt lat="56.62538" lon="-5.65116">
        <ele>171.54</ele>
        <time>2021-03-20T15:58:55Z</time>
      </trkpt>
      <trkpt lat="56.62297" lon="-5.65295">
        <ele>172.59</ele>
        <time>2021-03-20T15:58:59Z</time>
      </trkpt>
      <trkpt lat="56.62273" lon="-5.6533">
        <ele>172.13</ele>
        <time>2021-03-20T15:59:03Z</time>
      </trkpt>
      <trkpt lat="56.6225" lon="-5.65378">
        <ele>172.24</ele>
        <time>2021-03-20T15:59:07Z</time>
      </trkpt>
      <trkpt lat="56.62194" lon="-5.65557">
        <ele>174.04</ele>
        <time>2021-03-20T15:59:11Z</time>
      </trkpt>
      <trkpt lat="56.62176" lon="-5.65595">
        <ele>172.81</ele>
        <time>2021-03-20T15:59:15Z</time>
      </trkpt>
      <trkpt lat="56.6216" lon="-5.6562">
        <ele>171.74</ele>
        <time>2021-03-20T15:59:20Z</time>
      </trkpt>
      <trkpt lat="56.62142" lon="-5.65639">
        <ele>171.3</ele>
        <time>2021-03-20T15:59:24Z</time>
      </trkpt>
      <trkpt lat="56.62115" lon="-5.65661">
        <ele>172.56</ele>
        <time>2021-03-20T15:59:28Z</time>
      </trkpt>
      <trkpt lat="56.61779" lon="-5.65893">
        <ele>159.02</ele>
        <time>2021-03-20T15:59:32Z</time>
      </trkpt>
      <trkpt lat="56.61756" lon="-5.65913">
        <ele>158.57</ele>
        <time>2021-03-20T15:59:36Z</time>
      </trkpt>
      <trkpt lat="56.61736" lon="-5.65933">
        <ele>156.32</ele>
        <time>2021-03-20T15:59:40Z</time>
      </trkpt>
      <trkpt lat="56.6157" lon="-5.66171">
        <ele>150.2</ele>
        <time>2021-03-20T15:59:44Z</time>
      </trkpt>
      <trkpt lat="56.61521" lon="-5.66239">
        <ele>148.51</ele>
        <time>2021-03-20T15:59:49Z</time>
      </trkpt>
      <trkpt lat="56.61498" lon="-5.66262">
        <ele>145.91</ele>
        <time>2021-03-20T15:59:53Z</time>
      </trkpt>
      <trkpt lat="56.61404" lon="-5.66331">
        <ele>144.34</ele>
        <time>2021-03-20T15:59:57Z</time>
      </trkpt>
      <trkpt lat="56.61317" lon="-5.66387">
        <ele>144.01</ele>
        <time>2021-03-20T16:00:01Z</time>
      </trkpt>
      <trkpt lat="56.61216" lon="-5.66423">
        <ele>140.24</ele>
        <time>2021-03-20T16:00:05Z</time>
      </trkpt>
      <trkpt lat="56.61149" lon="-5.66457">
        <ele>137.48</ele>
        <time>2021-03-20T16:00:09Z</time>
      </trkpt>
      <trkpt lat="56.61099" lon="-5.66517">
        <ele>135.72</ele>
        <time>2021-03-20T16:00:14Z</time>
      </trkpt>
      <trkpt lat="56.61069" lon="-5.66545">
        <ele>133.47</ele>
        <time>2021-03-20T16:00:18Z</time>
      </trkpt>
      <trkpt lat="56.61043" lon="-5.66561">
        <ele>133.27</ele>
        <time>2021-03-20T16:00:22Z</time>
      </trkpt>
      <trkpt lat="56.60806" lon="-5.66632">
        <ele>126.2</ele>
        <time>2021-03-20T16:00:26Z</time>
      </trkpt>
      <trkpt lat="56.60699" lon="-5.66677">
        <ele>122.68</ele>
        <time>2021-03-20T16:00:30Z</time>
      </trkpt>
      <trkpt lat="56.6063" lon="-5.66712">
        <ele>120.3</ele>
        <time>2021-03-20T16:00:34Z</time>
      </trkpt>
      <trkpt lat="56.60286" lon="-5.66872">
        <ele>110.5</ele>
        <time>2021-03-20T16:00:38Z</time>
      </trkpt>
      <trkpt lat="56.60257" lon="-5.66889">
        <ele>110.55</ele>
        <time>2021-03-20T16:00:43Z</time>
      </trkpt>
      <trkpt lat="56.60109" lon="-5.66998">
        <ele>101.57</ele>
        <time>2021-03-20T16:00:47Z</time>
      </trkpt>
      <trkpt lat="56.60076" lon="-5.67017">
        <ele>99.95</ele>
        <time>2021-03-20T16:00:51Z</time>
      </trkpt>
      <trkpt lat="56.59917" lon="-5.67094">
        <ele>97.56</ele>
        <time>2021-03-20T16:00:55Z</time>
      </trkpt>
      <trkpt lat="56.59788" lon="-5.67144">
        <ele>98.35</ele>
        <time>2021-03-20T16:00:59Z</time>
      </trkpt>
      <trkpt lat="56.59724" lon="-5.67166">
        <ele>93.17</ele>
        <time>2021-03-20T16:01:03Z</time>
      </trkpt>
      <trkpt lat="56.59701" lon="-5.67179">
        <ele>91.73</ele>
        <time>2021-03-20T16:01:08Z</time>
      </trkpt>
      <trkpt lat="56.59534" lon="-5.6734">
        <ele>86.03</ele>
        <time>2021-03-20T16:01:12Z</time>
      </trkpt>
      <trkpt lat="56.59423" lon="-5.67538">
        <ele>83.4</ele>
        <time>2021-03-20T16:01:16Z</time>
      </trkpt>
      <trkpt lat="56.59353" lon="-5.67719">
        <ele>83.93</ele>
        <time>2021-03-20T16:01:20Z</time>
      </trkpt>
      <trkpt lat="56.59322" lon="-5.67784">
        <ele>83.61</ele>
        <time>2021-03-20T16:01:24Z</time>
      </trkpt>
      <trkpt lat="56.59302" lon="-5.67822">
        <ele>85.63</ele>
        <time>2021-03-20T16:01:28Z</time>
      </trkpt>
      <trkpt lat="56.59284" lon="-5.67848">
        <ele>86.74</ele>
        <time>2021-03-20T16:01:32Z</time>
      </trkpt>
      <trkpt lat="56.59261" lon="-5.67873">
        <ele>86.6</ele>
        <time>2021-03-20T16:01:37Z</time>
      </trkpt>
      <trkpt lat="56.59192" lon="-5.67927">
        <ele>81.79</ele>
        <time>2021-03-20T16:01:41Z</time>
      </trkpt>
      <trkpt lat="56.5916" lon="-5.6797">
        <ele>81.72</ele>
        <time>2021-03-20T16:01:45Z</time>
      </trkpt>
      <trkpt lat="56.59077" lon="-5.68109">
        <ele>79.5</ele>
        <time>2021-03-20T16:01:49Z</time>
      </trkpt>
      <trkpt lat="56.59048" lon="-5.68165">
        <ele>76.56</ele>
        <time>2021-03-20T16:01:53Z</time>
      </trkpt>
      <trkpt lat="56.59038" lon="-5.68191">
        <ele>76.49</ele>
        <time>2021-03-20T16:01:57Z</time>
      </trkpt>
      <trkpt lat="56.59029" lon="-5.68221">
        <ele>77.12</ele>
        <time>2021-03-20T16:02:02Z</time>
      </trkpt>
      <trkpt lat="56.59019" lon="-5.68275">
        <ele>77.06</ele>
        <time>2021-03-20T16:02:06Z</time>
      </trkpt>
      <trkpt lat="56.59013" lon="-5.68347">
        <ele>75.31</ele>
        <time>2021-03-20T16:02:10Z</time>
      </trkpt>
      <trkpt lat="56.59009" lon="-5.68425">
        <ele>73.64</ele>
        <time>2021-03-20T16:02:14Z</time>
      </trkpt>
      <trkpt lat="56.59009" lon="-5.6849">
        <ele>74.6</ele>
        <time>2021-03-20T16:02:18Z</time>
      </trkpt>
      <trkpt lat="56.59024" lon="-5.68647">
        <ele>82.39</ele>
        <time>2021-03-20T16:02:22Z</time>
      </trkpt>
      <trkpt lat="56.59025" lon="-5.68686">
        <ele>83.29</ele>
        <time>2021-03-20T16:02:27Z</time>
      </trkpt>
      <trkpt lat="56.59023" lon="-5.68736">
        <ele>84.79</ele>
        <time>2021-03-20T16:02:31Z</time>
      </trkpt>
      <trkpt lat="56.5899" lon="-5.68921">
        <ele>83.95</ele>
        <time>2021-03-20T16:02:35Z</time>
      </trkpt>
      <trkpt lat="56.58951" lon="-5.69211">
        <ele>85.24</ele>
        <time>2021-03-20T16:02:39Z</time>
      </trkpt>
      <trkpt lat="56.58943" lon="-5.69251">
        <ele>85.69</ele>
        <time>2021-03-20T16:02:43Z</time>
      </trkpt>
      <trkpt lat="56.58933" lon="-5.69287">
        <ele>85.24</ele>
        <time>2021-03-20T16:02:47Z</time>
      </trkpt>
      <trkpt lat="56.58897" lon="-5.69385">
        <ele>81.89</ele>
        <time>2021-03-20T16:02:51Z</time>
      </trkpt>
      <trkpt lat="56.58882" lon="-5.69441">
        <ele>77.81</ele>
        <time>2021-03-20T16:02:56Z</time>
      </trkpt>
      <trkpt lat="56.58876" lon="-5.69476">
        <ele>74.51</ele>
        <time>2021-03-20T16:03:00Z</time>
      </trkpt>
      <trkpt lat="56.58873" lon="-5.69509">
        <ele>72.53</ele>
        <time>2021-03-20T16:03:04Z</time>
      </trkpt>
      <trkpt lat="56.58872" lon="-5.69554">
        <ele>69.63</ele>
        <time>2021-03-20T16:03:08Z</time>
      </trkpt>
      <trkpt lat="56.58876" lon="-5.69598">
        <ele>66.59</ele>
        <time>2021-03-20T16:03:12Z</time>
      </trkpt>
      <trkpt lat="56.58888" lon="-5.69657">
        <ele>62.95</ele>
        <time>2021-03-20T16:03:16Z</time>
      </trkpt>
      <trkpt lat="56.58924" lon="-5.69772">
        <ele>53.21</ele>
        <time>2021-03-20T16:03:21Z</time>
      </trkpt>
      <trkpt lat="56.58933" lon="-5.69809">
        <ele>52.25</ele>
        <time>2021-03-20T16:03:25Z</time>
      </trkpt>
      <trkpt lat="56.5894" lon="-5.69856">
        <ele>53.16</ele>
        <time>2021-03-20T16:03:29Z</time>
      </trkpt>
      <trkpt lat="56.58942" lon="-5.69902">
        <ele>54.1</ele>
        <time>2021-03-20T16:03:33Z</time>
      </trkpt>
      <trkpt lat="56.5894" lon="-5.6995">
        <ele>55.17</ele>
        <time>2021-03-20T16:03:37Z</time>
      </trkpt>
      <trkpt lat="56.58931" lon="-5.70039">
        <ele>54.03</ele>
        <time>2021-03-20T16:03:41Z</time>
      </trkpt>
      <trkpt lat="56.58928" lon="-5.70082">
        <ele>54.17</ele>
        <time>2021-03-20T16:03:45Z</time>
      </trkpt>
      <trkpt lat="56.58928" lon="-5.70128">
        <ele>52.71</ele>
        <time>2021-03-20T16:03:50Z</time>
      </trkpt>
      <trkpt lat="56.58934" lon="-5.70184">
        <ele>48.32</ele>
        <time>2021-03-20T16:03:54Z</time>
      </trkpt>
      <trkpt lat="56.58942" lon="-5.70219">
        <ele>46</ele>
        <time>2021-03-20T16:03:58Z</time>
      </trkpt>
      <trkpt lat="56.58994" lon="-5.70392">
        <ele>38.19</ele>
        <time>2021-03-20T16:04:02Z</time>
      </trkpt>
      <trkpt lat="56.59009" lon="-5.70457">
        <ele>36.81</ele>
        <time>2021-03-20T16:04:06Z</time>
      </trkpt>
      <trkpt lat="56.59048" lon="-5.70717">
        <ele>28.86</ele>
        <time>2021-03-20T16:04:10Z</time>
      </trkpt>
      <trkpt lat="56.59097" lon="-5.71024">
        <ele>31.12</ele>
        <time>2021-03-20T16:04:15Z</time>
      </trkpt>
      <trkpt lat="56.59113" lon="-5.71154">
        <ele>36.08</ele>
        <time>2021-03-20T16:04:19Z</time>
      </trkpt>
      <trkpt lat="56.5912" lon="-5.71366">
        <ele>41.61</ele>
        <time>2021-03-20T16:04:23Z</time>
      </trkpt>
      <trkpt lat="56.59121" lon="-5.71454">
        <ele>41.53</ele>
        <time>2021-03-20T16:04:27Z</time>
      </trkpt>
      <trkpt lat="56.59118" lon="-5.71531">
        <ele>39.17</ele>
        <time>2021-03-20T16:04:31Z</time>
      </trkpt>
      <trkpt lat="56.59113" lon="-5.71593">
        <ele>36.64</ele>
        <time>2021-03-20T16:04:35Z</time>
      </trkpt>
      <trkpt lat="56.5908" lon="-5.7191">
        <ele>30.94</ele>
        <time>2021-03-20T16:04:39Z</time>
      </trkpt>
      <trkpt lat="56.59075" lon="-5.71981">
        <ele>28.74</ele>
        <time>2021-03-20T16:04:44Z</time>
      </trkpt>
      <trkpt lat="56.59076" lon="-5.72023">
        <ele>27.03</ele>
        <time>2021-03-20T16:04:48Z</time>
      </trkpt>
      <trkpt lat="56.59087" lon="-5.72177">
        <ele>25</ele>
        <time>2021-03-20T16:04:52Z</time>
      </trkpt>
      <trkpt lat="56.59088" lon="-5.72261">
        <ele>26.12</ele>
        <time>2021-03-20T16:04:56Z</time>
      </trkpt>
      <trkpt lat="56.59084" lon="-5.72329">
        <ele>25.2</ele>
        <time>2021-03-20T16:05:00Z</time>
      </trkpt>
      <trkpt lat="56.59064" lon="-5.72508">
        <ele>26.37</ele>
        <time>2021-03-20T16:05:04Z</time>
      </trkpt>
      <trkpt lat="56.59031" lon="-5.72779">
        <ele>28.86</ele>
        <time>2021-03-20T16:05:09Z</time>
      </trkpt>
      <trkpt lat="56.58998" lon="-5.72981">
        <ele>26.65</ele>
        <time>2021-03-20T16:05:13Z</time>
      </trkpt>
      <trkpt lat="56.58996" lon="-5.73019">
        <ele>25.79</ele>
        <time>2021-03-20T16:05:17Z</time>
      </trkpt>
      <trkpt lat="56.58997" lon="-5.73061">
        <ele>24.64</ele>
        <time>2021-03-20T16:05:21Z</time>
      </trkpt>
      <trkpt lat="56.59002" lon="-5.73102">
        <ele>24.18</ele>
        <time>2021-03-20T16:05:25Z</time>
      </trkpt>
      <trkpt lat="56.59014" lon="-5.73151">
        <ele>23.07</ele>
        <time>2021-03-20T16:05:29Z</time>
      </trkpt>
      <trkpt lat="56.59062" lon="-5.73279">
        <ele>19.61</ele>
        <time>2021-03-20T16:05:33Z</time>
      </trkpt>
      <trkpt lat="56.59076" lon="-5.73326">
        <ele>18.91</ele>
        <time>2021-03-20T16:05:38Z</time>
      </trkpt>
      <trkpt lat="56.59086" lon="-5.73379">
        <ele>18.42</ele>
        <time>2021-03-20T16:05:42Z</time>
      </trkpt>
      <trkpt lat="56.59095" lon="-5.73539">
        <ele>18.83</ele>
        <time>2021-03-20T16:05:46Z</time>
      </trkpt>
      <trkpt lat="56.591" lon="-5.73581">
        <ele>19.57</ele>
        <time>2021-03-20T16:05:50Z</time>
      </trkpt>
      <trkpt lat="56.59123" lon="-5.73694">
        <ele>19.83</ele>
        <time>2021-03-20T16:05:54Z</time>
      </trkpt>
      <trkpt lat="56.5913" lon="-5.73763">
        <ele>21.64</ele>
        <time>2021-03-20T16:05:58Z</time>
      </trkpt>
      <trkpt lat="56.5913" lon="-5.73811">
        <ele>23.91</ele>
        <time>2021-03-20T16:06:03Z</time>
      </trkpt>
      <trkpt lat="56.59128" lon="-5.73854">
        <ele>25.64</ele>
        <time>2021-03-20T16:06:07Z</time>
      </trkpt>
      <trkpt lat="56.59123" lon="-5.73897">
        <ele>26.08</ele>
        <time>2021-03-20T16:06:11Z</time>
      </trkpt>
      <trkpt lat="56.59111" lon="-5.73954">
        <ele>26.75</ele>
        <time>2021-03-20T16:06:15Z</time>
      </trkpt>
      <trkpt lat="56.59101" lon="-5.73994">
        <ele>27.99</ele>
        <time>2021-03-20T16:06:19Z</time>
      </trkpt>
      <trkpt lat="56.59087" lon="-5.74028">
        <ele>29.27</ele>
        <time>2021-03-20T16:06:23Z</time>
      </trkpt>
      <trkpt lat="56.59018" lon="-5.74169">
        <ele>34.94</ele>
        <time>2021-03-20T16:06:28Z</time>
      </trkpt>
      <trkpt lat="56.5884" lon="-5.74426">
        <ele>22.08</ele>
        <time>2021-03-20T16:06:32Z</time>
      </trkpt>
      <trkpt lat="56.58795" lon="-5.74479">
        <ele>22.53</ele>
        <time>2021-03-20T16:06:36Z</time>
      </trkpt>
      <trkpt lat="56.58747" lon="-5.74517">
        <ele>20.39</ele>
        <time>2021-03-20T16:06:40Z</time>
      </trkpt>
      <trkpt lat="56.58701" lon="-5.74537">
        <ele>17.41</ele>
        <time>2021-03-20T16:06:44Z</time>
      </trkpt>
      <trkpt lat="56.58564" lon="-5.74564">
        <ele>14.21</ele>
        <time>2021-03-20T16:06:48Z</time>
      </trkpt>
      <trkpt lat="56.58488" lon="-5.74619">
        <ele>15.84</ele>
        <time>2021-03-20T16:06:52Z</time>
      </trkpt>
      <trkpt lat="56.5839" lon="-5.74722">
        <ele>21.85</ele>
        <time>2021-03-20T16:06:57Z</time>
      </trkpt>
      <trkpt lat="56.58355" lon="-5.74767">
        <ele>24.09</ele>
        <time>2021-03-20T16:07:01Z</time>
      </trkpt>
      <trkpt lat="56.58275" lon="-5.7489">
        <ele>19.84</ele>
        <time>2021-03-20T16:07:05Z</time>
      </trkpt>
      <trkpt lat="56.58238" lon="-5.74927">
        <ele>17.2</ele>
        <time>2021-03-20T16:07:09Z</time>
      </trkpt>
      <trkpt lat="56.58196" lon="-5.74959">
        <ele>15.51</ele>
        <time>2021-03-20T16:07:13Z</time>
      </trkpt>
      <trkpt lat="56.58032" lon="-5.75026">
        <ele>11.2</ele>
        <time>2021-03-20T16:07:17Z</time>
      </trkpt>
      <trkpt lat="56.58" lon="-5.75047">
        <ele>10.01</ele>
        <time>2021-03-20T16:07:22Z</time>
      </trkpt>
      <trkpt lat="56.57958" lon="-5.75093">
        <ele>10</ele>
        <time>2021-03-20T16:07:26Z</time>
      </trkpt>
      <trkpt lat="56.57914" lon="-5.75166">
        <ele>8.9</ele>
        <time>2021-03-20T16:07:30Z</time>
      </trkpt>
      <trkpt lat="56.57871" lon="-5.7526">
        <ele>12.7</ele>
        <time>2021-03-20T16:07:34Z</time>
      </trkpt>
      <trkpt lat="56.57844" lon="-5.75309">
        <ele>14.74</ele>
        <time>2021-03-20T16:07:38Z</time>
      </trkpt>
      <trkpt lat="56.57809" lon="-5.75353">
        <ele>16.72</ele>
        <time>2021-03-20T16:07:42Z</time>
      </trkpt>
      <trkpt lat="56.57787" lon="-5.75374">
        <ele>17.78</ele>
        <time>2021-03-20T16:07:46Z</time>
      </trkpt>
      <trkpt lat="56.57742" lon="-5.75408">
        <ele>19.48</ele>
        <time>2021-03-20T16:07:51Z</time>
      </trkpt>
      <trkpt lat="56.57723" lon="-5.75416">
        <ele>19.03</ele>
        <time>2021-03-20T16:07:55Z</time>
      </trkpt>
      <trkpt lat="56.57689" lon="-5.75425">
        <ele>20.4</ele>
        <time>2021-03-20T16:07:59Z</time>
      </trkpt>
      <trkpt lat="56.57662" lon="-5.75427">
        <ele>22.16</ele>
        <time>2021-03-20T16:08:03Z</time>
      </trkpt>
      <trkpt lat="56.57638" lon="-5.75425">
        <ele>23.08</ele>
        <time>2021-03-20T16:08:07Z</time>
      </trkpt>
      <trkpt lat="56.57572" lon="-5.75398">
        <ele>28.75</ele>
        <time>2021-03-20T16:08:11Z</time>
      </trkpt>
      <trkpt lat="56.57458" lon="-5.75337">
        <ele>35.98</ele>
        <time>2021-03-20T16:08:16Z</time>
      </trkpt>
      <trkpt lat="56.57309" lon="-5.75342">
        <ele>35.82</ele>
        <time>2021-03-20T16:08:20Z</time>
      </trkpt>
      <trkpt lat="56.57204" lon="-5.75342">
        <ele>35.91</ele>
        <time>2021-03-20T16:08:24Z</time>
      </trkpt>
      <trkpt lat="56.57082" lon="-5.75348">
        <ele>34.53</ele>
        <time>2021-03-20T16:08:28Z</time>
      </trkpt>
      <trkpt lat="56.56765" lon="-5.75355">
        <ele>45.29</ele>
        <time>2021-03-20T16:08:32Z</time>
      </trkpt>
      <trkpt lat="56.56705" lon="-5.75374">
        <ele>52.49</ele>
        <time>2021-03-20T16:08:36Z</time>
      </trkpt>
      <trkpt lat="56.56685" lon="-5.75387">
        <ele>54.97</ele>
        <time>2021-03-20T16:08:40Z</time>
      </trkpt>
      <trkpt lat="56.56663" lon="-5.75407">
        <ele>58.57</ele>
        <time>2021-03-20T16:08:45Z</time>
      </trkpt>
      <trkpt lat="56.56623" lon="-5.75453">
        <ele>62.66</ele>
        <time>2021-03-20T16:08:49Z</time>
      </trkpt>
      <trkpt lat="56.5658" lon="-5.75527">
        <ele>63.17</ele>
        <time>2021-03-20T16:08:53Z</time>
      </trkpt>
      <trkpt lat="56.56556" lon="-5.75591">
        <ele>65.93</ele>
        <time>2021-03-20T16:08:57Z</time>
      </trkpt>
      <trkpt lat="56.56533" lon="-5.7567">
        <ele>67.61</ele>
        <time>2021-03-20T16:09:01Z</time>
      </trkpt>
      <trkpt lat="56.56514" lon="-5.75759">
        <ele>73.98</ele>
        <time>2021-03-20T16:09:05Z</time>
      </trkpt>
      <trkpt lat="56.5649" lon="-5.75835">
        <ele>76.07</ele>
        <time>2021-03-20T16:09:10Z</time>
      </trkpt>
      <trkpt lat="56.56475" lon="-5.75866">
        <ele>79.07</ele>
        <time>2021-03-20T16:09:14Z</time>
      </trkpt>
      <trkpt lat="56.56415" lon="-5.75948">
        <ele>85.45</ele>
        <time>2021-03-20T16:09:18Z</time>
      </trkpt>
      <trkpt lat="56.56371" lon="-5.75978">
        <ele>85.5</ele>
        <time>2021-03-20T16:09:22Z</time>
      </trkpt>
      <trkpt lat="56.56322" lon="-5.75998">
        <ele>88.05</ele>
        <time>2021-03-20T16:09:26Z</time>
      </trkpt>
      <trkpt lat="56.56258" lon="-5.76006">
        <ele>93.29</ele>
        <time>2021-03-20T16:09:30Z</time>
      </trkpt>
      <trkpt lat="56.56204" lon="-5.76004">
        <ele>94.44</ele>
        <time>2021-03-20T16:09:34Z</time>
      </trkpt>
      <trkpt lat="56.5614" lon="-5.76023">
        <ele>91.91</ele>
        <time>2021-03-20T16:09:39Z</time>
      </trkpt>
      <trkpt lat="56.56112" lon="-5.76038">
        <ele>91.39</ele>
        <time>2021-03-20T16:09:43Z</time>
      </trkpt>
      <trkpt lat="56.56057" lon="-5.76087">
        <ele>90.13</ele>
        <time>2021-03-20T16:09:47Z</time>
      </trkpt>
      <trkpt lat="56.56061" lon="-5.76141">
        <ele>92.52</ele>
        <time>2021-03-20T16:09:53Z</time>
      </trkpt>
      <trkpt lat="56.56057" lon="-5.76159">
        <ele>93.52</ele>
        <time>2021-03-20T16:09:59Z</time>
      </trkpt>
      <trkpt lat="56.56057" lon="-5.76159">
        <ele>93.52</ele>
        <time>2021-03-20T16:09:59Z</time>
      </trkpt>
      <trkpt lat="56.56061" lon="-5.76141">
        <ele>92.52</ele>
        <time>2021-03-20T16:10:06Z</time>
      </trkpt>
      <trkpt lat="56.56057" lon="-5.76087">
        <ele>90.13</ele>
        <time>2021-03-20T16:10:12Z</time>
      </trkpt>
      <trkpt lat="56.56031" lon="-5.76124">
        <ele>86.46</ele>
        <time>2021-03-20T16:10:20Z</time>
      </trkpt>
      <trkpt lat="56.56002" lon="-5.76177">
        <ele>85.89</ele>
        <time>2021-03-20T16:10:29Z</time>
      </trkpt>
      <trkpt lat="56.55931" lon="-5.76332">
        <ele>92.43</ele>
        <time>2021-03-20T16:10:37Z</time>
      </trkpt>
      <trkpt lat="56.55883" lon="-5.76409">
        <ele>93.05</ele>
        <time>2021-03-20T16:10:46Z</time>
      </trkpt>
      <trkpt lat="56.55748" lon="-5.7655">
        <ele>96.24</ele>
        <time>2021-03-20T16:10:54Z</time>
      </trkpt>
      <trkpt lat="56.55663" lon="-5.76643">
        <ele>98.7</ele>
        <time>2021-03-20T16:11:02Z</time>
      </trkpt>
      <trkpt lat="56.55645" lon="-5.76667">
        <ele>97.2</ele>
        <time>2021-03-20T16:11:11Z</time>
      </trkpt>
      <trkpt lat="56.55509" lon="-5.76911">
        <ele>105.88</ele>
        <time>2021-03-20T16:11:19Z</time>
      </trkpt>
      <trkpt lat="56.55488" lon="-5.76944">
        <ele>105.6</ele>
        <time>2021-03-20T16:11:28Z</time>
      </trkpt>
      <trkpt lat="56.55455" lon="-5.76978">
        <ele>105.05</ele>
        <time>2021-03-20T16:11:36Z</time>
      </trkpt>
      <trkpt lat="56.5519" lon="-5.77191">
        <ele>98.51</ele>
        <time>2021-03-20T16:11:44Z</time>
      </trkpt>
      <trkpt lat="56.55138" lon="-5.77226">
        <ele>100.3</ele>
        <time>2021-03-20T16:11:53Z</time>
      </trkpt>
      <trkpt lat="56.54991" lon="-5.7726">
        <ele>104.11</ele>
        <time>2021-03-20T16:12:01Z</time>
      </trkpt>
      <trkpt lat="56.54786" lon="-5.77287">
        <ele>104.72</ele>
        <time>2021-03-20T16:12:10Z</time>
      </trkpt>
      <trkpt lat="56.54678" lon="-5.77361">
        <ele>94.09</ele>
        <time>2021-03-20T16:12:18Z</time>
      </trkpt>
      <trkpt lat="56.54543" lon="-5.77473">
        <ele>86.13</ele>
        <time>2021-03-20T16:12:27Z</time>
      </trkpt>
      <trkpt lat="56.54494" lon="-5.7752">
        <ele>82.36</ele>
        <time>2021-03-20T16:12:35Z</time>
      </trkpt>
      <trkpt lat="56.54426" lon="-5.7761">
        <ele>79.24</ele>
        <time>2021-03-20T16:12:43Z</time>
      </trkpt>
      <trkpt lat="56.54362" lon="-5.77716">
        <ele>74.93</ele>
        <time>2021-03-20T16:12:52Z</time>
      </trkpt>
      <trkpt lat="56.54338" lon="-5.77752">
        <ele>72.76</ele>
        <time>2021-03-20T16:13:00Z</time>
      </trkpt>
      <trkpt lat="56.54321" lon="-5.77775">
        <ele>71.61</ele>
        <time>2021-03-20T16:13:09Z</time>
      </trkpt>
      <trkpt lat="56.5428" lon="-5.77815">
        <ele>69.19</ele>
        <time>2021-03-20T16:13:17Z</time>
      </trkpt>
      <trkpt lat="56.54168" lon="-5.77865">
        <ele>65</ele>
        <time>2021-03-20T16:13:25Z</time>
      </trkpt>
      <trkpt lat="56.54106" lon="-5.77889">
        <ele>59.64</ele>
        <time>2021-03-20T16:13:34Z</time>
      </trkpt>
      <trkpt lat="56.54062" lon="-5.77901">
        <ele>57.77</ele>
        <time>2021-03-20T16:13:42Z</time>
      </trkpt>
      <trkpt lat="56.54023" lon="-5.77903">
        <ele>55.14</ele>
        <time>2021-03-20T16:13:51Z</time>
      </trkpt>
      <trkpt lat="56.54006" lon="-5.77897">
        <ele>53.75</ele>
        <time>2021-03-20T16:13:59Z</time>
      </trkpt>
      <trkpt lat="56.53983" lon="-5.77894">
        <ele>51.33</ele>
        <time>2021-03-20T16:14:07Z</time>
      </trkpt>
      <trkpt lat="56.53927" lon="-5.7786">
        <ele>44.69</ele>
        <time>2021-03-20T16:14:16Z</time>
      </trkpt>
      <trkpt lat="56.53877" lon="-5.77818">
        <ele>41.62</ele>
        <time>2021-03-20T16:14:24Z</time>
      </trkpt>
      <trkpt lat="56.53773" lon="-5.77743">
        <ele>28.55</ele>
        <time>2021-03-20T16:14:33Z</time>
      </trkpt>
      <trkpt lat="56.53716" lon="-5.77724">
        <ele>24.62</ele>
        <time>2021-03-20T16:14:41Z</time>
      </trkpt>
      <trkpt lat="56.53645" lon="-5.77686">
        <ele>17.35</ele>
        <time>2021-03-20T16:14:49Z</time>
      </trkpt>
      <trkpt lat="56.53631" lon="-5.77673">
        <ele>15.8</ele>
        <time>2021-03-20T16:14:58Z</time>
      </trkpt>
      <trkpt lat="56.53611" lon="-5.77663">
        <ele>14.7</ele>
        <time>2021-03-20T16:15:06Z</time>
      </trkpt>
      <trkpt lat="56.53558" lon="-5.77651">
        <ele>14.4</ele>
        <time>2021-03-20T16:15:15Z</time>
      </trkpt>
      <trkpt lat="56.535" lon="-5.77643">
        <ele>14.63</ele>
        <time>2021-03-20T16:15:23Z</time>
      </trkpt>
      <trkpt lat="56.53507" lon="-5.77602">
        <ele>8.85</ele>
        <time>2021-03-20T16:16:04Z</time>
      </trkpt>
      <trkpt lat="56.53517" lon="-5.77592">
        <ele>8.48</ele>
        <time>2021-03-20T16:16:45Z</time>
      </trkpt>
      <trkpt lat="56.53527" lon="-5.77593">
        <ele>8.71</ele>
        <time>2021-03-20T16:17:26Z</time>
      </trkpt>
      <trkpt lat="56.53549" lon="-5.77619">
        <ele>10.94</ele>
        <time>2021-03-20T16:18:07Z</time>
      </trkpt>
      <trkpt lat="56.53567" lon="-5.77623">
        <ele>11.7</ele>
        <time>2021-03-20T16:18:48Z</time>
      </trkpt>
      <trkpt lat="56.53593" lon="-5.77613">
        <ele>10.85</ele>
        <time>2021-03-20T16:19:29Z</time>
      </trkpt>
      <trkpt lat="56.53615" lon="-5.77603">
        <ele>9.26</ele>
        <time>2021-03-20T16:20:10Z</time>
      </trkpt>
      <trkpt lat="56.53635" lon="-5.7758">
        <ele>6.89</ele>
        <time>2021-03-20T16:20:51Z</time>
      </trkpt>
      <trkpt lat="56.53667" lon="-5.77531">
        <ele>3.98</ele>
        <time>2021-03-20T16:21:32Z</time>
      </trkpt>
      <trkpt lat="56.53689" lon="-5.77496">
        <ele>4</ele>
        <time>2021-03-20T16:22:13Z</time>
      </trkpt>
      <trkpt lat="56.53684" lon="-5.77437">
        <ele>4.02</ele>
        <time>2021-03-20T16:22:54Z</time>
      </trkpt>
      <trkpt lat="56.53631" lon="-5.77392">
        <ele>4.03</ele>
        <time>2021-03-20T16:23:35Z</time>
      </trkpt>
      <trkpt lat="56.53571" lon="-5.77383">
        <ele>4.04</ele>
        <time>2021-03-20T16:24:16Z</time>
      </trkpt>
      <trkpt lat="56.53134" lon="-5.7746">
        <ele>4.16</ele>
        <time>2021-03-20T16:24:57Z</time>
      </trkpt>
      <trkpt lat="56.51635" lon="-5.81089">
        <ele>5.39</ele>
        <time>2021-03-20T16:25:38Z</time>
      </trkpt>
      <trkpt lat="56.515" lon="-5.81013">
        <ele>5.45</ele>
        <time>2021-03-20T16:26:19Z</time>
      </trkpt>
      <trkpt lat="56.51465" lon="-5.80991">
        <ele>4</ele>
        <time>2021-03-20T16:27:00Z</time>
      </trkpt>
      <trkpt lat="56.51401" lon="-5.8094">
        <ele>7.65</ele>
        <time>2021-03-20T16:27:41Z</time>
      </trkpt>
      <trkpt lat="56.51387" lon="-5.80917">
        <ele>9.29</ele>
        <time>2021-03-20T16:28:22Z</time>
      </trkpt>
      <trkpt lat="56.51379" lon="-5.80897">
        <ele>10.6</ele>
        <time>2021-03-20T16:29:03Z</time>
      </trkpt>
      <trkpt lat="56.51373" lon="-5.80866">
        <ele>11.32</ele>
        <time>2021-03-20T16:29:44Z</time>
      </trkpt>
      <trkpt lat="56.51372" lon="-5.80831">
        <ele>11.41</ele>
        <time>2021-03-20T16:30:26Z</time>
      </trkpt>
      <trkpt lat="56.51395" lon="-5.80696">
        <ele>8.42</ele>
        <time>2021-03-20T16:31:07Z</time>
      </trkpt>
      <trkpt lat="56.51398" lon="-5.80656">
        <ele>7.03</ele>
        <time>2021-03-20T16:31:48Z</time>
      </trkpt>
      <trkpt lat="56.51397" lon="-5.80614">
        <ele>7.14</ele>
        <time>2021-03-20T16:32:29Z</time>
      </trkpt>
      <trkpt lat="56.51393" lon="-5.80585">
        <ele>6.68</ele>
        <time>2021-03-20T16:33:10Z</time>
      </trkpt>
      <trkpt lat="56.51347" lon="-5.80415">
        <ele>8.56</ele>
        <time>2021-03-20T16:33:51Z</time>
      </trkpt>
      <trkpt lat="56.51326" lon="-5.80319">
        <ele>11</ele>
        <time>2021-03-20T16:34:32Z</time>
      </trkpt>
      <trkpt lat="56.51311" lon="-5.80275">
        <ele>11.8</ele>
        <time>2021-03-20T16:35:13Z</time>
      </trkpt>
      <trkpt lat="56.51295" lon="-5.80244">
        <ele>12.95</ele>
        <time>2021-03-20T16:35:54Z</time>
      </trkpt>
      <trkpt lat="56.51282" lon="-5.80224">
        <ele>14.65</ele>
        <time>2021-03-20T16:36:35Z</time>
      </trkpt>
      <trkpt lat="56.51272" lon="-5.80213">
        <ele>15.46</ele>
        <time>2021-03-20T16:37:16Z</time>
      </trkpt>
      <trkpt lat="56.51251" lon="-5.80197">
        <ele>16</ele>
        <time>2021-03-20T16:37:57Z</time>
      </trkpt>
      <trkpt lat="56.51229" lon="-5.80186">
        <ele>17.86</ele>
        <time>2021-03-20T16:38:38Z</time>
      </trkpt>
      <trkpt lat="56.51086" lon="-5.80159">
        <ele>29.79</ele>
        <time>2021-03-20T16:39:19Z</time>
      </trkpt>
      <trkpt lat="56.51011" lon="-5.80167">
        <ele>30.42</ele>
        <time>2021-03-20T16:40:00Z</time>
      </trkpt>
      <trkpt lat="56.50927" lon="-5.80195">
        <ele>29.38</ele>
        <time>2021-03-20T16:40:41Z</time>
      </trkpt>
      <trkpt lat="56.5076" lon="-5.80277">
        <ele>28.65</ele>
        <time>2021-03-20T16:41:22Z</time>
      </trkpt>
      <trkpt lat="56.50574" lon="-5.80339">
        <ele>36.01</ele>
        <time>2021-03-20T16:42:03Z</time>
      </trkpt>
      <trkpt lat="56.50591" lon="-5.80545">
        <ele>33.44</ele>
        <time>2021-03-20T16:42:12Z</time>
      </trkpt>
      <trkpt lat="56.50586" lon="-5.80731">
        <ele>33.42</ele>
        <time>2021-03-20T16:42:21Z</time>
      </trkpt>
      <trkpt lat="56.50505" lon="-5.81539">
        <ele>15.07</ele>
        <time>2021-03-20T16:42:30Z</time>
      </trkpt>
      <trkpt lat="56.50502" lon="-5.8159">
        <ele>16.66</ele>
        <time>2021-03-20T16:42:39Z</time>
      </trkpt>
      <trkpt lat="56.50502" lon="-5.8159">
        <ele>16.66</ele>
        <time>2021-03-20T16:42:39Z</time>
      </trkpt>
      <trkpt lat="56.50493" lon="-5.81784">
        <ele>18.25</ele>
        <time>2021-03-20T16:42:46Z</time>
      </trkpt>
      <trkpt lat="56.505" lon="-5.81971">
        <ele>17.02</ele>
        <time>2021-03-20T16:42:54Z</time>
      </trkpt>
      <trkpt lat="56.50521" lon="-5.82216">
        <ele>13.63</ele>
        <time>2021-03-20T16:43:02Z</time>
      </trkpt>
      <trkpt lat="56.50571" lon="-5.82459">
        <ele>7.07</ele>
        <time>2021-03-20T16:43:10Z</time>
      </trkpt>
      <trkpt lat="56.5066" lon="-5.82781">
        <ele>8.17</ele>
        <time>2021-03-20T16:43:18Z</time>
      </trkpt>
      <trkpt lat="56.50689" lon="-5.82923">
        <ele>9</ele>
        <time>2021-03-20T16:43:25Z</time>
      </trkpt>
      <trkpt lat="56.50741" lon="-5.83206">
        <ele>7.95</ele>
        <time>2021-03-20T16:43:33Z</time>
      </trkpt>
      <trkpt lat="56.50781" lon="-5.83389">
        <ele>4.9</ele>
        <time>2021-03-20T16:43:41Z</time>
      </trkpt>
      <trkpt lat="56.50891" lon="-5.83781">
        <ele>1.11</ele>
        <time>2021-03-20T16:43:49Z</time>
      </trkpt>
      <trkpt lat="56.50935" lon="-5.83875">
        <ele>3.5</ele>
        <time>2021-03-20T16:43:57Z</time>
      </trkpt>
      <trkpt lat="56.50998" lon="-5.83961">
        <ele>8.87</ele>
        <time>2021-03-20T16:44:04Z</time>
      </trkpt>
      <trkpt lat="56.51069" lon="-5.84017">
        <ele>10.84</ele>
        <time>2021-03-20T16:44:12Z</time>
      </trkpt>
      <trkpt lat="56.51232" lon="-5.84058">
        <ele>10.59</ele>
        <time>2021-03-20T16:44:20Z</time>
      </trkpt>
      <trkpt lat="56.51329" lon="-5.84112">
        <ele>10.46</ele>
        <time>2021-03-20T16:44:28Z</time>
      </trkpt>
      <trkpt lat="56.51404" lon="-5.842">
        <ele>8.68</ele>
        <time>2021-03-20T16:44:35Z</time>
      </trkpt>
      <trkpt lat="56.51485" lon="-5.84356">
        <ele>11.59</ele>
        <time>2021-03-20T16:44:43Z</time>
      </trkpt>
      <trkpt lat="56.51595" lon="-5.84605">
        <ele>11.29</ele>
        <time>2021-03-20T16:44:51Z</time>
      </trkpt>
      <trkpt lat="56.51947" lon="-5.85169">
        <ele>7.89</ele>
        <time>2021-03-20T16:44:59Z</time>
      </trkpt>
      <trkpt lat="56.51994" lon="-5.85277">
        <ele>6.65</ele>
        <time>2021-03-20T16:45:07Z</time>
      </trkpt>
      <trkpt lat="56.52019" lon="-5.85381">
        <ele>7.76</ele>
        <time>2021-03-20T16:45:14Z</time>
      </trkpt>
      <trkpt lat="56.52033" lon="-5.85493">
        <ele>8.72</ele>
        <time>2021-03-20T16:45:22Z</time>
      </trkpt>
      <trkpt lat="56.52035" lon="-5.8561">
        <ele>7.65</ele>
        <time>2021-03-20T16:45:30Z</time>
      </trkpt>
      <trkpt lat="56.52025" lon="-5.85859">
        <ele>5.35</ele>
        <time>2021-03-20T16:45:38Z</time>
      </trkpt>
      <trkpt lat="56.52028" lon="-5.85954">
        <ele>6.34</ele>
        <time>2021-03-20T16:45:46Z</time>
      </trkpt>
      <trkpt lat="56.5204" lon="-5.86066">
        <ele>6.91</ele>
        <time>2021-03-20T16:45:53Z</time>
      </trkpt>
      <trkpt lat="56.52065" lon="-5.86239">
        <ele>4.83</ele>
        <time>2021-03-20T16:46:01Z</time>
      </trkpt>
      <trkpt lat="56.52073" lon="-5.8637">
        <ele>6.14</ele>
        <time>2021-03-20T16:46:09Z</time>
      </trkpt>
      <trkpt lat="56.52069" lon="-5.86516">
        <ele>7.33</ele>
        <time>2021-03-20T16:46:17Z</time>
      </trkpt>
      <trkpt lat="56.52014" lon="-5.87233">
        <ele>8.37</ele>
        <time>2021-03-20T16:46:24Z</time>
      </trkpt>
      <trkpt lat="56.52007" lon="-5.87533">
        <ele>5.99</ele>
        <time>2021-03-20T16:46:32Z</time>
      </trkpt>
      <trkpt lat="56.5204" lon="-5.8792">
        <ele>15.95</ele>
        <time>2021-03-20T16:46:40Z</time>
      </trkpt>
      <trkpt lat="56.52044" lon="-5.8804">
        <ele>7.02</ele>
        <time>2021-03-20T16:46:48Z</time>
      </trkpt>
      <trkpt lat="56.52099" lon="-5.88724">
        <ele>5.18</ele>
        <time>2021-03-20T16:46:56Z</time>
      </trkpt>
      <trkpt lat="56.52101" lon="-5.88823">
        <ele>3.82</ele>
        <time>2021-03-20T16:47:03Z</time>
      </trkpt>
      <trkpt lat="56.52099" lon="-5.88932">
        <ele>4.12</ele>
        <time>2021-03-20T16:47:11Z</time>
      </trkpt>
      <trkpt lat="56.52092" lon="-5.89019">
        <ele>5.7</ele>
        <time>2021-03-20T16:47:19Z</time>
      </trkpt>
      <trkpt lat="56.52078" lon="-5.89127">
        <ele>6.44</ele>
        <time>2021-03-20T16:47:27Z</time>
      </trkpt>
      <trkpt lat="56.52037" lon="-5.89304">
        <ele>7.39</ele>
        <time>2021-03-20T16:47:35Z</time>
      </trkpt>
      <trkpt lat="56.51705" lon="-5.90491">
        <ele>11.63</ele>
        <time>2021-03-20T16:47:42Z</time>
      </trkpt>
      <trkpt lat="56.51637" lon="-5.90699">
        <ele>12.98</ele>
        <time>2021-03-20T16:47:50Z</time>
      </trkpt>
      <trkpt lat="56.51544" lon="-5.90946">
        <ele>13.44</ele>
        <time>2021-03-20T16:47:58Z</time>
      </trkpt>
      <trkpt lat="56.51523" lon="-5.91">
        <ele>15.36</ele>
        <time>2021-03-20T16:48:06Z</time>
      </trkpt>
      <trkpt lat="56.51504" lon="-5.9108">
        <ele>17.01</ele>
        <time>2021-03-20T16:48:13Z</time>
      </trkpt>
      <trkpt lat="56.51495" lon="-5.91142">
        <ele>17.56</ele>
        <time>2021-03-20T16:48:21Z</time>
      </trkpt>
      <trkpt lat="56.51482" lon="-5.91335">
        <ele>16.33</ele>
        <time>2021-03-20T16:48:29Z</time>
      </trkpt>
      <trkpt lat="56.51461" lon="-5.91567">
        <ele>14.83</ele>
        <time>2021-03-20T16:48:37Z</time>
      </trkpt>
      <trkpt lat="56.51412" lon="-5.92175">
        <ele>12.05</ele>
        <time>2021-03-20T16:48:45Z</time>
      </trkpt>
      <trkpt lat="56.51417" lon="-5.92526">
        <ele>14.98</ele>
        <time>2021-03-20T16:48:52Z</time>
      </trkpt>
      <trkpt lat="56.51451" lon="-5.92804">
        <ele>19.52</ele>
        <time>2021-03-20T16:49:00Z</time>
      </trkpt>
      <trkpt lat="56.51481" lon="-5.92989">
        <ele>16.49</ele>
        <time>2021-03-20T16:49:08Z</time>
      </trkpt>
      <trkpt lat="56.51512" lon="-5.93149">
        <ele>15.29</ele>
        <time>2021-03-20T16:49:16Z</time>
      </trkpt>
      <trkpt lat="56.5159" lon="-5.93405">
        <ele>12.91</ele>
        <time>2021-03-20T16:49:24Z</time>
      </trkpt>
      <trkpt lat="56.51636" lon="-5.93575">
        <ele>13.37</ele>
        <time>2021-03-20T16:49:31Z</time>
      </trkpt>
      <trkpt lat="56.51667" lon="-5.93734">
        <ele>12.39</ele>
        <time>2021-03-20T16:49:39Z</time>
      </trkpt>
      <trkpt lat="56.51698" lon="-5.93943">
        <ele>11.06</ele>
        <time>2021-03-20T16:49:47Z</time>
      </trkpt>
      <trkpt lat="56.51713" lon="-5.94128">
        <ele>9</ele>
        <time>2021-03-20T16:49:55Z</time>
      </trkpt>
      <trkpt lat="56.51721" lon="-5.94318">
        <ele>11</ele>
        <time>2021-03-20T16:50:02Z</time>
      </trkpt>
      <trkpt lat="56.5171" lon="-5.94603">
        <ele>11.72</ele>
        <time>2021-03-20T16:50:10Z</time>
      </trkpt>
      <trkpt lat="56.51709" lon="-5.94678">
        <ele>12.59</ele>
        <time>2021-03-20T16:50:18Z</time>
      </trkpt>
      <trkpt lat="56.51713" lon="-5.94766">
        <ele>9.63</ele>
        <time>2021-03-20T16:50:26Z</time>
      </trkpt>
      <trkpt lat="56.51719" lon="-5.94817">
        <ele>8.13</ele>
        <time>2021-03-20T16:50:34Z</time>
      </trkpt>
      <trkpt lat="56.51698" lon="-5.94832">
        <ele>8.88</ele>
        <time>2021-03-20T16:50:38Z</time>
      </trkpt>
      <trkpt lat="56.51676" lon="-5.94827">
        <ele>9.67</ele>
        <time>2021-03-20T16:50:41Z</time>
      </trkpt>
      <trkpt lat="56.51546" lon="-5.94734">
        <ele>12</ele>
        <time>2021-03-20T16:50:45Z</time>
      </trkpt>
      <trkpt lat="56.51499" lon="-5.94707">
        <ele>11.05</ele>
        <time>2021-03-20T16:50:49Z</time>
      </trkpt>
      <trkpt lat="56.51441" lon="-5.9469">
        <ele>13.16</ele>
        <time>2021-03-20T16:50:53Z</time>
      </trkpt>
      <trkpt lat="56.51378" lon="-5.94677">
        <ele>12.63</ele>
        <time>2021-03-20T16:50:57Z</time>
      </trkpt>
      <trkpt lat="56.51352" lon="-5.94674">
        <ele>12.75</ele>
        <time>2021-03-20T16:51:01Z</time>
      </trkpt>
      <trkpt lat="56.51343" lon="-5.94676">
        <ele>12.66</ele>
        <time>2021-03-20T16:51:05Z</time>
      </trkpt>
      <trkpt lat="56.51304" lon="-5.94703">
        <ele>13.06</ele>
        <time>2021-03-20T16:51:08Z</time>
      </trkpt>
      <trkpt lat="56.51169" lon="-5.9481">
        <ele>12</ele>
        <time>2021-03-20T16:51:12Z</time>
      </trkpt>
      <trkpt lat="56.51036" lon="-5.9491">
        <ele>14.64</ele>
        <time>2021-03-20T16:51:16Z</time>
      </trkpt>
      <trkpt lat="56.51021" lon="-5.9493">
        <ele>15.25</ele>
        <time>2021-03-20T16:51:20Z</time>
      </trkpt>
      <trkpt lat="56.51001" lon="-5.95026">
        <ele>20.77</ele>
        <time>2021-03-20T16:51:24Z</time>
      </trkpt>
      <trkpt lat="56.50991" lon="-5.95097">
        <ele>23.32</ele>
        <time>2021-03-20T16:51:28Z</time>
      </trkpt>
      <trkpt lat="56.50993" lon="-5.95151">
        <ele>24.61</ele>
        <time>2021-03-20T16:51:32Z</time>
      </trkpt>
      <trkpt lat="56.51002" lon="-5.95184">
        <ele>26.27</ele>
        <time>2021-03-20T16:51:36Z</time>
      </trkpt>
      <trkpt lat="56.5107" lon="-5.95333">
        <ele>32.01</ele>
        <time>2021-03-20T16:51:39Z</time>
      </trkpt>
      <trkpt lat="56.51081" lon="-5.95363">
        <ele>33.1</ele>
        <time>2021-03-20T16:51:43Z</time>
      </trkpt>
      <trkpt lat="56.51085" lon="-5.95399">
        <ele>32.96</ele>
        <time>2021-03-20T16:51:47Z</time>
      </trkpt>
      <trkpt lat="56.51084" lon="-5.95428">
        <ele>33</ele>
        <time>2021-03-20T16:51:51Z</time>
      </trkpt>
      <trkpt lat="56.51078" lon="-5.95453">
        <ele>34.19</ele>
        <time>2021-03-20T16:51:55Z</time>
      </trkpt>
      <trkpt lat="56.51006" lon="-5.95664">
        <ele>42.9</ele>
        <time>2021-03-20T16:51:59Z</time>
      </trkpt>
      <trkpt lat="56.50973" lon="-5.95731">
        <ele>44.85</ele>
        <time>2021-03-20T16:52:03Z</time>
      </trkpt>
      <trkpt lat="56.50923" lon="-5.95826">
        <ele>41.12</ele>
        <time>2021-03-20T16:52:06Z</time>
      </trkpt>
      <trkpt lat="56.50896" lon="-5.95861">
        <ele>39.77</ele>
        <time>2021-03-20T16:52:10Z</time>
      </trkpt>
      <trkpt lat="56.50842" lon="-5.95918">
        <ele>41.4</ele>
        <time>2021-03-20T16:52:14Z</time>
      </trkpt>
      <trkpt lat="56.5082" lon="-5.95943">
        <ele>42.94</ele>
        <time>2021-03-20T16:52:18Z</time>
      </trkpt>
      <trkpt lat="56.50806" lon="-5.95975">
        <ele>42.84</ele>
        <time>2021-03-20T16:52:22Z</time>
      </trkpt>
      <trkpt lat="56.50797" lon="-5.9602">
        <ele>41.06</ele>
        <time>2021-03-20T16:52:26Z</time>
      </trkpt>
      <trkpt lat="56.5078" lon="-5.96146">
        <ele>35.67</ele>
        <time>2021-03-20T16:52:30Z</time>
      </trkpt>
      <trkpt lat="56.50769" lon="-5.96192">
        <ele>33.76</ele>
        <time>2021-03-20T16:52:34Z</time>
      </trkpt>
      <trkpt lat="56.50591" lon="-5.96676">
        <ele>22</ele>
        <time>2021-03-20T16:52:37Z</time>
      </trkpt>
      <trkpt lat="56.50572" lon="-5.96722">
        <ele>22.42</ele>
        <time>2021-03-20T16:52:41Z</time>
      </trkpt>
      <trkpt lat="56.50551" lon="-5.9676">
        <ele>23</ele>
        <time>2021-03-20T16:52:45Z</time>
      </trkpt>
      <trkpt lat="56.49825" lon="-5.977">
        <ele>20.71</ele>
        <time>2021-03-20T16:52:49Z</time>
      </trkpt>
      <trkpt lat="56.49792" lon="-5.97746">
        <ele>19.1</ele>
        <time>2021-03-20T16:52:53Z</time>
      </trkpt>
      <trkpt lat="56.49764" lon="-5.97802">
        <ele>16.59</ele>
        <time>2021-03-20T16:52:57Z</time>
      </trkpt>
      <trkpt lat="56.49729" lon="-5.97903">
        <ele>16.12</ele>
        <time>2021-03-20T16:53:01Z</time>
      </trkpt>
      <trkpt lat="56.49645" lon="-5.98199">
        <ele>12.44</ele>
        <time>2021-03-20T16:53:04Z</time>
      </trkpt>
      <trkpt lat="56.49406" lon="-5.98736">
        <ele>10.49</ele>
        <time>2021-03-20T16:53:08Z</time>
      </trkpt>
      <trkpt lat="56.49382" lon="-5.98758">
        <ele>10</ele>
        <time>2021-03-20T16:53:12Z</time>
      </trkpt>
      <trkpt lat="56.49306" lon="-5.98815">
        <ele>10.95</ele>
        <time>2021-03-20T16:53:16Z</time>
      </trkpt>
      <trkpt lat="56.49198" lon="-5.98884">
        <ele>12.08</ele>
        <time>2021-03-20T16:53:20Z</time>
      </trkpt>
      <trkpt lat="56.49074" lon="-5.98932">
        <ele>12</ele>
        <time>2021-03-20T16:53:24Z</time>
      </trkpt>
      <trkpt lat="56.49067" lon="-5.98933">
        <ele>12</ele>
        <time>2021-03-20T16:53:28Z</time>
      </trkpt>
      <trkpt lat="56.49038" lon="-5.98945">
        <ele>12.63</ele>
        <time>2021-03-20T16:53:31Z</time>
      </trkpt>
      <trkpt lat="56.48859" lon="-5.99005">
        <ele>13.75</ele>
        <time>2021-03-20T16:53:35Z</time>
      </trkpt>
      <trkpt lat="56.48795" lon="-5.99025">
        <ele>12.96</ele>
        <time>2021-03-20T16:53:39Z</time>
      </trkpt>
      <trkpt lat="56.48621" lon="-5.99051">
        <ele>12.3</ele>
        <time>2021-03-20T16:53:43Z</time>
      </trkpt>
      <trkpt lat="56.48563" lon="-5.99051">
        <ele>12.74</ele>
        <time>2021-03-20T16:53:47Z</time>
      </trkpt>
      <trkpt lat="56.48504" lon="-5.99043">
        <ele>15.69</ele>
        <time>2021-03-20T16:53:51Z</time>
      </trkpt>
      <trkpt lat="56.48383" lon="-5.99">
        <ele>12.33</ele>
        <time>2021-03-20T16:53:55Z</time>
      </trkpt>
      <trkpt lat="56.48147" lon="-5.98908">
        <ele>12.64</ele>
        <time>2021-03-20T16:53:59Z</time>
      </trkpt>
      <trkpt lat="56.48016" lon="-5.98889">
        <ele>14.59</ele>
        <time>2021-03-20T16:54:02Z</time>
      </trkpt>
      <trkpt lat="56.47976" lon="-5.98875">
        <ele>13.22</ele>
        <time>2021-03-20T16:54:06Z</time>
      </trkpt>
      <trkpt lat="56.47923" lon="-5.98814">
        <ele>13.92</ele>
        <time>2021-03-20T16:54:10Z</time>
      </trkpt>
      <trkpt lat="56.47909" lon="-5.98785">
        <ele>14.46</ele>
        <time>2021-03-20T16:54:14Z</time>
      </trkpt>
      <trkpt lat="56.47897" lon="-5.98751">
        <ele>15.28</ele>
        <time>2021-03-20T16:54:18Z</time>
      </trkpt>
      <trkpt lat="56.47882" lon="-5.98693">
        <ele>15.79</ele>
        <time>2021-03-20T16:54:22Z</time>
      </trkpt>
      <trkpt lat="56.47876" lon="-5.98678">
        <ele>15.86</ele>
        <time>2021-03-20T16:54:26Z</time>
      </trkpt>
      <trkpt lat="56.47861" lon="-5.98672">
        <ele>15.03</ele>
        <time>2021-03-20T16:54:29Z</time>
      </trkpt>
      <trkpt lat="56.47824" lon="-5.98663">
        <ele>16.62</ele>
        <time>2021-03-20T16:54:33Z</time>
      </trkpt>
      <trkpt lat="56.4781" lon="-5.98671">
        <ele>17.73</ele>
        <time>2021-03-20T16:54:37Z</time>
      </trkpt>
      <trkpt lat="56.47794" lon="-5.98694">
        <ele>18.01</ele>
        <time>2021-03-20T16:54:41Z</time>
      </trkpt>
      <trkpt lat="56.47757" lon="-5.98708">
        <ele>18</ele>
        <time>2021-03-20T16:54:45Z</time>
      </trkpt>
      <trkpt lat="56.47729" lon="-5.9871">
        <ele>18.76</ele>
        <time>2021-03-20T16:54:49Z</time>
      </trkpt>
      <trkpt lat="56.47725" lon="-5.98715">
        <ele>18.9</ele>
        <time>2021-03-20T16:54:53Z</time>
      </trkpt>
      <trkpt lat="56.47724" lon="-5.98743">
        <ele>19.58</ele>
        <time>2021-03-20T16:54:57Z</time>
      </trkpt>
      <trkpt lat="56.47777" lon="-5.98967">
        <ele>27.52</ele>
        <time>2021-03-20T16:55:00Z</time>
      </trkpt>
      <trkpt lat="56.47804" lon="-5.99047">
        <ele>29.65</ele>
        <time>2021-03-20T16:55:04Z</time>
      </trkpt>
      <trkpt lat="56.47816" lon="-5.99066">
        <ele>29.3</ele>
        <time>2021-03-20T16:55:08Z</time>
      </trkpt>
      <trkpt lat="56.47864" lon="-5.99187">
        <ele>30.87</ele>
        <time>2021-03-20T16:55:12Z</time>
      </trkpt>
      <trkpt lat="56.47874" lon="-5.99217">
        <ele>29.07</ele>
        <time>2021-03-20T16:55:16Z</time>
      </trkpt>
      <trkpt lat="56.47879" lon="-5.99252">
        <ele>25.99</ele>
        <time>2021-03-20T16:55:20Z</time>
      </trkpt>
      <trkpt lat="56.47888" lon="-5.99384">
        <ele>20.12</ele>
        <time>2021-03-20T16:55:24Z</time>
      </trkpt>
      <trkpt lat="56.47887" lon="-5.9949">
        <ele>19.09</ele>
        <time>2021-03-20T16:55:27Z</time>
      </trkpt>
      <trkpt lat="56.47866" lon="-5.9978">
        <ele>11.66</ele>
        <time>2021-03-20T16:55:31Z</time>
      </trkpt>
      <trkpt lat="56.4786" lon="-5.99815">
        <ele>12.1</ele>
        <time>2021-03-20T16:55:35Z</time>
      </trkpt>
      <trkpt lat="56.47855" lon="-5.99832">
        <ele>12.48</ele>
        <time>2021-03-20T16:55:39Z</time>
      </trkpt>
      <trkpt lat="56.47804" lon="-5.99961">
        <ele>10.93</ele>
        <time>2021-03-20T16:55:43Z</time>
      </trkpt>
      <trkpt lat="56.47789" lon="-6.0001">
        <ele>9.94</ele>
        <time>2021-03-20T16:55:47Z</time>
      </trkpt>
      <trkpt lat="56.47789" lon="-6.0001">
        <ele>9.94</ele>
        <time>2021-03-20T16:55:47Z</time>
      </trkpt>
      <trkpt lat="56.4778" lon="-6.00051">
        <ele>8.99</ele>
        <time>2021-03-20T16:55:49Z</time>
      </trkpt>
      <trkpt lat="56.47775" lon="-6.00102">
        <ele>8.41</ele>
        <time>2021-03-20T16:55:52Z</time>
      </trkpt>
      <trkpt lat="56.47772" lon="-6.00151">
        <ele>7.96</ele>
        <time>2021-03-20T16:55:54Z</time>
      </trkpt>
      <trkpt lat="56.47772" lon="-6.00259">
        <ele>6.05</ele>
        <time>2021-03-20T16:55:57Z</time>
      </trkpt>
      <trkpt lat="56.4777" lon="-6.00297">
        <ele>6.21</ele>
        <time>2021-03-20T16:56:00Z</time>
      </trkpt>
      <trkpt lat="56.47751" lon="-6.00435">
        <ele>4.24</ele>
        <time>2021-03-20T16:56:02Z</time>
      </trkpt>
      <trkpt lat="56.4773" lon="-6.00616">
        <ele>3.71</ele>
        <time>2021-03-20T16:56:05Z</time>
      </trkpt>
      <trkpt lat="56.47725" lon="-6.00695">
        <ele>4</ele>
        <time>2021-03-20T16:56:07Z</time>
      </trkpt>
      <trkpt lat="56.47719" lon="-6.00734">
        <ele>4.21</ele>
        <time>2021-03-20T16:56:10Z</time>
      </trkpt>
      <trkpt lat="56.47708" lon="-6.00781">
        <ele>4.91</ele>
        <time>2021-03-20T16:56:12Z</time>
      </trkpt>
      <trkpt lat="56.47695" lon="-6.00824">
        <ele>4.31</ele>
        <time>2021-03-20T16:56:15Z</time>
      </trkpt>
      <trkpt lat="56.47683" lon="-6.00849">
        <ele>3.87</ele>
        <time>2021-03-20T16:56:17Z</time>
      </trkpt>
      <trkpt lat="56.47665" lon="-6.00864">
        <ele>4.1</ele>
        <time>2021-03-20T16:56:20Z</time>
      </trkpt>
      <trkpt lat="56.47534" lon="-6.00922">
        <ele>4.8</ele>
        <time>2021-03-20T16:56:22Z</time>
      </trkpt>
      <trkpt lat="56.47462" lon="-6.00957">
        <ele>5.66</ele>
        <time>2021-03-20T16:56:25Z</time>
      </trkpt>
      <trkpt lat="56.47446" lon="-6.0097">
        <ele>5.2</ele>
        <time>2021-03-20T16:56:27Z</time>
      </trkpt>
      <trkpt lat="56.47399" lon="-6.01015">
        <ele>6.86</ele>
        <time>2021-03-20T16:56:30Z</time>
      </trkpt>
      <trkpt lat="56.47392" lon="-6.01025">
        <ele>6.9</ele>
        <time>2021-03-20T16:56:32Z</time>
      </trkpt>
      <trkpt lat="56.47386" lon="-6.01038">
        <ele>6.68</ele>
        <time>2021-03-20T16:56:35Z</time>
      </trkpt>
      <trkpt lat="56.47352" lon="-6.01134">
        <ele>5.25</ele>
        <time>2021-03-20T16:56:37Z</time>
      </trkpt>
      <trkpt lat="56.47343" lon="-6.01152">
        <ele>5.45</ele>
        <time>2021-03-20T16:56:40Z</time>
      </trkpt>
      <trkpt lat="56.47333" lon="-6.01168">
        <ele>5.93</ele>
        <time>2021-03-20T16:56:43Z</time>
      </trkpt>
      <trkpt lat="56.4732" lon="-6.01185">
        <ele>5.62</ele>
        <time>2021-03-20T16:56:45Z</time>
      </trkpt>
      <trkpt lat="56.47289" lon="-6.01216">
        <ele>5.64</ele>
        <time>2021-03-20T16:56:48Z</time>
      </trkpt>
      <trkpt lat="56.47227" lon="-6.01266">
        <ele>5.64</ele>
        <time>2021-03-20T16:56:50Z</time>
      </trkpt>
      <trkpt lat="56.47204" lon="-6.01281">
        <ele>6.14</ele>
        <time>2021-03-20T16:56:53Z</time>
      </trkpt>
      <trkpt lat="56.47188" lon="-6.01294">
        <ele>6.78</ele>
        <time>2021-03-20T16:56:55Z</time>
      </trkpt>
      <trkpt lat="56.47176" lon="-6.01313">
        <ele>7.43</ele>
        <time>2021-03-20T16:56:58Z</time>
      </trkpt>
      <trkpt lat="56.47167" lon="-6.01336">
        <ele>7.9</ele>
        <time>2021-03-20T16:57:00Z</time>
      </trkpt>
      <trkpt lat="56.47157" lon="-6.01375">
        <ele>7.03</ele>
        <time>2021-03-20T16:57:03Z</time>
      </trkpt>
      <trkpt lat="56.47153" lon="-6.01387">
        <ele>6.61</ele>
        <time>2021-03-20T16:57:05Z</time>
      </trkpt>
      <trkpt lat="56.47148" lon="-6.01395">
        <ele>7.49</ele>
        <time>2021-03-20T16:57:08Z</time>
      </trkpt>
      <trkpt lat="56.47124" lon="-6.01409">
        <ele>8.63</ele>
        <time>2021-03-20T16:57:10Z</time>
      </trkpt>
      <trkpt lat="56.4711" lon="-6.0142">
        <ele>5.81</ele>
        <time>2021-03-20T16:57:13Z</time>
      </trkpt>
      <trkpt lat="56.4708" lon="-6.01456">
        <ele>4.71</ele>
        <time>2021-03-20T16:57:15Z</time>
      </trkpt>
      <trkpt lat="56.47039" lon="-6.01514">
        <ele>4.64</ele>
        <time>2021-03-20T16:57:18Z</time>
      </trkpt>
      <trkpt lat="56.47015" lon="-6.01557">
        <ele>4.25</ele>
        <time>2021-03-20T16:57:21Z</time>
      </trkpt>
      <trkpt lat="56.47004" lon="-6.01575">
        <ele>4.29</ele>
        <time>2021-03-20T16:57:23Z</time>
      </trkpt>
      <trkpt lat="56.46974" lon="-6.01614">
        <ele>4.63</ele>
        <time>2021-03-20T16:57:26Z</time>
      </trkpt>
      <trkpt lat="56.46949" lon="-6.01634">
        <ele>6.97</ele>
        <time>2021-03-20T16:57:28Z</time>
      </trkpt>
      <trkpt lat="56.46903" lon="-6.01662">
        <ele>8.1</ele>
        <time>2021-03-20T16:57:31Z</time>
      </trkpt>
      <trkpt lat="56.46799" lon="-6.01717">
        <ele>7.02</ele>
        <time>2021-03-20T16:57:33Z</time>
      </trkpt>
      <trkpt lat="56.46787" lon="-6.01727">
        <ele>7.82</ele>
        <time>2021-03-20T16:57:36Z</time>
      </trkpt>
      <trkpt lat="56.46778" lon="-6.01742">
        <ele>7.84</ele>
        <time>2021-03-20T16:57:38Z</time>
      </trkpt>
      <trkpt lat="56.4676" lon="-6.01789">
        <ele>7.22</ele>
        <time>2021-03-20T16:57:41Z</time>
      </trkpt>
      <trkpt lat="56.46753" lon="-6.01817">
        <ele>5.94</ele>
        <time>2021-03-20T16:57:43Z</time>
      </trkpt>
      <trkpt lat="56.4674" lon="-6.01876">
        <ele>5.39</ele>
        <time>2021-03-20T16:57:46Z</time>
      </trkpt>
      <trkpt lat="56.46733" lon="-6.01902">
        <ele>5.11</ele>
        <time>2021-03-20T16:57:48Z</time>
      </trkpt>
      <trkpt lat="56.46682" lon="-6.02032">
        <ele>6.14</ele>
        <time>2021-03-20T16:57:51Z</time>
      </trkpt>
      <trkpt lat="56.46675" lon="-6.02053">
        <ele>6.82</ele>
        <time>2021-03-20T16:57:53Z</time>
      </trkpt>
      <trkpt lat="56.4667" lon="-6.02077">
        <ele>6.76</ele>
        <time>2021-03-20T16:57:56Z</time>
      </trkpt>
      <trkpt lat="56.46665" lon="-6.02278">
        <ele>4.29</ele>
        <time>2021-03-20T16:57:58Z</time>
      </trkpt>
      <trkpt lat="56.46649" lon="-6.02413">
        <ele>3.66</ele>
        <time>2021-03-20T16:58:01Z</time>
      </trkpt>
      <trkpt lat="56.46646" lon="-6.02449">
        <ele>3.73</ele>
        <time>2021-03-20T16:58:04Z</time>
      </trkpt>
      <trkpt lat="56.46633" lon="-6.02719">
        <ele>4.2</ele>
        <time>2021-03-20T16:58:06Z</time>
      </trkpt>
      <trkpt lat="56.46629" lon="-6.02752">
        <ele>3.71</ele>
        <time>2021-03-20T16:58:09Z</time>
      </trkpt>
      <trkpt lat="56.46623" lon="-6.02781">
        <ele>4.05</ele>
        <time>2021-03-20T16:58:11Z</time>
      </trkpt>
      <trkpt lat="56.46562" lon="-6.02976">
        <ele>3</ele>
        <time>2021-03-20T16:58:14Z</time>
      </trkpt>
      <trkpt lat="56.46549" lon="-6.03041">
        <ele>3.67</ele>
        <time>2021-03-20T16:58:16Z</time>
      </trkpt>
      <trkpt lat="56.46545" lon="-6.03057">
        <ele>4.22</ele>
        <time>2021-03-20T16:58:19Z</time>
      </trkpt>
      <trkpt lat="56.46502" lon="-6.03133">
        <ele>6.13</ele>
        <time>2021-03-20T16:58:21Z</time>
      </trkpt>
      <trkpt lat="56.46489" lon="-6.03149">
        <ele>5.86</ele>
        <time>2021-03-20T16:58:24Z</time>
      </trkpt>
      <trkpt lat="56.46476" lon="-6.03161">
        <ele>5.3</ele>
        <time>2021-03-20T16:58:26Z</time>
      </trkpt>
      <trkpt lat="56.46401" lon="-6.03213">
        <ele>4.57</ele>
        <time>2021-03-20T16:58:29Z</time>
      </trkpt>
      <trkpt lat="56.46387" lon="-6.03226">
        <ele>4.87</ele>
        <time>2021-03-20T16:58:31Z</time>
      </trkpt>
      <trkpt lat="56.46359" lon="-6.03284">
        <ele>5</ele>
        <time>2021-03-20T16:58:34Z</time>
      </trkpt>
      <trkpt lat="56.46331" lon="-6.03349">
        <ele>4.45</ele>
        <time>2021-03-20T16:58:36Z</time>
      </trkpt>
      <trkpt lat="56.4632" lon="-6.03378">
        <ele>4</ele>
        <time>2021-03-20T16:58:39Z</time>
      </trkpt>
      <trkpt lat="56.46304" lon="-6.03434">
        <ele>4.07</ele>
        <time>2021-03-20T16:58:41Z</time>
      </trkpt>
      <trkpt lat="56.46298" lon="-6.03469">
        <ele>4.5</ele>
        <time>2021-03-20T16:58:44Z</time>
      </trkpt>
      <trkpt lat="56.46288" lon="-6.03562">
        <ele>6.33</ele>
        <time>2021-03-20T16:58:47Z</time>
      </trkpt>
      <trkpt lat="56.46284" lon="-6.03591">
        <ele>6.77</ele>
        <time>2021-03-20T16:58:49Z</time>
      </trkpt>
      <trkpt lat="56.46236" lon="-6.03809">
        <ele>8.51</ele>
        <time>2021-03-20T16:58:52Z</time>
      </trkpt>
      <trkpt lat="56.46198" lon="-6.03952">
        <ele>8.82</ele>
        <time>2021-03-20T16:58:54Z</time>
      </trkpt>
      <trkpt lat="56.46168" lon="-6.04047">
        <ele>9.93</ele>
        <time>2021-03-20T16:58:57Z</time>
      </trkpt>
      <trkpt lat="56.46135" lon="-6.04136">
        <ele>10.14</ele>
        <time>2021-03-20T16:58:59Z</time>
      </trkpt>
      <trkpt lat="56.46057" lon="-6.043">
        <ele>4.16</ele>
        <time>2021-03-20T16:59:02Z</time>
      </trkpt>
      <trkpt lat="56.45985" lon="-6.04423">
        <ele>5.87</ele>
        <time>2021-03-20T16:59:04Z</time>
      </trkpt>
      <trkpt lat="56.45934" lon="-6.04524">
        <ele>6.68</ele>
        <time>2021-03-20T16:59:07Z</time>
      </trkpt>
      <trkpt lat="56.45917" lon="-6.04548">
        <ele>6.25</ele>
        <time>2021-03-20T16:59:09Z</time>
      </trkpt>
      <trkpt lat="56.45886" lon="-6.04588">
        <ele>5.95</ele>
        <time>2021-03-20T16:59:12Z</time>
      </trkpt>
      <trkpt lat="56.4584" lon="-6.04638">
        <ele>5.57</ele>
        <time>2021-03-20T16:59:14Z</time>
      </trkpt>
      <trkpt lat="56.45823" lon="-6.04661">
        <ele>5.65</ele>
        <time>2021-03-20T16:59:17Z</time>
      </trkpt>
      <trkpt lat="56.45795" lon="-6.04707">
        <ele>3.91</ele>
        <time>2021-03-20T16:59:19Z</time>
      </trkpt>
      <trkpt lat="56.45764" lon="-6.04745">
        <ele>3.68</ele>
        <time>2021-03-20T16:59:22Z</time>
      </trkpt>
      <trkpt lat="56.45699" lon="-6.04816">
        <ele>4.38</ele>
        <time>2021-03-20T16:59:25Z</time>
      </trkpt>
      <trkpt lat="56.45666" lon="-6.04847">
        <ele>5.54</ele>
        <time>2021-03-20T16:59:27Z</time>
      </trkpt>
      <trkpt lat="56.45602" lon="-6.04901">
        <ele>3.76</ele>
        <time>2021-03-20T16:59:30Z</time>
      </trkpt>
      <trkpt lat="56.45563" lon="-6.04926">
        <ele>4.14</ele>
        <time>2021-03-20T16:59:32Z</time>
      </trkpt>
      <trkpt lat="56.45467" lon="-6.04958">
        <ele>5.16</ele>
        <time>2021-03-20T16:59:35Z</time>
      </trkpt>
      <trkpt lat="56.45446" lon="-6.04972">
        <ele>4.98</ele>
        <time>2021-03-20T16:59:37Z</time>
      </trkpt>
      <trkpt lat="56.45439" lon="-6.04979">
        <ele>5.11</ele>
        <time>2021-03-20T16:59:40Z</time>
      </trkpt>
      <trkpt lat="56.45433" lon="-6.04991">
        <ele>5.16</ele>
        <time>2021-03-20T16:59:42Z</time>
      </trkpt>
      <trkpt lat="56.4542" lon="-6.05023">
        <ele>4.84</ele>
        <time>2021-03-20T16:59:45Z</time>
      </trkpt>
      <trkpt lat="56.45377" lon="-6.05151">
        <ele>9.57</ele>
        <time>2021-03-20T16:59:47Z</time>
      </trkpt>
      <trkpt lat="56.45364" lon="-6.05176">
        <ele>8.35</ele>
        <time>2021-03-20T16:59:50Z</time>
      </trkpt>
      <trkpt lat="56.45313" lon="-6.05211">
        <ele>5.27</ele>
        <time>2021-03-20T16:59:52Z</time>
      </trkpt>
      <trkpt lat="56.45273" lon="-6.05245">
        <ele>5.03</ele>
        <time>2021-03-20T16:59:55Z</time>
      </trkpt>
      <trkpt lat="56.45261" lon="-6.0526">
        <ele>4.72</ele>
        <time>2021-03-20T16:59:57Z</time>
      </trkpt>
      <trkpt lat="56.45201" lon="-6.05348">
        <ele>5.46</ele>
        <time>2021-03-20T17:00:00Z</time>
      </trkpt>
      <trkpt lat="56.45137" lon="-6.05431">
        <ele>7.98</ele>
        <time>2021-03-20T17:00:02Z</time>
      </trkpt>
      <trkpt lat="56.45131" lon="-6.05445">
        <ele>8.65</ele>
        <time>2021-03-20T17:00:05Z</time>
      </trkpt>
      <trkpt lat="56.45125" lon="-6.05461">
        <ele>8.88</ele>
        <time>2021-03-20T17:00:08Z</time>
      </trkpt>
      <trkpt lat="56.45122" lon="-6.05488">
        <ele>7.72</ele>
        <time>2021-03-20T17:00:10Z</time>
      </trkpt>
      <trkpt lat="56.45117" lon="-6.0556">
        <ele>5.24</ele>
        <time>2021-03-20T17:00:13Z</time>
      </trkpt>
      <trkpt lat="56.45108" lon="-6.05628">
        <ele>4.28</ele>
        <time>2021-03-20T17:00:15Z</time>
      </trkpt>
      <trkpt lat="56.45104" lon="-6.05742">
        <ele>8.04</ele>
        <time>2021-03-20T17:00:18Z</time>
      </trkpt>
      <trkpt lat="56.45084" lon="-6.05854">
        <ele>5.5</ele>
        <time>2021-03-20T17:00:20Z</time>
      </trkpt>
      <trkpt lat="56.45045" lon="-6.06113">
        <ele>2.64</ele>
        <time>2021-03-20T17:00:23Z</time>
      </trkpt>
      <trkpt lat="56.45034" lon="-6.06168">
        <ele>3.63</ele>
        <time>2021-03-20T17:00:25Z</time>
      </trkpt>
      <trkpt lat="56.45026" lon="-6.06191">
        <ele>2.41</ele>
        <time>2021-03-20T17:00:28Z</time>
      </trkpt>
      <trkpt lat="56.45017" lon="-6.06213">
        <ele>3.64</ele>
        <time>2021-03-20T17:00:30Z</time>
      </trkpt>
      <trkpt lat="56.44991" lon="-6.06261">
        <ele>4.56</ele>
        <time>2021-03-20T17:00:33Z</time>
      </trkpt>
      <trkpt lat="56.44969" lon="-6.06313">
        <ele>5.11</ele>
        <time>2021-03-20T17:00:35Z</time>
      </trkpt>
      <trkpt lat="56.44947" lon="-6.06369">
        <ele>4.51</ele>
        <time>2021-03-20T17:00:38Z</time>
      </trkpt>
      <trkpt lat="56.44942" lon="-6.0639">
        <ele>4.58</ele>
        <time>2021-03-20T17:00:40Z</time>
      </trkpt>
      <trkpt lat="56.44938" lon="-6.06415">
        <ele>4.25</ele>
        <time>2021-03-20T17:00:43Z</time>
      </trkpt>
      <trkpt lat="56.44932" lon="-6.06496">
        <ele>3.37</ele>
        <time>2021-03-20T17:00:46Z</time>
      </trkpt>
      <trkpt lat="56.44917" lon="-6.06602">
        <ele>4.02</ele>
        <time>2021-03-20T17:00:48Z</time>
      </trkpt>
      <trkpt lat="56.44913" lon="-6.06643">
        <ele>7.61</ele>
        <time>2021-03-20T17:00:51Z</time>
      </trkpt>
      <trkpt lat="56.44908" lon="-6.06726">
        <ele>5.66</ele>
        <time>2021-03-20T17:00:53Z</time>
      </trkpt>
      <trkpt lat="56.44904" lon="-6.06766">
        <ele>4.76</ele>
        <time>2021-03-20T17:00:56Z</time>
      </trkpt>
      <trkpt lat="56.44885" lon="-6.06831">
        <ele>4.26</ele>
        <time>2021-03-20T17:00:58Z</time>
      </trkpt>
      <trkpt lat="56.4478" lon="-6.07138">
        <ele>3.84</ele>
        <time>2021-03-20T17:01:01Z</time>
      </trkpt>
      <trkpt lat="56.44778" lon="-6.07155">
        <ele>4.02</ele>
        <time>2021-03-20T17:01:03Z</time>
      </trkpt>
      <trkpt lat="56.44777" lon="-6.0717">
        <ele>4.17</ele>
        <time>2021-03-20T17:01:06Z</time>
      </trkpt>
      <trkpt lat="56.44779" lon="-6.0719">
        <ele>4.73</ele>
        <time>2021-03-20T17:01:08Z</time>
      </trkpt>
      <trkpt lat="56.44811" lon="-6.07313">
        <ele>3.82</ele>
        <time>2021-03-20T17:01:11Z</time>
      </trkpt>
      <trkpt lat="56.44813" lon="-6.07344">
        <ele>3.37</ele>
        <time>2021-03-20T17:01:13Z</time>
      </trkpt>
      <trkpt lat="56.4481" lon="-6.07375">
        <ele>2.83</ele>
        <time>2021-03-20T17:01:16Z</time>
      </trkpt>
      <trkpt lat="56.44772" lon="-6.07666">
        <ele>4.05</ele>
        <time>2021-03-20T17:01:18Z</time>
      </trkpt>
      <trkpt lat="56.44757" lon="-6.07815">
        <ele>1.74</ele>
        <time>2021-03-20T17:01:21Z</time>
      </trkpt>
      <trkpt lat="56.44753" lon="-6.07886">
        <ele>2.81</ele>
        <time>2021-03-20T17:01:23Z</time>
      </trkpt>
      <trkpt lat="56.44763" lon="-6.07949">
        <ele>2.8</ele>
        <time>2021-03-20T17:01:26Z</time>
      </trkpt>
      <trkpt lat="56.44803" lon="-6.08147">
        <ele>25.4</ele>
        <time>2021-03-20T17:01:29Z</time>
      </trkpt>
      <trkpt lat="56.44804" lon="-6.08166">
        <ele>27</ele>
        <time>2021-03-20T17:01:31Z</time>
      </trkpt>
      <trkpt lat="56.44805" lon="-6.08186">
        <ele>28.26</ele>
        <time>2021-03-20T17:01:34Z</time>
      </trkpt>
      <trkpt lat="56.44792" lon="-6.08321">
        <ele>13.68</ele>
        <time>2021-03-20T17:01:36Z</time>
      </trkpt>
      <trkpt lat="56.44785" lon="-6.08443">
        <ele>8.49</ele>
        <time>2021-03-20T17:01:39Z</time>
      </trkpt>
      <trkpt lat="56.44786" lon="-6.08465">
        <ele>9.86</ele>
        <time>2021-03-20T17:01:41Z</time>
      </trkpt>
      <trkpt lat="56.44789" lon="-6.08483">
        <ele>9.34</ele>
        <time>2021-03-20T17:01:44Z</time>
      </trkpt>
      <trkpt lat="56.44817" lon="-6.08574">
        <ele>8.06</ele>
        <time>2021-03-20T17:01:46Z</time>
      </trkpt>
      <trkpt lat="56.44826" lon="-6.08609">
        <ele>11.74</ele>
        <time>2021-03-20T17:01:49Z</time>
      </trkpt>
      <trkpt lat="56.44833" lon="-6.08647">
        <ele>14.19</ele>
        <time>2021-03-20T17:01:51Z</time>
      </trkpt>
      <trkpt lat="56.44856" lon="-6.08792">
        <ele>12.01</ele>
        <time>2021-03-20T17:01:54Z</time>
      </trkpt>
      <trkpt lat="56.44858" lon="-6.08817">
        <ele>13.24</ele>
        <time>2021-03-20T17:01:56Z</time>
      </trkpt>
      <trkpt lat="56.44864" lon="-6.08943">
        <ele>8.74</ele>
        <time>2021-03-20T17:01:59Z</time>
      </trkpt>
      <trkpt lat="56.44868" lon="-6.09013">
        <ele>9.94</ele>
        <time>2021-03-20T17:02:01Z</time>
      </trkpt>
      <trkpt lat="56.44875" lon="-6.09046">
        <ele>8.82</ele>
        <time>2021-03-20T17:02:04Z</time>
      </trkpt>
      <trkpt lat="56.44884" lon="-6.09079">
        <ele>6.62</ele>
        <time>2021-03-20T17:02:07Z</time>
      </trkpt>
      <trkpt lat="56.44907" lon="-6.09146">
        <ele>5.13</ele>
        <time>2021-03-20T17:02:09Z</time>
      </trkpt>
      <trkpt lat="56.4493" lon="-6.09231">
        <ele>13.04</ele>
        <time>2021-03-20T17:02:12Z</time>
      </trkpt>
      <trkpt lat="56.44934" lon="-6.09268">
        <ele>9.05</ele>
        <time>2021-03-20T17:02:14Z</time>
      </trkpt>
      <trkpt lat="56.44939" lon="-6.09338">
        <ele>5.06</ele>
        <time>2021-03-20T17:02:17Z</time>
      </trkpt>
      <trkpt lat="56.44951" lon="-6.09547">
        <ele>8.24</ele>
        <time>2021-03-20T17:02:19Z</time>
      </trkpt>
      <trkpt lat="56.44956" lon="-6.0958">
        <ele>8.49</ele>
        <time>2021-03-20T17:02:22Z</time>
      </trkpt>
      <trkpt lat="56.44963" lon="-6.09609">
        <ele>7.1</ele>
        <time>2021-03-20T17:02:24Z</time>
      </trkpt>
      <trkpt lat="56.44992" lon="-6.09694">
        <ele>4.95</ele>
        <time>2021-03-20T17:02:27Z</time>
      </trkpt>
      <trkpt lat="56.4506" lon="-6.09865">
        <ele>5.43</ele>
        <time>2021-03-20T17:02:29Z</time>
      </trkpt>
      <trkpt lat="56.45064" lon="-6.09881">
        <ele>5.23</ele>
        <time>2021-03-20T17:02:32Z</time>
      </trkpt>
      <trkpt lat="56.45063" lon="-6.09923">
        <ele>5.3</ele>
        <time>2021-03-20T17:02:34Z</time>
      </trkpt>
      <trkpt lat="56.45059" lon="-6.09963">
        <ele>7.49</ele>
        <time>2021-03-20T17:02:37Z</time>
      </trkpt>
      <trkpt lat="56.4505" lon="-6.10019">
        <ele>14.91</ele>
        <time>2021-03-20T17:02:39Z</time>
      </trkpt>
      <trkpt lat="56.45052" lon="-6.10064">
        <ele>15.62</ele>
        <time>2021-03-20T17:02:42Z</time>
      </trkpt>
      <trkpt lat="56.45052" lon="-6.1011">
        <ele>18.59</ele>
        <time>2021-03-20T17:02:44Z</time>
      </trkpt>
      <trkpt lat="56.45043" lon="-6.10155">
        <ele>24.13</ele>
        <time>2021-03-20T17:02:47Z</time>
      </trkpt>
      <trkpt lat="56.45043" lon="-6.10181">
        <ele>21.43</ele>
        <time>2021-03-20T17:02:50Z</time>
      </trkpt>
      <trkpt lat="56.45046" lon="-6.10216">
        <ele>12.84</ele>
        <time>2021-03-20T17:02:52Z</time>
      </trkpt>
      <trkpt lat="56.45051" lon="-6.10323">
        <ele>7.35</ele>
        <time>2021-03-20T17:02:55Z</time>
      </trkpt>
      <trkpt lat="56.4505" lon="-6.10365">
        <ele>7.43</ele>
        <time>2021-03-20T17:02:57Z</time>
      </trkpt>
      <trkpt lat="56.45059" lon="-6.10437">
        <ele>2.11</ele>
        <time>2021-03-20T17:03:00Z</time>
      </trkpt>
      <trkpt lat="56.45066" lon="-6.10565">
        <ele>17.24</ele>
        <time>2021-03-20T17:03:02Z</time>
      </trkpt>
      <trkpt lat="56.45067" lon="-6.10629">
        <ele>15.21</ele>
        <time>2021-03-20T17:03:05Z</time>
      </trkpt>
      <trkpt lat="56.45065" lon="-6.10671">
        <ele>12.32</ele>
        <time>2021-03-20T17:03:07Z</time>
      </trkpt>
      <trkpt lat="56.45058" lon="-6.10729">
        <ele>11.48</ele>
        <time>2021-03-20T17:03:10Z</time>
      </trkpt>
      <trkpt lat="56.45058" lon="-6.10832">
        <ele>9.71</ele>
        <time>2021-03-20T17:03:12Z</time>
      </trkpt>
      <trkpt lat="56.4506" lon="-6.10885">
        <ele>10.51</ele>
        <time>2021-03-20T17:03:15Z</time>
      </trkpt>
      <trkpt lat="56.45071" lon="-6.11038">
        <ele>12.67</ele>
        <time>2021-03-20T17:03:17Z</time>
      </trkpt>
      <trkpt lat="56.45089" lon="-6.11129">
        <ele>13.06</ele>
        <time>2021-03-20T17:03:20Z</time>
      </trkpt>
      <trkpt lat="56.45091" lon="-6.11149">
        <ele>14.21</ele>
        <time>2021-03-20T17:03:22Z</time>
      </trkpt>
      <trkpt lat="56.45097" lon="-6.11262">
        <ele>11.77</ele>
        <time>2021-03-20T17:03:25Z</time>
      </trkpt>
      <trkpt lat="56.45099" lon="-6.11569">
        <ele>7.95</ele>
        <time>2021-03-20T17:03:27Z</time>
      </trkpt>
      <trkpt lat="56.45109" lon="-6.11692">
        <ele>5.62</ele>
        <time>2021-03-20T17:03:30Z</time>
      </trkpt>
      <trkpt lat="56.45123" lon="-6.11788">
        <ele>15.78</ele>
        <time>2021-03-20T17:03:33Z</time>
      </trkpt>
      <trkpt lat="56.45123" lon="-6.11846">
        <ele>15.5</ele>
        <time>2021-03-20T17:03:35Z</time>
      </trkpt>
      <trkpt lat="56.45119" lon="-6.11881">
        <ele>12.77</ele>
        <time>2021-03-20T17:03:38Z</time>
      </trkpt>
      <trkpt lat="56.45112" lon="-6.11925">
        <ele>6.84</ele>
        <time>2021-03-20T17:03:40Z</time>
      </trkpt>
      <trkpt lat="56.45085" lon="-6.12008">
        <ele>8.13</ele>
        <time>2021-03-20T17:03:43Z</time>
      </trkpt>
      <trkpt lat="56.45074" lon="-6.12047">
        <ele>9.03</ele>
        <time>2021-03-20T17:03:45Z</time>
      </trkpt>
      <trkpt lat="56.45069" lon="-6.12067">
        <ele>9.13</ele>
        <time>2021-03-20T17:03:48Z</time>
      </trkpt>
      <trkpt lat="56.45063" lon="-6.1211">
        <ele>10.81</ele>
        <time>2021-03-20T17:03:50Z</time>
      </trkpt>
      <trkpt lat="56.45058" lon="-6.12178">
        <ele>10.48</ele>
        <time>2021-03-20T17:03:53Z</time>
      </trkpt>
      <trkpt lat="56.45024" lon="-6.12399">
        <ele>11.93</ele>
        <time>2021-03-20T17:03:55Z</time>
      </trkpt>
      <trkpt lat="56.45011" lon="-6.12451">
        <ele>11.58</ele>
        <time>2021-03-20T17:03:58Z</time>
      </trkpt>
      <trkpt lat="56.44995" lon="-6.125">
        <ele>9.95</ele>
        <time>2021-03-20T17:04:00Z</time>
      </trkpt>
      <trkpt lat="56.44973" lon="-6.12556">
        <ele>9.92</ele>
        <time>2021-03-20T17:04:03Z</time>
      </trkpt>
      <trkpt lat="56.44947" lon="-6.12605">
        <ele>10.61</ele>
        <time>2021-03-20T17:04:05Z</time>
      </trkpt>
      <trkpt lat="56.44918" lon="-6.12653">
        <ele>10.2</ele>
        <time>2021-03-20T17:04:08Z</time>
      </trkpt>
      <trkpt lat="56.44888" lon="-6.1269">
        <ele>10.89</ele>
        <time>2021-03-20T17:04:11Z</time>
      </trkpt>
      <trkpt lat="56.4484" lon="-6.1276">
        <ele>10.16</ele>
        <time>2021-03-20T17:04:13Z</time>
      </trkpt>
      <trkpt lat="56.4483" lon="-6.1277">
        <ele>9.47</ele>
        <time>2021-03-20T17:04:16Z</time>
      </trkpt>
      <trkpt lat="56.44801" lon="-6.12791">
        <ele>8.26</ele>
        <time>2021-03-20T17:04:18Z</time>
      </trkpt>
      <trkpt lat="56.44685" lon="-6.12847">
        <ele>7.26</ele>
        <time>2021-03-20T17:04:21Z</time>
      </trkpt>
      <trkpt lat="56.44655" lon="-6.12857">
        <ele>7.49</ele>
        <time>2021-03-20T17:04:23Z</time>
      </trkpt>
      <trkpt lat="56.44555" lon="-6.1287">
        <ele>6.07</ele>
        <time>2021-03-20T17:04:26Z</time>
      </trkpt>
      <trkpt lat="56.44474" lon="-6.12875">
        <ele>4.51</ele>
        <time>2021-03-20T17:04:28Z</time>
      </trkpt>
      <trkpt lat="56.44455" lon="-6.12879">
        <ele>3.69</ele>
        <time>2021-03-20T17:04:31Z</time>
      </trkpt>
      <trkpt lat="56.44434" lon="-6.12889">
        <ele>2.8</ele>
        <time>2021-03-20T17:04:33Z</time>
      </trkpt>
      <trkpt lat="56.44391" lon="-6.12916">
        <ele>22.13</ele>
        <time>2021-03-20T17:04:36Z</time>
      </trkpt>
      <trkpt lat="56.44195" lon="-6.13073">
        <ele>12.41</ele>
        <time>2021-03-20T17:04:38Z</time>
      </trkpt>
      <trkpt lat="56.44108" lon="-6.13133">
        <ele>7.04</ele>
        <time>2021-03-20T17:04:41Z</time>
      </trkpt>
      <trkpt lat="56.44031" lon="-6.13177">
        <ele>4.15</ele>
        <time>2021-03-20T17:04:43Z</time>
      </trkpt>
      <trkpt lat="56.43914" lon="-6.13235">
        <ele>6.36</ele>
        <time>2021-03-20T17:04:46Z</time>
      </trkpt>
      <trkpt lat="56.43601" lon="-6.13377">
        <ele>15.42</ele>
        <time>2021-03-20T17:04:48Z</time>
      </trkpt>
      <trkpt lat="56.43549" lon="-6.13397">
        <ele>16.84</ele>
        <time>2021-03-20T17:04:51Z</time>
      </trkpt>
      <trkpt lat="56.43473" lon="-6.1342">
        <ele>20.88</ele>
        <time>2021-03-20T17:04:54Z</time>
      </trkpt>
      <trkpt lat="56.43381" lon="-6.1344">
        <ele>29.36</ele>
        <time>2021-03-20T17:04:56Z</time>
      </trkpt>
      <trkpt lat="56.43349" lon="-6.13441">
        <ele>33.47</ele>
        <time>2021-03-20T17:04:59Z</time>
      </trkpt>
      <trkpt lat="56.43286" lon="-6.1343">
        <ele>39.2</ele>
        <time>2021-03-20T17:05:01Z</time>
      </trkpt>
      <trkpt lat="56.43196" lon="-6.13405">
        <ele>43.36</ele>
        <time>2021-03-20T17:05:04Z</time>
      </trkpt>
      <trkpt lat="56.43162" lon="-6.13387">
        <ele>42.05</ele>
        <time>2021-03-20T17:05:06Z</time>
      </trkpt>
      <trkpt lat="56.4307" lon="-6.13324">
        <ele>41.54</ele>
        <time>2021-03-20T17:05:09Z</time>
      </trkpt>
      <trkpt lat="56.43036" lon="-6.13306">
        <ele>41.94</ele>
        <time>2021-03-20T17:05:11Z</time>
      </trkpt>
      <trkpt lat="56.43" lon="-6.13298">
        <ele>43.84</ele>
        <time>2021-03-20T17:05:14Z</time>
      </trkpt>
      <trkpt lat="56.42963" lon="-6.133">
        <ele>46.06</ele>
        <time>2021-03-20T17:05:16Z</time>
      </trkpt>
      <trkpt lat="56.42932" lon="-6.13307">
        <ele>46.32</ele>
        <time>2021-03-20T17:05:19Z</time>
      </trkpt>
      <trkpt lat="56.42873" lon="-6.13327">
        <ele>47.05</ele>
        <time>2021-03-20T17:05:21Z</time>
      </trkpt>
      <trkpt lat="56.42843" lon="-6.1334">
        <ele>46.94</ele>
        <time>2021-03-20T17:05:24Z</time>
      </trkpt>
      <trkpt lat="56.42825" lon="-6.13355">
        <ele>47.19</ele>
        <time>2021-03-20T17:05:26Z</time>
      </trkpt>
      <trkpt lat="56.42812" lon="-6.1337">
        <ele>48</ele>
        <time>2021-03-20T17:05:29Z</time>
      </trkpt>
      <trkpt lat="56.42786" lon="-6.13419">
        <ele>47.38</ele>
        <time>2021-03-20T17:05:32Z</time>
      </trkpt>
      <trkpt lat="56.42759" lon="-6.13446">
        <ele>47.83</ele>
        <time>2021-03-20T17:05:34Z</time>
      </trkpt>
      <trkpt lat="56.42749" lon="-6.13467">
        <ele>46.94</ele>
        <time>2021-03-20T17:05:37Z</time>
      </trkpt>
      <trkpt lat="56.42712" lon="-6.13565">
        <ele>47.49</ele>
        <time>2021-03-20T17:05:39Z</time>
      </trkpt>
      <trkpt lat="56.42666" lon="-6.13638">
        <ele>50.32</ele>
        <time>2021-03-20T17:05:42Z</time>
      </trkpt>
      <trkpt lat="56.42645" lon="-6.13658">
        <ele>49.82</ele>
        <time>2021-03-20T17:05:44Z</time>
      </trkpt>
      <trkpt lat="56.42637" lon="-6.13662">
        <ele>50.04</ele>
        <time>2021-03-20T17:05:47Z</time>
      </trkpt>
      <trkpt lat="56.42628" lon="-6.13662">
        <ele>50.53</ele>
        <time>2021-03-20T17:05:49Z</time>
      </trkpt>
      <trkpt lat="56.42614" lon="-6.13653">
        <ele>52.4</ele>
        <time>2021-03-20T17:05:52Z</time>
      </trkpt>
      <trkpt lat="56.42599" lon="-6.1364">
        <ele>52.6</ele>
        <time>2021-03-20T17:05:54Z</time>
      </trkpt>
      <trkpt lat="56.42592" lon="-6.13626">
        <ele>52.99</ele>
        <time>2021-03-20T17:05:57Z</time>
      </trkpt>
      <trkpt lat="56.4259" lon="-6.13618">
        <ele>53.49</ele>
        <time>2021-03-20T17:05:59Z</time>
      </trkpt>
      <trkpt lat="56.4259" lon="-6.13529">
        <ele>60.96</ele>
        <time>2021-03-20T17:06:02Z</time>
      </trkpt>
      <trkpt lat="56.42587" lon="-6.13472">
        <ele>66.58</ele>
        <time>2021-03-20T17:06:04Z</time>
      </trkpt>
      <trkpt lat="56.42582" lon="-6.13448">
        <ele>68.36</ele>
        <time>2021-03-20T17:06:07Z</time>
      </trkpt>
      <trkpt lat="56.42573" lon="-6.13433">
        <ele>68.18</ele>
        <time>2021-03-20T17:06:09Z</time>
      </trkpt>
      <trkpt lat="56.42562" lon="-6.13431">
        <ele>66.86</ele>
        <time>2021-03-20T17:06:12Z</time>
      </trkpt>
      <trkpt lat="56.42549" lon="-6.13435">
        <ele>65.02</ele>
        <time>2021-03-20T17:06:15Z</time>
      </trkpt>
      <trkpt lat="56.42529" lon="-6.13446">
        <ele>61.86</ele>
        <time>2021-03-20T17:06:17Z</time>
      </trkpt>
      <trkpt lat="56.42451" lon="-6.13472">
        <ele>66.13</ele>
        <time>2021-03-20T17:06:20Z</time>
      </trkpt>
      <trkpt lat="56.42411" lon="-6.13492">
        <ele>65.76</ele>
        <time>2021-03-20T17:06:22Z</time>
      </trkpt>
      <trkpt lat="56.42404" lon="-6.13493">
        <ele>66.31</ele>
        <time>2021-03-20T17:06:25Z</time>
      </trkpt>
      <trkpt lat="56.4239" lon="-6.13489">
        <ele>68.77</ele>
        <time>2021-03-20T17:06:27Z</time>
      </trkpt>
      <trkpt lat="56.42335" lon="-6.1346">
        <ele>68.95</ele>
        <time>2021-03-20T17:06:30Z</time>
      </trkpt>
      <trkpt lat="56.42328" lon="-6.13453">
        <ele>68.6</ele>
        <time>2021-03-20T17:06:32Z</time>
      </trkpt>
      <trkpt lat="56.42323" lon="-6.13442">
        <ele>68.91</ele>
        <time>2021-03-20T17:06:35Z</time>
      </trkpt>
      <trkpt lat="56.42319" lon="-6.13426">
        <ele>69.25</ele>
        <time>2021-03-20T17:06:37Z</time>
      </trkpt>
      <trkpt lat="56.42315" lon="-6.13371">
        <ele>72.61</ele>
        <time>2021-03-20T17:06:40Z</time>
      </trkpt>
      <trkpt lat="56.42311" lon="-6.13284">
        <ele>75.15</ele>
        <time>2021-03-20T17:06:42Z</time>
      </trkpt>
      <trkpt lat="56.42314" lon="-6.1319">
        <ele>78.86</ele>
        <time>2021-03-20T17:06:45Z</time>
      </trkpt>
      <trkpt lat="56.42312" lon="-6.13174">
        <ele>79.13</ele>
        <time>2021-03-20T17:06:47Z</time>
      </trkpt>
      <trkpt lat="56.42303" lon="-6.13129">
        <ele>80.63</ele>
        <time>2021-03-20T17:06:50Z</time>
      </trkpt>
      <trkpt lat="56.42296" lon="-6.13103">
        <ele>82.34</ele>
        <time>2021-03-20T17:06:53Z</time>
      </trkpt>
      <trkpt lat="56.42287" lon="-6.13079">
        <ele>84.24</ele>
        <time>2021-03-20T17:06:55Z</time>
      </trkpt>
      <trkpt lat="56.42274" lon="-6.13054">
        <ele>85.76</ele>
        <time>2021-03-20T17:06:58Z</time>
      </trkpt>
      <trkpt lat="56.42259" lon="-6.1304">
        <ele>87.04</ele>
        <time>2021-03-20T17:07:00Z</time>
      </trkpt>
      <trkpt lat="56.42231" lon="-6.13026">
        <ele>85.95</ele>
        <time>2021-03-20T17:07:03Z</time>
      </trkpt>
      <trkpt lat="56.42203" lon="-6.13016">
        <ele>87.07</ele>
        <time>2021-03-20T17:07:05Z</time>
      </trkpt>
      <trkpt lat="56.42147" lon="-6.13">
        <ele>94.26</ele>
        <time>2021-03-20T17:07:08Z</time>
      </trkpt>
      <trkpt lat="56.42064" lon="-6.12965">
        <ele>107.72</ele>
        <time>2021-03-20T17:07:10Z</time>
      </trkpt>
      <trkpt lat="56.42024" lon="-6.12952">
        <ele>105.57</ele>
        <time>2021-03-20T17:07:13Z</time>
      </trkpt>
      <trkpt lat="56.42002" lon="-6.12938">
        <ele>102.29</ele>
        <time>2021-03-20T17:07:15Z</time>
      </trkpt>
      <trkpt lat="56.41955" lon="-6.12891">
        <ele>104.4</ele>
        <time>2021-03-20T17:07:18Z</time>
      </trkpt>
      <trkpt lat="56.4192" lon="-6.12852">
        <ele>111.74</ele>
        <time>2021-03-20T17:07:20Z</time>
      </trkpt>
      <trkpt lat="56.41851" lon="-6.12768">
        <ele>120.6</ele>
        <time>2021-03-20T17:07:23Z</time>
      </trkpt>
      <trkpt lat="56.41819" lon="-6.1272">
        <ele>123.71</ele>
        <time>2021-03-20T17:07:25Z</time>
      </trkpt>
      <trkpt lat="56.41755" lon="-6.12617">
        <ele>127.25</ele>
        <time>2021-03-20T17:07:28Z</time>
      </trkpt>
      <trkpt lat="56.41722" lon="-6.12569">
        <ele>131.07</ele>
        <time>2021-03-20T17:07:30Z</time>
      </trkpt>
      <trkpt lat="56.41637" lon="-6.12454">
        <ele>133.9</ele>
        <time>2021-03-20T17:07:33Z</time>
      </trkpt>
      <trkpt lat="56.41577" lon="-6.1236">
        <ele>138.24</ele>
        <time>2021-03-20T17:07:36Z</time>
      </trkpt>
      <trkpt lat="56.41534" lon="-6.12297">
        <ele>140.75</ele>
        <time>2021-03-20T17:07:38Z</time>
      </trkpt>
      <trkpt lat="56.41511" lon="-6.12259">
        <ele>141.21</ele>
        <time>2021-03-20T17:07:41Z</time>
      </trkpt>
      <trkpt lat="56.41469" lon="-6.12183">
        <ele>140.95</ele>
        <time>2021-03-20T17:07:43Z</time>
      </trkpt>
      <trkpt lat="56.41443" lon="-6.12131">
        <ele>142.36</ele>
        <time>2021-03-20T17:07:46Z</time>
      </trkpt>
      <trkpt lat="56.41424" lon="-6.12084">
        <ele>142.52</ele>
        <time>2021-03-20T17:07:48Z</time>
      </trkpt>
      <trkpt lat="56.41368" lon="-6.11927">
        <ele>143.13</ele>
        <time>2021-03-20T17:07:51Z</time>
      </trkpt>
      <trkpt lat="56.41347" lon="-6.11854">
        <ele>143.5</ele>
        <time>2021-03-20T17:07:53Z</time>
      </trkpt>
      <trkpt lat="56.41329" lon="-6.1178">
        <ele>143.25</ele>
        <time>2021-03-20T17:07:56Z</time>
      </trkpt>
      <trkpt lat="56.41304" lon="-6.11669">
        <ele>142.64</ele>
        <time>2021-03-20T17:07:58Z</time>
      </trkpt>
      <trkpt lat="56.41152" lon="-6.10967">
        <ele>146.11</ele>
        <time>2021-03-20T17:08:01Z</time>
      </trkpt>
      <trkpt lat="56.41101" lon="-6.10793">
        <ele>144.91</ele>
        <time>2021-03-20T17:08:03Z</time>
      </trkpt>
      <trkpt lat="56.41075" lon="-6.10721">
        <ele>143.41</ele>
        <time>2021-03-20T17:08:06Z</time>
      </trkpt>
      <trkpt lat="56.41047" lon="-6.10655">
        <ele>143.66</ele>
        <time>2021-03-20T17:08:08Z</time>
      </trkpt>
      <trkpt lat="56.41013" lon="-6.10588">
        <ele>142.21</ele>
        <time>2021-03-20T17:08:11Z</time>
      </trkpt>
      <trkpt lat="56.40993" lon="-6.10553">
        <ele>141.62</ele>
        <time>2021-03-20T17:08:14Z</time>
      </trkpt>
      <trkpt lat="56.40949" lon="-6.10501">
        <ele>141.44</ele>
        <time>2021-03-20T17:08:16Z</time>
      </trkpt>
      <trkpt lat="56.40726" lon="-6.10253">
        <ele>131.28</ele>
        <time>2021-03-20T17:08:19Z</time>
      </trkpt>
      <trkpt lat="56.40686" lon="-6.10206">
        <ele>130.66</ele>
        <time>2021-03-20T17:08:21Z</time>
      </trkpt>
      <trkpt lat="56.40652" lon="-6.10151">
        <ele>128.87</ele>
        <time>2021-03-20T17:08:24Z</time>
      </trkpt>
      <trkpt lat="56.40591" lon="-6.10023">
        <ele>128.4</ele>
        <time>2021-03-20T17:08:26Z</time>
      </trkpt>
      <trkpt lat="56.40425" lon="-6.09606">
        <ele>116.84</ele>
        <time>2021-03-20T17:08:29Z</time>
      </trkpt>
      <trkpt lat="56.40402" lon="-6.09551">
        <ele>112.87</ele>
        <time>2021-03-20T17:08:31Z</time>
      </trkpt>
      <trkpt lat="56.40368" lon="-6.09482">
        <ele>110.21</ele>
        <time>2021-03-20T17:08:34Z</time>
      </trkpt>
      <trkpt lat="56.40259" lon="-6.09337">
        <ele>111.42</ele>
        <time>2021-03-20T17:08:36Z</time>
      </trkpt>
      <trkpt lat="56.40037" lon="-6.09059">
        <ele>94.77</ele>
        <time>2021-03-20T17:08:39Z</time>
      </trkpt>
      <trkpt lat="56.39964" lon="-6.08944">
        <ele>91.42</ele>
        <time>2021-03-20T17:08:41Z</time>
      </trkpt>
      <trkpt lat="56.39728" lon="-6.08469">
        <ele>69.74</ele>
        <time>2021-03-20T17:08:44Z</time>
      </trkpt>
      <trkpt lat="56.39502" lon="-6.08019">
        <ele>59.53</ele>
        <time>2021-03-20T17:08:46Z</time>
      </trkpt>
      <trkpt lat="56.39384" lon="-6.07807">
        <ele>52.04</ele>
        <time>2021-03-20T17:08:49Z</time>
      </trkpt>
      <trkpt lat="56.39304" lon="-6.07689">
        <ele>43.22</ele>
        <time>2021-03-20T17:08:51Z</time>
      </trkpt>
      <trkpt lat="56.38957" lon="-6.07217">
        <ele>38.24</ele>
        <time>2021-03-20T17:08:54Z</time>
      </trkpt>
      <trkpt lat="56.38897" lon="-6.07146">
        <ele>36.38</ele>
        <time>2021-03-20T17:08:57Z</time>
      </trkpt>
      <trkpt lat="56.38717" lon="-6.06987">
        <ele>33.23</ele>
        <time>2021-03-20T17:08:59Z</time>
      </trkpt>
      <trkpt lat="56.38618" lon="-6.06847">
        <ele>29.2</ele>
        <time>2021-03-20T17:09:02Z</time>
      </trkpt>
      <trkpt lat="56.38582" lon="-6.06823">
        <ele>28.58</ele>
        <time>2021-03-20T17:09:04Z</time>
      </trkpt>
      <trkpt lat="56.38543" lon="-6.06826">
        <ele>23.83</ele>
        <time>2021-03-20T17:09:07Z</time>
      </trkpt>
      <trkpt lat="56.38513" lon="-6.06817">
        <ele>20.72</ele>
        <time>2021-03-20T17:09:09Z</time>
      </trkpt>
      <trkpt lat="56.38477" lon="-6.06788">
        <ele>19.56</ele>
        <time>2021-03-20T17:09:12Z</time>
      </trkpt>
      <trkpt lat="56.38448" lon="-6.0679">
        <ele>15.64</ele>
        <time>2021-03-20T17:09:14Z</time>
      </trkpt>
      <trkpt lat="56.38421" lon="-6.06779">
        <ele>14.22</ele>
        <time>2021-03-20T17:09:17Z</time>
      </trkpt>
      <trkpt lat="56.38399" lon="-6.0674">
        <ele>14.77</ele>
        <time>2021-03-20T17:09:19Z</time>
      </trkpt>
      <trkpt lat="56.3835" lon="-6.06619">
        <ele>12.26</ele>
        <time>2021-03-20T17:09:22Z</time>
      </trkpt>
      <trkpt lat="56.38317" lon="-6.06504">
        <ele>9.77</ele>
        <time>2021-03-20T17:09:24Z</time>
      </trkpt>
      <trkpt lat="56.38244" lon="-6.06232">
        <ele>11.75</ele>
        <time>2021-03-20T17:09:27Z</time>
      </trkpt>
      <trkpt lat="56.38236" lon="-6.06156">
        <ele>12.82</ele>
        <time>2021-03-20T17:09:29Z</time>
      </trkpt>
      <trkpt lat="56.38219" lon="-6.06093">
        <ele>9.62</ele>
        <time>2021-03-20T17:09:32Z</time>
      </trkpt>
      <trkpt lat="56.38209" lon="-6.06022">
        <ele>9.78</ele>
        <time>2021-03-20T17:09:34Z</time>
      </trkpt>
      <trkpt lat="56.38203" lon="-6.06006">
        <ele>9.74</ele>
        <time>2021-03-20T17:09:37Z</time>
      </trkpt>
      <trkpt lat="56.38189" lon="-6.05982">
        <ele>9.25</ele>
        <time>2021-03-20T17:09:40Z</time>
      </trkpt>
      <trkpt lat="56.38168" lon="-6.05931">
        <ele>9.57</ele>
        <time>2021-03-20T17:09:42Z</time>
      </trkpt>
      <trkpt lat="56.38163" lon="-6.05912">
        <ele>9.91</ele>
        <time>2021-03-20T17:09:45Z</time>
      </trkpt>
      <trkpt lat="56.38154" lon="-6.05763">
        <ele>12.55</ele>
        <time>2021-03-20T17:09:47Z</time>
      </trkpt>
      <trkpt lat="56.38133" lon="-6.05651">
        <ele>11.8</ele>
        <time>2021-03-20T17:09:50Z</time>
      </trkpt>
      <trkpt lat="56.38101" lon="-6.05525">
        <ele>9.55</ele>
        <time>2021-03-20T17:09:52Z</time>
      </trkpt>
      <trkpt lat="56.381" lon="-6.05496">
        <ele>9.25</ele>
        <time>2021-03-20T17:09:55Z</time>
      </trkpt>
      <trkpt lat="56.38102" lon="-6.05473">
        <ele>9.01</ele>
        <time>2021-03-20T17:09:57Z</time>
      </trkpt>
      <trkpt lat="56.38107" lon="-6.05448">
        <ele>7.98</ele>
        <time>2021-03-20T17:10:00Z</time>
      </trkpt>
      <trkpt lat="56.38186" lon="-6.05216">
        <ele>8.15</ele>
        <time>2021-03-20T17:10:02Z</time>
      </trkpt>
      <trkpt lat="56.38207" lon="-6.05168">
        <ele>6.13</ele>
        <time>2021-03-20T17:10:05Z</time>
      </trkpt>
      <trkpt lat="56.38281" lon="-6.05122">
        <ele>8.76</ele>
        <time>2021-03-20T17:10:07Z</time>
      </trkpt>
      <trkpt lat="56.38293" lon="-6.05105">
        <ele>7.68</ele>
        <time>2021-03-20T17:10:10Z</time>
      </trkpt>
      <trkpt lat="56.38328" lon="-6.04982">
        <ele>4.29</ele>
        <time>2021-03-20T17:10:12Z</time>
      </trkpt>
      <trkpt lat="56.38413" lon="-6.04816">
        <ele>5.07</ele>
        <time>2021-03-20T17:10:15Z</time>
      </trkpt>
      <trkpt lat="56.38476" lon="-6.0473">
        <ele>4.88</ele>
        <time>2021-03-20T17:10:18Z</time>
      </trkpt>
      <trkpt lat="56.38544" lon="-6.04621">
        <ele>6.47</ele>
        <time>2021-03-20T17:10:20Z</time>
      </trkpt>
      <trkpt lat="56.38604" lon="-6.04553">
        <ele>8.21</ele>
        <time>2021-03-20T17:10:23Z</time>
      </trkpt>
      <trkpt lat="56.38646" lon="-6.04494">
        <ele>9.17</ele>
        <time>2021-03-20T17:10:25Z</time>
      </trkpt>
      <trkpt lat="56.38774" lon="-6.04318">
        <ele>19.2</ele>
        <time>2021-03-20T17:10:28Z</time>
      </trkpt>
      <trkpt lat="56.38827" lon="-6.04212">
        <ele>15.75</ele>
        <time>2021-03-20T17:10:30Z</time>
      </trkpt>
      <trkpt lat="56.38983" lon="-6.03951">
        <ele>11.62</ele>
        <time>2021-03-20T17:10:33Z</time>
      </trkpt>
      <trkpt lat="56.39035" lon="-6.0383">
        <ele>9.43</ele>
        <time>2021-03-20T17:10:35Z</time>
      </trkpt>
      <trkpt lat="56.39069" lon="-6.03698">
        <ele>7.45</ele>
        <time>2021-03-20T17:10:38Z</time>
      </trkpt>
      <trkpt lat="56.39189" lon="-6.0351">
        <ele>8.6</ele>
        <time>2021-03-20T17:10:40Z</time>
      </trkpt>
      <trkpt lat="56.3924" lon="-6.03334">
        <ele>4.69</ele>
        <time>2021-03-20T17:10:43Z</time>
      </trkpt>
      <trkpt lat="56.3933" lon="-6.03036">
        <ele>7.84</ele>
        <time>2021-03-20T17:10:45Z</time>
      </trkpt>
      <trkpt lat="56.39356" lon="-6.02928">
        <ele>7.2</ele>
        <time>2021-03-20T17:10:48Z</time>
      </trkpt>
      <trkpt lat="56.39363" lon="-6.02812">
        <ele>6.3</ele>
        <time>2021-03-20T17:10:50Z</time>
      </trkpt>
      <trkpt lat="56.39389" lon="-6.02703">
        <ele>7.36</ele>
        <time>2021-03-20T17:10:53Z</time>
      </trkpt>
      <trkpt lat="56.39419" lon="-6.02521">
        <ele>7.05</ele>
        <time>2021-03-20T17:10:55Z</time>
      </trkpt>
      <trkpt lat="56.39433" lon="-6.02458">
        <ele>8.1</ele>
        <time>2021-03-20T17:10:58Z</time>
      </trkpt>
      <trkpt lat="56.3946" lon="-6.02362">
        <ele>10.31</ele>
        <time>2021-03-20T17:11:01Z</time>
      </trkpt>
      <trkpt lat="56.39479" lon="-6.02283">
        <ele>11.02</ele>
        <time>2021-03-20T17:11:03Z</time>
      </trkpt>
      <trkpt lat="56.39482" lon="-6.02204">
        <ele>9.42</ele>
        <time>2021-03-20T17:11:06Z</time>
      </trkpt>
      <trkpt lat="56.3948" lon="-6.02139">
        <ele>7.94</ele>
        <time>2021-03-20T17:11:08Z</time>
      </trkpt>
      <trkpt lat="56.39471" lon="-6.02074">
        <ele>5.27</ele>
        <time>2021-03-20T17:11:11Z</time>
      </trkpt>
      <trkpt lat="56.39435" lon="-6.01974">
        <ele>4.88</ele>
        <time>2021-03-20T17:11:13Z</time>
      </trkpt>
      <trkpt lat="56.39405" lon="-6.01912">
        <ele>6.47</ele>
        <time>2021-03-20T17:11:16Z</time>
      </trkpt>
      <trkpt lat="56.39341" lon="-6.01859">
        <ele>12.72</ele>
        <time>2021-03-20T17:11:18Z</time>
      </trkpt>
      <trkpt lat="56.39319" lon="-6.01831">
        <ele>6.13</ele>
        <time>2021-03-20T17:11:21Z</time>
      </trkpt>
      <trkpt lat="56.39274" lon="-6.01757">
        <ele>7.11</ele>
        <time>2021-03-20T17:11:23Z</time>
      </trkpt>
      <trkpt lat="56.39202" lon="-6.0158">
        <ele>5.89</ele>
        <time>2021-03-20T17:11:26Z</time>
      </trkpt>
      <trkpt lat="56.39186" lon="-6.01524">
        <ele>5.98</ele>
        <time>2021-03-20T17:11:28Z</time>
      </trkpt>
      <trkpt lat="56.39172" lon="-6.01384">
        <ele>7.2</ele>
        <time>2021-03-20T17:11:31Z</time>
      </trkpt>
      <trkpt lat="56.3917" lon="-6.01257">
        <ele>7.26</ele>
        <time>2021-03-20T17:11:33Z</time>
      </trkpt>
      <trkpt lat="56.39173" lon="-6.01176">
        <ele>7.57</ele>
        <time>2021-03-20T17:11:36Z</time>
      </trkpt>
      <trkpt lat="56.39181" lon="-6.01105">
        <ele>7.22</ele>
        <time>2021-03-20T17:11:39Z</time>
      </trkpt>
      <trkpt lat="56.39195" lon="-6.0104">
        <ele>5.07</ele>
        <time>2021-03-20T17:11:41Z</time>
      </trkpt>
      <trkpt lat="56.39286" lon="-6.00825">
        <ele>7.8</ele>
        <time>2021-03-20T17:11:44Z</time>
      </trkpt>
      <trkpt lat="56.39348" lon="-6.0064">
        <ele>4.62</ele>
        <time>2021-03-20T17:11:46Z</time>
      </trkpt>
      <trkpt lat="56.39372" lon="-6.00574">
        <ele>5.22</ele>
        <time>2021-03-20T17:11:49Z</time>
      </trkpt>
      <trkpt lat="56.39386" lon="-6.00503">
        <ele>3.94</ele>
        <time>2021-03-20T17:11:51Z</time>
      </trkpt>
      <trkpt lat="56.39395" lon="-6.00428">
        <ele>3.2</ele>
        <time>2021-03-20T17:11:54Z</time>
      </trkpt>
      <trkpt lat="56.39396" lon="-6.0036">
        <ele>3.54</ele>
        <time>2021-03-20T17:11:56Z</time>
      </trkpt>
      <trkpt lat="56.39383" lon="-6.00299">
        <ele>4.62</ele>
        <time>2021-03-20T17:11:59Z</time>
      </trkpt>
      <trkpt lat="56.39337" lon="-6.00212">
        <ele>2.79</ele>
        <time>2021-03-20T17:12:01Z</time>
      </trkpt>
      <trkpt lat="56.39304" lon="-6.00177">
        <ele>1.63</ele>
        <time>2021-03-20T17:12:04Z</time>
      </trkpt>
      <trkpt lat="56.39271" lon="-6.00161">
        <ele>1.75</ele>
        <time>2021-03-20T17:12:06Z</time>
      </trkpt>
      <trkpt lat="56.39089" lon="-5.9999">
        <ele>4.91</ele>
        <time>2021-03-20T17:12:09Z</time>
      </trkpt>
      <trkpt lat="56.39023" lon="-5.99924">
        <ele>6.43</ele>
        <time>2021-03-20T17:12:11Z</time>
      </trkpt>
      <trkpt lat="56.38993" lon="-5.9988">
        <ele>5.54</ele>
        <time>2021-03-20T17:12:14Z</time>
      </trkpt>
      <trkpt lat="56.38947" lon="-5.99774">
        <ele>3.48</ele>
        <time>2021-03-20T17:12:16Z</time>
      </trkpt>
      <trkpt lat="56.38924" lon="-5.99727">
        <ele>2.84</ele>
        <time>2021-03-20T17:12:19Z</time>
      </trkpt>
      <trkpt lat="56.38913" lon="-5.99685">
        <ele>3.16</ele>
        <time>2021-03-20T17:12:22Z</time>
      </trkpt>
      <trkpt lat="56.38921" lon="-5.99641">
        <ele>4.46</ele>
        <time>2021-03-20T17:12:24Z</time>
      </trkpt>
      <trkpt lat="56.3892" lon="-5.99587">
        <ele>4.34</ele>
        <time>2021-03-20T17:12:27Z</time>
      </trkpt>
      <trkpt lat="56.38911" lon="-5.99531">
        <ele>4.78</ele>
        <time>2021-03-20T17:12:29Z</time>
      </trkpt>
      <trkpt lat="56.38905" lon="-5.99425">
        <ele>4.13</ele>
        <time>2021-03-20T17:12:32Z</time>
      </trkpt>
      <trkpt lat="56.38911" lon="-5.99378">
        <ele>3.3</ele>
        <time>2021-03-20T17:12:34Z</time>
      </trkpt>
      <trkpt lat="56.38933" lon="-5.99342">
        <ele>3.49</ele>
        <time>2021-03-20T17:12:37Z</time>
      </trkpt>
      <trkpt lat="56.3895" lon="-5.99288">
        <ele>4.44</ele>
        <time>2021-03-20T17:12:39Z</time>
      </trkpt>
      <trkpt lat="56.38975" lon="-5.99174">
        <ele>5.24</ele>
        <time>2021-03-20T17:12:42Z</time>
      </trkpt>
      <trkpt lat="56.38995" lon="-5.9911">
        <ele>5.81</ele>
        <time>2021-03-20T17:12:44Z</time>
      </trkpt>
      <trkpt lat="56.39007" lon="-5.99091">
        <ele>6.26</ele>
        <time>2021-03-20T17:12:47Z</time>
      </trkpt>
      <trkpt lat="56.39054" lon="-5.99042">
        <ele>5.53</ele>
        <time>2021-03-20T17:12:49Z</time>
      </trkpt>
      <trkpt lat="56.39069" lon="-5.99023">
        <ele>5.32</ele>
        <time>2021-03-20T17:12:52Z</time>
      </trkpt>
      <trkpt lat="56.39083" lon="-5.99001">
        <ele>5.01</ele>
        <time>2021-03-20T17:12:54Z</time>
      </trkpt>
      <trkpt lat="56.39109" lon="-5.98948">
        <ele>5.96</ele>
        <time>2021-03-20T17:12:57Z</time>
      </trkpt>
      <trkpt lat="56.39127" lon="-5.98898">
        <ele>5.88</ele>
        <time>2021-03-20T17:13:00Z</time>
      </trkpt>
      <trkpt lat="56.39135" lon="-5.98854">
        <ele>5.62</ele>
        <time>2021-03-20T17:13:02Z</time>
      </trkpt>
      <trkpt lat="56.39138" lon="-5.98801">
        <ele>4.99</ele>
        <time>2021-03-20T17:13:05Z</time>
      </trkpt>
      <trkpt lat="56.39138" lon="-5.98747">
        <ele>4.86</ele>
        <time>2021-03-20T17:13:07Z</time>
      </trkpt>
      <trkpt lat="56.39135" lon="-5.98288">
        <ele>3.47</ele>
        <time>2021-03-20T17:13:10Z</time>
      </trkpt>
      <trkpt lat="56.39132" lon="-5.98208">
        <ele>4</ele>
        <time>2021-03-20T17:13:12Z</time>
      </trkpt>
      <trkpt lat="56.39129" lon="-5.9817">
        <ele>4</ele>
        <time>2021-03-20T17:13:15Z</time>
      </trkpt>
      <trkpt lat="56.39114" lon="-5.98083">
        <ele>4</ele>
        <time>2021-03-20T17:13:17Z</time>
      </trkpt>
      <trkpt lat="56.39109" lon="-5.98045">
        <ele>4.92</ele>
        <time>2021-03-20T17:13:20Z</time>
      </trkpt>
      <trkpt lat="56.39108" lon="-5.97973">
        <ele>5</ele>
        <time>2021-03-20T17:13:22Z</time>
      </trkpt>
      <trkpt lat="56.39114" lon="-5.9793">
        <ele>5</ele>
        <time>2021-03-20T17:13:25Z</time>
      </trkpt>
      <trkpt lat="56.39128" lon="-5.97855">
        <ele>5.22</ele>
        <time>2021-03-20T17:13:27Z</time>
      </trkpt>
      <trkpt lat="56.39131" lon="-5.97822">
        <ele>6.31</ele>
        <time>2021-03-20T17:13:30Z</time>
      </trkpt>
      <trkpt lat="56.39133" lon="-5.97784">
        <ele>7.39</ele>
        <time>2021-03-20T17:13:32Z</time>
      </trkpt>
      <trkpt lat="56.39132" lon="-5.97755">
        <ele>7.53</ele>
        <time>2021-03-20T17:13:35Z</time>
      </trkpt>
      <trkpt lat="56.39127" lon="-5.97697">
        <ele>6.57</ele>
        <time>2021-03-20T17:13:38Z</time>
      </trkpt>
      <trkpt lat="56.38732" lon="-5.9784">
        <ele>7.51</ele>
        <time>2021-03-20T17:13:41Z</time>
      </trkpt>
      <trkpt lat="56.38633" lon="-5.97847">
        <ele>7.8</ele>
        <time>2021-03-20T17:13:44Z</time>
      </trkpt>
      <trkpt lat="56.38612" lon="-5.97852">
        <ele>6.71</ele>
        <time>2021-03-20T17:13:47Z</time>
      </trkpt>
      <trkpt lat="56.38595" lon="-5.97858">
        <ele>5.61</ele>
        <time>2021-03-20T17:13:50Z</time>
      </trkpt>
      <trkpt lat="56.38575" lon="-5.97872">
        <ele>4.62</ele>
        <time>2021-03-20T17:13:53Z</time>
      </trkpt>
      <trkpt lat="56.38558" lon="-5.97887">
        <ele>4.06</ele>
        <time>2021-03-20T17:13:56Z</time>
      </trkpt>
      <trkpt lat="56.38526" lon="-5.97933">
        <ele>4</ele>
        <time>2021-03-20T17:14:00Z</time>
      </trkpt>
      <trkpt lat="56.38382" lon="-5.98181">
        <ele>2.88</ele>
        <time>2021-03-20T17:14:03Z</time>
      </trkpt>
      <trkpt lat="56.3836" lon="-5.9824">
        <ele>1.38</ele>
        <time>2021-03-20T17:14:06Z</time>
      </trkpt>
      <trkpt lat="56.38344" lon="-5.98301">
        <ele>1.94</ele>
        <time>2021-03-20T17:14:09Z</time>
      </trkpt>
      <trkpt lat="56.38338" lon="-5.9834">
        <ele>2.23</ele>
        <time>2021-03-20T17:14:12Z</time>
      </trkpt>
      <trkpt lat="56.38334" lon="-5.98398">
        <ele>3.34</ele>
        <time>2021-03-20T17:14:15Z</time>
      </trkpt>
      <trkpt lat="56.38334" lon="-5.98493">
        <ele>4</ele>
        <time>2021-03-20T17:14:18Z</time>
      </trkpt>
      <trkpt lat="56.38338" lon="-5.98714">
        <ele>3</ele>
        <time>2021-03-20T17:14:21Z</time>
      </trkpt>
      <trkpt lat="56.38338" lon="-5.98806">
        <ele>1.83</ele>
        <time>2021-03-20T17:14:25Z</time>
      </trkpt>
      <trkpt lat="56.38331" lon="-5.9889">
        <ele>2.08</ele>
        <time>2021-03-20T17:14:28Z</time>
      </trkpt>
      <trkpt lat="56.38305" lon="-5.98999">
        <ele>2</ele>
        <time>2021-03-20T17:14:31Z</time>
      </trkpt>
      <trkpt lat="56.38266" lon="-5.99174">
        <ele>2.67</ele>
        <time>2021-03-20T17:14:34Z</time>
      </trkpt>
      <trkpt lat="56.38263" lon="-5.99229">
        <ele>3.89</ele>
        <time>2021-03-20T17:14:37Z</time>
      </trkpt>
      <trkpt lat="56.38264" lon="-5.99285">
        <ele>3.62</ele>
        <time>2021-03-20T17:14:40Z</time>
      </trkpt>
      <trkpt lat="56.38271" lon="-5.99326">
        <ele>3.49</ele>
        <time>2021-03-20T17:14:43Z</time>
      </trkpt>
      <trkpt lat="56.38283" lon="-5.99417">
        <ele>5.53</ele>
        <time>2021-03-20T17:14:46Z</time>
      </trkpt>
      <trkpt lat="56.38284" lon="-5.99461">
        <ele>6.3</ele>
        <time>2021-03-20T17:14:50Z</time>
      </trkpt>
      <trkpt lat="56.3828" lon="-5.99642">
        <ele>10.9</ele>
        <time>2021-03-20T17:14:53Z</time>
      </trkpt>
      <trkpt lat="56.38266" lon="-5.9977">
        <ele>7.57</ele>
        <time>2021-03-20T17:14:56Z</time>
      </trkpt>
      <trkpt lat="56.38256" lon="-5.99826">
        <ele>6.22</ele>
        <time>2021-03-20T17:14:59Z</time>
      </trkpt>
      <trkpt lat="56.38233" lon="-5.99888">
        <ele>4.66</ele>
        <time>2021-03-20T17:15:02Z</time>
      </trkpt>
      <trkpt lat="56.38123" lon="-6.00106">
        <ele>4</ele>
        <time>2021-03-20T17:15:05Z</time>
      </trkpt>
      <trkpt lat="56.38097" lon="-6.00126">
        <ele>4.25</ele>
        <time>2021-03-20T17:15:08Z</time>
      </trkpt>
      <trkpt lat="56.38052" lon="-6.00149">
        <ele>4.2</ele>
        <time>2021-03-20T17:15:11Z</time>
      </trkpt>
      <trkpt lat="56.37994" lon="-6.00167">
        <ele>6.44</ele>
        <time>2021-03-20T17:15:14Z</time>
      </trkpt>
      <trkpt lat="56.37977" lon="-6.00178">
        <ele>6.92</ele>
        <time>2021-03-20T17:15:18Z</time>
      </trkpt>
      <trkpt lat="56.37955" lon="-6.00187">
        <ele>7.75</ele>
        <time>2021-03-20T17:15:21Z</time>
      </trkpt>
      <trkpt lat="56.37931" lon="-6.00204">
        <ele>7.95</ele>
        <time>2021-03-20T17:15:24Z</time>
      </trkpt>
      <trkpt lat="56.3792" lon="-6.00217">
        <ele>7.38</ele>
        <time>2021-03-20T17:15:27Z</time>
      </trkpt>
      <trkpt lat="56.37855" lon="-6.00264">
        <ele>6.87</ele>
        <time>2021-03-20T17:15:30Z</time>
      </trkpt>
      <trkpt lat="56.3779" lon="-6.00297">
        <ele>7.26</ele>
        <time>2021-03-20T17:15:33Z</time>
      </trkpt>
      <trkpt lat="56.37688" lon="-6.00385">
        <ele>5.12</ele>
        <time>2021-03-20T17:15:36Z</time>
      </trkpt>
      <trkpt lat="56.37603" lon="-6.00478">
        <ele>6.07</ele>
        <time>2021-03-20T17:15:39Z</time>
      </trkpt>
      <trkpt lat="56.37578" lon="-6.00489">
        <ele>6.51</ele>
        <time>2021-03-20T17:15:43Z</time>
      </trkpt>
      <trkpt lat="56.37551" lon="-6.00514">
        <ele>5.58</ele>
        <time>2021-03-20T17:15:46Z</time>
      </trkpt>
      <trkpt lat="56.3754" lon="-6.00529">
        <ele>5.61</ele>
        <time>2021-03-20T17:15:49Z</time>
      </trkpt>
      <trkpt lat="56.37528" lon="-6.00549">
        <ele>4.64</ele>
        <time>2021-03-20T17:15:52Z</time>
      </trkpt>
      <trkpt lat="56.37509" lon="-6.00599">
        <ele>5.28</ele>
        <time>2021-03-20T17:15:55Z</time>
      </trkpt>
      <trkpt lat="56.37491" lon="-6.00653">
        <ele>5.81</ele>
        <time>2021-03-20T17:15:58Z</time>
      </trkpt>
      <trkpt lat="56.37451" lon="-6.00743">
        <ele>3.43</ele>
        <time>2021-03-20T17:16:01Z</time>
      </trkpt>
      <trkpt lat="56.37433" lon="-6.00794">
        <ele>4.74</ele>
        <time>2021-03-20T17:16:04Z</time>
      </trkpt>
      <trkpt lat="56.3741" lon="-6.00831">
        <ele>2.56</ele>
        <time>2021-03-20T17:16:08Z</time>
      </trkpt>
      <trkpt lat="56.37386" lon="-6.00858">
        <ele>2.76</ele>
        <time>2021-03-20T17:16:11Z</time>
      </trkpt>
      <trkpt lat="56.37375" lon="-6.00882">
        <ele>3.82</ele>
        <time>2021-03-20T17:16:14Z</time>
      </trkpt>
      <trkpt lat="56.37365" lon="-6.00927">
        <ele>3.26</ele>
        <time>2021-03-20T17:16:17Z</time>
      </trkpt>
      <trkpt lat="56.37332" lon="-6.00965">
        <ele>5.31</ele>
        <time>2021-03-20T17:16:20Z</time>
      </trkpt>
      <trkpt lat="56.37237" lon="-6.01058">
        <ele>4.28</ele>
        <time>2021-03-20T17:16:23Z</time>
      </trkpt>
      <trkpt lat="56.37189" lon="-6.01128">
        <ele>3.71</ele>
        <time>2021-03-20T17:16:26Z</time>
      </trkpt>
      <trkpt lat="56.37148" lon="-6.0124">
        <ele>4.89</ele>
        <time>2021-03-20T17:16:29Z</time>
      </trkpt>
      <trkpt lat="56.37114" lon="-6.01285">
        <ele>5.98</ele>
        <time>2021-03-20T17:16:33Z</time>
      </trkpt>
      <trkpt lat="56.36829" lon="-6.01512">
        <ele>4.96</ele>
        <time>2021-03-20T17:16:36Z</time>
      </trkpt>
      <trkpt lat="56.3678" lon="-6.0156">
        <ele>4.48</ele>
        <time>2021-03-20T17:16:39Z</time>
      </trkpt>
      <trkpt lat="56.36748" lon="-6.01594">
        <ele>4.72</ele>
        <time>2021-03-20T17:16:42Z</time>
      </trkpt>
      <trkpt lat="56.36683" lon="-6.01669">
        <ele>6.83</ele>
        <time>2021-03-20T17:16:45Z</time>
      </trkpt>
      <trkpt lat="56.36599" lon="-6.0178">
        <ele>1.95</ele>
        <time>2021-03-20T17:16:48Z</time>
      </trkpt>
      <trkpt lat="56.36583" lon="-6.01797">
        <ele>2.3</ele>
        <time>2021-03-20T17:16:51Z</time>
      </trkpt>
      <trkpt lat="56.36536" lon="-6.0184">
        <ele>1.91</ele>
        <time>2021-03-20T17:16:54Z</time>
      </trkpt>
      <trkpt lat="56.36523" lon="-6.01848">
        <ele>1.64</ele>
        <time>2021-03-20T17:16:57Z</time>
      </trkpt>
      <trkpt lat="56.36494" lon="-6.01855">
        <ele>2.42</ele>
        <time>2021-03-20T17:17:01Z</time>
      </trkpt>
      <trkpt lat="56.36484" lon="-6.01865">
        <ele>2.5</ele>
        <time>2021-03-20T17:17:04Z</time>
      </trkpt>
      <trkpt lat="56.36474" lon="-6.01884">
        <ele>2.18</ele>
        <time>2021-03-20T17:17:07Z</time>
      </trkpt>
      <trkpt lat="56.36466" lon="-6.01907">
        <ele>3.03</ele>
        <time>2021-03-20T17:17:10Z</time>
      </trkpt>
      <trkpt lat="56.36461" lon="-6.01928">
        <ele>3.55</ele>
        <time>2021-03-20T17:17:13Z</time>
      </trkpt>
      <trkpt lat="56.36461" lon="-6.01965">
        <ele>2.92</ele>
        <time>2021-03-20T17:17:16Z</time>
      </trkpt>
      <trkpt lat="56.36432" lon="-6.02218">
        <ele>12.09</ele>
        <time>2021-03-20T17:17:19Z</time>
      </trkpt>
      <trkpt lat="56.36433" lon="-6.0228">
        <ele>13.67</ele>
        <time>2021-03-20T17:17:22Z</time>
      </trkpt>
      <trkpt lat="56.36436" lon="-6.02305">
        <ele>14.77</ele>
        <time>2021-03-20T17:17:26Z</time>
      </trkpt>
      <trkpt lat="56.36435" lon="-6.02336">
        <ele>13.75</ele>
        <time>2021-03-20T17:17:29Z</time>
      </trkpt>
      <trkpt lat="56.36428" lon="-6.02393">
        <ele>9.59</ele>
        <time>2021-03-20T17:17:32Z</time>
      </trkpt>
      <trkpt lat="56.36412" lon="-6.02451">
        <ele>3.95</ele>
        <time>2021-03-20T17:17:35Z</time>
      </trkpt>
      <trkpt lat="56.364" lon="-6.02541">
        <ele>11.74</ele>
        <time>2021-03-20T17:17:38Z</time>
      </trkpt>
      <trkpt lat="56.364" lon="-6.02686">
        <ele>10.25</ele>
        <time>2021-03-20T17:17:41Z</time>
      </trkpt>
      <trkpt lat="56.36399" lon="-6.02726">
        <ele>9.76</ele>
        <time>2021-03-20T17:17:44Z</time>
      </trkpt>
      <trkpt lat="56.36389" lon="-6.02775">
        <ele>7.07</ele>
        <time>2021-03-20T17:17:47Z</time>
      </trkpt>
      <trkpt lat="56.36376" lon="-6.02808">
        <ele>9.19</ele>
        <time>2021-03-20T17:17:51Z</time>
      </trkpt>
      <trkpt lat="56.36357" lon="-6.02878">
        <ele>12.37</ele>
        <time>2021-03-20T17:17:54Z</time>
      </trkpt>
      <trkpt lat="56.36339" lon="-6.02989">
        <ele>13.39</ele>
        <time>2021-03-20T17:17:57Z</time>
      </trkpt>
      <trkpt lat="56.36298" lon="-6.03286">
        <ele>11.14</ele>
        <time>2021-03-20T17:18:00Z</time>
      </trkpt>
      <trkpt lat="56.3628" lon="-6.0336">
        <ele>11.66</ele>
        <time>2021-03-20T17:18:03Z</time>
      </trkpt>
      <trkpt lat="56.36236" lon="-6.03722">
        <ele>4.54</ele>
        <time>2021-03-20T17:18:06Z</time>
      </trkpt>
      <trkpt lat="56.36227" lon="-6.03778">
        <ele>3.68</ele>
        <time>2021-03-20T17:18:09Z</time>
      </trkpt>
      <trkpt lat="56.36212" lon="-6.03848">
        <ele>4.88</ele>
        <time>2021-03-20T17:18:12Z</time>
      </trkpt>
      <trkpt lat="56.36187" lon="-6.03925">
        <ele>6.51</ele>
        <time>2021-03-20T17:18:16Z</time>
      </trkpt>
      <trkpt lat="56.36127" lon="-6.04145">
        <ele>4.93</ele>
        <time>2021-03-20T17:18:19Z</time>
      </trkpt>
      <trkpt lat="56.36119" lon="-6.04162">
        <ele>4.73</ele>
        <time>2021-03-20T17:18:22Z</time>
      </trkpt>
      <trkpt lat="56.36039" lon="-6.04269">
        <ele>6.11</ele>
        <time>2021-03-20T17:18:25Z</time>
      </trkpt>
      <trkpt lat="56.36004" lon="-6.04327">
        <ele>7.77</ele>
        <time>2021-03-20T17:18:28Z</time>
      </trkpt>
      <trkpt lat="56.35994" lon="-6.04357">
        <ele>8.39</ele>
        <time>2021-03-20T17:18:31Z</time>
      </trkpt>
      <trkpt lat="56.35988" lon="-6.04391">
        <ele>9.65</ele>
        <time>2021-03-20T17:18:34Z</time>
      </trkpt>
      <trkpt lat="56.35978" lon="-6.04542">
        <ele>10.99</ele>
        <time>2021-03-20T17:18:37Z</time>
      </trkpt>
      <trkpt lat="56.35962" lon="-6.0474">
        <ele>10.23</ele>
        <time>2021-03-20T17:18:40Z</time>
      </trkpt>
      <trkpt lat="56.35937" lon="-6.04973">
        <ele>5.8</ele>
        <time>2021-03-20T17:18:44Z</time>
      </trkpt>
      <trkpt lat="56.35926" lon="-6.05015">
        <ele>8.92</ele>
        <time>2021-03-20T17:18:47Z</time>
      </trkpt>
      <trkpt lat="56.3586" lon="-6.05241">
        <ele>11.35</ele>
        <time>2021-03-20T17:18:50Z</time>
      </trkpt>
      <trkpt lat="56.35829" lon="-6.05391">
        <ele>7.11</ele>
        <time>2021-03-20T17:18:53Z</time>
      </trkpt>
      <trkpt lat="56.35822" lon="-6.05437">
        <ele>14.16</ele>
        <time>2021-03-20T17:18:56Z</time>
      </trkpt>
      <trkpt lat="56.3578" lon="-6.05592">
        <ele>16.35</ele>
        <time>2021-03-20T17:18:59Z</time>
      </trkpt>
      <trkpt lat="56.35744" lon="-6.05772">
        <ele>7.92</ele>
        <time>2021-03-20T17:19:02Z</time>
      </trkpt>
      <trkpt lat="56.35701" lon="-6.05949">
        <ele>6.23</ele>
        <time>2021-03-20T17:19:05Z</time>
      </trkpt>
      <trkpt lat="56.35689" lon="-6.06013">
        <ele>8.27</ele>
        <time>2021-03-20T17:19:09Z</time>
      </trkpt>
      <trkpt lat="56.3568" lon="-6.06079">
        <ele>11.41</ele>
        <time>2021-03-20T17:19:12Z</time>
      </trkpt>
      <trkpt lat="56.35677" lon="-6.06126">
        <ele>12.03</ele>
        <time>2021-03-20T17:19:15Z</time>
      </trkpt>
      <trkpt lat="56.35671" lon="-6.06171">
        <ele>12.26</ele>
        <time>2021-03-20T17:19:18Z</time>
      </trkpt>
      <trkpt lat="56.35443" lon="-6.07203">
        <ele>15.05</ele>
        <time>2021-03-20T17:19:21Z</time>
      </trkpt>
      <trkpt lat="56.35421" lon="-6.0728">
        <ele>12.26</ele>
        <time>2021-03-20T17:19:24Z</time>
      </trkpt>
      <trkpt lat="56.35399" lon="-6.07348">
        <ele>9.82</ele>
        <time>2021-03-20T17:19:27Z</time>
      </trkpt>
      <trkpt lat="56.35368" lon="-6.07428">
        <ele>7.59</ele>
        <time>2021-03-20T17:19:30Z</time>
      </trkpt>
      <trkpt lat="56.35354" lon="-6.07453">
        <ele>6.68</ele>
        <time>2021-03-20T17:19:34Z</time>
      </trkpt>
      <trkpt lat="56.35315" lon="-6.07492">
        <ele>8.39</ele>
        <time>2021-03-20T17:19:37Z</time>
      </trkpt>
      <trkpt lat="56.3531" lon="-6.07561">
        <ele>10.12</ele>
        <time>2021-03-20T17:19:40Z</time>
      </trkpt>
      <trkpt lat="56.35291" lon="-6.07702">
        <ele>11.56</ele>
        <time>2021-03-20T17:19:43Z</time>
      </trkpt>
      <trkpt lat="56.35284" lon="-6.07772">
        <ele>11.83</ele>
        <time>2021-03-20T17:19:46Z</time>
      </trkpt>
      <trkpt lat="56.35272" lon="-6.07873">
        <ele>11.92</ele>
        <time>2021-03-20T17:19:49Z</time>
      </trkpt>
      <trkpt lat="56.35269" lon="-6.07927">
        <ele>12.56</ele>
        <time>2021-03-20T17:19:52Z</time>
      </trkpt>
      <trkpt lat="56.35269" lon="-6.07972">
        <ele>12.95</ele>
        <time>2021-03-20T17:19:55Z</time>
      </trkpt>
      <trkpt lat="56.35261" lon="-6.08084">
        <ele>13.44</ele>
        <time>2021-03-20T17:19:59Z</time>
      </trkpt>
      <trkpt lat="56.35241" lon="-6.0816">
        <ele>11.33</ele>
        <time>2021-03-20T17:20:02Z</time>
      </trkpt>
      <trkpt lat="56.35159" lon="-6.08391">
        <ele>10.53</ele>
        <time>2021-03-20T17:20:05Z</time>
      </trkpt>
      <trkpt lat="56.35104" lon="-6.08521">
        <ele>16.58</ele>
        <time>2021-03-20T17:20:08Z</time>
      </trkpt>
      <trkpt lat="56.3506" lon="-6.0861">
        <ele>18.16</ele>
        <time>2021-03-20T17:20:11Z</time>
      </trkpt>
      <trkpt lat="56.35044" lon="-6.08634">
        <ele>16.37</ele>
        <time>2021-03-20T17:20:14Z</time>
      </trkpt>
      <trkpt lat="56.35029" lon="-6.08651">
        <ele>14.61</ele>
        <time>2021-03-20T17:20:17Z</time>
      </trkpt>
      <trkpt lat="56.34965" lon="-6.08662">
        <ele>11.12</ele>
        <time>2021-03-20T17:20:20Z</time>
      </trkpt>
      <trkpt lat="56.34946" lon="-6.08673">
        <ele>12.18</ele>
        <time>2021-03-20T17:20:23Z</time>
      </trkpt>
      <trkpt lat="56.34928" lon="-6.08693">
        <ele>11.94</ele>
        <time>2021-03-20T17:20:27Z</time>
      </trkpt>
      <trkpt lat="56.34909" lon="-6.08727">
        <ele>11.36</ele>
        <time>2021-03-20T17:20:30Z</time>
      </trkpt>
      <trkpt lat="56.34875" lon="-6.08791">
        <ele>7.31</ele>
        <time>2021-03-20T17:20:33Z</time>
      </trkpt>
      <trkpt lat="56.34854" lon="-6.0882">
        <ele>6.76</ele>
        <time>2021-03-20T17:20:36Z</time>
      </trkpt>
      <trkpt lat="56.34841" lon="-6.08828">
        <ele>7.57</ele>
        <time>2021-03-20T17:20:39Z</time>
      </trkpt>
      <trkpt lat="56.34812" lon="-6.08836">
        <ele>8.52</ele>
        <time>2021-03-20T17:20:42Z</time>
      </trkpt>
      <trkpt lat="56.34731" lon="-6.08844">
        <ele>5.55</ele>
        <time>2021-03-20T17:20:45Z</time>
      </trkpt>
      <trkpt lat="56.34712" lon="-6.08853">
        <ele>5.23</ele>
        <time>2021-03-20T17:20:48Z</time>
      </trkpt>
      <trkpt lat="56.34693" lon="-6.08869">
        <ele>5.82</ele>
        <time>2021-03-20T17:20:52Z</time>
      </trkpt>
      <trkpt lat="56.34665" lon="-6.08909">
        <ele>5.66</ele>
        <time>2021-03-20T17:20:55Z</time>
      </trkpt>
      <trkpt lat="56.34628" lon="-6.08979">
        <ele>3.92</ele>
        <time>2021-03-20T17:20:58Z</time>
      </trkpt>
      <trkpt lat="56.34604" lon="-6.09049">
        <ele>4.5</ele>
        <time>2021-03-20T17:21:01Z</time>
      </trkpt>
      <trkpt lat="56.34594" lon="-6.0909">
        <ele>4.24</ele>
        <time>2021-03-20T17:21:04Z</time>
      </trkpt>
      <trkpt lat="56.34576" lon="-6.0918">
        <ele>4.72</ele>
        <time>2021-03-20T17:21:07Z</time>
      </trkpt>
      <trkpt lat="56.34562" lon="-6.09276">
        <ele>6.14</ele>
        <time>2021-03-20T17:21:10Z</time>
      </trkpt>
      <trkpt lat="56.34523" lon="-6.09464">
        <ele>2.96</ele>
        <time>2021-03-20T17:21:13Z</time>
      </trkpt>
      <trkpt lat="56.34518" lon="-6.09499">
        <ele>2.8</ele>
        <time>2021-03-20T17:21:17Z</time>
      </trkpt>
      <trkpt lat="56.34512" lon="-6.09567">
        <ele>3.66</ele>
        <time>2021-03-20T17:21:20Z</time>
      </trkpt>
      <trkpt lat="56.34507" lon="-6.09655">
        <ele>3.28</ele>
        <time>2021-03-20T17:21:23Z</time>
      </trkpt>
      <trkpt lat="56.34507" lon="-6.09687">
        <ele>3.43</ele>
        <time>2021-03-20T17:21:26Z</time>
      </trkpt>
      <trkpt lat="56.34501" lon="-6.09783">
        <ele>4.97</ele>
        <time>2021-03-20T17:21:29Z</time>
      </trkpt>
      <trkpt lat="56.34495" lon="-6.0983">
        <ele>5.19</ele>
        <time>2021-03-20T17:21:32Z</time>
      </trkpt>
      <trkpt lat="56.34486" lon="-6.09864">
        <ele>4.44</ele>
        <time>2021-03-20T17:21:35Z</time>
      </trkpt>
      <trkpt lat="56.34475" lon="-6.09897">
        <ele>3.72</ele>
        <time>2021-03-20T17:21:38Z</time>
      </trkpt>
      <trkpt lat="56.34463" lon="-6.0992">
        <ele>3.55</ele>
        <time>2021-03-20T17:21:41Z</time>
      </trkpt>
      <trkpt lat="56.3426" lon="-6.10218">
        <ele>5.81</ele>
        <time>2021-03-20T17:21:45Z</time>
      </trkpt>
      <trkpt lat="56.3423" lon="-6.10269">
        <ele>4.82</ele>
        <time>2021-03-20T17:21:48Z</time>
      </trkpt>
      <trkpt lat="56.34211" lon="-6.10317">
        <ele>7.23</ele>
        <time>2021-03-20T17:21:51Z</time>
      </trkpt>
      <trkpt lat="56.34199" lon="-6.10367">
        <ele>10.62</ele>
        <time>2021-03-20T17:21:54Z</time>
      </trkpt>
      <trkpt lat="56.34196" lon="-6.10406">
        <ele>12.33</ele>
        <time>2021-03-20T17:21:57Z</time>
      </trkpt>
      <trkpt lat="56.34198" lon="-6.10447">
        <ele>13.7</ele>
        <time>2021-03-20T17:22:00Z</time>
      </trkpt>
      <trkpt lat="56.34206" lon="-6.10491">
        <ele>16.32</ele>
        <time>2021-03-20T17:22:03Z</time>
      </trkpt>
      <trkpt lat="56.34217" lon="-6.10534">
        <ele>17.41</ele>
        <time>2021-03-20T17:22:06Z</time>
      </trkpt>
      <trkpt lat="56.34283" lon="-6.10691">
        <ele>15.89</ele>
        <time>2021-03-20T17:22:10Z</time>
      </trkpt>
      <trkpt lat="56.3435" lon="-6.10843">
        <ele>16.07</ele>
        <time>2021-03-20T17:22:13Z</time>
      </trkpt>
      <trkpt lat="56.34376" lon="-6.10931">
        <ele>14.93</ele>
        <time>2021-03-20T17:22:16Z</time>
      </trkpt>
      <trkpt lat="56.34382" lon="-6.11006">
        <ele>15.29</ele>
        <time>2021-03-20T17:22:19Z</time>
      </trkpt>
      <trkpt lat="56.3438" lon="-6.11046">
        <ele>12.65</ele>
        <time>2021-03-20T17:22:22Z</time>
      </trkpt>
      <trkpt lat="56.34378" lon="-6.11064">
        <ele>11.37</ele>
        <time>2021-03-20T17:22:25Z</time>
      </trkpt>
      <trkpt lat="56.34364" lon="-6.1113">
        <ele>8.76</ele>
        <time>2021-03-20T17:22:28Z</time>
      </trkpt>
      <trkpt lat="56.34351" lon="-6.11202">
        <ele>9.07</ele>
        <time>2021-03-20T17:22:31Z</time>
      </trkpt>
      <trkpt lat="56.34342" lon="-6.11274">
        <ele>10.02</ele>
        <time>2021-03-20T17:22:35Z</time>
      </trkpt>
      <trkpt lat="56.34339" lon="-6.1141">
        <ele>9.55</ele>
        <time>2021-03-20T17:22:38Z</time>
      </trkpt>
      <trkpt lat="56.34344" lon="-6.11488">
        <ele>8.25</ele>
        <time>2021-03-20T17:22:41Z</time>
      </trkpt>
      <trkpt lat="56.34359" lon="-6.11621">
        <ele>7.74</ele>
        <time>2021-03-20T17:22:44Z</time>
      </trkpt>
      <trkpt lat="56.34368" lon="-6.12022">
        <ele>9.9</ele>
        <time>2021-03-20T17:22:47Z</time>
      </trkpt>
      <trkpt lat="56.34367" lon="-6.12073">
        <ele>11.78</ele>
        <time>2021-03-20T17:22:50Z</time>
      </trkpt>
      <trkpt lat="56.34363" lon="-6.12117">
        <ele>13.89</ele>
        <time>2021-03-20T17:22:53Z</time>
      </trkpt>
      <trkpt lat="56.34358" lon="-6.12142">
        <ele>15.54</ele>
        <time>2021-03-20T17:22:56Z</time>
      </trkpt>
      <trkpt lat="56.3434" lon="-6.12202">
        <ele>17.82</ele>
        <time>2021-03-20T17:23:00Z</time>
      </trkpt>
      <trkpt lat="56.34322" lon="-6.12236">
        <ele>20.42</ele>
        <time>2021-03-20T17:23:03Z</time>
      </trkpt>
      <trkpt lat="56.34242" lon="-6.12349">
        <ele>28.84</ele>
        <time>2021-03-20T17:23:06Z</time>
      </trkpt>
      <trkpt lat="56.34146" lon="-6.12501">
        <ele>29.74</ele>
        <time>2021-03-20T17:23:09Z</time>
      </trkpt>
      <trkpt lat="56.3408" lon="-6.12617">
        <ele>29.81</ele>
        <time>2021-03-20T17:23:12Z</time>
      </trkpt>
      <trkpt lat="56.34016" lon="-6.1274">
        <ele>23.58</ele>
        <time>2021-03-20T17:23:15Z</time>
      </trkpt>
      <trkpt lat="56.33998" lon="-6.1278">
        <ele>23.07</ele>
        <time>2021-03-20T17:23:18Z</time>
      </trkpt>
      <trkpt lat="56.33984" lon="-6.12823">
        <ele>22.5</ele>
        <time>2021-03-20T17:23:21Z</time>
      </trkpt>
      <trkpt lat="56.33976" lon="-6.12866">
        <ele>22.6</ele>
        <time>2021-03-20T17:23:24Z</time>
      </trkpt>
      <trkpt lat="56.33974" lon="-6.12913">
        <ele>23.71</ele>
        <time>2021-03-20T17:23:28Z</time>
      </trkpt>
      <trkpt lat="56.3398" lon="-6.13157">
        <ele>18.56</ele>
        <time>2021-03-20T17:23:31Z</time>
      </trkpt>
      <trkpt lat="56.33989" lon="-6.13395">
        <ele>9.78</ele>
        <time>2021-03-20T17:23:34Z</time>
      </trkpt>
      <trkpt lat="56.33992" lon="-6.13537">
        <ele>5.89</ele>
        <time>2021-03-20T17:23:37Z</time>
      </trkpt>
      <trkpt lat="56.33986" lon="-6.13606">
        <ele>6.56</ele>
        <time>2021-03-20T17:23:40Z</time>
      </trkpt>
      <trkpt lat="56.33972" lon="-6.13667">
        <ele>9</ele>
        <time>2021-03-20T17:23:43Z</time>
      </trkpt>
      <trkpt lat="56.33919" lon="-6.13834">
        <ele>17.6</ele>
        <time>2021-03-20T17:23:46Z</time>
      </trkpt>
      <trkpt lat="56.33904" lon="-6.13875">
        <ele>17.7</ele>
        <time>2021-03-20T17:23:49Z</time>
      </trkpt>
      <trkpt lat="56.33883" lon="-6.13911">
        <ele>17.66</ele>
        <time>2021-03-20T17:23:53Z</time>
      </trkpt>
      <trkpt lat="56.33861" lon="-6.13935">
        <ele>18.35</ele>
        <time>2021-03-20T17:23:56Z</time>
      </trkpt>
      <trkpt lat="56.33835" lon="-6.13949">
        <ele>17.67</ele>
        <time>2021-03-20T17:23:59Z</time>
      </trkpt>
      <trkpt lat="56.33805" lon="-6.13954">
        <ele>16.94</ele>
        <time>2021-03-20T17:24:02Z</time>
      </trkpt>
      <trkpt lat="56.33746" lon="-6.13955">
        <ele>15.82</ele>
        <time>2021-03-20T17:24:05Z</time>
      </trkpt>
      <trkpt lat="56.33717" lon="-6.13959">
        <ele>15.45</ele>
        <time>2021-03-20T17:24:08Z</time>
      </trkpt>
      <trkpt lat="56.33689" lon="-6.13974">
        <ele>17.32</ele>
        <time>2021-03-20T17:24:11Z</time>
      </trkpt>
      <trkpt lat="56.33657" lon="-6.14014">
        <ele>18.27</ele>
        <time>2021-03-20T17:24:14Z</time>
      </trkpt>
      <trkpt lat="56.33642" lon="-6.14045">
        <ele>18.96</ele>
        <time>2021-03-20T17:24:18Z</time>
      </trkpt>
      <trkpt lat="56.33629" lon="-6.14088">
        <ele>20.81</ele>
        <time>2021-03-20T17:24:21Z</time>
      </trkpt>
      <trkpt lat="56.33596" lon="-6.14219">
        <ele>26.73</ele>
        <time>2021-03-20T17:24:24Z</time>
      </trkpt>
      <trkpt lat="56.33589" lon="-6.14263">
        <ele>26.34</ele>
        <time>2021-03-20T17:24:27Z</time>
      </trkpt>
      <trkpt lat="56.33586" lon="-6.14309">
        <ele>26.32</ele>
        <time>2021-03-20T17:24:30Z</time>
      </trkpt>
      <trkpt lat="56.33587" lon="-6.14353">
        <ele>26.89</ele>
        <time>2021-03-20T17:24:33Z</time>
      </trkpt>
      <trkpt lat="56.33592" lon="-6.14399">
        <ele>27.13</ele>
        <time>2021-03-20T17:24:36Z</time>
      </trkpt>
      <trkpt lat="56.33607" lon="-6.14449">
        <ele>27.13</ele>
        <time>2021-03-20T17:24:39Z</time>
      </trkpt>
      <trkpt lat="56.33657" lon="-6.14595">
        <ele>27.19</ele>
        <time>2021-03-20T17:24:43Z</time>
      </trkpt>
      <trkpt lat="56.33663" lon="-6.14624">
        <ele>27.26</ele>
        <time>2021-03-20T17:24:46Z</time>
      </trkpt>
      <trkpt lat="56.33668" lon="-6.14673">
        <ele>26.78</ele>
        <time>2021-03-20T17:24:49Z</time>
      </trkpt>
      <trkpt lat="56.33668" lon="-6.14713">
        <ele>27.57</ele>
        <time>2021-03-20T17:24:52Z</time>
      </trkpt>
      <trkpt lat="56.3366" lon="-6.14784">
        <ele>28.48</ele>
        <time>2021-03-20T17:24:55Z</time>
      </trkpt>
      <trkpt lat="56.33626" lon="-6.14998">
        <ele>28.68</ele>
        <time>2021-03-20T17:24:58Z</time>
      </trkpt>
      <trkpt lat="56.33622" lon="-6.1504">
        <ele>28.62</ele>
        <time>2021-03-20T17:25:01Z</time>
      </trkpt>
      <trkpt lat="56.33622" lon="-6.15084">
        <ele>29.71</ele>
        <time>2021-03-20T17:25:04Z</time>
      </trkpt>
      <trkpt lat="56.33625" lon="-6.15134">
        <ele>31.2</ele>
        <time>2021-03-20T17:25:07Z</time>
      </trkpt>
      <trkpt lat="56.33649" lon="-6.15393">
        <ele>31.5</ele>
        <time>2021-03-20T17:25:11Z</time>
      </trkpt>
      <trkpt lat="56.33656" lon="-6.15529">
        <ele>28.64</ele>
        <time>2021-03-20T17:25:14Z</time>
      </trkpt>
      <trkpt lat="56.33654" lon="-6.15566">
        <ele>28.45</ele>
        <time>2021-03-20T17:25:17Z</time>
      </trkpt>
      <trkpt lat="56.33642" lon="-6.15654">
        <ele>28.88</ele>
        <time>2021-03-20T17:25:20Z</time>
      </trkpt>
      <trkpt lat="56.33633" lon="-6.15746">
        <ele>31.28</ele>
        <time>2021-03-20T17:25:23Z</time>
      </trkpt>
      <trkpt lat="56.33631" lon="-6.15794">
        <ele>32.03</ele>
        <time>2021-03-20T17:25:26Z</time>
      </trkpt>
      <trkpt lat="56.33632" lon="-6.15843">
        <ele>31.53</ele>
        <time>2021-03-20T17:25:29Z</time>
      </trkpt>
      <trkpt lat="56.33633" lon="-6.1589">
        <ele>30.83</ele>
        <time>2021-03-20T17:25:32Z</time>
      </trkpt>
      <trkpt lat="56.33638" lon="-6.15942">
        <ele>28.46</ele>
        <time>2021-03-20T17:25:36Z</time>
      </trkpt>
      <trkpt lat="56.33638" lon="-6.16007">
        <ele>28.26</ele>
        <time>2021-03-20T17:25:39Z</time>
      </trkpt>
      <trkpt lat="56.33622" lon="-6.16271">
        <ele>30.63</ele>
        <time>2021-03-20T17:25:42Z</time>
      </trkpt>
      <trkpt lat="56.33615" lon="-6.16329">
        <ele>30.33</ele>
        <time>2021-03-20T17:25:45Z</time>
      </trkpt>
      <trkpt lat="56.33611" lon="-6.16383">
        <ele>30.02</ele>
        <time>2021-03-20T17:25:48Z</time>
      </trkpt>
      <trkpt lat="56.33603" lon="-6.16419">
        <ele>29.52</ele>
        <time>2021-03-20T17:25:51Z</time>
      </trkpt>
      <trkpt lat="56.33482" lon="-6.16709">
        <ele>24.89</ele>
        <time>2021-03-20T17:25:54Z</time>
      </trkpt>
      <trkpt lat="56.33466" lon="-6.16755">
        <ele>22.92</ele>
        <time>2021-03-20T17:25:57Z</time>
      </trkpt>
      <trkpt lat="56.33453" lon="-6.16803">
        <ele>21.32</ele>
        <time>2021-03-20T17:26:01Z</time>
      </trkpt>
      <trkpt lat="56.33442" lon="-6.16851">
        <ele>19.76</ele>
        <time>2021-03-20T17:26:04Z</time>
      </trkpt>
      <trkpt lat="56.3343" lon="-6.16969">
        <ele>16.18</ele>
        <time>2021-03-20T17:26:07Z</time>
      </trkpt>
      <trkpt lat="56.33395" lon="-6.17112">
        <ele>15.92</ele>
        <time>2021-03-20T17:26:10Z</time>
      </trkpt>
      <trkpt lat="56.33363" lon="-6.17264">
        <ele>13.29</ele>
        <time>2021-03-20T17:26:13Z</time>
      </trkpt>
      <trkpt lat="56.33295" lon="-6.17557">
        <ele>16.13</ele>
        <time>2021-03-20T17:26:16Z</time>
      </trkpt>
      <trkpt lat="56.33144" lon="-6.18272">
        <ele>32.44</ele>
        <time>2021-03-20T17:26:19Z</time>
      </trkpt>
      <trkpt lat="56.33071" lon="-6.1874">
        <ele>31.15</ele>
        <time>2021-03-20T17:26:22Z</time>
      </trkpt>
      <trkpt lat="56.33066" lon="-6.18849">
        <ele>33.49</ele>
        <time>2021-03-20T17:26:26Z</time>
      </trkpt>
      <trkpt lat="56.33088" lon="-6.19045">
        <ele>36.37</ele>
        <time>2021-03-20T17:26:29Z</time>
      </trkpt>
      <trkpt lat="56.33087" lon="-6.19109">
        <ele>38.12</ele>
        <time>2021-03-20T17:26:32Z</time>
      </trkpt>
      <trkpt lat="56.33083" lon="-6.19168">
        <ele>40.12</ele>
        <time>2021-03-20T17:26:35Z</time>
      </trkpt>
      <trkpt lat="56.33006" lon="-6.19575">
        <ele>43.26</ele>
        <time>2021-03-20T17:26:38Z</time>
      </trkpt>
      <trkpt lat="56.32991" lon="-6.19629">
        <ele>44.5</ele>
        <time>2021-03-20T17:26:41Z</time>
      </trkpt>
      <trkpt lat="56.32975" lon="-6.19673">
        <ele>44.33</ele>
        <time>2021-03-20T17:26:44Z</time>
      </trkpt>
      <trkpt lat="56.32829" lon="-6.19948">
        <ele>33.9</ele>
        <time>2021-03-20T17:26:47Z</time>
      </trkpt>
      <trkpt lat="56.3284" lon="-6.19985">
        <ele>32.45</ele>
        <time>2021-03-20T17:26:50Z</time>
      </trkpt>
      <trkpt lat="56.32844" lon="-6.20047">
        <ele>29.94</ele>
        <time>2021-03-20T17:26:53Z</time>
      </trkpt>
      <trkpt lat="56.32856" lon="-6.20079">
        <ele>28.41</ele>
        <time>2021-03-20T17:26:56Z</time>
      </trkpt>
      <trkpt lat="56.32874" lon="-6.20096">
        <ele>26.65</ele>
        <time>2021-03-20T17:26:59Z</time>
      </trkpt>
      <trkpt lat="56.32938" lon="-6.20131">
        <ele>21.72</ele>
        <time>2021-03-20T17:27:02Z</time>
      </trkpt>
      <trkpt lat="56.32967" lon="-6.20142">
        <ele>20.08</ele>
        <time>2021-03-20T17:27:05Z</time>
      </trkpt>
      <trkpt lat="56.32997" lon="-6.20121">
        <ele>19.75</ele>
        <time>2021-03-20T17:27:08Z</time>
      </trkpt>
      <trkpt lat="56.33011" lon="-6.20077">
        <ele>20.24</ele>
        <time>2021-03-20T17:27:11Z</time>
      </trkpt>
      <trkpt lat="56.33015" lon="-6.2007">
        <ele>20.48</ele>
        <time>2021-03-20T17:27:14Z</time>
      </trkpt>
      <trkpt lat="56.33026" lon="-6.2007">
        <ele>20.48</ele>
        <time>2021-03-20T17:27:17Z</time>
      </trkpt>
      <trkpt lat="56.33046" lon="-6.20077">
        <ele>19.58</ele>
        <time>2021-03-20T17:27:20Z</time>
      </trkpt>
      <trkpt lat="56.33058" lon="-6.20076">
        <ele>19.15</ele>
        <time>2021-03-20T17:27:24Z</time>
      </trkpt>
      <trkpt lat="56.33063" lon="-6.20072">
        <ele>19.13</ele>
        <time>2021-03-20T17:27:27Z</time>
      </trkpt>
      <trkpt lat="56.33071" lon="-6.20057">
        <ele>19.38</ele>
        <time>2021-03-20T17:27:30Z</time>
      </trkpt>
      <trkpt lat="56.33079" lon="-6.20036">
        <ele>19.84</ele>
        <time>2021-03-20T17:27:33Z</time>
      </trkpt>
      <trkpt lat="56.3309" lon="-6.20021">
        <ele>20.45</ele>
        <time>2021-03-20T17:27:36Z</time>
      </trkpt>
      <trkpt lat="56.33101" lon="-6.2001">
        <ele>20.86</ele>
        <time>2021-03-20T17:27:39Z</time>
      </trkpt>
      <trkpt lat="56.33142" lon="-6.19989">
        <ele>21.31</ele>
        <time>2021-03-20T17:27:42Z</time>
      </trkpt>
      <trkpt lat="56.33182" lon="-6.19953">
        <ele>20.08</ele>
        <time>2021-03-20T17:27:45Z</time>
      </trkpt>
      <trkpt lat="56.33319" lon="-6.20067">
        <ele>14.43</ele>
        <time>2021-03-20T17:27:48Z</time>
      </trkpt>
      <trkpt lat="56.33332" lon="-6.20074">
        <ele>13.77</ele>
        <time>2021-03-20T17:27:51Z</time>
      </trkpt>
      <trkpt lat="56.33335" lon="-6.20084">
        <ele>13.78</ele>
        <time>2021-03-20T17:27:54Z</time>
      </trkpt>
      <trkpt lat="56.33342" lon="-6.20129">
        <ele>13.73</ele>
        <time>2021-03-20T17:27:57Z</time>
      </trkpt>
      <trkpt lat="56.3334" lon="-6.20182">
        <ele>14.39</ele>
        <time>2021-03-20T17:28:00Z</time>
      </trkpt>
      <trkpt lat="56.33347" lon="-6.20254">
        <ele>15</ele>
        <time>2021-03-20T17:28:03Z</time>
      </trkpt>
      <trkpt lat="56.33357" lon="-6.20301">
        <ele>15.23</ele>
        <time>2021-03-20T17:28:07Z</time>
      </trkpt>
      <trkpt lat="56.3337" lon="-6.20324">
        <ele>14.74</ele>
        <time>2021-03-20T17:28:10Z</time>
      </trkpt>
      <trkpt lat="56.33389" lon="-6.20379">
        <ele>13.95</ele>
        <time>2021-03-20T17:28:13Z</time>
      </trkpt>
      <trkpt lat="56.33407" lon="-6.2042">
        <ele>12.08</ele>
        <time>2021-03-20T17:28:16Z</time>
      </trkpt>
      <trkpt lat="56.33406" lon="-6.20436">
        <ele>12.16</ele>
        <time>2021-03-20T17:28:19Z</time>
      </trkpt>
      <trkpt lat="56.33344" lon="-6.20539">
        <ele>14.37</ele>
        <time>2021-03-20T17:28:22Z</time>
      </trkpt>
      <trkpt lat="56.33339" lon="-6.20544">
        <ele>14.33</ele>
        <time>2021-03-20T17:28:25Z</time>
      </trkpt>
      <trkpt lat="56.33295" lon="-6.2057">
        <ele>14.34</ele>
        <time>2021-03-20T17:28:28Z</time>
      </trkpt>
      <trkpt lat="56.33281" lon="-6.20584">
        <ele>13.85</ele>
        <time>2021-03-20T17:28:31Z</time>
      </trkpt>
      <trkpt lat="56.33264" lon="-6.2061">
        <ele>12.57</ele>
        <time>2021-03-20T17:28:34Z</time>
      </trkpt>
      <trkpt lat="56.33256" lon="-6.20632">
        <ele>11.3</ele>
        <time>2021-03-20T17:28:37Z</time>
      </trkpt>
      <trkpt lat="56.33246" lon="-6.2067">
        <ele>10.51</ele>
        <time>2021-03-20T17:28:40Z</time>
      </trkpt>
      <trkpt lat="56.33229" lon="-6.2074">
        <ele>9.89</ele>
        <time>2021-03-20T17:28:43Z</time>
      </trkpt>
      <trkpt lat="56.33223" lon="-6.2076">
        <ele>9.6</ele>
        <time>2021-03-20T17:28:46Z</time>
      </trkpt>
      <trkpt lat="56.33216" lon="-6.20774">
        <ele>9.17</ele>
        <time>2021-03-20T17:28:49Z</time>
      </trkpt>
      <trkpt lat="56.33194" lon="-6.20803">
        <ele>8.11</ele>
        <time>2021-03-20T17:28:53Z</time>
      </trkpt>
      <trkpt lat="56.33148" lon="-6.20824">
        <ele>9.01</ele>
        <time>2021-03-20T17:28:56Z</time>
      </trkpt>
      <trkpt lat="56.33141" lon="-6.20829">
        <ele>9.07</ele>
        <time>2021-03-20T17:28:59Z</time>
      </trkpt>
      <trkpt lat="56.33131" lon="-6.20844">
        <ele>7.93</ele>
        <time>2021-03-20T17:29:02Z</time>
      </trkpt>
      <trkpt lat="56.33123" lon="-6.20868">
        <ele>6.09</ele>
        <time>2021-03-20T17:29:05Z</time>
      </trkpt>
      <trkpt lat="56.33095" lon="-6.2106">
        <ele>8.03</ele>
        <time>2021-03-20T17:29:08Z</time>
      </trkpt>
      <trkpt lat="56.33092" lon="-6.21088">
        <ele>9.96</ele>
        <time>2021-03-20T17:29:11Z</time>
      </trkpt>
      <trkpt lat="56.33086" lon="-6.21104">
        <ele>11.4</ele>
        <time>2021-03-20T17:29:14Z</time>
      </trkpt>
      <trkpt lat="56.33075" lon="-6.21126">
        <ele>13.27</ele>
        <time>2021-03-20T17:29:17Z</time>
      </trkpt>
      <trkpt lat="56.33062" lon="-6.21136">
        <ele>14.49</ele>
        <time>2021-03-20T17:29:20Z</time>
      </trkpt>
      <trkpt lat="56.33045" lon="-6.21138">
        <ele>14.6</ele>
        <time>2021-03-20T17:29:23Z</time>
      </trkpt>
      <trkpt lat="56.33035" lon="-6.21146">
        <ele>14.27</ele>
        <time>2021-03-20T17:29:26Z</time>
      </trkpt>
      <trkpt lat="56.33032" lon="-6.21159">
        <ele>14.16</ele>
        <time>2021-03-20T17:29:29Z</time>
      </trkpt>
      <trkpt lat="56.33012" lon="-6.21348">
        <ele>12.06</ele>
        <time>2021-03-20T17:29:32Z</time>
      </trkpt>
      <trkpt lat="56.33004" lon="-6.21399">
        <ele>13.2</ele>
        <time>2021-03-20T17:29:36Z</time>
      </trkpt>
      <trkpt lat="56.32993" lon="-6.21432">
        <ele>14.15</ele>
        <time>2021-03-20T17:29:39Z</time>
      </trkpt>
      <trkpt lat="56.32984" lon="-6.21475">
        <ele>15.05</ele>
        <time>2021-03-20T17:29:42Z</time>
      </trkpt>
      <trkpt lat="56.32978" lon="-6.21493">
        <ele>15.16</ele>
        <time>2021-03-20T17:29:45Z</time>
      </trkpt>
      <trkpt lat="56.32971" lon="-6.21504">
        <ele>15.11</ele>
        <time>2021-03-20T17:29:48Z</time>
      </trkpt>
      <trkpt lat="56.32957" lon="-6.21541">
        <ele>15.71</ele>
        <time>2021-03-20T17:29:51Z</time>
      </trkpt>
      <trkpt lat="56.32951" lon="-6.21573">
        <ele>16</ele>
        <time>2021-03-20T17:29:54Z</time>
      </trkpt>
      <trkpt lat="56.32955" lon="-6.21611">
        <ele>16</ele>
        <time>2021-03-20T17:29:57Z</time>
      </trkpt>
      <trkpt lat="56.32992" lon="-6.21816">
        <ele>17.7</ele>
        <time>2021-03-20T17:30:00Z</time>
      </trkpt>
      <trkpt lat="56.33" lon="-6.21884">
        <ele>18.99</ele>
        <time>2021-03-20T17:30:03Z</time>
      </trkpt>
      <trkpt lat="56.33001" lon="-6.21983">
        <ele>19</ele>
        <time>2021-03-20T17:30:06Z</time>
      </trkpt>
      <trkpt lat="56.32972" lon="-6.22277">
        <ele>19</ele>
        <time>2021-03-20T17:30:09Z</time>
      </trkpt>
      <trkpt lat="56.32957" lon="-6.22347">
        <ele>17.79</ele>
        <time>2021-03-20T17:30:12Z</time>
      </trkpt>
      <trkpt lat="56.32929" lon="-6.22429">
        <ele>18</ele>
        <time>2021-03-20T17:30:15Z</time>
      </trkpt>
      <trkpt lat="56.32916" lon="-6.22457">
        <ele>17.56</ele>
        <time>2021-03-20T17:30:19Z</time>
      </trkpt>
      <trkpt lat="56.32882" lon="-6.22502">
        <ele>17.17</ele>
        <time>2021-03-20T17:30:22Z</time>
      </trkpt>
      <trkpt lat="56.32875" lon="-6.22517">
        <ele>16.9</ele>
        <time>2021-03-20T17:30:25Z</time>
      </trkpt>
      <trkpt lat="56.32871" lon="-6.22541">
        <ele>16.64</ele>
        <time>2021-03-20T17:30:28Z</time>
      </trkpt>
      <trkpt lat="56.32871" lon="-6.2257">
        <ele>16.63</ele>
        <time>2021-03-20T17:30:31Z</time>
      </trkpt>
      <trkpt lat="56.32884" lon="-6.22709">
        <ele>15.18</ele>
        <time>2021-03-20T17:30:34Z</time>
      </trkpt>
      <trkpt lat="56.32907" lon="-6.22848">
        <ele>15.19</ele>
        <time>2021-03-20T17:30:37Z</time>
      </trkpt>
      <trkpt lat="56.32907" lon="-6.22848">
        <ele>15.19</ele>
        <time>2021-03-20T17:30:37Z</time>
      </trkpt>
      <trkpt lat="56.32931" lon="-6.22996">
        <ele>15.4</ele>
        <time>2021-03-20T17:30:42Z</time>
      </trkpt>
      <trkpt lat="56.32957" lon="-6.23197">
        <ele>16.68</ele>
        <time>2021-03-20T17:30:48Z</time>
      </trkpt>
      <trkpt lat="56.32957" lon="-6.23223">
        <ele>16.55</ele>
        <time>2021-03-20T17:30:53Z</time>
      </trkpt>
      <trkpt lat="56.32952" lon="-6.23244">
        <ele>16.41</ele>
        <time>2021-03-20T17:30:58Z</time>
      </trkpt>
      <trkpt lat="56.32939" lon="-6.23261">
        <ele>17.01</ele>
        <time>2021-03-20T17:31:04Z</time>
      </trkpt>
      <trkpt lat="56.32644" lon="-6.23589">
        <ele>10.62</ele>
        <time>2021-03-20T17:31:09Z</time>
      </trkpt>
      <trkpt lat="56.32558" lon="-6.23726">
        <ele>11.72</ele>
        <time>2021-03-20T17:31:14Z</time>
      </trkpt>
      <trkpt lat="56.32506" lon="-6.23779">
        <ele>13.51</ele>
        <time>2021-03-20T17:31:20Z</time>
      </trkpt>
      <trkpt lat="56.32467" lon="-6.23816">
        <ele>14.81</ele>
        <time>2021-03-20T17:31:25Z</time>
      </trkpt>
      <trkpt lat="56.32445" lon="-6.23826">
        <ele>15.25</ele>
        <time>2021-03-20T17:31:30Z</time>
      </trkpt>
      <trkpt lat="56.32401" lon="-6.23831">
        <ele>15.1</ele>
        <time>2021-03-20T17:31:36Z</time>
      </trkpt>
      <trkpt lat="56.32166" lon="-6.23789">
        <ele>6.59</ele>
        <time>2021-03-20T17:31:41Z</time>
      </trkpt>
      <trkpt lat="56.32096" lon="-6.23764">
        <ele>5.44</ele>
        <time>2021-03-20T17:31:46Z</time>
      </trkpt>
      <trkpt lat="56.32062" lon="-6.23738">
        <ele>4.69</ele>
        <time>2021-03-20T17:31:52Z</time>
      </trkpt>
      <trkpt lat="56.31959" lon="-6.23734">
        <ele>5.39</ele>
        <time>2021-03-20T17:31:57Z</time>
      </trkpt>
      <trkpt lat="56.31937" lon="-6.23735">
        <ele>4.74</ele>
        <time>2021-03-20T17:32:03Z</time>
      </trkpt>
      <trkpt lat="56.31924" lon="-6.23722">
        <ele>3.81</ele>
        <time>2021-03-20T17:32:08Z</time>
      </trkpt>
      <trkpt lat="56.31883" lon="-6.23607">
        <ele>3.74</ele>
        <time>2021-03-20T17:32:13Z</time>
      </trkpt>
      <trkpt lat="56.31844" lon="-6.23486">
        <ele>4.68</ele>
        <time>2021-03-20T17:32:19Z</time>
      </trkpt>
      <trkpt lat="56.31824" lon="-6.23442">
        <ele>4.04</ele>
        <time>2021-03-20T17:32:24Z</time>
      </trkpt>
      <trkpt lat="56.3181" lon="-6.23419">
        <ele>3.45</ele>
        <time>2021-03-20T17:32:29Z</time>
      </trkpt>
      <trkpt lat="56.31802" lon="-6.23395">
        <ele>4.38</ele>
        <time>2021-03-20T17:32:35Z</time>
      </trkpt>
      <trkpt lat="56.31791" lon="-6.23336">
        <ele>5.32</ele>
        <time>2021-03-20T17:32:40Z</time>
      </trkpt>
      <trkpt lat="56.31748" lon="-6.23152">
        <ele>5</ele>
        <time>2021-03-20T17:32:45Z</time>
      </trkpt>
      <trkpt lat="56.31738" lon="-6.23126">
        <ele>6.3</ele>
        <time>2021-03-20T17:32:51Z</time>
      </trkpt>
      <trkpt lat="56.3173" lon="-6.2313">
        <ele>5.67</ele>
        <time>2021-03-20T17:32:52Z</time>
      </trkpt>
      <trkpt lat="56.31705" lon="-6.23172">
        <ele>5.95</ele>
        <time>2021-03-20T17:32:54Z</time>
      </trkpt>
      <trkpt lat="56.31714" lon="-6.23225">
        <ele>5.15</ele>
        <time>2021-03-20T17:32:56Z</time>
      </trkpt>
      <trkpt lat="56.3172" lon="-6.23303">
        <ele>2.57</ele>
        <time>2021-03-20T17:32:58Z</time>
      </trkpt>
      <trkpt lat="56.31719" lon="-6.23355">
        <ele>1.52</ele>
        <time>2021-03-20T17:33:00Z</time>
      </trkpt>
      <trkpt lat="56.3171" lon="-6.23385">
        <ele>1.52</ele>
        <time>2021-03-20T17:33:02Z</time>
      </trkpt>
      <trkpt lat="56.31698" lon="-6.23394">
        <ele>2.51</ele>
        <time>2021-03-20T17:33:04Z</time>
      </trkpt>
      <trkpt lat="56.31657" lon="-6.23389">
        <ele>3.38</ele>
        <time>2021-03-20T17:33:06Z</time>
      </trkpt>
      <trkpt lat="56.31646" lon="-6.23391">
        <ele>3.78</ele>
        <time>2021-03-20T17:33:08Z</time>
      </trkpt>
      <trkpt lat="56.31628" lon="-6.23414">
        <ele>3.89</ele>
        <time>2021-03-20T17:33:11Z</time>
      </trkpt>
      <trkpt lat="56.31616" lon="-6.23448">
        <ele>3.66</ele>
        <time>2021-03-20T17:33:13Z</time>
      </trkpt>
      <trkpt lat="56.31604" lon="-6.23501">
        <ele>3.03</ele>
        <time>2021-03-20T17:33:15Z</time>
      </trkpt>
      <trkpt lat="56.31565" lon="-6.2365">
        <ele>3.58</ele>
        <time>2021-03-20T17:33:17Z</time>
      </trkpt>
      <trkpt lat="56.31563" lon="-6.23686">
        <ele>4.65</ele>
        <time>2021-03-20T17:33:19Z</time>
      </trkpt>
      <trkpt lat="56.31565" lon="-6.23719">
        <ele>5.51</ele>
        <time>2021-03-20T17:33:21Z</time>
      </trkpt>
      <trkpt lat="56.31576" lon="-6.23755">
        <ele>7.12</ele>
        <time>2021-03-20T17:33:23Z</time>
      </trkpt>
      <trkpt lat="56.31589" lon="-6.2378">
        <ele>7.61</ele>
        <time>2021-03-20T17:33:25Z</time>
      </trkpt>
      <trkpt lat="56.31754" lon="-6.24024">
        <ele>10.58</ele>
        <time>2021-03-20T17:33:27Z</time>
      </trkpt>
      <trkpt lat="56.31785" lon="-6.24079">
        <ele>8.65</ele>
        <time>2021-03-20T17:33:29Z</time>
      </trkpt>
      <trkpt lat="56.31841" lon="-6.24219">
        <ele>10.89</ele>
        <time>2021-03-20T17:33:31Z</time>
      </trkpt>
      <trkpt lat="56.31884" lon="-6.24335">
        <ele>13.86</ele>
        <time>2021-03-20T17:33:33Z</time>
      </trkpt>
      <trkpt lat="56.319" lon="-6.24391">
        <ele>12.06</ele>
        <time>2021-03-20T17:33:35Z</time>
      </trkpt>
      <trkpt lat="56.31907" lon="-6.24446">
        <ele>10.72</ele>
        <time>2021-03-20T17:33:37Z</time>
      </trkpt>
      <trkpt lat="56.31907" lon="-6.24516">
        <ele>11.52</ele>
        <time>2021-03-20T17:33:40Z</time>
      </trkpt>
      <trkpt lat="56.31903" lon="-6.24534">
        <ele>12.67</ele>
        <time>2021-03-20T17:33:42Z</time>
      </trkpt>
      <trkpt lat="56.31886" lon="-6.24573">
        <ele>16.27</ele>
        <time>2021-03-20T17:33:44Z</time>
      </trkpt>
      <trkpt lat="56.3187" lon="-6.24621">
        <ele>11.15</ele>
        <time>2021-03-20T17:33:46Z</time>
      </trkpt>
      <trkpt lat="56.31858" lon="-6.2468">
        <ele>3.38</ele>
        <time>2021-03-20T17:33:48Z</time>
      </trkpt>
      <trkpt lat="56.31853" lon="-6.24714">
        <ele>3.65</ele>
        <time>2021-03-20T17:33:50Z</time>
      </trkpt>
      <trkpt lat="56.31853" lon="-6.24714">
        <ele>3.65</ele>
        <time>2021-03-20T17:33:50Z</time>
      </trkpt>
      <trkpt lat="56.31848" lon="-6.24746">
        <ele>3.93</ele>
        <time>2021-03-20T17:33:54Z</time>
      </trkpt>
      <trkpt lat="56.31841" lon="-6.24776">
        <ele>4.21</ele>
        <time>2021-03-20T17:33:58Z</time>
      </trkpt>
      <trkpt lat="56.31832" lon="-6.248">
        <ele>5.9</ele>
        <time>2021-03-20T17:34:02Z</time>
      </trkpt>
      <trkpt lat="56.31807" lon="-6.24839">
        <ele>8.35</ele>
        <time>2021-03-20T17:34:06Z</time>
      </trkpt>
      <trkpt lat="56.31791" lon="-6.24856">
        <ele>11.25</ele>
        <time>2021-03-20T17:34:10Z</time>
      </trkpt>
      <trkpt lat="56.31774" lon="-6.24864">
        <ele>13.68</ele>
        <time>2021-03-20T17:34:14Z</time>
      </trkpt>
      <trkpt lat="56.31719" lon="-6.24861">
        <ele>21.23</ele>
        <time>2021-03-20T17:34:18Z</time>
      </trkpt>
      <trkpt lat="56.31702" lon="-6.24866">
        <ele>22.49</ele>
        <time>2021-03-20T17:34:22Z</time>
      </trkpt>
      <trkpt lat="56.31673" lon="-6.24892">
        <ele>23.9</ele>
        <time>2021-03-20T17:34:26Z</time>
      </trkpt>
      <trkpt lat="56.3166" lon="-6.24908">
        <ele>24.6</ele>
        <time>2021-03-20T17:34:30Z</time>
      </trkpt>
      <trkpt lat="56.31647" lon="-6.24927">
        <ele>24.42</ele>
        <time>2021-03-20T17:34:34Z</time>
      </trkpt>
      <trkpt lat="56.31631" lon="-6.2496">
        <ele>25.42</ele>
        <time>2021-03-20T17:34:38Z</time>
      </trkpt>
      <trkpt lat="56.31597" lon="-6.25">
        <ele>28</ele>
        <time>2021-03-20T17:34:42Z</time>
      </trkpt>
      <trkpt lat="56.31522" lon="-6.25067">
        <ele>30.78</ele>
        <time>2021-03-20T17:34:46Z</time>
      </trkpt>
      <trkpt lat="56.31448" lon="-6.25126">
        <ele>33.21</ele>
        <time>2021-03-20T17:34:50Z</time>
      </trkpt>
      <trkpt lat="56.31418" lon="-6.25158">
        <ele>32.81</ele>
        <time>2021-03-20T17:34:54Z</time>
      </trkpt>
      <trkpt lat="56.31406" lon="-6.25175">
        <ele>32.91</ele>
        <time>2021-03-20T17:34:58Z</time>
      </trkpt>
      <trkpt lat="56.31392" lon="-6.25214">
        <ele>33.1</ele>
        <time>2021-03-20T17:35:02Z</time>
      </trkpt>
      <trkpt lat="56.31385" lon="-6.25274">
        <ele>33</ele>
        <time>2021-03-20T17:35:06Z</time>
      </trkpt>
      <trkpt lat="56.31389" lon="-6.25314">
        <ele>33.01</ele>
        <time>2021-03-20T17:35:10Z</time>
      </trkpt>
      <trkpt lat="56.31412" lon="-6.25432">
        <ele>36.07</ele>
        <time>2021-03-20T17:35:14Z</time>
      </trkpt>
      <trkpt lat="56.31434" lon="-6.25482">
        <ele>39.56</ele>
        <time>2021-03-20T17:35:18Z</time>
      </trkpt>
      <trkpt lat="56.31471" lon="-6.25538">
        <ele>43.36</ele>
        <time>2021-03-20T17:35:22Z</time>
      </trkpt>
      <trkpt lat="56.31506" lon="-6.25576">
        <ele>43.5</ele>
        <time>2021-03-20T17:35:26Z</time>
      </trkpt>
      <trkpt lat="56.31551" lon="-6.25618">
        <ele>43.41</ele>
        <time>2021-03-20T17:35:30Z</time>
      </trkpt>
      <trkpt lat="56.31582" lon="-6.25659">
        <ele>42.12</ele>
        <time>2021-03-20T17:35:34Z</time>
      </trkpt>
      <trkpt lat="56.31605" lon="-6.25716">
        <ele>39.6</ele>
        <time>2021-03-20T17:35:38Z</time>
      </trkpt>
      <trkpt lat="56.31629" lon="-6.25792">
        <ele>37.66</ele>
        <time>2021-03-20T17:35:42Z</time>
      </trkpt>
      <trkpt lat="56.31652" lon="-6.25882">
        <ele>34.76</ele>
        <time>2021-03-20T17:35:46Z</time>
      </trkpt>
      <trkpt lat="56.3171" lon="-6.26192">
        <ele>18.89</ele>
        <time>2021-03-20T17:35:50Z</time>
      </trkpt>
      <trkpt lat="56.31734" lon="-6.26354">
        <ele>14.31</ele>
        <time>2021-03-20T17:35:54Z</time>
      </trkpt>
      <trkpt lat="56.31732" lon="-6.26425">
        <ele>15.27</ele>
        <time>2021-03-20T17:35:58Z</time>
      </trkpt>
      <trkpt lat="56.31705" lon="-6.26909">
        <ele>10.88</ele>
        <time>2021-03-20T17:36:02Z</time>
      </trkpt>
      <trkpt lat="56.31708" lon="-6.27008">
        <ele>9.13</ele>
        <time>2021-03-20T17:36:06Z</time>
      </trkpt>
      <trkpt lat="56.3172" lon="-6.27102">
        <ele>10.92</ele>
        <time>2021-03-20T17:36:10Z</time>
      </trkpt>
      <trkpt lat="56.31736" lon="-6.27181">
        <ele>15.29</ele>
        <time>2021-03-20T17:36:14Z</time>
      </trkpt>
      <trkpt lat="56.31812" lon="-6.27441">
        <ele>24.75</ele>
        <time>2021-03-20T17:36:18Z</time>
      </trkpt>
      <trkpt lat="56.31835" lon="-6.27509">
        <ele>25.92</ele>
        <time>2021-03-20T17:36:21Z</time>
      </trkpt>
      <trkpt lat="56.31856" lon="-6.27596">
        <ele>25</ele>
        <time>2021-03-20T17:36:25Z</time>
      </trkpt>
      <trkpt lat="56.31928" lon="-6.27963">
        <ele>23.25</ele>
        <time>2021-03-20T17:36:29Z</time>
      </trkpt>
      <trkpt lat="56.31941" lon="-6.28043">
        <ele>24.62</ele>
        <time>2021-03-20T17:36:33Z</time>
      </trkpt>
      <trkpt lat="56.31954" lon="-6.28104">
        <ele>25</ele>
        <time>2021-03-20T17:36:37Z</time>
      </trkpt>
      <trkpt lat="56.32007" lon="-6.28313">
        <ele>24.81</ele>
        <time>2021-03-20T17:36:41Z</time>
      </trkpt>
      <trkpt lat="56.32028" lon="-6.2841">
        <ele>22.27</ele>
        <time>2021-03-20T17:36:45Z</time>
      </trkpt>
      <trkpt lat="56.32055" lon="-6.28568">
        <ele>18.52</ele>
        <time>2021-03-20T17:36:49Z</time>
      </trkpt>
      <trkpt lat="56.32072" lon="-6.28648">
        <ele>17.85</ele>
        <time>2021-03-20T17:36:53Z</time>
      </trkpt>
      <trkpt lat="56.321" lon="-6.28732">
        <ele>18.52</ele>
        <time>2021-03-20T17:36:57Z</time>
      </trkpt>
      <trkpt lat="56.3219" lon="-6.28952">
        <ele>18.23</ele>
        <time>2021-03-20T17:37:01Z</time>
      </trkpt>
      <trkpt lat="56.32247" lon="-6.29107">
        <ele>19.27</ele>
        <time>2021-03-20T17:37:05Z</time>
      </trkpt>
      <trkpt lat="56.32337" lon="-6.2942">
        <ele>19.65</ele>
        <time>2021-03-20T17:37:09Z</time>
      </trkpt>
      <trkpt lat="56.3237" lon="-6.29546">
        <ele>17</ele>
        <time>2021-03-20T17:37:13Z</time>
      </trkpt>
      <trkpt lat="56.32391" lon="-6.29648">
        <ele>14.64</ele>
        <time>2021-03-20T17:37:17Z</time>
      </trkpt>
      <trkpt lat="56.32422" lon="-6.29906">
        <ele>12.07</ele>
        <time>2021-03-20T17:37:21Z</time>
      </trkpt>
      <trkpt lat="56.32471" lon="-6.30341">
        <ele>13.82</ele>
        <time>2021-03-20T17:37:25Z</time>
      </trkpt>
      <trkpt lat="56.32479" lon="-6.30433">
        <ele>12.77</ele>
        <time>2021-03-20T17:37:29Z</time>
      </trkpt>
      <trkpt lat="56.32481" lon="-6.30523">
        <ele>13.67</ele>
        <time>2021-03-20T17:37:33Z</time>
      </trkpt>
      <trkpt lat="56.32478" lon="-6.30613">
        <ele>13.72</ele>
        <time>2021-03-20T17:37:37Z</time>
      </trkpt>
      <trkpt lat="56.32457" lon="-6.3098">
        <ele>18.1</ele>
        <time>2021-03-20T17:37:41Z</time>
      </trkpt>
      <trkpt lat="56.3248" lon="-6.3233">
        <ele>26.46</ele>
        <time>2021-03-20T17:37:45Z</time>
      </trkpt>
      <trkpt lat="56.32475" lon="-6.32416">
        <ele>26.03</ele>
        <time>2021-03-20T17:37:49Z</time>
      </trkpt>
      <trkpt lat="56.32457" lon="-6.32492">
        <ele>24.23</ele>
        <time>2021-03-20T17:37:53Z</time>
      </trkpt>
      <trkpt lat="56.32415" lon="-6.32651">
        <ele>19</ele>
        <time>2021-03-20T17:37:57Z</time>
      </trkpt>
      <trkpt lat="56.32409" lon="-6.32691">
        <ele>18.37</ele>
        <time>2021-03-20T17:38:01Z</time>
      </trkpt>
      <trkpt lat="56.32404" lon="-6.32734">
        <ele>18.44</ele>
        <time>2021-03-20T17:38:05Z</time>
      </trkpt>
      <trkpt lat="56.32406" lon="-6.32777">
        <ele>18.39</ele>
        <time>2021-03-20T17:38:09Z</time>
      </trkpt>
      <trkpt lat="56.32422" lon="-6.32927">
        <ele>21.8</ele>
        <time>2021-03-20T17:38:13Z</time>
      </trkpt>
      <trkpt lat="56.32465" lon="-6.33263">
        <ele>21</ele>
        <time>2021-03-20T17:38:17Z</time>
      </trkpt>
      <trkpt lat="56.32472" lon="-6.33337">
        <ele>20.14</ele>
        <time>2021-03-20T17:38:21Z</time>
      </trkpt>
      <trkpt lat="56.32484" lon="-6.33556">
        <ele>19.41</ele>
        <time>2021-03-20T17:38:25Z</time>
      </trkpt>
      <trkpt lat="56.32508" lon="-6.33843">
        <ele>16.22</ele>
        <time>2021-03-20T17:38:29Z</time>
      </trkpt>
      <trkpt lat="56.32509" lon="-6.33931">
        <ele>14.31</ele>
        <time>2021-03-20T17:38:33Z</time>
      </trkpt>
      <trkpt lat="56.32504" lon="-6.34438">
        <ele>14.16</ele>
        <time>2021-03-20T17:38:37Z</time>
      </trkpt>
      <trkpt lat="56.32506" lon="-6.34503">
        <ele>13.11</ele>
        <time>2021-03-20T17:38:41Z</time>
      </trkpt>
      <trkpt lat="56.32513" lon="-6.34699">
        <ele>14</ele>
        <time>2021-03-20T17:38:45Z</time>
      </trkpt>
      <trkpt lat="56.32513" lon="-6.34732">
        <ele>14.16</ele>
        <time>2021-03-20T17:38:49Z</time>
      </trkpt>
      <trkpt lat="56.3251" lon="-6.34778">
        <ele>14.37</ele>
        <time>2021-03-20T17:38:53Z</time>
      </trkpt>
      <trkpt lat="56.32502" lon="-6.34863">
        <ele>14.06</ele>
        <time>2021-03-20T17:38:57Z</time>
      </trkpt>
      <trkpt lat="56.32483" lon="-6.35012">
        <ele>16.44</ele>
        <time>2021-03-20T17:39:01Z</time>
      </trkpt>
      <trkpt lat="56.32472" lon="-6.35078">
        <ele>16.19</ele>
        <time>2021-03-20T17:39:05Z</time>
      </trkpt>
      <trkpt lat="56.32406" lon="-6.35427">
        <ele>17.61</ele>
        <time>2021-03-20T17:39:09Z</time>
      </trkpt>
      <trkpt lat="56.32395" lon="-6.35497">
        <ele>18</ele>
        <time>2021-03-20T17:39:13Z</time>
      </trkpt>
      <trkpt lat="56.32389" lon="-6.35554">
        <ele>17</ele>
        <time>2021-03-20T17:39:17Z</time>
      </trkpt>
      <trkpt lat="56.3238" lon="-6.35694">
        <ele>15.69</ele>
        <time>2021-03-20T17:39:21Z</time>
      </trkpt>
      <trkpt lat="56.32386" lon="-6.35779">
        <ele>14.94</ele>
        <time>2021-03-20T17:39:25Z</time>
      </trkpt>
      <trkpt lat="56.32398" lon="-6.35883">
        <ele>15</ele>
        <time>2021-03-20T17:39:29Z</time>
      </trkpt>
      <trkpt lat="56.32406" lon="-6.35927">
        <ele>15</ele>
        <time>2021-03-20T17:39:33Z</time>
      </trkpt>
      <trkpt lat="56.32417" lon="-6.35977">
        <ele>15</ele>
        <time>2021-03-20T17:39:37Z</time>
      </trkpt>
      <trkpt lat="56.32457" lon="-6.3614">
        <ele>16.08</ele>
        <time>2021-03-20T17:39:41Z</time>
      </trkpt>
      <trkpt lat="56.32474" lon="-6.36223">
        <ele>15.89</ele>
        <time>2021-03-20T17:39:45Z</time>
      </trkpt>
      <trkpt lat="56.32478" lon="-6.36263">
        <ele>16.16</ele>
        <time>2021-03-20T17:39:49Z</time>
      </trkpt>
      <trkpt lat="56.32489" lon="-6.36435">
        <ele>16.15</ele>
        <time>2021-03-20T17:39:53Z</time>
      </trkpt>
      <trkpt lat="56.32495" lon="-6.36501">
        <ele>15.3</ele>
        <time>2021-03-20T17:39:57Z</time>
      </trkpt>
      <trkpt lat="56.32525" lon="-6.36685">
        <ele>7.75</ele>
        <time>2021-03-20T17:40:01Z</time>
      </trkpt>
      <trkpt lat="56.32529" lon="-6.36738">
        <ele>6.84</ele>
        <time>2021-03-20T17:40:05Z</time>
      </trkpt>
      <trkpt lat="56.32532" lon="-6.36896">
        <ele>6.18</ele>
        <time>2021-03-20T17:40:09Z</time>
      </trkpt>
      <trkpt lat="56.32532" lon="-6.36896">
        <ele>6.18</ele>
        <time>2021-03-20T17:40:09Z</time>
      </trkpt>
      <trkpt lat="56.32532" lon="-6.36928">
        <ele>5.52</ele>
        <time>2021-03-20T17:40:11Z</time>
      </trkpt>
      <trkpt lat="56.32534" lon="-6.3694">
        <ele>5.3</ele>
        <time>2021-03-20T17:40:14Z</time>
      </trkpt>
      <trkpt lat="56.32542" lon="-6.36956">
        <ele>4.7</ele>
        <time>2021-03-20T17:40:16Z</time>
      </trkpt>
      <trkpt lat="56.3259" lon="-6.37021">
        <ele>1.77</ele>
        <time>2021-03-20T17:40:18Z</time>
      </trkpt>
      <trkpt lat="56.3259" lon="-6.37021">
        <ele>1.77</ele>
        <time>2021-03-20T17:40:18Z</time>
      </trkpt>
      <trkpt lat="56.3259" lon="-6.37021">
        <ele>1.77</ele>
        <time>2021-03-20T17:40:18Z</time>
      </trkpt>
      <trkpt lat="56.3259" lon="-6.37021">
        <ele>1.77</ele>
        <time>2021-03-20T17:40:18Z</time>
      </trkpt>
      <trkpt lat="56.32542" lon="-6.36956">
        <ele>4.7</ele>
        <time>2021-03-20T17:40:21Z</time>
      </trkpt>
      <trkpt lat="56.32534" lon="-6.3694">
        <ele>5.3</ele>
        <time>2021-03-20T17:40:24Z</time>
      </trkpt>
      <trkpt lat="56.32532" lon="-6.36928">
        <ele>5.52</ele>
        <time>2021-03-20T17:40:27Z</time>
      </trkpt>
      <trkpt lat="56.32529" lon="-6.36738">
        <ele>6.84</ele>
        <time>2021-03-20T17:40:30Z</time>
      </trkpt>
      <trkpt lat="56.32525" lon="-6.36685">
        <ele>7.75</ele>
        <time>2021-03-20T17:40:33Z</time>
      </trkpt>
      <trkpt lat="56.32495" lon="-6.36501">
        <ele>15.3</ele>
        <time>2021-03-20T17:40:37Z</time>
      </trkpt>
      <trkpt lat="56.32489" lon="-6.36435">
        <ele>16.15</ele>
        <time>2021-03-20T17:40:40Z</time>
      </trkpt>
      <trkpt lat="56.32478" lon="-6.36263">
        <ele>16.16</ele>
        <time>2021-03-20T17:40:43Z</time>
      </trkpt>
      <trkpt lat="56.32474" lon="-6.36223">
        <ele>15.89</ele>
        <time>2021-03-20T17:40:46Z</time>
      </trkpt>
      <trkpt lat="56.32457" lon="-6.3614">
        <ele>16.08</ele>
        <time>2021-03-20T17:40:49Z</time>
      </trkpt>
      <trkpt lat="56.32417" lon="-6.35977">
        <ele>15</ele>
        <time>2021-03-20T17:40:52Z</time>
      </trkpt>
      <trkpt lat="56.32406" lon="-6.35927">
        <ele>15</ele>
        <time>2021-03-20T17:40:55Z</time>
      </trkpt>
      <trkpt lat="56.32398" lon="-6.35883">
        <ele>15</ele>
        <time>2021-03-20T17:40:58Z</time>
      </trkpt>
      <trkpt lat="56.32386" lon="-6.35779">
        <ele>14.94</ele>
        <time>2021-03-20T17:41:01Z</time>
      </trkpt>
      <trkpt lat="56.32397" lon="-6.35772">
        <ele>15.29</ele>
        <time>2021-03-20T17:41:10Z</time>
      </trkpt>
      <trkpt lat="56.3241" lon="-6.35732">
        <ele>16.44</ele>
        <time>2021-03-20T17:41:20Z</time>
      </trkpt>
      <trkpt lat="56.32417" lon="-6.35719">
        <ele>17.02</ele>
        <time>2021-03-20T17:41:29Z</time>
      </trkpt>
      <trkpt lat="56.32453" lon="-6.35698">
        <ele>18</ele>
        <time>2021-03-20T17:41:39Z</time>
      </trkpt>
      <trkpt lat="56.32486" lon="-6.35666">
        <ele>18</ele>
        <time>2021-03-20T17:41:48Z</time>
      </trkpt>
      <trkpt lat="56.32532" lon="-6.35642">
        <ele>16.84</ele>
        <time>2021-03-20T17:41:58Z</time>
      </trkpt>
      <trkpt lat="56.32566" lon="-6.35643">
        <ele>15.23</ele>
        <time>2021-03-20T17:42:07Z</time>
      </trkpt>
      <trkpt lat="56.32587" lon="-6.35633">
        <ele>14.22</ele>
        <time>2021-03-20T17:42:17Z</time>
      </trkpt>
      <trkpt lat="56.32612" lon="-6.35611">
        <ele>15</ele>
        <time>2021-03-20T17:42:26Z</time>
      </trkpt>
      <trkpt lat="56.32627" lon="-6.35604">
        <ele>15</ele>
        <time>2021-03-20T17:42:36Z</time>
      </trkpt>
      <trkpt lat="56.32646" lon="-6.35605">
        <ele>15.27</ele>
        <time>2021-03-20T17:42:45Z</time>
      </trkpt>
      <trkpt lat="56.32661" lon="-6.35623">
        <ele>15.37</ele>
        <time>2021-03-20T17:42:55Z</time>
      </trkpt>
      <trkpt lat="56.32795" lon="-6.35855">
        <ele>21.26</ele>
        <time>2021-03-20T17:43:04Z</time>
      </trkpt>
      <trkpt lat="56.32801" lon="-6.35875">
        <ele>21.7</ele>
        <time>2021-03-20T17:43:14Z</time>
      </trkpt>
      <trkpt lat="56.32805" lon="-6.35908">
        <ele>22.69</ele>
        <time>2021-03-20T17:43:23Z</time>
      </trkpt>
      <trkpt lat="56.32809" lon="-6.35921">
        <ele>23.24</ele>
        <time>2021-03-20T17:43:32Z</time>
      </trkpt>
      <trkpt lat="56.32841" lon="-6.35965">
        <ele>27.27</ele>
        <time>2021-03-20T17:43:42Z</time>
      </trkpt>
      <trkpt lat="56.32855" lon="-6.35973">
        <ele>28.56</ele>
        <time>2021-03-20T17:43:51Z</time>
      </trkpt>
      <trkpt lat="56.32866" lon="-6.35984">
        <ele>30</ele>
        <time>2021-03-20T17:44:01Z</time>
      </trkpt>
      <trkpt lat="56.32898" lon="-6.36041">
        <ele>36.13</ele>
        <time>2021-03-20T17:44:10Z</time>
      </trkpt>
      <trkpt lat="56.32904" lon="-6.36055">
        <ele>37.69</ele>
        <time>2021-03-20T17:44:20Z</time>
      </trkpt>
      <trkpt lat="56.32908" lon="-6.36073">
        <ele>38.65</ele>
        <time>2021-03-20T17:44:29Z</time>
      </trkpt>
      <trkpt lat="56.32913" lon="-6.36084">
        <ele>40.08</ele>
        <time>2021-03-20T17:44:39Z</time>
      </trkpt>
      <trkpt lat="56.32922" lon="-6.36084">
        <ele>42.07</ele>
        <time>2021-03-20T17:44:48Z</time>
      </trkpt>
      <trkpt lat="56.32937" lon="-6.36071">
        <ele>44.59</ele>
        <time>2021-03-20T17:44:58Z</time>
      </trkpt>
      <trkpt lat="56.32957" lon="-6.36072">
        <ele>47.89</ele>
        <time>2021-03-20T17:45:07Z</time>
      </trkpt>
      <trkpt lat="56.32981" lon="-6.36086">
        <ele>52.41</ele>
        <time>2021-03-20T17:45:17Z</time>
      </trkpt>
      <trkpt lat="56.33027" lon="-6.36131">
        <ele>59.37</ele>
        <time>2021-03-20T17:45:26Z</time>
      </trkpt>
      <trkpt lat="56.33042" lon="-6.36139">
        <ele>59.52</ele>
        <time>2021-03-20T17:45:36Z</time>
      </trkpt>
      <trkpt lat="56.33045" lon="-6.36126">
        <ele>58.46</ele>
        <time>2021-03-20T17:45:59Z</time>
      </trkpt>
      <trkpt lat="56.33055" lon="-6.36114">
        <ele>57.22</ele>
        <time>2021-03-20T17:46:22Z</time>
      </trkpt>
      <trkpt lat="56.33079" lon="-6.36108">
        <ele>55.4</ele>
        <time>2021-03-20T17:46:46Z</time>
      </trkpt>
      <trkpt lat="56.3309" lon="-6.36115">
        <ele>54.62</ele>
        <time>2021-03-20T17:47:09Z</time>
      </trkpt>
      <trkpt lat="56.33101" lon="-6.3613">
        <ele>53.56</ele>
        <time>2021-03-20T17:47:32Z</time>
      </trkpt>
      <trkpt lat="56.33143" lon="-6.3617">
        <ele>45.44</ele>
        <time>2021-03-20T17:47:56Z</time>
      </trkpt>
      <trkpt lat="56.33147" lon="-6.36184">
        <ele>44.25</ele>
        <time>2021-03-20T17:48:19Z</time>
      </trkpt>
      <trkpt lat="56.33134" lon="-6.36248">
        <ele>45.29</ele>
        <time>2021-03-20T17:48:42Z</time>
      </trkpt>
      <trkpt lat="56.33141" lon="-6.36281">
        <ele>43.6</ele>
        <time>2021-03-20T17:49:06Z</time>
      </trkpt>
      <trkpt lat="56.3314" lon="-6.36295">
        <ele>43.24</ele>
        <time>2021-03-20T17:49:29Z</time>
      </trkpt>
      <trkpt lat="56.33146" lon="-6.3631">
        <ele>41.99</ele>
        <time>2021-03-20T17:49:52Z</time>
      </trkpt>
      <trkpt lat="56.33161" lon="-6.3633">
        <ele>39.89</ele>
        <time>2021-03-20T17:50:16Z</time>
      </trkpt>
      <trkpt lat="56.33176" lon="-6.36391">
        <ele>37.34</ele>
        <time>2021-03-20T17:50:39Z</time>
      </trkpt>
      <trkpt lat="56.33226" lon="-6.36569">
        <ele>22.35</ele>
        <time>2021-03-20T17:51:02Z</time>
      </trkpt>
      <trkpt lat="56.33244" lon="-6.36623">
        <ele>15.11</ele>
        <time>2021-03-20T17:51:26Z</time>
      </trkpt>
      <trkpt lat="56.33256" lon="-6.36669">
        <ele>11.81</ele>
        <time>2021-03-20T17:51:49Z</time>
      </trkpt>
      <trkpt lat="56.33266" lon="-6.367">
        <ele>8.98</ele>
        <time>2021-03-20T17:52:12Z</time>
      </trkpt>
      <trkpt lat="56.33271" lon="-6.36731">
        <ele>6.64</ele>
        <time>2021-03-20T17:52:35Z</time>
      </trkpt>
      <trkpt lat="56.33271" lon="-6.36769">
        <ele>3.9</ele>
        <time>2021-03-20T17:52:59Z</time>
      </trkpt>
      <trkpt lat="56.33267" lon="-6.36793">
        <ele>2.85</ele>
        <time>2021-03-20T17:53:22Z</time>
      </trkpt>
      <trkpt lat="56.33267" lon="-6.36793">
        <ele>2.85</ele>
        <time>2021-03-20T17:53:22Z</time>
      </trkpt>
    </trkseg>
  </trk>
</gpx>